<?xml version="1.0" encoding="UTF-8" standalone="no" ?>
<gpx xmlns="http://www.topografix.com/GPX/1/1" xmlns:xsi="http://www.w3.org/2001/XMLSchema-instance" xsi:schemaLocation="http://www.topografix.com/GPX/1/1 http://www.topografix.com/GPX/1/1/gpx.xsd" version="1.1" creator="VisuGPX - https://www.visugpx.com">
  <metadata>
    <name>Sun Trip 2019</name>
    <desc><![CDATA[Le parcours du Sun Trip 2019]]></desc>
  </metadata>
  <trk>
    <name><![CDATA[J8]]></name>
    <trkseg>
      <trkpt lat="45.9249" lon="6.87175">
        <ele>1036</ele>
        <time>2019-04-17T10:29:42Z</time>
      </trkpt>
      <trkpt lat="45.92525" lon="6.86995">
        <ele>1044</ele>
        <time>2019-04-17T10:30:42Z</time>
      </trkpt>
      <trkpt lat="45.9253" lon="6.86982">
        <ele>1044</ele>
        <time>2019-04-17T10:31:42Z</time>
      </trkpt>
      <trkpt lat="45.92553" lon="6.86854">
        <ele>1047</ele>
        <time>2019-04-17T10:32:42Z</time>
      </trkpt>
      <trkpt lat="45.92554" lon="6.86843">
        <ele>1047</ele>
        <time>2019-04-17T10:33:42Z</time>
      </trkpt>
      <trkpt lat="45.92551" lon="6.86832">
        <ele>1048</ele>
        <time>2019-04-17T10:34:42Z</time>
      </trkpt>
      <trkpt lat="45.92546" lon="6.86824">
        <ele>1049</ele>
        <time>2019-04-17T10:35:42Z</time>
      </trkpt>
      <trkpt lat="45.9254" lon="6.86817">
        <ele>1050</ele>
        <time>2019-04-17T10:36:42Z</time>
      </trkpt>
      <trkpt lat="45.92434" lon="6.86774">
        <ele>1050</ele>
        <time>2019-04-17T10:37:42Z</time>
      </trkpt>
      <trkpt lat="45.92396" lon="6.86761">
        <ele>1049</ele>
        <time>2019-04-17T10:38:42Z</time>
      </trkpt>
      <trkpt lat="45.92378" lon="6.86757">
        <ele>1048</ele>
        <time>2019-04-17T10:39:42Z</time>
      </trkpt>
      <trkpt lat="45.92367" lon="6.86756">
        <ele>1048</ele>
        <time>2019-04-17T10:40:42Z</time>
      </trkpt>
      <trkpt lat="45.92364" lon="6.8675">
        <ele>1048</ele>
        <time>2019-04-17T10:41:42Z</time>
      </trkpt>
      <trkpt lat="45.92357" lon="6.86745">
        <ele>1049</ele>
        <time>2019-04-17T10:42:42Z</time>
      </trkpt>
      <trkpt lat="45.92352" lon="6.86747">
        <ele>1048</ele>
        <time>2019-04-17T10:43:42Z</time>
      </trkpt>
      <trkpt lat="45.92347" lon="6.86757">
        <ele>1048</ele>
        <time>2019-04-17T10:44:42Z</time>
      </trkpt>
      <trkpt lat="45.92341" lon="6.86757">
        <ele>1048</ele>
        <time>2019-04-17T10:45:42Z</time>
      </trkpt>
      <trkpt lat="45.92332" lon="6.86755">
        <ele>1048</ele>
        <time>2019-04-17T10:46:42Z</time>
      </trkpt>
      <trkpt lat="45.92304" lon="6.86733">
        <ele>1049</ele>
        <time>2019-04-17T10:47:42Z</time>
      </trkpt>
      <trkpt lat="45.92295" lon="6.86728">
        <ele>1050</ele>
        <time>2019-04-17T10:48:42Z</time>
      </trkpt>
      <trkpt lat="45.9224" lon="6.86725">
        <ele>1049</ele>
        <time>2019-04-17T10:49:42Z</time>
      </trkpt>
      <trkpt lat="45.92227" lon="6.86722">
        <ele>1049</ele>
        <time>2019-04-17T10:50:42Z</time>
      </trkpt>
      <trkpt lat="45.92205" lon="6.86712">
        <ele>1050</ele>
        <time>2019-04-17T10:51:42Z</time>
      </trkpt>
      <trkpt lat="45.92119" lon="6.86666">
        <ele>1048</ele>
        <time>2019-04-17T10:52:42Z</time>
      </trkpt>
      <trkpt lat="45.92104" lon="6.86653">
        <ele>1046</ele>
        <time>2019-04-17T10:53:42Z</time>
      </trkpt>
      <trkpt lat="45.92094" lon="6.86642">
        <ele>1046</ele>
        <time>2019-04-17T10:54:42Z</time>
      </trkpt>
      <trkpt lat="45.9206" lon="6.86593">
        <ele>1045</ele>
        <time>2019-04-17T10:55:42Z</time>
      </trkpt>
      <trkpt lat="45.92032" lon="6.86566">
        <ele>1045</ele>
        <time>2019-04-17T10:56:42Z</time>
      </trkpt>
      <trkpt lat="45.92015" lon="6.86553">
        <ele>1045</ele>
        <time>2019-04-17T10:57:42Z</time>
      </trkpt>
      <trkpt lat="45.91994" lon="6.86548">
        <ele>1043</ele>
        <time>2019-04-17T10:58:42Z</time>
      </trkpt>
      <trkpt lat="45.91921" lon="6.86537">
        <ele>1037</ele>
        <time>2019-04-17T10:59:42Z</time>
      </trkpt>
      <trkpt lat="45.91918" lon="6.86527">
        <ele>1037</ele>
        <time>2019-04-17T11:00:42Z</time>
      </trkpt>
      <trkpt lat="45.91913" lon="6.86522">
        <ele>1037</ele>
        <time>2019-04-17T11:01:42Z</time>
      </trkpt>
      <trkpt lat="45.91906" lon="6.86523">
        <ele>1036</ele>
        <time>2019-04-17T11:02:42Z</time>
      </trkpt>
      <trkpt lat="45.91903" lon="6.86525">
        <ele>1036</ele>
        <time>2019-04-17T11:03:42Z</time>
      </trkpt>
      <trkpt lat="45.91894" lon="6.86502">
        <ele>1036</ele>
        <time>2019-04-17T11:04:42Z</time>
      </trkpt>
      <trkpt lat="45.91839" lon="6.86422">
        <ele>1035</ele>
        <time>2019-04-17T11:05:42Z</time>
      </trkpt>
      <trkpt lat="45.91807" lon="6.86356">
        <ele>1035</ele>
        <time>2019-04-17T11:06:42Z</time>
      </trkpt>
      <trkpt lat="45.91786" lon="6.86298">
        <ele>1035</ele>
        <time>2019-04-17T11:07:42Z</time>
      </trkpt>
      <trkpt lat="45.91758" lon="6.86204">
        <ele>1034</ele>
        <time>2019-04-17T11:08:42Z</time>
      </trkpt>
      <trkpt lat="45.91724" lon="6.86102">
        <ele>1037</ele>
        <time>2019-04-17T11:09:42Z</time>
      </trkpt>
      <trkpt lat="45.91651" lon="6.85808">
        <ele>1031</ele>
        <time>2019-04-17T11:10:42Z</time>
      </trkpt>
      <trkpt lat="45.91616" lon="6.85636">
        <ele>1031</ele>
        <time>2019-04-17T11:11:42Z</time>
      </trkpt>
      <trkpt lat="45.9161" lon="6.85583">
        <ele>1032</ele>
        <time>2019-04-17T11:12:42Z</time>
      </trkpt>
      <trkpt lat="45.91609" lon="6.85532">
        <ele>1030</ele>
        <time>2019-04-17T11:13:42Z</time>
      </trkpt>
      <trkpt lat="45.91615" lon="6.85489">
        <ele>1030</ele>
        <time>2019-04-17T11:14:42Z</time>
      </trkpt>
      <trkpt lat="45.91621" lon="6.8541">
        <ele>1029</ele>
        <time>2019-04-17T11:15:42Z</time>
      </trkpt>
      <trkpt lat="45.91618" lon="6.85346">
        <ele>1032</ele>
        <time>2019-04-17T11:16:42Z</time>
      </trkpt>
      <trkpt lat="45.91608" lon="6.85251">
        <ele>1030</ele>
        <time>2019-04-17T11:17:42Z</time>
      </trkpt>
      <trkpt lat="45.91607" lon="6.85195">
        <ele>1028</ele>
        <time>2019-04-17T11:18:42Z</time>
      </trkpt>
      <trkpt lat="45.91611" lon="6.85157">
        <ele>1027</ele>
        <time>2019-04-17T11:19:42Z</time>
      </trkpt>
      <trkpt lat="45.91608" lon="6.85111">
        <ele>1024</ele>
        <time>2019-04-17T11:20:42Z</time>
      </trkpt>
      <trkpt lat="45.91603" lon="6.85072">
        <ele>1024</ele>
        <time>2019-04-17T11:21:42Z</time>
      </trkpt>
      <trkpt lat="45.91589" lon="6.85005">
        <ele>1027</ele>
        <time>2019-04-17T11:22:42Z</time>
      </trkpt>
      <trkpt lat="45.91578" lon="6.84965">
        <ele>1031</ele>
        <time>2019-04-17T11:23:42Z</time>
      </trkpt>
      <trkpt lat="45.91568" lon="6.84935">
        <ele>1034</ele>
        <time>2019-04-17T11:24:42Z</time>
      </trkpt>
      <trkpt lat="45.91552" lon="6.84912">
        <ele>1034</ele>
        <time>2019-04-17T11:25:42Z</time>
      </trkpt>
      <trkpt lat="45.91533" lon="6.84891">
        <ele>1031</ele>
        <time>2019-04-17T11:26:42Z</time>
      </trkpt>
      <trkpt lat="45.91238" lon="6.84619">
        <ele>1020</ele>
        <time>2019-04-17T11:27:42Z</time>
      </trkpt>
      <trkpt lat="45.91201" lon="6.8459">
        <ele>1020</ele>
        <time>2019-04-17T11:28:42Z</time>
      </trkpt>
      <trkpt lat="45.91139" lon="6.84524">
        <ele>1028</ele>
        <time>2019-04-17T11:29:42Z</time>
      </trkpt>
      <trkpt lat="45.91097" lon="6.84458">
        <ele>1031</ele>
        <time>2019-04-17T11:30:42Z</time>
      </trkpt>
      <trkpt lat="45.91087" lon="6.84446">
        <ele>1031</ele>
        <time>2019-04-17T11:31:42Z</time>
      </trkpt>
      <trkpt lat="45.91076" lon="6.84438">
        <ele>1030</ele>
        <time>2019-04-17T11:32:42Z</time>
      </trkpt>
      <trkpt lat="45.91047" lon="6.84423">
        <ele>1027</ele>
        <time>2019-04-17T11:33:42Z</time>
      </trkpt>
      <trkpt lat="45.91034" lon="6.84412">
        <ele>1025</ele>
        <time>2019-04-17T11:34:42Z</time>
      </trkpt>
      <trkpt lat="45.9101" lon="6.84375">
        <ele>1025</ele>
        <time>2019-04-17T11:35:42Z</time>
      </trkpt>
      <trkpt lat="45.90994" lon="6.84355">
        <ele>1024</ele>
        <time>2019-04-17T11:36:42Z</time>
      </trkpt>
      <trkpt lat="45.90983" lon="6.84348">
        <ele>1024</ele>
        <time>2019-04-17T11:37:42Z</time>
      </trkpt>
      <trkpt lat="45.90975" lon="6.84347">
        <ele>1023</ele>
        <time>2019-04-17T11:38:42Z</time>
      </trkpt>
      <trkpt lat="45.90945" lon="6.84356">
        <ele>1020</ele>
        <time>2019-04-17T11:39:42Z</time>
      </trkpt>
      <trkpt lat="45.9093" lon="6.84358">
        <ele>1019</ele>
        <time>2019-04-17T11:40:42Z</time>
      </trkpt>
      <trkpt lat="45.90911" lon="6.84354">
        <ele>1019</ele>
        <time>2019-04-17T11:41:42Z</time>
      </trkpt>
      <trkpt lat="45.90902" lon="6.84349">
        <ele>1019</ele>
        <time>2019-04-17T11:42:42Z</time>
      </trkpt>
      <trkpt lat="45.90874" lon="6.84312">
        <ele>1021</ele>
        <time>2019-04-17T11:43:42Z</time>
      </trkpt>
      <trkpt lat="45.90788" lon="6.84174">
        <ele>1021</ele>
        <time>2019-04-17T11:44:42Z</time>
      </trkpt>
      <trkpt lat="45.90744" lon="6.84108">
        <ele>1022</ele>
        <time>2019-04-17T11:45:42Z</time>
      </trkpt>
      <trkpt lat="45.90611" lon="6.83886">
        <ele>1016</ele>
        <time>2019-04-17T11:46:42Z</time>
      </trkpt>
      <trkpt lat="45.90449" lon="6.83542">
        <ele>1011</ele>
        <time>2019-04-17T11:47:42Z</time>
      </trkpt>
      <trkpt lat="45.90415" lon="6.83477">
        <ele>1009</ele>
        <time>2019-04-17T11:48:42Z</time>
      </trkpt>
      <trkpt lat="45.90417" lon="6.83474">
        <ele>1009</ele>
        <time>2019-04-17T11:49:42Z</time>
      </trkpt>
      <trkpt lat="45.90417" lon="6.83464">
        <ele>1008</ele>
        <time>2019-04-17T11:50:42Z</time>
      </trkpt>
      <trkpt lat="45.90416" lon="6.8346">
        <ele>1008</ele>
        <time>2019-04-17T11:51:42Z</time>
      </trkpt>
      <trkpt lat="45.90411" lon="6.83457">
        <ele>1008</ele>
        <time>2019-04-17T11:52:42Z</time>
      </trkpt>
      <trkpt lat="45.90408" lon="6.83457">
        <ele>1008</ele>
        <time>2019-04-17T11:53:42Z</time>
      </trkpt>
      <trkpt lat="45.90399" lon="6.8343">
        <ele>1007</ele>
        <time>2019-04-17T11:54:42Z</time>
      </trkpt>
      <trkpt lat="45.90322" lon="6.83235">
        <ele>1005</ele>
        <time>2019-04-17T11:55:42Z</time>
      </trkpt>
      <trkpt lat="45.90216" lon="6.8299">
        <ele>1006</ele>
        <time>2019-04-17T11:56:42Z</time>
      </trkpt>
      <trkpt lat="45.90207" lon="6.82974">
        <ele>1006</ele>
        <time>2019-04-17T11:57:42Z</time>
      </trkpt>
      <trkpt lat="45.90191" lon="6.82953">
        <ele>1006</ele>
        <time>2019-04-17T11:58:42Z</time>
      </trkpt>
      <trkpt lat="45.90167" lon="6.82931">
        <ele>1006</ele>
        <time>2019-04-17T11:59:42Z</time>
      </trkpt>
      <trkpt lat="45.90089" lon="6.82884">
        <ele>1005</ele>
        <time>2019-04-17T12:00:42Z</time>
      </trkpt>
      <trkpt lat="45.90062" lon="6.82864">
        <ele>1005</ele>
        <time>2019-04-17T12:01:42Z</time>
      </trkpt>
      <trkpt lat="45.90033" lon="6.82835">
        <ele>1005</ele>
        <time>2019-04-17T12:02:42Z</time>
      </trkpt>
      <trkpt lat="45.90006" lon="6.82795">
        <ele>1006</ele>
        <time>2019-04-17T12:03:42Z</time>
      </trkpt>
      <trkpt lat="45.89979" lon="6.82742">
        <ele>1008</ele>
        <time>2019-04-17T12:04:42Z</time>
      </trkpt>
      <trkpt lat="45.89928" lon="6.82623">
        <ele>1006</ele>
        <time>2019-04-17T12:05:42Z</time>
      </trkpt>
      <trkpt lat="45.89856" lon="6.82497">
        <ele>1006</ele>
        <time>2019-04-17T12:06:42Z</time>
      </trkpt>
      <trkpt lat="45.89844" lon="6.82472">
        <ele>1006</ele>
        <time>2019-04-17T12:07:42Z</time>
      </trkpt>
      <trkpt lat="45.89835" lon="6.82451">
        <ele>1006</ele>
        <time>2019-04-17T12:08:42Z</time>
      </trkpt>
      <trkpt lat="45.89756" lon="6.8223">
        <ele>1006</ele>
        <time>2019-04-17T12:09:42Z</time>
      </trkpt>
      <trkpt lat="45.8973" lon="6.8217">
        <ele>1006</ele>
        <time>2019-04-17T12:10:42Z</time>
      </trkpt>
      <trkpt lat="45.89733" lon="6.82165">
        <ele>1005</ele>
        <time>2019-04-17T12:11:42Z</time>
      </trkpt>
      <trkpt lat="45.89734" lon="6.82151">
        <ele>1005</ele>
        <time>2019-04-17T12:12:42Z</time>
      </trkpt>
      <trkpt lat="45.89732" lon="6.82143">
        <ele>1005</ele>
        <time>2019-04-17T12:13:42Z</time>
      </trkpt>
      <trkpt lat="45.89728" lon="6.82139">
        <ele>1005</ele>
        <time>2019-04-17T12:14:42Z</time>
      </trkpt>
      <trkpt lat="45.89721" lon="6.82136">
        <ele>1005</ele>
        <time>2019-04-17T12:15:42Z</time>
      </trkpt>
      <trkpt lat="45.89714" lon="6.82092">
        <ele>1005</ele>
        <time>2019-04-17T12:16:42Z</time>
      </trkpt>
      <trkpt lat="45.89706" lon="6.82011">
        <ele>1006</ele>
        <time>2019-04-17T12:17:42Z</time>
      </trkpt>
      <trkpt lat="45.89708" lon="6.81968">
        <ele>1007</ele>
        <time>2019-04-17T12:18:42Z</time>
      </trkpt>
      <trkpt lat="45.89713" lon="6.81927">
        <ele>1007</ele>
        <time>2019-04-17T12:19:42Z</time>
      </trkpt>
      <trkpt lat="45.89749" lon="6.8175">
        <ele>1002</ele>
        <time>2019-04-17T12:20:42Z</time>
      </trkpt>
      <trkpt lat="45.89749" lon="6.81713">
        <ele>1003</ele>
        <time>2019-04-17T12:21:42Z</time>
      </trkpt>
      <trkpt lat="45.89748" lon="6.81699">
        <ele>1003</ele>
        <time>2019-04-17T12:22:42Z</time>
      </trkpt>
      <trkpt lat="45.89743" lon="6.81676">
        <ele>1004</ele>
        <time>2019-04-17T12:23:42Z</time>
      </trkpt>
      <trkpt lat="45.8973" lon="6.81636">
        <ele>1004</ele>
        <time>2019-04-17T12:24:42Z</time>
      </trkpt>
      <trkpt lat="45.89722" lon="6.81604">
        <ele>1004</ele>
        <time>2019-04-17T12:25:42Z</time>
      </trkpt>
      <trkpt lat="45.89712" lon="6.8154">
        <ele>1005</ele>
        <time>2019-04-17T12:26:42Z</time>
      </trkpt>
      <trkpt lat="45.89703" lon="6.81457">
        <ele>1005</ele>
        <time>2019-04-17T12:27:42Z</time>
      </trkpt>
      <trkpt lat="45.89698" lon="6.81403">
        <ele>1006</ele>
        <time>2019-04-17T12:28:42Z</time>
      </trkpt>
      <trkpt lat="45.89705" lon="6.81263">
        <ele>1003</ele>
        <time>2019-04-17T12:29:42Z</time>
      </trkpt>
      <trkpt lat="45.89703" lon="6.81216">
        <ele>1002</ele>
        <time>2019-04-17T12:30:42Z</time>
      </trkpt>
      <trkpt lat="45.89693" lon="6.81158">
        <ele>1000</ele>
        <time>2019-04-17T12:31:42Z</time>
      </trkpt>
      <trkpt lat="45.89681" lon="6.81117">
        <ele>999</ele>
        <time>2019-04-17T12:32:42Z</time>
      </trkpt>
      <trkpt lat="45.89667" lon="6.81089">
        <ele>999</ele>
        <time>2019-04-17T12:33:42Z</time>
      </trkpt>
      <trkpt lat="45.89643" lon="6.81052">
        <ele>1001</ele>
        <time>2019-04-17T12:34:42Z</time>
      </trkpt>
      <trkpt lat="45.89627" lon="6.81019">
        <ele>1002</ele>
        <time>2019-04-17T12:35:42Z</time>
      </trkpt>
      <trkpt lat="45.89612" lon="6.8098">
        <ele>1002</ele>
        <time>2019-04-17T12:36:42Z</time>
      </trkpt>
      <trkpt lat="45.89601" lon="6.80938">
        <ele>1001</ele>
        <time>2019-04-17T12:37:42Z</time>
      </trkpt>
      <trkpt lat="45.89597" lon="6.80916">
        <ele>1000</ele>
        <time>2019-04-17T12:38:42Z</time>
      </trkpt>
      <trkpt lat="45.89588" lon="6.80764">
        <ele>998</ele>
        <time>2019-04-17T12:39:42Z</time>
      </trkpt>
      <trkpt lat="45.89582" lon="6.80693">
        <ele>998</ele>
        <time>2019-04-17T12:40:42Z</time>
      </trkpt>
      <trkpt lat="45.89577" lon="6.80571">
        <ele>995</ele>
        <time>2019-04-17T12:41:42Z</time>
      </trkpt>
      <trkpt lat="45.89565" lon="6.80481">
        <ele>996</ele>
        <time>2019-04-17T12:42:42Z</time>
      </trkpt>
      <trkpt lat="45.89567" lon="6.80479">
        <ele>996</ele>
        <time>2019-04-17T12:43:42Z</time>
      </trkpt>
      <trkpt lat="45.89571" lon="6.80471">
        <ele>995</ele>
        <time>2019-04-17T12:44:42Z</time>
      </trkpt>
      <trkpt lat="45.89569" lon="6.80462">
        <ele>995</ele>
        <time>2019-04-17T12:45:42Z</time>
      </trkpt>
      <trkpt lat="45.89564" lon="6.80457">
        <ele>996</ele>
        <time>2019-04-17T12:46:42Z</time>
      </trkpt>
      <trkpt lat="45.8956" lon="6.80458">
        <ele>996</ele>
        <time>2019-04-17T12:47:42Z</time>
      </trkpt>
      <trkpt lat="45.89555" lon="6.80464">
        <ele>997</ele>
        <time>2019-04-17T12:48:42Z</time>
      </trkpt>
      <trkpt lat="45.89551" lon="6.80459">
        <ele>997</ele>
        <time>2019-04-17T12:49:42Z</time>
      </trkpt>
      <trkpt lat="45.89525" lon="6.80385">
        <ele>997</ele>
        <time>2019-04-17T12:50:42Z</time>
      </trkpt>
      <trkpt lat="45.89465" lon="6.80243">
        <ele>996</ele>
        <time>2019-04-17T12:51:42Z</time>
      </trkpt>
      <trkpt lat="45.89445" lon="6.80206">
        <ele>997</ele>
        <time>2019-04-17T12:52:42Z</time>
      </trkpt>
      <trkpt lat="45.89417" lon="6.80162">
        <ele>999</ele>
        <time>2019-04-17T12:53:42Z</time>
      </trkpt>
      <trkpt lat="45.89405" lon="6.80148">
        <ele>999</ele>
        <time>2019-04-17T12:54:42Z</time>
      </trkpt>
      <trkpt lat="45.89324" lon="6.80064">
        <ele>999</ele>
        <time>2019-04-17T12:55:42Z</time>
      </trkpt>
      <trkpt lat="45.89228" lon="6.7998">
        <ele>1004</ele>
        <time>2019-04-17T12:56:42Z</time>
      </trkpt>
      <trkpt lat="45.89195" lon="6.79926">
        <ele>1005</ele>
        <time>2019-04-17T12:57:42Z</time>
      </trkpt>
      <trkpt lat="45.8918" lon="6.79909">
        <ele>1006</ele>
        <time>2019-04-17T12:58:42Z</time>
      </trkpt>
      <trkpt lat="45.89071" lon="6.7987">
        <ele>1010</ele>
        <time>2019-04-17T12:59:42Z</time>
      </trkpt>
      <trkpt lat="45.89037" lon="6.79848">
        <ele>1011</ele>
        <time>2019-04-17T13:00:42Z</time>
      </trkpt>
      <trkpt lat="45.89003" lon="6.79817">
        <ele>1012</ele>
        <time>2019-04-17T13:01:42Z</time>
      </trkpt>
      <trkpt lat="45.88993" lon="6.79806">
        <ele>1012</ele>
        <time>2019-04-17T13:02:42Z</time>
      </trkpt>
      <trkpt lat="45.88957" lon="6.79752">
        <ele>1012</ele>
        <time>2019-04-17T13:03:42Z</time>
      </trkpt>
      <trkpt lat="45.8895" lon="6.79738">
        <ele>1012</ele>
        <time>2019-04-17T13:04:42Z</time>
      </trkpt>
      <trkpt lat="45.8894" lon="6.79702">
        <ele>1011</ele>
        <time>2019-04-17T13:05:42Z</time>
      </trkpt>
      <trkpt lat="45.88923" lon="6.79518">
        <ele>1021</ele>
        <time>2019-04-17T13:06:42Z</time>
      </trkpt>
      <trkpt lat="45.88935" lon="6.79413">
        <ele>1019</ele>
        <time>2019-04-17T13:07:42Z</time>
      </trkpt>
      <trkpt lat="45.88933" lon="6.79366">
        <ele>1015</ele>
        <time>2019-04-17T13:08:42Z</time>
      </trkpt>
      <trkpt lat="45.88923" lon="6.79229">
        <ele>1009</ele>
        <time>2019-04-17T13:09:42Z</time>
      </trkpt>
      <trkpt lat="45.88923" lon="6.79201">
        <ele>1008</ele>
        <time>2019-04-17T13:10:42Z</time>
      </trkpt>
      <trkpt lat="45.88926" lon="6.7914">
        <ele>1007</ele>
        <time>2019-04-17T13:11:42Z</time>
      </trkpt>
      <trkpt lat="45.88933" lon="6.79075">
        <ele>1007</ele>
        <time>2019-04-17T13:12:42Z</time>
      </trkpt>
      <trkpt lat="45.8894" lon="6.79042">
        <ele>1003</ele>
        <time>2019-04-17T13:13:42Z</time>
      </trkpt>
      <trkpt lat="45.88981" lon="6.78901">
        <ele>997</ele>
        <time>2019-04-17T13:14:42Z</time>
      </trkpt>
      <trkpt lat="45.88987" lon="6.78893">
        <ele>997</ele>
        <time>2019-04-17T13:15:42Z</time>
      </trkpt>
      <trkpt lat="45.88987" lon="6.78878">
        <ele>998</ele>
        <time>2019-04-17T13:16:42Z</time>
      </trkpt>
      <trkpt lat="45.89024" lon="6.78755">
        <ele>1001</ele>
        <time>2019-04-17T13:17:42Z</time>
      </trkpt>
      <trkpt lat="45.89045" lon="6.78694">
        <ele>1005</ele>
        <time>2019-04-17T13:18:42Z</time>
      </trkpt>
      <trkpt lat="45.89068" lon="6.78649">
        <ele>1008</ele>
        <time>2019-04-17T13:19:42Z</time>
      </trkpt>
      <trkpt lat="45.89088" lon="6.78618">
        <ele>1011</ele>
        <time>2019-04-17T13:20:42Z</time>
      </trkpt>
      <trkpt lat="45.89104" lon="6.78604">
        <ele>1012</ele>
        <time>2019-04-17T13:21:42Z</time>
      </trkpt>
      <trkpt lat="45.89116" lon="6.78598">
        <ele>1012</ele>
        <time>2019-04-17T13:22:42Z</time>
      </trkpt>
      <trkpt lat="45.89134" lon="6.78598">
        <ele>1010</ele>
        <time>2019-04-17T13:23:42Z</time>
      </trkpt>
      <trkpt lat="45.89173" lon="6.78604">
        <ele>1005</ele>
        <time>2019-04-17T13:24:42Z</time>
      </trkpt>
      <trkpt lat="45.89195" lon="6.78601">
        <ele>1004</ele>
        <time>2019-04-17T13:25:42Z</time>
      </trkpt>
      <trkpt lat="45.8921" lon="6.78596">
        <ele>1004</ele>
        <time>2019-04-17T13:26:42Z</time>
      </trkpt>
      <trkpt lat="45.89225" lon="6.78586">
        <ele>1005</ele>
        <time>2019-04-17T13:27:42Z</time>
      </trkpt>
      <trkpt lat="45.89274" lon="6.78525">
        <ele>1014</ele>
        <time>2019-04-17T13:28:42Z</time>
      </trkpt>
      <trkpt lat="45.89358" lon="6.78444">
        <ele>1015</ele>
        <time>2019-04-17T13:29:42Z</time>
      </trkpt>
      <trkpt lat="45.89374" lon="6.78415">
        <ele>1016</ele>
        <time>2019-04-17T13:30:42Z</time>
      </trkpt>
      <trkpt lat="45.89391" lon="6.78375">
        <ele>1016</ele>
        <time>2019-04-17T13:31:42Z</time>
      </trkpt>
      <trkpt lat="45.89402" lon="6.78358">
        <ele>1015</ele>
        <time>2019-04-17T13:32:42Z</time>
      </trkpt>
      <trkpt lat="45.89438" lon="6.78316">
        <ele>1013</ele>
        <time>2019-04-17T13:33:42Z</time>
      </trkpt>
      <trkpt lat="45.89448" lon="6.78298">
        <ele>1014</ele>
        <time>2019-04-17T13:34:42Z</time>
      </trkpt>
      <trkpt lat="45.89459" lon="6.78262">
        <ele>1015</ele>
        <time>2019-04-17T13:35:42Z</time>
      </trkpt>
      <trkpt lat="45.89479" lon="6.78184">
        <ele>1015</ele>
        <time>2019-04-17T13:36:42Z</time>
      </trkpt>
      <trkpt lat="45.89485" lon="6.78167">
        <ele>1015</ele>
        <time>2019-04-17T13:37:42Z</time>
      </trkpt>
      <trkpt lat="45.89499" lon="6.78154">
        <ele>1014</ele>
        <time>2019-04-17T13:38:42Z</time>
      </trkpt>
      <trkpt lat="45.89506" lon="6.78153">
        <ele>1014</ele>
        <time>2019-04-17T13:39:42Z</time>
      </trkpt>
      <trkpt lat="45.89508" lon="6.7815">
        <ele>1014</ele>
        <time>2019-04-17T13:40:42Z</time>
      </trkpt>
      <trkpt lat="45.89511" lon="6.78143">
        <ele>1014</ele>
        <time>2019-04-17T13:41:42Z</time>
      </trkpt>
      <trkpt lat="45.8951" lon="6.78134">
        <ele>1015</ele>
        <time>2019-04-17T13:42:42Z</time>
      </trkpt>
      <trkpt lat="45.89505" lon="6.78128">
        <ele>1016</ele>
        <time>2019-04-17T13:43:42Z</time>
      </trkpt>
      <trkpt lat="45.89501" lon="6.78107">
        <ele>1017</ele>
        <time>2019-04-17T13:44:42Z</time>
      </trkpt>
      <trkpt lat="45.89507" lon="6.7809">
        <ele>1018</ele>
        <time>2019-04-17T13:45:42Z</time>
      </trkpt>
      <trkpt lat="45.89655" lon="6.77823">
        <ele>1026</ele>
        <time>2019-04-17T13:46:42Z</time>
      </trkpt>
      <trkpt lat="45.89667" lon="6.77779">
        <ele>1028</ele>
        <time>2019-04-17T13:47:42Z</time>
      </trkpt>
      <trkpt lat="45.8971" lon="6.77333">
        <ele>1047</ele>
        <time>2019-04-17T13:48:42Z</time>
      </trkpt>
      <trkpt lat="45.89717" lon="6.77285">
        <ele>1053</ele>
        <time>2019-04-17T13:49:42Z</time>
      </trkpt>
      <trkpt lat="45.89729" lon="6.77245">
        <ele>1058</ele>
        <time>2019-04-17T13:50:42Z</time>
      </trkpt>
      <trkpt lat="45.89743" lon="6.77234">
        <ele>1059</ele>
        <time>2019-04-17T13:51:42Z</time>
      </trkpt>
      <trkpt lat="45.8976" lon="6.77229">
        <ele>1061</ele>
        <time>2019-04-17T13:52:42Z</time>
      </trkpt>
      <trkpt lat="45.89787" lon="6.7723">
        <ele>1065</ele>
        <time>2019-04-17T13:53:42Z</time>
      </trkpt>
      <trkpt lat="45.89822" lon="6.7724">
        <ele>1068</ele>
        <time>2019-04-17T13:54:42Z</time>
      </trkpt>
      <trkpt lat="45.89885" lon="6.77263">
        <ele>1076</ele>
        <time>2019-04-17T13:55:42Z</time>
      </trkpt>
      <trkpt lat="45.89925" lon="6.77292">
        <ele>1078</ele>
        <time>2019-04-17T13:56:42Z</time>
      </trkpt>
      <trkpt lat="45.9006" lon="6.77415">
        <ele>1081</ele>
        <time>2019-04-17T13:57:42Z</time>
      </trkpt>
      <trkpt lat="45.90091" lon="6.77429">
        <ele>1084</ele>
        <time>2019-04-17T13:58:42Z</time>
      </trkpt>
      <trkpt lat="45.90124" lon="6.77436">
        <ele>1085</ele>
        <time>2019-04-17T13:59:42Z</time>
      </trkpt>
      <trkpt lat="45.90145" lon="6.77428">
        <ele>1090</ele>
        <time>2019-04-17T14:00:42Z</time>
      </trkpt>
      <trkpt lat="45.90164" lon="6.77415">
        <ele>1095</ele>
        <time>2019-04-17T14:01:42Z</time>
      </trkpt>
      <trkpt lat="45.90185" lon="6.77383">
        <ele>1100</ele>
        <time>2019-04-17T14:02:42Z</time>
      </trkpt>
      <trkpt lat="45.90198" lon="6.77369">
        <ele>1101</ele>
        <time>2019-04-17T14:03:42Z</time>
      </trkpt>
      <trkpt lat="45.9022" lon="6.77337">
        <ele>1104</ele>
        <time>2019-04-17T14:04:42Z</time>
      </trkpt>
      <trkpt lat="45.90251" lon="6.77307">
        <ele>1106</ele>
        <time>2019-04-17T14:05:42Z</time>
      </trkpt>
      <trkpt lat="45.90331" lon="6.77264">
        <ele>1106</ele>
        <time>2019-04-17T14:06:42Z</time>
      </trkpt>
      <trkpt lat="45.90375" lon="6.77251">
        <ele>1103</ele>
        <time>2019-04-17T14:07:42Z</time>
      </trkpt>
      <trkpt lat="45.90393" lon="6.77237">
        <ele>1104</ele>
        <time>2019-04-17T14:08:42Z</time>
      </trkpt>
      <trkpt lat="45.90419" lon="6.77198">
        <ele>1109</ele>
        <time>2019-04-17T14:09:42Z</time>
      </trkpt>
      <trkpt lat="45.90441" lon="6.77155">
        <ele>1112</ele>
        <time>2019-04-17T14:10:42Z</time>
      </trkpt>
      <trkpt lat="45.90454" lon="6.77123">
        <ele>1115</ele>
        <time>2019-04-17T14:11:42Z</time>
      </trkpt>
      <trkpt lat="45.90461" lon="6.7709">
        <ele>1121</ele>
        <time>2019-04-17T14:12:42Z</time>
      </trkpt>
      <trkpt lat="45.90469" lon="6.7707">
        <ele>1122</ele>
        <time>2019-04-17T14:13:42Z</time>
      </trkpt>
      <trkpt lat="45.90511" lon="6.77035">
        <ele>1109</ele>
        <time>2019-04-17T14:14:42Z</time>
      </trkpt>
      <trkpt lat="45.90513" lon="6.7703">
        <ele>1108</ele>
        <time>2019-04-17T14:15:42Z</time>
      </trkpt>
      <trkpt lat="45.90515" lon="6.77018">
        <ele>1107</ele>
        <time>2019-04-17T14:16:42Z</time>
      </trkpt>
      <trkpt lat="45.90502" lon="6.76984">
        <ele>1119</ele>
        <time>2019-04-17T14:17:42Z</time>
      </trkpt>
      <trkpt lat="45.90472" lon="6.76927">
        <ele>1134</ele>
        <time>2019-04-17T14:18:42Z</time>
      </trkpt>
      <trkpt lat="45.90463" lon="6.7689">
        <ele>1138</ele>
        <time>2019-04-17T14:19:42Z</time>
      </trkpt>
      <trkpt lat="45.90461" lon="6.76863">
        <ele>1139</ele>
        <time>2019-04-17T14:20:42Z</time>
      </trkpt>
      <trkpt lat="45.90463" lon="6.76822">
        <ele>1138</ele>
        <time>2019-04-17T14:21:42Z</time>
      </trkpt>
      <trkpt lat="45.90469" lon="6.76786">
        <ele>1135</ele>
        <time>2019-04-17T14:22:42Z</time>
      </trkpt>
      <trkpt lat="45.90491" lon="6.76721">
        <ele>1124</ele>
        <time>2019-04-17T14:23:42Z</time>
      </trkpt>
      <trkpt lat="45.90569" lon="6.76586">
        <ele>1092</ele>
        <time>2019-04-17T14:24:42Z</time>
      </trkpt>
      <trkpt lat="45.9058" lon="6.76545">
        <ele>1087</ele>
        <time>2019-04-17T14:25:42Z</time>
      </trkpt>
      <trkpt lat="45.90581" lon="6.76529">
        <ele>1086</ele>
        <time>2019-04-17T14:26:42Z</time>
      </trkpt>
      <trkpt lat="45.90579" lon="6.76517">
        <ele>1087</ele>
        <time>2019-04-17T14:27:42Z</time>
      </trkpt>
      <trkpt lat="45.90576" lon="6.76508">
        <ele>1087</ele>
        <time>2019-04-17T14:28:42Z</time>
      </trkpt>
      <trkpt lat="45.90567" lon="6.76494">
        <ele>1089</ele>
        <time>2019-04-17T14:29:42Z</time>
      </trkpt>
      <trkpt lat="45.90555" lon="6.76485">
        <ele>1092</ele>
        <time>2019-04-17T14:30:42Z</time>
      </trkpt>
      <trkpt lat="45.90529" lon="6.76477">
        <ele>1099</ele>
        <time>2019-04-17T14:31:42Z</time>
      </trkpt>
      <trkpt lat="45.90525" lon="6.76472">
        <ele>1100</ele>
        <time>2019-04-17T14:32:42Z</time>
      </trkpt>
      <trkpt lat="45.90521" lon="6.76464">
        <ele>1101</ele>
        <time>2019-04-17T14:33:42Z</time>
      </trkpt>
      <trkpt lat="45.9052" lon="6.76453">
        <ele>1101</ele>
        <time>2019-04-17T14:34:42Z</time>
      </trkpt>
      <trkpt lat="45.90521" lon="6.76436">
        <ele>1099</ele>
        <time>2019-04-17T14:35:42Z</time>
      </trkpt>
      <trkpt lat="45.90548" lon="6.76332">
        <ele>1084</ele>
        <time>2019-04-17T14:36:42Z</time>
      </trkpt>
      <trkpt lat="45.90552" lon="6.76308">
        <ele>1083</ele>
        <time>2019-04-17T14:37:42Z</time>
      </trkpt>
      <trkpt lat="45.90557" lon="6.76237">
        <ele>1085</ele>
        <time>2019-04-17T14:38:42Z</time>
      </trkpt>
      <trkpt lat="45.90564" lon="6.76226">
        <ele>1086</ele>
        <time>2019-04-17T14:39:42Z</time>
      </trkpt>
      <trkpt lat="45.90577" lon="6.76216">
        <ele>1084</ele>
        <time>2019-04-17T14:40:42Z</time>
      </trkpt>
      <trkpt lat="45.90607" lon="6.76208">
        <ele>1079</ele>
        <time>2019-04-17T14:41:42Z</time>
      </trkpt>
      <trkpt lat="45.90665" lon="6.76186">
        <ele>1070</ele>
        <time>2019-04-17T14:42:42Z</time>
      </trkpt>
      <trkpt lat="45.90676" lon="6.76175">
        <ele>1070</ele>
        <time>2019-04-17T14:43:42Z</time>
      </trkpt>
      <trkpt lat="45.90682" lon="6.76176">
        <ele>1069</ele>
        <time>2019-04-17T14:44:42Z</time>
      </trkpt>
      <trkpt lat="45.90685" lon="6.7618">
        <ele>1068</ele>
        <time>2019-04-17T14:45:42Z</time>
      </trkpt>
      <trkpt lat="45.90684" lon="6.7619">
        <ele>1067</ele>
        <time>2019-04-17T14:46:42Z</time>
      </trkpt>
      <trkpt lat="45.9068" lon="6.76197">
        <ele>1066</ele>
        <time>2019-04-17T14:47:42Z</time>
      </trkpt>
      <trkpt lat="45.90671" lon="6.76202">
        <ele>1066</ele>
        <time>2019-04-17T14:48:42Z</time>
      </trkpt>
      <trkpt lat="45.9066" lon="6.76204">
        <ele>1068</ele>
        <time>2019-04-17T14:49:42Z</time>
      </trkpt>
      <trkpt lat="45.90646" lon="6.76214">
        <ele>1070</ele>
        <time>2019-04-17T14:50:42Z</time>
      </trkpt>
      <trkpt lat="45.90643" lon="6.76223">
        <ele>1069</ele>
        <time>2019-04-17T14:51:42Z</time>
      </trkpt>
      <trkpt lat="45.90643" lon="6.76233">
        <ele>1067</ele>
        <time>2019-04-17T14:52:42Z</time>
      </trkpt>
      <trkpt lat="45.90653" lon="6.76245">
        <ele>1064</ele>
        <time>2019-04-17T14:53:42Z</time>
      </trkpt>
      <trkpt lat="45.9068" lon="6.76249">
        <ele>1058</ele>
        <time>2019-04-17T14:54:42Z</time>
      </trkpt>
      <trkpt lat="45.90709" lon="6.76246">
        <ele>1054</ele>
        <time>2019-04-17T14:55:42Z</time>
      </trkpt>
      <trkpt lat="45.90727" lon="6.76235">
        <ele>1053</ele>
        <time>2019-04-17T14:56:42Z</time>
      </trkpt>
      <trkpt lat="45.90749" lon="6.76206">
        <ele>1056</ele>
        <time>2019-04-17T14:57:42Z</time>
      </trkpt>
      <trkpt lat="45.90755" lon="6.76202">
        <ele>1056</ele>
        <time>2019-04-17T14:58:42Z</time>
      </trkpt>
      <trkpt lat="45.90761" lon="6.76201">
        <ele>1055</ele>
        <time>2019-04-17T14:59:42Z</time>
      </trkpt>
      <trkpt lat="45.90789" lon="6.76205">
        <ele>1050</ele>
        <time>2019-04-17T15:00:42Z</time>
      </trkpt>
      <trkpt lat="45.90795" lon="6.76202">
        <ele>1050</ele>
        <time>2019-04-17T15:01:42Z</time>
      </trkpt>
      <trkpt lat="45.90817" lon="6.76181">
        <ele>1053</ele>
        <time>2019-04-17T15:02:42Z</time>
      </trkpt>
      <trkpt lat="45.90827" lon="6.76181">
        <ele>1052</ele>
        <time>2019-04-17T15:03:42Z</time>
      </trkpt>
      <trkpt lat="45.90831" lon="6.76185">
        <ele>1050</ele>
        <time>2019-04-17T15:04:42Z</time>
      </trkpt>
      <trkpt lat="45.90834" lon="6.76191">
        <ele>1048</ele>
        <time>2019-04-17T15:05:42Z</time>
      </trkpt>
      <trkpt lat="45.90834" lon="6.76203">
        <ele>1045</ele>
        <time>2019-04-17T15:06:42Z</time>
      </trkpt>
      <trkpt lat="45.90831" lon="6.76222">
        <ele>1040</ele>
        <time>2019-04-17T15:07:42Z</time>
      </trkpt>
      <trkpt lat="45.90823" lon="6.76252">
        <ele>1034</ele>
        <time>2019-04-17T15:08:42Z</time>
      </trkpt>
      <trkpt lat="45.90818" lon="6.76259">
        <ele>1033</ele>
        <time>2019-04-17T15:09:42Z</time>
      </trkpt>
      <trkpt lat="45.90788" lon="6.76279">
        <ele>1036</ele>
        <time>2019-04-17T15:10:42Z</time>
      </trkpt>
      <trkpt lat="45.90775" lon="6.76297">
        <ele>1036</ele>
        <time>2019-04-17T15:11:42Z</time>
      </trkpt>
      <trkpt lat="45.90749" lon="6.76313">
        <ele>1039</ele>
        <time>2019-04-17T15:12:42Z</time>
      </trkpt>
      <trkpt lat="45.90747" lon="6.76319">
        <ele>1038</ele>
        <time>2019-04-17T15:13:42Z</time>
      </trkpt>
      <trkpt lat="45.90748" lon="6.76325">
        <ele>1037</ele>
        <time>2019-04-17T15:14:42Z</time>
      </trkpt>
      <trkpt lat="45.90753" lon="6.76334">
        <ele>1035</ele>
        <time>2019-04-17T15:15:42Z</time>
      </trkpt>
      <trkpt lat="45.90762" lon="6.76335">
        <ele>1034</ele>
        <time>2019-04-17T15:16:42Z</time>
      </trkpt>
      <trkpt lat="45.90777" lon="6.76321">
        <ele>1032</ele>
        <time>2019-04-17T15:17:42Z</time>
      </trkpt>
      <trkpt lat="45.90801" lon="6.76305">
        <ele>1030</ele>
        <time>2019-04-17T15:18:42Z</time>
      </trkpt>
      <trkpt lat="45.90847" lon="6.76299">
        <ele>1023</ele>
        <time>2019-04-17T15:19:42Z</time>
      </trkpt>
      <trkpt lat="45.90901" lon="6.7626">
        <ele>1018</ele>
        <time>2019-04-17T15:20:42Z</time>
      </trkpt>
      <trkpt lat="45.90926" lon="6.76232">
        <ele>1020</ele>
        <time>2019-04-17T15:21:42Z</time>
      </trkpt>
      <trkpt lat="45.90932" lon="6.7622">
        <ele>1022</ele>
        <time>2019-04-17T15:22:42Z</time>
      </trkpt>
      <trkpt lat="45.90937" lon="6.76216">
        <ele>1023</ele>
        <time>2019-04-17T15:23:42Z</time>
      </trkpt>
      <trkpt lat="45.90942" lon="6.76215">
        <ele>1022</ele>
        <time>2019-04-17T15:24:42Z</time>
      </trkpt>
      <trkpt lat="45.90949" lon="6.76222">
        <ele>1020</ele>
        <time>2019-04-17T15:25:42Z</time>
      </trkpt>
      <trkpt lat="45.90952" lon="6.7623">
        <ele>1018</ele>
        <time>2019-04-17T15:26:42Z</time>
      </trkpt>
      <trkpt lat="45.9095" lon="6.76241">
        <ele>1016</ele>
        <time>2019-04-17T15:27:42Z</time>
      </trkpt>
      <trkpt lat="45.90938" lon="6.76247">
        <ele>1015</ele>
        <time>2019-04-17T15:28:42Z</time>
      </trkpt>
      <trkpt lat="45.90929" lon="6.76254">
        <ele>1015</ele>
        <time>2019-04-17T15:29:42Z</time>
      </trkpt>
      <trkpt lat="45.90886" lon="6.76324">
        <ele>1012</ele>
        <time>2019-04-17T15:30:42Z</time>
      </trkpt>
      <trkpt lat="45.90866" lon="6.76342">
        <ele>1015</ele>
        <time>2019-04-17T15:31:42Z</time>
      </trkpt>
      <trkpt lat="45.90864" lon="6.76348">
        <ele>1016</ele>
        <time>2019-04-17T15:32:42Z</time>
      </trkpt>
      <trkpt lat="45.90867" lon="6.76363">
        <ele>1017</ele>
        <time>2019-04-17T15:33:42Z</time>
      </trkpt>
      <trkpt lat="45.9087" lon="6.76369">
        <ele>1018</ele>
        <time>2019-04-17T15:34:42Z</time>
      </trkpt>
      <trkpt lat="45.90878" lon="6.76374">
        <ele>1017</ele>
        <time>2019-04-17T15:35:42Z</time>
      </trkpt>
      <trkpt lat="45.90927" lon="6.76391">
        <ele>1009</ele>
        <time>2019-04-17T15:36:42Z</time>
      </trkpt>
      <trkpt lat="45.90959" lon="6.76392">
        <ele>1004</ele>
        <time>2019-04-17T15:37:42Z</time>
      </trkpt>
      <trkpt lat="45.91" lon="6.76403">
        <ele>996</ele>
        <time>2019-04-17T15:38:42Z</time>
      </trkpt>
      <trkpt lat="45.91011" lon="6.76413">
        <ele>993</ele>
        <time>2019-04-17T15:39:42Z</time>
      </trkpt>
      <trkpt lat="45.91015" lon="6.76422">
        <ele>991</ele>
        <time>2019-04-17T15:40:42Z</time>
      </trkpt>
      <trkpt lat="45.91012" lon="6.76437">
        <ele>987</ele>
        <time>2019-04-17T15:41:42Z</time>
      </trkpt>
      <trkpt lat="45.91003" lon="6.76447">
        <ele>987</ele>
        <time>2019-04-17T15:42:42Z</time>
      </trkpt>
      <trkpt lat="45.90976" lon="6.76461">
        <ele>992</ele>
        <time>2019-04-17T15:43:42Z</time>
      </trkpt>
      <trkpt lat="45.90931" lon="6.76491">
        <ele>1001</ele>
        <time>2019-04-17T15:44:42Z</time>
      </trkpt>
      <trkpt lat="45.90882" lon="6.7653">
        <ele>1006</ele>
        <time>2019-04-17T15:45:42Z</time>
      </trkpt>
      <trkpt lat="45.90858" lon="6.76557">
        <ele>1007</ele>
        <time>2019-04-17T15:46:42Z</time>
      </trkpt>
      <trkpt lat="45.9084" lon="6.76589">
        <ele>1005</ele>
        <time>2019-04-17T15:47:42Z</time>
      </trkpt>
      <trkpt lat="45.90837" lon="6.76621">
        <ele>999</ele>
        <time>2019-04-17T15:48:42Z</time>
      </trkpt>
      <trkpt lat="45.90832" lon="6.76689">
        <ele>987</ele>
        <time>2019-04-17T15:49:42Z</time>
      </trkpt>
      <trkpt lat="45.90826" lon="6.76709">
        <ele>986</ele>
        <time>2019-04-17T15:50:42Z</time>
      </trkpt>
      <trkpt lat="45.90813" lon="6.76724">
        <ele>989</ele>
        <time>2019-04-17T15:51:42Z</time>
      </trkpt>
      <trkpt lat="45.90795" lon="6.76752">
        <ele>991</ele>
        <time>2019-04-17T15:52:42Z</time>
      </trkpt>
      <trkpt lat="45.90794" lon="6.76763">
        <ele>991</ele>
        <time>2019-04-17T15:53:42Z</time>
      </trkpt>
      <trkpt lat="45.90797" lon="6.76776">
        <ele>988</ele>
        <time>2019-04-17T15:54:42Z</time>
      </trkpt>
      <trkpt lat="45.90803" lon="6.76779">
        <ele>986</ele>
        <time>2019-04-17T15:55:42Z</time>
      </trkpt>
      <trkpt lat="45.90812" lon="6.76778">
        <ele>983</ele>
        <time>2019-04-17T15:56:42Z</time>
      </trkpt>
      <trkpt lat="45.9083" lon="6.76737">
        <ele>980</ele>
        <time>2019-04-17T15:57:42Z</time>
      </trkpt>
      <trkpt lat="45.90843" lon="6.76733">
        <ele>977</ele>
        <time>2019-04-17T15:58:42Z</time>
      </trkpt>
      <trkpt lat="45.90886" lon="6.76747">
        <ele>965</ele>
        <time>2019-04-17T15:59:42Z</time>
      </trkpt>
      <trkpt lat="45.90893" lon="6.76751">
        <ele>963</ele>
        <time>2019-04-17T16:00:42Z</time>
      </trkpt>
      <trkpt lat="45.90898" lon="6.7676">
        <ele>961</ele>
        <time>2019-04-17T16:01:42Z</time>
      </trkpt>
      <trkpt lat="45.909" lon="6.76771">
        <ele>960</ele>
        <time>2019-04-17T16:02:42Z</time>
      </trkpt>
      <trkpt lat="45.90897" lon="6.76782">
        <ele>960</ele>
        <time>2019-04-17T16:03:42Z</time>
      </trkpt>
      <trkpt lat="45.9089" lon="6.76791">
        <ele>961</ele>
        <time>2019-04-17T16:04:42Z</time>
      </trkpt>
      <trkpt lat="45.90864" lon="6.76795">
        <ele>967</ele>
        <time>2019-04-17T16:05:42Z</time>
      </trkpt>
      <trkpt lat="45.90859" lon="6.76799">
        <ele>967</ele>
        <time>2019-04-17T16:06:42Z</time>
      </trkpt>
      <trkpt lat="45.90857" lon="6.76807">
        <ele>967</ele>
        <time>2019-04-17T16:07:42Z</time>
      </trkpt>
      <trkpt lat="45.90858" lon="6.76814">
        <ele>967</ele>
        <time>2019-04-17T16:08:42Z</time>
      </trkpt>
      <trkpt lat="45.90865" lon="6.76819">
        <ele>965</ele>
        <time>2019-04-17T16:09:42Z</time>
      </trkpt>
      <trkpt lat="45.90875" lon="6.76819">
        <ele>963</ele>
        <time>2019-04-17T16:10:42Z</time>
      </trkpt>
      <trkpt lat="45.90888" lon="6.76814">
        <ele>961</ele>
        <time>2019-04-17T16:11:42Z</time>
      </trkpt>
      <trkpt lat="45.90911" lon="6.76795">
        <ele>957</ele>
        <time>2019-04-17T16:12:42Z</time>
      </trkpt>
      <trkpt lat="45.90921" lon="6.76782">
        <ele>954</ele>
        <time>2019-04-17T16:13:42Z</time>
      </trkpt>
      <trkpt lat="45.90941" lon="6.76728">
        <ele>949</ele>
        <time>2019-04-17T16:14:42Z</time>
      </trkpt>
      <trkpt lat="45.90939" lon="6.7672">
        <ele>950</ele>
        <time>2019-04-17T16:15:42Z</time>
      </trkpt>
      <trkpt lat="45.90923" lon="6.76701">
        <ele>957</ele>
        <time>2019-04-17T16:16:42Z</time>
      </trkpt>
      <trkpt lat="45.90914" lon="6.76682">
        <ele>961</ele>
        <time>2019-04-17T16:17:42Z</time>
      </trkpt>
      <trkpt lat="45.90915" lon="6.76674">
        <ele>961</ele>
        <time>2019-04-17T16:18:42Z</time>
      </trkpt>
      <trkpt lat="45.90918" lon="6.76666">
        <ele>961</ele>
        <time>2019-04-17T16:19:42Z</time>
      </trkpt>
      <trkpt lat="45.90927" lon="6.7665">
        <ele>960</ele>
        <time>2019-04-17T16:20:42Z</time>
      </trkpt>
      <trkpt lat="45.90948" lon="6.76626">
        <ele>956</ele>
        <time>2019-04-17T16:21:42Z</time>
      </trkpt>
      <trkpt lat="45.90985" lon="6.76596">
        <ele>947</ele>
        <time>2019-04-17T16:22:42Z</time>
      </trkpt>
      <trkpt lat="45.90996" lon="6.76584">
        <ele>945</ele>
        <time>2019-04-17T16:23:42Z</time>
      </trkpt>
      <trkpt lat="45.91021" lon="6.76546">
        <ele>949</ele>
        <time>2019-04-17T16:24:42Z</time>
      </trkpt>
      <trkpt lat="45.91028" lon="6.76546">
        <ele>946</ele>
        <time>2019-04-17T16:25:42Z</time>
      </trkpt>
      <trkpt lat="45.9103" lon="6.76549">
        <ele>944</ele>
        <time>2019-04-17T16:26:42Z</time>
      </trkpt>
      <trkpt lat="45.91031" lon="6.7656">
        <ele>940</ele>
        <time>2019-04-17T16:27:42Z</time>
      </trkpt>
      <trkpt lat="45.91029" lon="6.76565">
        <ele>939</ele>
        <time>2019-04-17T16:28:42Z</time>
      </trkpt>
      <trkpt lat="45.91015" lon="6.76576">
        <ele>941</ele>
        <time>2019-04-17T16:29:42Z</time>
      </trkpt>
      <trkpt lat="45.91002" lon="6.76591">
        <ele>942</ele>
        <time>2019-04-17T16:30:42Z</time>
      </trkpt>
      <trkpt lat="45.90986" lon="6.76619">
        <ele>942</ele>
        <time>2019-04-17T16:31:42Z</time>
      </trkpt>
      <trkpt lat="45.90969" lon="6.76643">
        <ele>943</ele>
        <time>2019-04-17T16:32:42Z</time>
      </trkpt>
      <trkpt lat="45.90955" lon="6.76673">
        <ele>944</ele>
        <time>2019-04-17T16:33:42Z</time>
      </trkpt>
      <trkpt lat="45.90955" lon="6.76682">
        <ele>944</ele>
        <time>2019-04-17T16:34:42Z</time>
      </trkpt>
      <trkpt lat="45.90958" lon="6.76694">
        <ele>943</ele>
        <time>2019-04-17T16:35:42Z</time>
      </trkpt>
      <trkpt lat="45.90967" lon="6.767">
        <ele>940</ele>
        <time>2019-04-17T16:36:42Z</time>
      </trkpt>
      <trkpt lat="45.91015" lon="6.76702">
        <ele>924</ele>
        <time>2019-04-17T16:37:42Z</time>
      </trkpt>
      <trkpt lat="45.9103" lon="6.76706">
        <ele>920</ele>
        <time>2019-04-17T16:38:42Z</time>
      </trkpt>
      <trkpt lat="45.91035" lon="6.76706">
        <ele>919</ele>
        <time>2019-04-17T16:39:42Z</time>
      </trkpt>
      <trkpt lat="45.91039" lon="6.76699">
        <ele>918</ele>
        <time>2019-04-17T16:40:42Z</time>
      </trkpt>
      <trkpt lat="45.91049" lon="6.76676">
        <ele>916</ele>
        <time>2019-04-17T16:41:42Z</time>
      </trkpt>
      <trkpt lat="45.91054" lon="6.76668">
        <ele>915</ele>
        <time>2019-04-17T16:42:42Z</time>
      </trkpt>
      <trkpt lat="45.91063" lon="6.76663">
        <ele>914</ele>
        <time>2019-04-17T16:43:42Z</time>
      </trkpt>
      <trkpt lat="45.91077" lon="6.76662">
        <ele>911</ele>
        <time>2019-04-17T16:44:42Z</time>
      </trkpt>
      <trkpt lat="45.91084" lon="6.76657">
        <ele>910</ele>
        <time>2019-04-17T16:45:42Z</time>
      </trkpt>
      <trkpt lat="45.91086" lon="6.76644">
        <ele>910</ele>
        <time>2019-04-17T16:46:42Z</time>
      </trkpt>
      <trkpt lat="45.91091" lon="6.76588">
        <ele>912</ele>
        <time>2019-04-17T16:47:42Z</time>
      </trkpt>
      <trkpt lat="45.91104" lon="6.76574">
        <ele>912</ele>
        <time>2019-04-17T16:48:42Z</time>
      </trkpt>
      <trkpt lat="45.91123" lon="6.76563">
        <ele>911</ele>
        <time>2019-04-17T16:49:42Z</time>
      </trkpt>
      <trkpt lat="45.91131" lon="6.76552">
        <ele>913</ele>
        <time>2019-04-17T16:50:42Z</time>
      </trkpt>
      <trkpt lat="45.91141" lon="6.76544">
        <ele>913</ele>
        <time>2019-04-17T16:51:42Z</time>
      </trkpt>
      <trkpt lat="45.91147" lon="6.76546">
        <ele>912</ele>
        <time>2019-04-17T16:52:42Z</time>
      </trkpt>
      <trkpt lat="45.91153" lon="6.76555">
        <ele>909</ele>
        <time>2019-04-17T16:53:42Z</time>
      </trkpt>
      <trkpt lat="45.91157" lon="6.76567">
        <ele>905</ele>
        <time>2019-04-17T16:54:42Z</time>
      </trkpt>
      <trkpt lat="45.91155" lon="6.7658">
        <ele>903</ele>
        <time>2019-04-17T16:55:42Z</time>
      </trkpt>
      <trkpt lat="45.91144" lon="6.76609">
        <ele>903</ele>
        <time>2019-04-17T16:56:42Z</time>
      </trkpt>
      <trkpt lat="45.91135" lon="6.76624">
        <ele>903</ele>
        <time>2019-04-17T16:57:42Z</time>
      </trkpt>
      <trkpt lat="45.91115" lon="6.76639">
        <ele>906</ele>
        <time>2019-04-17T16:58:42Z</time>
      </trkpt>
      <trkpt lat="45.9111" lon="6.76648">
        <ele>907</ele>
        <time>2019-04-17T16:59:42Z</time>
      </trkpt>
      <trkpt lat="45.9111" lon="6.76661">
        <ele>906</ele>
        <time>2019-04-17T17:00:42Z</time>
      </trkpt>
      <trkpt lat="45.91113" lon="6.7667">
        <ele>905</ele>
        <time>2019-04-17T17:01:42Z</time>
      </trkpt>
      <trkpt lat="45.91121" lon="6.76677">
        <ele>904</ele>
        <time>2019-04-17T17:02:42Z</time>
      </trkpt>
      <trkpt lat="45.91142" lon="6.76677">
        <ele>901</ele>
        <time>2019-04-17T17:03:42Z</time>
      </trkpt>
      <trkpt lat="45.91156" lon="6.76672">
        <ele>899</ele>
        <time>2019-04-17T17:04:42Z</time>
      </trkpt>
      <trkpt lat="45.91179" lon="6.76667">
        <ele>896</ele>
        <time>2019-04-17T17:05:42Z</time>
      </trkpt>
      <trkpt lat="45.91186" lon="6.76663">
        <ele>895</ele>
        <time>2019-04-17T17:06:42Z</time>
      </trkpt>
      <trkpt lat="45.9119" lon="6.76653">
        <ele>895</ele>
        <time>2019-04-17T17:07:42Z</time>
      </trkpt>
      <trkpt lat="45.91203" lon="6.76587">
        <ele>894</ele>
        <time>2019-04-17T17:08:42Z</time>
      </trkpt>
      <trkpt lat="45.91212" lon="6.76559">
        <ele>898</ele>
        <time>2019-04-17T17:09:42Z</time>
      </trkpt>
      <trkpt lat="45.91219" lon="6.76552">
        <ele>898</ele>
        <time>2019-04-17T17:10:42Z</time>
      </trkpt>
      <trkpt lat="45.91227" lon="6.76549">
        <ele>898</ele>
        <time>2019-04-17T17:11:42Z</time>
      </trkpt>
      <trkpt lat="45.91235" lon="6.76557">
        <ele>894</ele>
        <time>2019-04-17T17:12:42Z</time>
      </trkpt>
      <trkpt lat="45.91238" lon="6.76568">
        <ele>891</ele>
        <time>2019-04-17T17:13:42Z</time>
      </trkpt>
      <trkpt lat="45.91237" lon="6.76589">
        <ele>888</ele>
        <time>2019-04-17T17:14:42Z</time>
      </trkpt>
      <trkpt lat="45.91238" lon="6.76602">
        <ele>888</ele>
        <time>2019-04-17T17:15:42Z</time>
      </trkpt>
      <trkpt lat="45.91246" lon="6.7662">
        <ele>888</ele>
        <time>2019-04-17T17:16:42Z</time>
      </trkpt>
      <trkpt lat="45.91277" lon="6.76639">
        <ele>884</ele>
        <time>2019-04-17T17:17:42Z</time>
      </trkpt>
      <trkpt lat="45.91299" lon="6.76672">
        <ele>880</ele>
        <time>2019-04-17T17:18:42Z</time>
      </trkpt>
      <trkpt lat="45.9131" lon="6.76678">
        <ele>878</ele>
        <time>2019-04-17T17:19:42Z</time>
      </trkpt>
      <trkpt lat="45.9132" lon="6.76673">
        <ele>877</ele>
        <time>2019-04-17T17:20:42Z</time>
      </trkpt>
      <trkpt lat="45.91328" lon="6.76662">
        <ele>875</ele>
        <time>2019-04-17T17:21:42Z</time>
      </trkpt>
      <trkpt lat="45.91358" lon="6.76621">
        <ele>873</ele>
        <time>2019-04-17T17:22:42Z</time>
      </trkpt>
      <trkpt lat="45.91372" lon="6.76594">
        <ele>872</ele>
        <time>2019-04-17T17:23:42Z</time>
      </trkpt>
      <trkpt lat="45.91382" lon="6.76581">
        <ele>871</ele>
        <time>2019-04-17T17:24:42Z</time>
      </trkpt>
      <trkpt lat="45.914" lon="6.76568">
        <ele>871</ele>
        <time>2019-04-17T17:25:42Z</time>
      </trkpt>
      <trkpt lat="45.91411" lon="6.76562">
        <ele>869</ele>
        <time>2019-04-17T17:26:42Z</time>
      </trkpt>
      <trkpt lat="45.91417" lon="6.7656">
        <ele>869</ele>
        <time>2019-04-17T17:27:42Z</time>
      </trkpt>
      <trkpt lat="45.91423" lon="6.76563">
        <ele>867</ele>
        <time>2019-04-17T17:28:42Z</time>
      </trkpt>
      <trkpt lat="45.91439" lon="6.76579">
        <ele>864</ele>
        <time>2019-04-17T17:29:42Z</time>
      </trkpt>
      <trkpt lat="45.9145" lon="6.76585">
        <ele>862</ele>
        <time>2019-04-17T17:30:42Z</time>
      </trkpt>
      <trkpt lat="45.91457" lon="6.76584">
        <ele>861</ele>
        <time>2019-04-17T17:31:42Z</time>
      </trkpt>
      <trkpt lat="45.91471" lon="6.76568">
        <ele>859</ele>
        <time>2019-04-17T17:32:42Z</time>
      </trkpt>
      <trkpt lat="45.91482" lon="6.76552">
        <ele>858</ele>
        <time>2019-04-17T17:33:42Z</time>
      </trkpt>
      <trkpt lat="45.91487" lon="6.76547">
        <ele>858</ele>
        <time>2019-04-17T17:34:42Z</time>
      </trkpt>
      <trkpt lat="45.91495" lon="6.76546">
        <ele>856</ele>
        <time>2019-04-17T17:35:42Z</time>
      </trkpt>
      <trkpt lat="45.91498" lon="6.76552">
        <ele>855</ele>
        <time>2019-04-17T17:36:42Z</time>
      </trkpt>
      <trkpt lat="45.91499" lon="6.76561">
        <ele>855</ele>
        <time>2019-04-17T17:37:42Z</time>
      </trkpt>
      <trkpt lat="45.91498" lon="6.76568">
        <ele>855</ele>
        <time>2019-04-17T17:38:42Z</time>
      </trkpt>
      <trkpt lat="45.91493" lon="6.76576">
        <ele>855</ele>
        <time>2019-04-17T17:39:42Z</time>
      </trkpt>
      <trkpt lat="45.91488" lon="6.76582">
        <ele>856</ele>
        <time>2019-04-17T17:40:42Z</time>
      </trkpt>
      <trkpt lat="45.9146" lon="6.76597">
        <ele>860</ele>
        <time>2019-04-17T17:41:42Z</time>
      </trkpt>
      <trkpt lat="45.91446" lon="6.76601">
        <ele>862</ele>
        <time>2019-04-17T17:42:42Z</time>
      </trkpt>
      <trkpt lat="45.91439" lon="6.76607">
        <ele>863</ele>
        <time>2019-04-17T17:43:42Z</time>
      </trkpt>
      <trkpt lat="45.91434" lon="6.76615">
        <ele>864</ele>
        <time>2019-04-17T17:44:42Z</time>
      </trkpt>
      <trkpt lat="45.9143" lon="6.76642">
        <ele>864</ele>
        <time>2019-04-17T17:45:42Z</time>
      </trkpt>
      <trkpt lat="45.91435" lon="6.76656">
        <ele>863</ele>
        <time>2019-04-17T17:46:42Z</time>
      </trkpt>
      <trkpt lat="45.91444" lon="6.76666">
        <ele>861</ele>
        <time>2019-04-17T17:47:42Z</time>
      </trkpt>
      <trkpt lat="45.91453" lon="6.7667">
        <ele>860</ele>
        <time>2019-04-17T17:48:42Z</time>
      </trkpt>
      <trkpt lat="45.91528" lon="6.7667">
        <ele>853</ele>
        <time>2019-04-17T17:49:42Z</time>
      </trkpt>
      <trkpt lat="45.91541" lon="6.76674">
        <ele>853</ele>
        <time>2019-04-17T17:50:42Z</time>
      </trkpt>
      <trkpt lat="45.9155" lon="6.76686">
        <ele>852</ele>
        <time>2019-04-17T17:51:42Z</time>
      </trkpt>
      <trkpt lat="45.91553" lon="6.76694">
        <ele>852</ele>
        <time>2019-04-17T17:52:42Z</time>
      </trkpt>
      <trkpt lat="45.91555" lon="6.76707">
        <ele>853</ele>
        <time>2019-04-17T17:53:42Z</time>
      </trkpt>
      <trkpt lat="45.91554" lon="6.7672">
        <ele>853</ele>
        <time>2019-04-17T17:54:42Z</time>
      </trkpt>
      <trkpt lat="45.91546" lon="6.76738">
        <ele>853</ele>
        <time>2019-04-17T17:55:42Z</time>
      </trkpt>
      <trkpt lat="45.91522" lon="6.76785">
        <ele>856</ele>
        <time>2019-04-17T17:56:42Z</time>
      </trkpt>
      <trkpt lat="45.91507" lon="6.76827">
        <ele>857</ele>
        <time>2019-04-17T17:57:42Z</time>
      </trkpt>
      <trkpt lat="45.91504" lon="6.76852">
        <ele>858</ele>
        <time>2019-04-17T17:58:42Z</time>
      </trkpt>
      <trkpt lat="45.91505" lon="6.76867">
        <ele>859</ele>
        <time>2019-04-17T17:59:42Z</time>
      </trkpt>
      <trkpt lat="45.91517" lon="6.769">
        <ele>862</ele>
        <time>2019-04-17T18:00:42Z</time>
      </trkpt>
      <trkpt lat="45.91522" lon="6.76921">
        <ele>863</ele>
        <time>2019-04-17T18:01:42Z</time>
      </trkpt>
      <trkpt lat="45.91523" lon="6.76942">
        <ele>864</ele>
        <time>2019-04-17T18:02:42Z</time>
      </trkpt>
      <trkpt lat="45.91521" lon="6.76965">
        <ele>864</ele>
        <time>2019-04-17T18:03:42Z</time>
      </trkpt>
      <trkpt lat="45.91517" lon="6.76983">
        <ele>864</ele>
        <time>2019-04-17T18:04:42Z</time>
      </trkpt>
      <trkpt lat="45.91509" lon="6.77">
        <ele>863</ele>
        <time>2019-04-17T18:05:42Z</time>
      </trkpt>
      <trkpt lat="45.91489" lon="6.77033">
        <ele>865</ele>
        <time>2019-04-17T18:06:42Z</time>
      </trkpt>
      <trkpt lat="45.91483" lon="6.77049">
        <ele>865</ele>
        <time>2019-04-17T18:07:42Z</time>
      </trkpt>
      <trkpt lat="45.91478" lon="6.77073">
        <ele>866</ele>
        <time>2019-04-17T18:08:42Z</time>
      </trkpt>
      <trkpt lat="45.91471" lon="6.77089">
        <ele>867</ele>
        <time>2019-04-17T18:09:42Z</time>
      </trkpt>
      <trkpt lat="45.91423" lon="6.77172">
        <ele>864</ele>
        <time>2019-04-17T18:10:42Z</time>
      </trkpt>
      <trkpt lat="45.91412" lon="6.77186">
        <ele>863</ele>
        <time>2019-04-17T18:11:42Z</time>
      </trkpt>
      <trkpt lat="45.91378" lon="6.77211">
        <ele>863</ele>
        <time>2019-04-17T18:12:42Z</time>
      </trkpt>
      <trkpt lat="45.91375" lon="6.77222">
        <ele>863</ele>
        <time>2019-04-17T18:13:42Z</time>
      </trkpt>
      <trkpt lat="45.91376" lon="6.77235">
        <ele>861</ele>
        <time>2019-04-17T18:14:42Z</time>
      </trkpt>
      <trkpt lat="45.9138" lon="6.77245">
        <ele>860</ele>
        <time>2019-04-17T18:15:42Z</time>
      </trkpt>
      <trkpt lat="45.91385" lon="6.77248">
        <ele>859</ele>
        <time>2019-04-17T18:16:42Z</time>
      </trkpt>
      <trkpt lat="45.91393" lon="6.77249">
        <ele>858</ele>
        <time>2019-04-17T18:17:42Z</time>
      </trkpt>
      <trkpt lat="45.91398" lon="6.77247">
        <ele>858</ele>
        <time>2019-04-17T18:18:42Z</time>
      </trkpt>
      <trkpt lat="45.91402" lon="6.77242">
        <ele>858</ele>
        <time>2019-04-17T18:19:42Z</time>
      </trkpt>
      <trkpt lat="45.91428" lon="6.77186">
        <ele>862</ele>
        <time>2019-04-17T18:20:42Z</time>
      </trkpt>
      <trkpt lat="45.91478" lon="6.77101">
        <ele>865</ele>
        <time>2019-04-17T18:21:42Z</time>
      </trkpt>
      <trkpt lat="45.91485" lon="6.77085">
        <ele>865</ele>
        <time>2019-04-17T18:22:42Z</time>
      </trkpt>
      <trkpt lat="45.91495" lon="6.77052">
        <ele>864</ele>
        <time>2019-04-17T18:23:42Z</time>
      </trkpt>
      <trkpt lat="45.91502" lon="6.77042">
        <ele>863</ele>
        <time>2019-04-17T18:24:42Z</time>
      </trkpt>
      <trkpt lat="45.9151" lon="6.77037">
        <ele>863</ele>
        <time>2019-04-17T18:25:42Z</time>
      </trkpt>
      <trkpt lat="45.91529" lon="6.77031">
        <ele>863</ele>
        <time>2019-04-17T18:26:42Z</time>
      </trkpt>
      <trkpt lat="45.91544" lon="6.77033">
        <ele>863</ele>
        <time>2019-04-17T18:27:42Z</time>
      </trkpt>
      <trkpt lat="45.91553" lon="6.77038">
        <ele>862</ele>
        <time>2019-04-17T18:28:42Z</time>
      </trkpt>
      <trkpt lat="45.91568" lon="6.77053">
        <ele>860</ele>
        <time>2019-04-17T18:29:42Z</time>
      </trkpt>
      <trkpt lat="45.91575" lon="6.77064">
        <ele>858</ele>
        <time>2019-04-17T18:30:42Z</time>
      </trkpt>
      <trkpt lat="45.91579" lon="6.77081">
        <ele>855</ele>
        <time>2019-04-17T18:31:42Z</time>
      </trkpt>
      <trkpt lat="45.9158" lon="6.771">
        <ele>852</ele>
        <time>2019-04-17T18:32:42Z</time>
      </trkpt>
      <trkpt lat="45.91566" lon="6.77232">
        <ele>842</ele>
        <time>2019-04-17T18:33:42Z</time>
      </trkpt>
      <trkpt lat="45.91567" lon="6.77243">
        <ele>842</ele>
        <time>2019-04-17T18:34:42Z</time>
      </trkpt>
      <trkpt lat="45.91569" lon="6.77256">
        <ele>844</ele>
        <time>2019-04-17T18:35:42Z</time>
      </trkpt>
      <trkpt lat="45.91573" lon="6.77266">
        <ele>848</ele>
        <time>2019-04-17T18:36:42Z</time>
      </trkpt>
      <trkpt lat="45.91579" lon="6.77274">
        <ele>851</ele>
        <time>2019-04-17T18:37:42Z</time>
      </trkpt>
      <trkpt lat="45.91588" lon="6.77282">
        <ele>854</ele>
        <time>2019-04-17T18:38:42Z</time>
      </trkpt>
      <trkpt lat="45.91603" lon="6.77287">
        <ele>856</ele>
        <time>2019-04-17T18:39:42Z</time>
      </trkpt>
      <trkpt lat="45.9168" lon="6.77284">
        <ele>856</ele>
        <time>2019-04-17T18:40:42Z</time>
      </trkpt>
      <trkpt lat="45.91719" lon="6.77268">
        <ele>850</ele>
        <time>2019-04-17T18:41:42Z</time>
      </trkpt>
      <trkpt lat="45.91765" lon="6.77243">
        <ele>844</ele>
        <time>2019-04-17T18:42:42Z</time>
      </trkpt>
      <trkpt lat="45.91862" lon="6.77204">
        <ele>845</ele>
        <time>2019-04-17T18:43:42Z</time>
      </trkpt>
      <trkpt lat="45.91903" lon="6.77194">
        <ele>845</ele>
        <time>2019-04-17T18:44:42Z</time>
      </trkpt>
      <trkpt lat="45.91921" lon="6.77187">
        <ele>843</ele>
        <time>2019-04-17T18:45:42Z</time>
      </trkpt>
      <trkpt lat="45.91961" lon="6.77162">
        <ele>835</ele>
        <time>2019-04-17T18:46:42Z</time>
      </trkpt>
      <trkpt lat="45.91986" lon="6.77151">
        <ele>836</ele>
        <time>2019-04-17T18:47:42Z</time>
      </trkpt>
      <trkpt lat="45.92034" lon="6.77134">
        <ele>835</ele>
        <time>2019-04-17T18:48:42Z</time>
      </trkpt>
      <trkpt lat="45.92065" lon="6.7713">
        <ele>836</ele>
        <time>2019-04-17T18:49:42Z</time>
      </trkpt>
      <trkpt lat="45.92088" lon="6.77131">
        <ele>837</ele>
        <time>2019-04-17T18:50:42Z</time>
      </trkpt>
      <trkpt lat="45.92142" lon="6.77141">
        <ele>846</ele>
        <time>2019-04-17T18:51:42Z</time>
      </trkpt>
      <trkpt lat="45.92483" lon="6.77093">
        <ele>825</ele>
        <time>2019-04-17T18:52:42Z</time>
      </trkpt>
      <trkpt lat="45.92531" lon="6.77076">
        <ele>819</ele>
        <time>2019-04-17T18:53:42Z</time>
      </trkpt>
      <trkpt lat="45.92532" lon="6.77081">
        <ele>819</ele>
        <time>2019-04-17T18:54:42Z</time>
      </trkpt>
      <trkpt lat="45.92539" lon="6.77088">
        <ele>821</ele>
        <time>2019-04-17T18:55:42Z</time>
      </trkpt>
      <trkpt lat="45.92543" lon="6.77088">
        <ele>821</ele>
        <time>2019-04-17T18:56:42Z</time>
      </trkpt>
      <trkpt lat="45.92547" lon="6.77086">
        <ele>820</ele>
        <time>2019-04-17T18:57:42Z</time>
      </trkpt>
      <trkpt lat="45.92551" lon="6.77077">
        <ele>819</ele>
        <time>2019-04-17T18:58:42Z</time>
      </trkpt>
      <trkpt lat="45.92551" lon="6.77073">
        <ele>818</ele>
        <time>2019-04-17T18:59:42Z</time>
      </trkpt>
      <trkpt lat="45.92566" lon="6.77073">
        <ele>818</ele>
        <time>2019-04-17T19:00:42Z</time>
      </trkpt>
      <trkpt lat="45.92587" lon="6.77076">
        <ele>818</ele>
        <time>2019-04-17T19:01:42Z</time>
      </trkpt>
      <trkpt lat="45.92747" lon="6.77054">
        <ele>814</ele>
        <time>2019-04-17T19:02:42Z</time>
      </trkpt>
      <trkpt lat="45.92993" lon="6.77018">
        <ele>821</ele>
        <time>2019-04-17T19:03:42Z</time>
      </trkpt>
      <trkpt lat="45.93026" lon="6.77007">
        <ele>822</ele>
        <time>2019-04-17T19:04:42Z</time>
      </trkpt>
      <trkpt lat="45.93051" lon="6.76978">
        <ele>822</ele>
        <time>2019-04-17T19:05:42Z</time>
      </trkpt>
      <trkpt lat="45.93066" lon="6.76952">
        <ele>823</ele>
        <time>2019-04-17T19:06:42Z</time>
      </trkpt>
      <trkpt lat="45.93113" lon="6.7683">
        <ele>819</ele>
        <time>2019-04-17T19:07:42Z</time>
      </trkpt>
      <trkpt lat="45.93136" lon="6.76786">
        <ele>821</ele>
        <time>2019-04-17T19:08:42Z</time>
      </trkpt>
      <trkpt lat="45.93152" lon="6.76734">
        <ele>822</ele>
        <time>2019-04-17T19:09:42Z</time>
      </trkpt>
      <trkpt lat="45.93163" lon="6.7668">
        <ele>820</ele>
        <time>2019-04-17T19:10:42Z</time>
      </trkpt>
      <trkpt lat="45.93196" lon="6.76065">
        <ele>818</ele>
        <time>2019-04-17T19:11:42Z</time>
      </trkpt>
      <trkpt lat="45.93193" lon="6.75995">
        <ele>819</ele>
        <time>2019-04-17T19:12:42Z</time>
      </trkpt>
      <trkpt lat="45.9318" lon="6.75951">
        <ele>819</ele>
        <time>2019-04-17T19:13:42Z</time>
      </trkpt>
      <trkpt lat="45.93119" lon="6.75758">
        <ele>819</ele>
        <time>2019-04-17T19:14:42Z</time>
      </trkpt>
      <trkpt lat="45.93115" lon="6.75737">
        <ele>820</ele>
        <time>2019-04-17T19:15:42Z</time>
      </trkpt>
      <trkpt lat="45.93116" lon="6.75704">
        <ele>821</ele>
        <time>2019-04-17T19:16:42Z</time>
      </trkpt>
      <trkpt lat="45.93122" lon="6.75674">
        <ele>822</ele>
        <time>2019-04-17T19:17:42Z</time>
      </trkpt>
      <trkpt lat="45.93155" lon="6.7558">
        <ele>829</ele>
        <time>2019-04-17T19:18:42Z</time>
      </trkpt>
      <trkpt lat="45.93163" lon="6.75562">
        <ele>830</ele>
        <time>2019-04-17T19:19:42Z</time>
      </trkpt>
      <trkpt lat="45.93179" lon="6.75513">
        <ele>834</ele>
        <time>2019-04-17T19:20:42Z</time>
      </trkpt>
      <trkpt lat="45.93182" lon="6.75471">
        <ele>835</ele>
        <time>2019-04-17T19:21:42Z</time>
      </trkpt>
      <trkpt lat="45.93179" lon="6.75417">
        <ele>832</ele>
        <time>2019-04-17T19:22:42Z</time>
      </trkpt>
      <trkpt lat="45.93186" lon="6.75363">
        <ele>832</ele>
        <time>2019-04-17T19:23:42Z</time>
      </trkpt>
      <trkpt lat="45.93196" lon="6.75316">
        <ele>833</ele>
        <time>2019-04-17T19:24:42Z</time>
      </trkpt>
      <trkpt lat="45.932" lon="6.75282">
        <ele>835</ele>
        <time>2019-04-17T19:25:42Z</time>
      </trkpt>
      <trkpt lat="45.93199" lon="6.75224">
        <ele>834</ele>
        <time>2019-04-17T19:26:42Z</time>
      </trkpt>
      <trkpt lat="45.93203" lon="6.75204">
        <ele>835</ele>
        <time>2019-04-17T19:27:42Z</time>
      </trkpt>
      <trkpt lat="45.93209" lon="6.75186">
        <ele>836</ele>
        <time>2019-04-17T19:28:42Z</time>
      </trkpt>
      <trkpt lat="45.93221" lon="6.75165">
        <ele>839</ele>
        <time>2019-04-17T19:29:42Z</time>
      </trkpt>
      <trkpt lat="45.93231" lon="6.75145">
        <ele>842</ele>
        <time>2019-04-17T19:30:42Z</time>
      </trkpt>
      <trkpt lat="45.93238" lon="6.75125">
        <ele>843</ele>
        <time>2019-04-17T19:31:42Z</time>
      </trkpt>
      <trkpt lat="45.93245" lon="6.75085">
        <ele>845</ele>
        <time>2019-04-17T19:32:42Z</time>
      </trkpt>
      <trkpt lat="45.93249" lon="6.75074">
        <ele>845</ele>
        <time>2019-04-17T19:33:42Z</time>
      </trkpt>
      <trkpt lat="45.93259" lon="6.75057">
        <ele>845</ele>
        <time>2019-04-17T19:34:42Z</time>
      </trkpt>
      <trkpt lat="45.93285" lon="6.75026">
        <ele>846</ele>
        <time>2019-04-17T19:35:42Z</time>
      </trkpt>
      <trkpt lat="45.93311" lon="6.75004">
        <ele>846</ele>
        <time>2019-04-17T19:36:42Z</time>
      </trkpt>
      <trkpt lat="45.9333" lon="6.74985">
        <ele>846</ele>
        <time>2019-04-17T19:37:42Z</time>
      </trkpt>
      <trkpt lat="45.93352" lon="6.74948">
        <ele>845</ele>
        <time>2019-04-17T19:38:42Z</time>
      </trkpt>
      <trkpt lat="45.93373" lon="6.74934">
        <ele>848</ele>
        <time>2019-04-17T19:39:42Z</time>
      </trkpt>
      <trkpt lat="45.93404" lon="6.74928">
        <ele>853</ele>
        <time>2019-04-17T19:40:42Z</time>
      </trkpt>
      <trkpt lat="45.93421" lon="6.7492">
        <ele>856</ele>
        <time>2019-04-17T19:41:42Z</time>
      </trkpt>
      <trkpt lat="45.93432" lon="6.74907">
        <ele>857</ele>
        <time>2019-04-17T19:42:42Z</time>
      </trkpt>
      <trkpt lat="45.9344" lon="6.74892">
        <ele>856</ele>
        <time>2019-04-17T19:43:42Z</time>
      </trkpt>
      <trkpt lat="45.93455" lon="6.74847">
        <ele>854</ele>
        <time>2019-04-17T19:44:42Z</time>
      </trkpt>
      <trkpt lat="45.93467" lon="6.74834">
        <ele>855</ele>
        <time>2019-04-17T19:45:42Z</time>
      </trkpt>
      <trkpt lat="45.93497" lon="6.74816">
        <ele>861</ele>
        <time>2019-04-17T19:46:42Z</time>
      </trkpt>
      <trkpt lat="45.93505" lon="6.74805">
        <ele>862</ele>
        <time>2019-04-17T19:47:42Z</time>
      </trkpt>
      <trkpt lat="45.93509" lon="6.74794">
        <ele>862</ele>
        <time>2019-04-17T19:48:42Z</time>
      </trkpt>
      <trkpt lat="45.93511" lon="6.74746">
        <ele>857</ele>
        <time>2019-04-17T19:49:42Z</time>
      </trkpt>
      <trkpt lat="45.93516" lon="6.74731">
        <ele>858</ele>
        <time>2019-04-17T19:50:42Z</time>
      </trkpt>
      <trkpt lat="45.93541" lon="6.74663">
        <ele>860</ele>
        <time>2019-04-17T19:51:42Z</time>
      </trkpt>
      <trkpt lat="45.93555" lon="6.74648">
        <ele>861</ele>
        <time>2019-04-17T19:52:42Z</time>
      </trkpt>
      <trkpt lat="45.93584" lon="6.74631">
        <ele>866</ele>
        <time>2019-04-17T19:53:42Z</time>
      </trkpt>
      <trkpt lat="45.93622" lon="6.74625">
        <ele>875</ele>
        <time>2019-04-17T19:54:42Z</time>
      </trkpt>
      <trkpt lat="45.93631" lon="6.74612">
        <ele>876</ele>
        <time>2019-04-17T19:55:42Z</time>
      </trkpt>
      <trkpt lat="45.93635" lon="6.74595">
        <ele>874</ele>
        <time>2019-04-17T19:56:42Z</time>
      </trkpt>
      <trkpt lat="45.93635" lon="6.7452">
        <ele>867</ele>
        <time>2019-04-17T19:57:42Z</time>
      </trkpt>
      <trkpt lat="45.93639" lon="6.74496">
        <ele>865</ele>
        <time>2019-04-17T19:58:42Z</time>
      </trkpt>
      <trkpt lat="45.93662" lon="6.74402">
        <ele>863</ele>
        <time>2019-04-17T19:59:42Z</time>
      </trkpt>
      <trkpt lat="45.93674" lon="6.74375">
        <ele>860</ele>
        <time>2019-04-17T20:00:42Z</time>
      </trkpt>
      <trkpt lat="45.93688" lon="6.74351">
        <ele>859</ele>
        <time>2019-04-17T20:01:42Z</time>
      </trkpt>
      <trkpt lat="45.93714" lon="6.7433">
        <ele>860</ele>
        <time>2019-04-17T20:02:42Z</time>
      </trkpt>
      <trkpt lat="45.93795" lon="6.74276">
        <ele>867</ele>
        <time>2019-04-17T20:03:42Z</time>
      </trkpt>
      <trkpt lat="45.93845" lon="6.74216">
        <ele>865</ele>
        <time>2019-04-17T20:04:42Z</time>
      </trkpt>
      <trkpt lat="45.93889" lon="6.74172">
        <ele>865</ele>
        <time>2019-04-17T20:05:42Z</time>
      </trkpt>
      <trkpt lat="45.93903" lon="6.7415">
        <ele>865</ele>
        <time>2019-04-17T20:06:42Z</time>
      </trkpt>
      <trkpt lat="45.93907" lon="6.74137">
        <ele>865</ele>
        <time>2019-04-17T20:07:42Z</time>
      </trkpt>
      <trkpt lat="45.9391" lon="6.74102">
        <ele>863</ele>
        <time>2019-04-17T20:08:42Z</time>
      </trkpt>
      <trkpt lat="45.93908" lon="6.74088">
        <ele>862</ele>
        <time>2019-04-17T20:09:42Z</time>
      </trkpt>
      <trkpt lat="45.93885" lon="6.74004">
        <ele>860</ele>
        <time>2019-04-17T20:10:42Z</time>
      </trkpt>
      <trkpt lat="45.93876" lon="6.73985">
        <ele>858</ele>
        <time>2019-04-17T20:11:42Z</time>
      </trkpt>
      <trkpt lat="45.93837" lon="6.73928">
        <ele>847</ele>
        <time>2019-04-17T20:12:42Z</time>
      </trkpt>
      <trkpt lat="45.93821" lon="6.73903">
        <ele>843</ele>
        <time>2019-04-17T20:13:42Z</time>
      </trkpt>
      <trkpt lat="45.93802" lon="6.73836">
        <ele>843</ele>
        <time>2019-04-17T20:14:42Z</time>
      </trkpt>
      <trkpt lat="45.93795" lon="6.73801">
        <ele>844</ele>
        <time>2019-04-17T20:15:42Z</time>
      </trkpt>
      <trkpt lat="45.93784" lon="6.73765">
        <ele>843</ele>
        <time>2019-04-17T20:16:42Z</time>
      </trkpt>
      <trkpt lat="45.93771" lon="6.73707">
        <ele>843</ele>
        <time>2019-04-17T20:17:42Z</time>
      </trkpt>
      <trkpt lat="45.9375" lon="6.73633">
        <ele>840</ele>
        <time>2019-04-17T20:18:42Z</time>
      </trkpt>
      <trkpt lat="45.93746" lon="6.73566">
        <ele>834</ele>
        <time>2019-04-17T20:19:42Z</time>
      </trkpt>
      <trkpt lat="45.93754" lon="6.73534">
        <ele>831</ele>
        <time>2019-04-17T20:20:42Z</time>
      </trkpt>
      <trkpt lat="45.93788" lon="6.7349">
        <ele>833</ele>
        <time>2019-04-17T20:21:42Z</time>
      </trkpt>
      <trkpt lat="45.93803" lon="6.73467">
        <ele>833</ele>
        <time>2019-04-17T20:22:42Z</time>
      </trkpt>
      <trkpt lat="45.93806" lon="6.73449">
        <ele>831</ele>
        <time>2019-04-17T20:23:42Z</time>
      </trkpt>
      <trkpt lat="45.93805" lon="6.73423">
        <ele>826</ele>
        <time>2019-04-17T20:24:42Z</time>
      </trkpt>
      <trkpt lat="45.93808" lon="6.73405">
        <ele>823</ele>
        <time>2019-04-17T20:25:42Z</time>
      </trkpt>
      <trkpt lat="45.93823" lon="6.73375">
        <ele>820</ele>
        <time>2019-04-17T20:26:42Z</time>
      </trkpt>
      <trkpt lat="45.93828" lon="6.7336">
        <ele>817</ele>
        <time>2019-04-17T20:27:42Z</time>
      </trkpt>
      <trkpt lat="45.93829" lon="6.73345">
        <ele>814</ele>
        <time>2019-04-17T20:28:42Z</time>
      </trkpt>
      <trkpt lat="45.93825" lon="6.73321">
        <ele>810</ele>
        <time>2019-04-17T20:29:42Z</time>
      </trkpt>
      <trkpt lat="45.93816" lon="6.73305">
        <ele>807</ele>
        <time>2019-04-17T20:30:42Z</time>
      </trkpt>
      <trkpt lat="45.93765" lon="6.73224">
        <ele>801</ele>
        <time>2019-04-17T20:31:42Z</time>
      </trkpt>
      <trkpt lat="45.93732" lon="6.73168">
        <ele>801</ele>
        <time>2019-04-17T20:32:42Z</time>
      </trkpt>
      <trkpt lat="45.93709" lon="6.73125">
        <ele>803</ele>
        <time>2019-04-17T20:33:42Z</time>
      </trkpt>
      <trkpt lat="45.93697" lon="6.73099">
        <ele>804</ele>
        <time>2019-04-17T20:34:42Z</time>
      </trkpt>
      <trkpt lat="45.93685" lon="6.73049">
        <ele>813</ele>
        <time>2019-04-17T20:35:42Z</time>
      </trkpt>
      <trkpt lat="45.93678" lon="6.73037">
        <ele>814</ele>
        <time>2019-04-17T20:36:42Z</time>
      </trkpt>
      <trkpt lat="45.93669" lon="6.73028">
        <ele>815</ele>
        <time>2019-04-17T20:37:42Z</time>
      </trkpt>
      <trkpt lat="45.93652" lon="6.73023">
        <ele>812</ele>
        <time>2019-04-17T20:38:42Z</time>
      </trkpt>
      <trkpt lat="45.936" lon="6.73032">
        <ele>799</ele>
        <time>2019-04-17T20:39:42Z</time>
      </trkpt>
      <trkpt lat="45.93574" lon="6.73031">
        <ele>794</ele>
        <time>2019-04-17T20:40:42Z</time>
      </trkpt>
      <trkpt lat="45.93553" lon="6.73027">
        <ele>790</ele>
        <time>2019-04-17T20:41:42Z</time>
      </trkpt>
      <trkpt lat="45.93505" lon="6.72992">
        <ele>784</ele>
        <time>2019-04-17T20:42:42Z</time>
      </trkpt>
      <trkpt lat="45.93496" lon="6.72982">
        <ele>782</ele>
        <time>2019-04-17T20:43:42Z</time>
      </trkpt>
      <trkpt lat="45.93491" lon="6.72973">
        <ele>781</ele>
        <time>2019-04-17T20:44:42Z</time>
      </trkpt>
      <trkpt lat="45.93488" lon="6.72963">
        <ele>781</ele>
        <time>2019-04-17T20:45:42Z</time>
      </trkpt>
      <trkpt lat="45.93488" lon="6.72944">
        <ele>782</ele>
        <time>2019-04-17T20:46:42Z</time>
      </trkpt>
      <trkpt lat="45.93492" lon="6.72902">
        <ele>786</ele>
        <time>2019-04-17T20:47:42Z</time>
      </trkpt>
      <trkpt lat="45.93486" lon="6.72882">
        <ele>787</ele>
        <time>2019-04-17T20:48:42Z</time>
      </trkpt>
      <trkpt lat="45.93479" lon="6.72871">
        <ele>787</ele>
        <time>2019-04-17T20:49:42Z</time>
      </trkpt>
      <trkpt lat="45.93471" lon="6.72864">
        <ele>786</ele>
        <time>2019-04-17T20:50:42Z</time>
      </trkpt>
      <trkpt lat="45.93426" lon="6.72848">
        <ele>779</ele>
        <time>2019-04-17T20:51:42Z</time>
      </trkpt>
      <trkpt lat="45.93415" lon="6.7284">
        <ele>778</ele>
        <time>2019-04-17T20:52:42Z</time>
      </trkpt>
      <trkpt lat="45.93408" lon="6.72827">
        <ele>776</ele>
        <time>2019-04-17T20:53:42Z</time>
      </trkpt>
      <trkpt lat="45.93403" lon="6.72809">
        <ele>774</ele>
        <time>2019-04-17T20:54:42Z</time>
      </trkpt>
      <trkpt lat="45.93402" lon="6.72798">
        <ele>773</ele>
        <time>2019-04-17T20:55:42Z</time>
      </trkpt>
      <trkpt lat="45.93407" lon="6.72774">
        <ele>773</ele>
        <time>2019-04-17T20:56:42Z</time>
      </trkpt>
      <trkpt lat="45.93426" lon="6.72745">
        <ele>777</ele>
        <time>2019-04-17T20:57:42Z</time>
      </trkpt>
      <trkpt lat="45.93451" lon="6.72699">
        <ele>774</ele>
        <time>2019-04-17T20:58:42Z</time>
      </trkpt>
      <trkpt lat="45.93475" lon="6.72659">
        <ele>774</ele>
        <time>2019-04-17T20:59:42Z</time>
      </trkpt>
      <trkpt lat="45.93483" lon="6.72644">
        <ele>775</ele>
        <time>2019-04-17T21:00:42Z</time>
      </trkpt>
      <trkpt lat="45.93488" lon="6.72627">
        <ele>776</ele>
        <time>2019-04-17T21:01:42Z</time>
      </trkpt>
      <trkpt lat="45.9349" lon="6.72614">
        <ele>776</ele>
        <time>2019-04-17T21:02:42Z</time>
      </trkpt>
      <trkpt lat="45.9348" lon="6.72545">
        <ele>768</ele>
        <time>2019-04-17T21:03:42Z</time>
      </trkpt>
      <trkpt lat="45.9348" lon="6.72522">
        <ele>767</ele>
        <time>2019-04-17T21:04:42Z</time>
      </trkpt>
      <trkpt lat="45.93489" lon="6.72432">
        <ele>766</ele>
        <time>2019-04-17T21:05:42Z</time>
      </trkpt>
      <trkpt lat="45.93499" lon="6.72392">
        <ele>768</ele>
        <time>2019-04-17T21:06:42Z</time>
      </trkpt>
      <trkpt lat="45.935" lon="6.72377">
        <ele>768</ele>
        <time>2019-04-17T21:07:42Z</time>
      </trkpt>
      <trkpt lat="45.93493" lon="6.72332">
        <ele>764</ele>
        <time>2019-04-17T21:08:42Z</time>
      </trkpt>
      <trkpt lat="45.93488" lon="6.72282">
        <ele>766</ele>
        <time>2019-04-17T21:09:42Z</time>
      </trkpt>
      <trkpt lat="45.93485" lon="6.72267">
        <ele>767</ele>
        <time>2019-04-17T21:10:42Z</time>
      </trkpt>
      <trkpt lat="45.93453" lon="6.72214">
        <ele>757</ele>
        <time>2019-04-17T21:11:42Z</time>
      </trkpt>
      <trkpt lat="45.93445" lon="6.72197">
        <ele>755</ele>
        <time>2019-04-17T21:12:42Z</time>
      </trkpt>
      <trkpt lat="45.9344" lon="6.72182">
        <ele>753</ele>
        <time>2019-04-17T21:13:42Z</time>
      </trkpt>
      <trkpt lat="45.9344" lon="6.72151">
        <ele>755</ele>
        <time>2019-04-17T21:14:42Z</time>
      </trkpt>
      <trkpt lat="45.93443" lon="6.72088">
        <ele>763</ele>
        <time>2019-04-17T21:15:42Z</time>
      </trkpt>
      <trkpt lat="45.93441" lon="6.72071">
        <ele>765</ele>
        <time>2019-04-17T21:16:42Z</time>
      </trkpt>
      <trkpt lat="45.93436" lon="6.72055">
        <ele>766</ele>
        <time>2019-04-17T21:17:42Z</time>
      </trkpt>
      <trkpt lat="45.93431" lon="6.72045">
        <ele>766</ele>
        <time>2019-04-17T21:18:42Z</time>
      </trkpt>
      <trkpt lat="45.93411" lon="6.72034">
        <ele>760</ele>
        <time>2019-04-17T21:19:42Z</time>
      </trkpt>
      <trkpt lat="45.93391" lon="6.72015">
        <ele>753</ele>
        <time>2019-04-17T21:20:42Z</time>
      </trkpt>
      <trkpt lat="45.9337" lon="6.71974">
        <ele>752</ele>
        <time>2019-04-17T21:21:42Z</time>
      </trkpt>
      <trkpt lat="45.93357" lon="6.71941">
        <ele>756</ele>
        <time>2019-04-17T21:22:42Z</time>
      </trkpt>
      <trkpt lat="45.93351" lon="6.71932">
        <ele>756</ele>
        <time>2019-04-17T21:23:42Z</time>
      </trkpt>
      <trkpt lat="45.93351" lon="6.71947">
        <ele>751</ele>
        <time>2019-04-17T21:24:42Z</time>
      </trkpt>
      <trkpt lat="45.93359" lon="6.71964">
        <ele>750</ele>
        <time>2019-04-17T21:25:42Z</time>
      </trkpt>
      <trkpt lat="45.93367" lon="6.71992">
        <ele>746</ele>
        <time>2019-04-17T21:26:42Z</time>
      </trkpt>
      <trkpt lat="45.93381" lon="6.7205">
        <ele>743</ele>
        <time>2019-04-17T21:27:42Z</time>
      </trkpt>
      <trkpt lat="45.934" lon="6.72111">
        <ele>743</ele>
        <time>2019-04-17T21:28:42Z</time>
      </trkpt>
      <trkpt lat="45.93404" lon="6.72134">
        <ele>743</ele>
        <time>2019-04-17T21:29:42Z</time>
      </trkpt>
      <trkpt lat="45.93403" lon="6.72155">
        <ele>740</ele>
        <time>2019-04-17T21:30:42Z</time>
      </trkpt>
      <trkpt lat="45.93399" lon="6.72181">
        <ele>738</ele>
        <time>2019-04-17T21:31:42Z</time>
      </trkpt>
      <trkpt lat="45.93383" lon="6.72243">
        <ele>731</ele>
        <time>2019-04-17T21:32:42Z</time>
      </trkpt>
      <trkpt lat="45.9338" lon="6.72259">
        <ele>730</ele>
        <time>2019-04-17T21:33:42Z</time>
      </trkpt>
      <trkpt lat="45.93384" lon="6.7228">
        <ele>730</ele>
        <time>2019-04-17T21:34:42Z</time>
      </trkpt>
      <trkpt lat="45.93395" lon="6.72315">
        <ele>732</ele>
        <time>2019-04-17T21:35:42Z</time>
      </trkpt>
      <trkpt lat="45.93396" lon="6.72324">
        <ele>732</ele>
        <time>2019-04-17T21:36:42Z</time>
      </trkpt>
      <trkpt lat="45.93394" lon="6.72331">
        <ele>731</ele>
        <time>2019-04-17T21:37:42Z</time>
      </trkpt>
      <trkpt lat="45.93387" lon="6.72336">
        <ele>729</ele>
        <time>2019-04-17T21:38:42Z</time>
      </trkpt>
      <trkpt lat="45.93358" lon="6.72324">
        <ele>720</ele>
        <time>2019-04-17T21:39:42Z</time>
      </trkpt>
      <trkpt lat="45.93333" lon="6.7231">
        <ele>713</ele>
        <time>2019-04-17T21:40:42Z</time>
      </trkpt>
      <trkpt lat="45.93304" lon="6.7229">
        <ele>708</ele>
        <time>2019-04-17T21:41:42Z</time>
      </trkpt>
      <trkpt lat="45.93286" lon="6.72269">
        <ele>705</ele>
        <time>2019-04-17T21:42:42Z</time>
      </trkpt>
      <trkpt lat="45.93279" lon="6.72253">
        <ele>704</ele>
        <time>2019-04-17T21:43:42Z</time>
      </trkpt>
      <trkpt lat="45.93276" lon="6.72233">
        <ele>704</ele>
        <time>2019-04-17T21:44:42Z</time>
      </trkpt>
      <trkpt lat="45.93276" lon="6.722">
        <ele>703</ele>
        <time>2019-04-17T21:45:42Z</time>
      </trkpt>
      <trkpt lat="45.93282" lon="6.72111">
        <ele>702</ele>
        <time>2019-04-17T21:46:42Z</time>
      </trkpt>
      <trkpt lat="45.93282" lon="6.72097">
        <ele>702</ele>
        <time>2019-04-17T21:47:42Z</time>
      </trkpt>
      <trkpt lat="45.93276" lon="6.72083">
        <ele>700</ele>
        <time>2019-04-17T21:48:42Z</time>
      </trkpt>
      <trkpt lat="45.93267" lon="6.7208">
        <ele>697</ele>
        <time>2019-04-17T21:49:42Z</time>
      </trkpt>
      <trkpt lat="45.93258" lon="6.72081">
        <ele>694</ele>
        <time>2019-04-17T21:50:42Z</time>
      </trkpt>
      <trkpt lat="45.93251" lon="6.72088">
        <ele>693</ele>
        <time>2019-04-17T21:51:42Z</time>
      </trkpt>
      <trkpt lat="45.93241" lon="6.72113">
        <ele>691</ele>
        <time>2019-04-17T21:52:42Z</time>
      </trkpt>
      <trkpt lat="45.93214" lon="6.7219">
        <ele>685</ele>
        <time>2019-04-17T21:53:42Z</time>
      </trkpt>
      <trkpt lat="45.93205" lon="6.72198">
        <ele>681</ele>
        <time>2019-04-17T21:54:42Z</time>
      </trkpt>
      <trkpt lat="45.93195" lon="6.722">
        <ele>678</ele>
        <time>2019-04-17T21:55:42Z</time>
      </trkpt>
      <trkpt lat="45.93186" lon="6.72194">
        <ele>675</ele>
        <time>2019-04-17T21:56:42Z</time>
      </trkpt>
      <trkpt lat="45.93175" lon="6.72179">
        <ele>673</ele>
        <time>2019-04-17T21:57:42Z</time>
      </trkpt>
      <trkpt lat="45.93151" lon="6.72115">
        <ele>665</ele>
        <time>2019-04-17T21:58:42Z</time>
      </trkpt>
      <trkpt lat="45.93145" lon="6.72081">
        <ele>663</ele>
        <time>2019-04-17T21:59:42Z</time>
      </trkpt>
      <trkpt lat="45.93146" lon="6.72065">
        <ele>662</ele>
        <time>2019-04-17T22:00:42Z</time>
      </trkpt>
      <trkpt lat="45.93149" lon="6.72046">
        <ele>661</ele>
        <time>2019-04-17T22:01:42Z</time>
      </trkpt>
      <trkpt lat="45.93149" lon="6.7202">
        <ele>659</ele>
        <time>2019-04-17T22:02:42Z</time>
      </trkpt>
      <trkpt lat="45.93147" lon="6.72009">
        <ele>658</ele>
        <time>2019-04-17T22:03:42Z</time>
      </trkpt>
      <trkpt lat="45.93141" lon="6.72002">
        <ele>656</ele>
        <time>2019-04-17T22:04:42Z</time>
      </trkpt>
      <trkpt lat="45.93135" lon="6.72001">
        <ele>655</ele>
        <time>2019-04-17T22:05:42Z</time>
      </trkpt>
      <trkpt lat="45.93126" lon="6.72002">
        <ele>653</ele>
        <time>2019-04-17T22:06:42Z</time>
      </trkpt>
      <trkpt lat="45.93122" lon="6.72008">
        <ele>652</ele>
        <time>2019-04-17T22:07:42Z</time>
      </trkpt>
      <trkpt lat="45.93118" lon="6.7202">
        <ele>652</ele>
        <time>2019-04-17T22:08:42Z</time>
      </trkpt>
      <trkpt lat="45.93112" lon="6.72068">
        <ele>653</ele>
        <time>2019-04-17T22:09:42Z</time>
      </trkpt>
      <trkpt lat="45.93097" lon="6.72111">
        <ele>647</ele>
        <time>2019-04-17T22:10:42Z</time>
      </trkpt>
      <trkpt lat="45.93094" lon="6.72123">
        <ele>646</ele>
        <time>2019-04-17T22:11:42Z</time>
      </trkpt>
      <trkpt lat="45.93094" lon="6.72138">
        <ele>645</ele>
        <time>2019-04-17T22:12:42Z</time>
      </trkpt>
      <trkpt lat="45.931" lon="6.72184">
        <ele>645</ele>
        <time>2019-04-17T22:13:42Z</time>
      </trkpt>
      <trkpt lat="45.931" lon="6.72205">
        <ele>644</ele>
        <time>2019-04-17T22:14:42Z</time>
      </trkpt>
      <trkpt lat="45.93102" lon="6.72241">
        <ele>643</ele>
        <time>2019-04-17T22:15:42Z</time>
      </trkpt>
      <trkpt lat="45.93102" lon="6.72256">
        <ele>642</ele>
        <time>2019-04-17T22:16:42Z</time>
      </trkpt>
      <trkpt lat="45.93093" lon="6.72299">
        <ele>639</ele>
        <time>2019-04-17T22:17:42Z</time>
      </trkpt>
      <trkpt lat="45.93085" lon="6.72332">
        <ele>637</ele>
        <time>2019-04-17T22:18:42Z</time>
      </trkpt>
      <trkpt lat="45.9307" lon="6.7231">
        <ele>633</ele>
        <time>2019-04-17T22:19:42Z</time>
      </trkpt>
      <trkpt lat="45.93063" lon="6.72286">
        <ele>631</ele>
        <time>2019-04-17T22:20:42Z</time>
      </trkpt>
      <trkpt lat="45.93059" lon="6.72281">
        <ele>631</ele>
        <time>2019-04-17T22:21:42Z</time>
      </trkpt>
      <trkpt lat="45.93015" lon="6.72253">
        <ele>621</ele>
        <time>2019-04-17T22:22:42Z</time>
      </trkpt>
      <trkpt lat="45.93002" lon="6.7224">
        <ele>618</ele>
        <time>2019-04-17T22:23:42Z</time>
      </trkpt>
      <trkpt lat="45.92855" lon="6.72099">
        <ele>602</ele>
        <time>2019-04-17T22:24:42Z</time>
      </trkpt>
      <trkpt lat="45.92768" lon="6.72009">
        <ele>601</ele>
        <time>2019-04-17T22:25:42Z</time>
      </trkpt>
      <trkpt lat="45.92753" lon="6.72005">
        <ele>602</ele>
        <time>2019-04-17T22:26:42Z</time>
      </trkpt>
      <trkpt lat="45.92744" lon="6.72007">
        <ele>602</ele>
        <time>2019-04-17T22:27:42Z</time>
      </trkpt>
      <trkpt lat="45.9274" lon="6.7199">
        <ele>602</ele>
        <time>2019-04-17T22:28:42Z</time>
      </trkpt>
      <trkpt lat="45.9273" lon="6.71973">
        <ele>601</ele>
        <time>2019-04-17T22:29:42Z</time>
      </trkpt>
      <trkpt lat="45.92254" lon="6.71504">
        <ele>591</ele>
        <time>2019-04-17T22:30:42Z</time>
      </trkpt>
      <trkpt lat="45.92149" lon="6.71397">
        <ele>590</ele>
        <time>2019-04-17T22:31:42Z</time>
      </trkpt>
      <trkpt lat="45.92138" lon="6.71383">
        <ele>590</ele>
        <time>2019-04-17T22:32:42Z</time>
      </trkpt>
      <trkpt lat="45.92142" lon="6.7138">
        <ele>590</ele>
        <time>2019-04-17T22:33:42Z</time>
      </trkpt>
      <trkpt lat="45.92144" lon="6.71376">
        <ele>590</ele>
        <time>2019-04-17T22:34:42Z</time>
      </trkpt>
      <trkpt lat="45.92143" lon="6.7137">
        <ele>590</ele>
        <time>2019-04-17T22:35:42Z</time>
      </trkpt>
      <trkpt lat="45.9214" lon="6.71363">
        <ele>590</ele>
        <time>2019-04-17T22:36:42Z</time>
      </trkpt>
      <trkpt lat="45.92134" lon="6.7136">
        <ele>590</ele>
        <time>2019-04-17T22:37:42Z</time>
      </trkpt>
      <trkpt lat="45.92126" lon="6.7136">
        <ele>590</ele>
        <time>2019-04-17T22:38:42Z</time>
      </trkpt>
      <trkpt lat="45.92122" lon="6.71364">
        <ele>590</ele>
        <time>2019-04-17T22:39:42Z</time>
      </trkpt>
      <trkpt lat="45.92121" lon="6.71369">
        <ele>590</ele>
        <time>2019-04-17T22:40:42Z</time>
      </trkpt>
      <trkpt lat="45.9185" lon="6.71192">
        <ele>585</ele>
        <time>2019-04-17T22:41:42Z</time>
      </trkpt>
      <trkpt lat="45.91367" lon="6.7087">
        <ele>581</ele>
        <time>2019-04-17T22:42:42Z</time>
      </trkpt>
      <trkpt lat="45.91349" lon="6.70866">
        <ele>581</ele>
        <time>2019-04-17T22:43:42Z</time>
      </trkpt>
      <trkpt lat="45.91341" lon="6.7086">
        <ele>581</ele>
        <time>2019-04-17T22:44:42Z</time>
      </trkpt>
      <trkpt lat="45.91338" lon="6.70852">
        <ele>580</ele>
        <time>2019-04-17T22:45:42Z</time>
      </trkpt>
      <trkpt lat="45.91331" lon="6.70841">
        <ele>580</ele>
        <time>2019-04-17T22:46:42Z</time>
      </trkpt>
      <trkpt lat="45.91321" lon="6.70839">
        <ele>580</ele>
        <time>2019-04-17T22:47:42Z</time>
      </trkpt>
      <trkpt lat="45.91311" lon="6.70844">
        <ele>580</ele>
        <time>2019-04-17T22:48:42Z</time>
      </trkpt>
      <trkpt lat="45.91297" lon="6.70837">
        <ele>580</ele>
        <time>2019-04-17T22:49:42Z</time>
      </trkpt>
      <trkpt lat="45.91287" lon="6.7083">
        <ele>580</ele>
        <time>2019-04-17T22:50:42Z</time>
      </trkpt>
      <trkpt lat="45.91251" lon="6.70796">
        <ele>580</ele>
        <time>2019-04-17T22:51:42Z</time>
      </trkpt>
      <trkpt lat="45.91212" lon="6.70766">
        <ele>580</ele>
        <time>2019-04-17T22:52:42Z</time>
      </trkpt>
      <trkpt lat="45.91138" lon="6.70715">
        <ele>580</ele>
        <time>2019-04-17T22:53:42Z</time>
      </trkpt>
      <trkpt lat="45.91091" lon="6.70685">
        <ele>581</ele>
        <time>2019-04-17T22:54:42Z</time>
      </trkpt>
      <trkpt lat="45.91049" lon="6.70655">
        <ele>582</ele>
        <time>2019-04-17T22:55:42Z</time>
      </trkpt>
      <trkpt lat="45.90984" lon="6.70613">
        <ele>583</ele>
        <time>2019-04-17T22:56:42Z</time>
      </trkpt>
      <trkpt lat="45.90755" lon="6.70464">
        <ele>589</ele>
        <time>2019-04-17T22:57:42Z</time>
      </trkpt>
      <trkpt lat="45.90566" lon="6.70344">
        <ele>594</ele>
        <time>2019-04-17T22:58:42Z</time>
      </trkpt>
      <trkpt lat="45.90542" lon="6.70336">
        <ele>594</ele>
        <time>2019-04-17T22:59:42Z</time>
      </trkpt>
      <trkpt lat="45.90526" lon="6.70336">
        <ele>595</ele>
        <time>2019-04-17T23:00:42Z</time>
      </trkpt>
      <trkpt lat="45.90491" lon="6.70348">
        <ele>596</ele>
        <time>2019-04-17T23:01:42Z</time>
      </trkpt>
      <trkpt lat="45.90477" lon="6.7035">
        <ele>597</ele>
        <time>2019-04-17T23:02:42Z</time>
      </trkpt>
      <trkpt lat="45.90451" lon="6.70349">
        <ele>597</ele>
        <time>2019-04-17T23:03:42Z</time>
      </trkpt>
      <trkpt lat="45.90444" lon="6.70345">
        <ele>597</ele>
        <time>2019-04-17T23:04:42Z</time>
      </trkpt>
      <trkpt lat="45.90441" lon="6.70337">
        <ele>596</ele>
        <time>2019-04-17T23:05:42Z</time>
      </trkpt>
      <trkpt lat="45.90435" lon="6.70289">
        <ele>597</ele>
        <time>2019-04-17T23:06:42Z</time>
      </trkpt>
      <trkpt lat="45.90438" lon="6.70272">
        <ele>597</ele>
        <time>2019-04-17T23:07:42Z</time>
      </trkpt>
      <trkpt lat="45.90465" lon="6.70199">
        <ele>598</ele>
        <time>2019-04-17T23:08:42Z</time>
      </trkpt>
      <trkpt lat="45.90501" lon="6.70044">
        <ele>586</ele>
        <time>2019-04-17T23:09:42Z</time>
      </trkpt>
      <trkpt lat="45.90511" lon="6.7003">
        <ele>585</ele>
        <time>2019-04-17T23:10:42Z</time>
      </trkpt>
      <trkpt lat="45.90516" lon="6.7003">
        <ele>585</ele>
        <time>2019-04-17T23:11:42Z</time>
      </trkpt>
      <trkpt lat="45.90519" lon="6.70024">
        <ele>585</ele>
        <time>2019-04-17T23:12:42Z</time>
      </trkpt>
      <trkpt lat="45.9052" lon="6.70015">
        <ele>585</ele>
        <time>2019-04-17T23:13:42Z</time>
      </trkpt>
      <trkpt lat="45.90518" lon="6.7">
        <ele>584</ele>
        <time>2019-04-17T23:14:42Z</time>
      </trkpt>
      <trkpt lat="45.90514" lon="6.69987">
        <ele>584</ele>
        <time>2019-04-17T23:15:42Z</time>
      </trkpt>
      <trkpt lat="45.90512" lon="6.69986">
        <ele>584</ele>
        <time>2019-04-17T23:16:42Z</time>
      </trkpt>
      <trkpt lat="45.90498" lon="6.69993">
        <ele>585</ele>
        <time>2019-04-17T23:17:42Z</time>
      </trkpt>
      <trkpt lat="45.90479" lon="6.6999">
        <ele>590</ele>
        <time>2019-04-17T23:18:42Z</time>
      </trkpt>
      <trkpt lat="45.90472" lon="6.69981">
        <ele>591</ele>
        <time>2019-04-17T23:19:42Z</time>
      </trkpt>
      <trkpt lat="45.90462" lon="6.69943">
        <ele>591</ele>
        <time>2019-04-17T23:20:42Z</time>
      </trkpt>
      <trkpt lat="45.9045" lon="6.69921">
        <ele>591</ele>
        <time>2019-04-17T23:21:42Z</time>
      </trkpt>
      <trkpt lat="45.90436" lon="6.69904">
        <ele>592</ele>
        <time>2019-04-17T23:22:42Z</time>
      </trkpt>
      <trkpt lat="45.90409" lon="6.69862">
        <ele>594</ele>
        <time>2019-04-17T23:23:42Z</time>
      </trkpt>
      <trkpt lat="45.90394" lon="6.69848">
        <ele>598</ele>
        <time>2019-04-17T23:24:42Z</time>
      </trkpt>
      <trkpt lat="45.90388" lon="6.69849">
        <ele>600</ele>
        <time>2019-04-17T23:25:42Z</time>
      </trkpt>
      <trkpt lat="45.90385" lon="6.69851">
        <ele>601</ele>
        <time>2019-04-17T23:26:42Z</time>
      </trkpt>
      <trkpt lat="45.90381" lon="6.69858">
        <ele>603</ele>
        <time>2019-04-17T23:27:42Z</time>
      </trkpt>
      <trkpt lat="45.90383" lon="6.6987">
        <ele>603</ele>
        <time>2019-04-17T23:28:42Z</time>
      </trkpt>
      <trkpt lat="45.90384" lon="6.69877">
        <ele>604</ele>
        <time>2019-04-17T23:29:42Z</time>
      </trkpt>
      <trkpt lat="45.90408" lon="6.69923">
        <ele>600</ele>
        <time>2019-04-17T23:30:42Z</time>
      </trkpt>
      <trkpt lat="45.9041" lon="6.69935">
        <ele>601</ele>
        <time>2019-04-17T23:31:42Z</time>
      </trkpt>
      <trkpt lat="45.9041" lon="6.69943">
        <ele>602</ele>
        <time>2019-04-17T23:32:42Z</time>
      </trkpt>
      <trkpt lat="45.90404" lon="6.69954">
        <ele>605</ele>
        <time>2019-04-17T23:33:42Z</time>
      </trkpt>
      <trkpt lat="45.904" lon="6.69957">
        <ele>607</ele>
        <time>2019-04-17T23:34:42Z</time>
      </trkpt>
      <trkpt lat="45.90392" lon="6.69956">
        <ele>610</ele>
        <time>2019-04-17T23:35:42Z</time>
      </trkpt>
      <trkpt lat="45.90385" lon="6.69951">
        <ele>611</ele>
        <time>2019-04-17T23:36:42Z</time>
      </trkpt>
      <trkpt lat="45.90372" lon="6.69937">
        <ele>614</ele>
        <time>2019-04-17T23:37:42Z</time>
      </trkpt>
      <trkpt lat="45.90361" lon="6.69915">
        <ele>616</ele>
        <time>2019-04-17T23:38:42Z</time>
      </trkpt>
      <trkpt lat="45.90333" lon="6.69836">
        <ele>614</ele>
        <time>2019-04-17T23:39:42Z</time>
      </trkpt>
      <trkpt lat="45.90318" lon="6.69787">
        <ele>613</ele>
        <time>2019-04-17T23:40:42Z</time>
      </trkpt>
      <trkpt lat="45.90314" lon="6.69779">
        <ele>613</ele>
        <time>2019-04-17T23:41:42Z</time>
      </trkpt>
      <trkpt lat="45.9031" lon="6.69775">
        <ele>614</ele>
        <time>2019-04-17T23:42:42Z</time>
      </trkpt>
      <trkpt lat="45.90292" lon="6.69771">
        <ele>621</ele>
        <time>2019-04-17T23:43:42Z</time>
      </trkpt>
      <trkpt lat="45.90281" lon="6.69773">
        <ele>625</ele>
        <time>2019-04-17T23:44:42Z</time>
      </trkpt>
      <trkpt lat="45.9027" lon="6.69783">
        <ele>631</ele>
        <time>2019-04-17T23:45:42Z</time>
      </trkpt>
      <trkpt lat="45.90266" lon="6.69788">
        <ele>633</ele>
        <time>2019-04-17T23:46:42Z</time>
      </trkpt>
      <trkpt lat="45.90263" lon="6.6981">
        <ele>636</ele>
        <time>2019-04-17T23:47:42Z</time>
      </trkpt>
      <trkpt lat="45.90263" lon="6.69819">
        <ele>636</ele>
        <time>2019-04-17T23:48:42Z</time>
      </trkpt>
      <trkpt lat="45.90271" lon="6.69842">
        <ele>636</ele>
        <time>2019-04-17T23:49:42Z</time>
      </trkpt>
      <trkpt lat="45.90283" lon="6.69852">
        <ele>633</ele>
        <time>2019-04-17T23:50:42Z</time>
      </trkpt>
      <trkpt lat="45.90296" lon="6.69857">
        <ele>629</ele>
        <time>2019-04-17T23:51:42Z</time>
      </trkpt>
      <trkpt lat="45.90307" lon="6.69866">
        <ele>627</ele>
        <time>2019-04-17T23:52:42Z</time>
      </trkpt>
      <trkpt lat="45.9032" lon="6.69888">
        <ele>626</ele>
        <time>2019-04-17T23:53:42Z</time>
      </trkpt>
      <trkpt lat="45.90323" lon="6.69902">
        <ele>627</ele>
        <time>2019-04-17T23:54:42Z</time>
      </trkpt>
      <trkpt lat="45.90324" lon="6.69933">
        <ele>630</ele>
        <time>2019-04-17T23:55:42Z</time>
      </trkpt>
      <trkpt lat="45.9032" lon="6.69982">
        <ele>635</ele>
        <time>2019-04-17T23:56:42Z</time>
      </trkpt>
      <trkpt lat="45.9032" lon="6.70031">
        <ele>639</ele>
        <time>2019-04-17T23:57:42Z</time>
      </trkpt>
      <trkpt lat="45.90324" lon="6.70089">
        <ele>641</ele>
        <time>2019-04-17T23:58:42Z</time>
      </trkpt>
      <trkpt lat="45.90322" lon="6.701">
        <ele>642</ele>
        <time>2019-04-17T23:59:42Z</time>
      </trkpt>
      <trkpt lat="45.90315" lon="6.70106">
        <ele>644</ele>
        <time>2019-04-18T00:00:42Z</time>
      </trkpt>
      <trkpt lat="45.90304" lon="6.701">
        <ele>648</ele>
        <time>2019-04-18T00:01:42Z</time>
      </trkpt>
      <trkpt lat="45.90299" lon="6.70081">
        <ele>650</ele>
        <time>2019-04-18T00:02:42Z</time>
      </trkpt>
      <trkpt lat="45.90289" lon="6.70002">
        <ele>646</ele>
        <time>2019-04-18T00:03:42Z</time>
      </trkpt>
      <trkpt lat="45.90279" lon="6.69954">
        <ele>644</ele>
        <time>2019-04-18T00:04:42Z</time>
      </trkpt>
      <trkpt lat="45.90273" lon="6.6993">
        <ele>644</ele>
        <time>2019-04-18T00:05:42Z</time>
      </trkpt>
      <trkpt lat="45.90267" lon="6.6992">
        <ele>645</ele>
        <time>2019-04-18T00:06:42Z</time>
      </trkpt>
      <trkpt lat="45.90258" lon="6.69912">
        <ele>646</ele>
        <time>2019-04-18T00:07:42Z</time>
      </trkpt>
      <trkpt lat="45.90253" lon="6.6991">
        <ele>648</ele>
        <time>2019-04-18T00:08:42Z</time>
      </trkpt>
      <trkpt lat="45.90246" lon="6.69916">
        <ele>650</ele>
        <time>2019-04-18T00:09:42Z</time>
      </trkpt>
      <trkpt lat="45.9024" lon="6.69928">
        <ele>652</ele>
        <time>2019-04-18T00:10:42Z</time>
      </trkpt>
      <trkpt lat="45.90233" lon="6.69951">
        <ele>656</ele>
        <time>2019-04-18T00:11:42Z</time>
      </trkpt>
      <trkpt lat="45.90224" lon="6.69974">
        <ele>659</ele>
        <time>2019-04-18T00:12:42Z</time>
      </trkpt>
      <trkpt lat="45.90215" lon="6.69985">
        <ele>661</ele>
        <time>2019-04-18T00:13:42Z</time>
      </trkpt>
      <trkpt lat="45.9018" lon="6.7001">
        <ele>667</ele>
        <time>2019-04-18T00:14:42Z</time>
      </trkpt>
      <trkpt lat="45.9017" lon="6.70025">
        <ele>669</ele>
        <time>2019-04-18T00:15:42Z</time>
      </trkpt>
      <trkpt lat="45.90167" lon="6.70036">
        <ele>670</ele>
        <time>2019-04-18T00:16:42Z</time>
      </trkpt>
      <trkpt lat="45.90168" lon="6.70053">
        <ele>671</ele>
        <time>2019-04-18T00:17:42Z</time>
      </trkpt>
      <trkpt lat="45.90178" lon="6.70078">
        <ele>672</ele>
        <time>2019-04-18T00:18:42Z</time>
      </trkpt>
      <trkpt lat="45.90178" lon="6.70083">
        <ele>672</ele>
        <time>2019-04-18T00:19:42Z</time>
      </trkpt>
      <trkpt lat="45.90177" lon="6.70088">
        <ele>673</ele>
        <time>2019-04-18T00:20:42Z</time>
      </trkpt>
      <trkpt lat="45.90173" lon="6.70095">
        <ele>673</ele>
        <time>2019-04-18T00:21:42Z</time>
      </trkpt>
      <trkpt lat="45.90166" lon="6.70099">
        <ele>674</ele>
        <time>2019-04-18T00:22:42Z</time>
      </trkpt>
      <trkpt lat="45.9016" lon="6.70098">
        <ele>675</ele>
        <time>2019-04-18T00:23:42Z</time>
      </trkpt>
      <trkpt lat="45.90141" lon="6.7008">
        <ele>678</ele>
        <time>2019-04-18T00:24:42Z</time>
      </trkpt>
      <trkpt lat="45.90127" lon="6.70063">
        <ele>681</ele>
        <time>2019-04-18T00:25:42Z</time>
      </trkpt>
      <trkpt lat="45.90102" lon="6.70008">
        <ele>685</ele>
        <time>2019-04-18T00:26:42Z</time>
      </trkpt>
      <trkpt lat="45.90099" lon="6.69997">
        <ele>685</ele>
        <time>2019-04-18T00:27:42Z</time>
      </trkpt>
      <trkpt lat="45.90098" lon="6.6998">
        <ele>687</ele>
        <time>2019-04-18T00:28:42Z</time>
      </trkpt>
      <trkpt lat="45.90111" lon="6.69928">
        <ele>686</ele>
        <time>2019-04-18T00:29:42Z</time>
      </trkpt>
      <trkpt lat="45.90109" lon="6.69914">
        <ele>687</ele>
        <time>2019-04-18T00:30:42Z</time>
      </trkpt>
      <trkpt lat="45.90106" lon="6.69908">
        <ele>688</ele>
        <time>2019-04-18T00:31:42Z</time>
      </trkpt>
      <trkpt lat="45.90101" lon="6.69906">
        <ele>689</ele>
        <time>2019-04-18T00:32:42Z</time>
      </trkpt>
      <trkpt lat="45.90096" lon="6.69906">
        <ele>691</ele>
        <time>2019-04-18T00:33:42Z</time>
      </trkpt>
      <trkpt lat="45.90091" lon="6.69912">
        <ele>692</ele>
        <time>2019-04-18T00:34:42Z</time>
      </trkpt>
      <trkpt lat="45.90078" lon="6.69957">
        <ele>693</ele>
        <time>2019-04-18T00:35:42Z</time>
      </trkpt>
      <trkpt lat="45.90074" lon="6.69965">
        <ele>694</ele>
        <time>2019-04-18T00:36:42Z</time>
      </trkpt>
      <trkpt lat="45.90023" lon="6.70022">
        <ele>705</ele>
        <time>2019-04-18T00:37:42Z</time>
      </trkpt>
      <trkpt lat="45.90018" lon="6.70029">
        <ele>706</ele>
        <time>2019-04-18T00:38:42Z</time>
      </trkpt>
      <trkpt lat="45.89991" lon="6.70097">
        <ele>709</ele>
        <time>2019-04-18T00:39:42Z</time>
      </trkpt>
      <trkpt lat="45.8997" lon="6.70137">
        <ele>714</ele>
        <time>2019-04-18T00:40:42Z</time>
      </trkpt>
      <trkpt lat="45.89964" lon="6.70151">
        <ele>715</ele>
        <time>2019-04-18T00:41:42Z</time>
      </trkpt>
      <trkpt lat="45.89962" lon="6.70161">
        <ele>715</ele>
        <time>2019-04-18T00:42:42Z</time>
      </trkpt>
      <trkpt lat="45.89961" lon="6.7018">
        <ele>715</ele>
        <time>2019-04-18T00:43:42Z</time>
      </trkpt>
      <trkpt lat="45.89967" lon="6.70224">
        <ele>714</ele>
        <time>2019-04-18T00:44:42Z</time>
      </trkpt>
      <trkpt lat="45.89967" lon="6.70235">
        <ele>714</ele>
        <time>2019-04-18T00:45:42Z</time>
      </trkpt>
      <trkpt lat="45.89958" lon="6.7029">
        <ele>718</ele>
        <time>2019-04-18T00:46:42Z</time>
      </trkpt>
      <trkpt lat="45.89953" lon="6.70327">
        <ele>721</ele>
        <time>2019-04-18T00:47:42Z</time>
      </trkpt>
      <trkpt lat="45.89948" lon="6.70348">
        <ele>720</ele>
        <time>2019-04-18T00:48:42Z</time>
      </trkpt>
      <trkpt lat="45.89945" lon="6.70352">
        <ele>720</ele>
        <time>2019-04-18T00:49:42Z</time>
      </trkpt>
      <trkpt lat="45.89942" lon="6.70354">
        <ele>720</ele>
        <time>2019-04-18T00:50:42Z</time>
      </trkpt>
      <trkpt lat="45.89934" lon="6.70353">
        <ele>721</ele>
        <time>2019-04-18T00:51:42Z</time>
      </trkpt>
      <trkpt lat="45.89931" lon="6.70351">
        <ele>721</ele>
        <time>2019-04-18T00:52:42Z</time>
      </trkpt>
      <trkpt lat="45.89929" lon="6.70347">
        <ele>722</ele>
        <time>2019-04-18T00:53:42Z</time>
      </trkpt>
      <trkpt lat="45.89923" lon="6.70324">
        <ele>725</ele>
        <time>2019-04-18T00:54:42Z</time>
      </trkpt>
      <trkpt lat="45.89905" lon="6.70295">
        <ele>727</ele>
        <time>2019-04-18T00:55:42Z</time>
      </trkpt>
      <trkpt lat="45.89897" lon="6.70278">
        <ele>729</ele>
        <time>2019-04-18T00:56:42Z</time>
      </trkpt>
      <trkpt lat="45.89889" lon="6.70232">
        <ele>731</ele>
        <time>2019-04-18T00:57:42Z</time>
      </trkpt>
      <trkpt lat="45.89862" lon="6.7016">
        <ele>742</ele>
        <time>2019-04-18T00:58:42Z</time>
      </trkpt>
      <trkpt lat="45.8986" lon="6.70138">
        <ele>743</ele>
        <time>2019-04-18T00:59:42Z</time>
      </trkpt>
      <trkpt lat="45.89863" lon="6.7011">
        <ele>743</ele>
        <time>2019-04-18T01:00:42Z</time>
      </trkpt>
      <trkpt lat="45.89878" lon="6.70044">
        <ele>740</ele>
        <time>2019-04-18T01:01:42Z</time>
      </trkpt>
      <trkpt lat="45.89879" lon="6.70023">
        <ele>741</ele>
        <time>2019-04-18T01:02:42Z</time>
      </trkpt>
      <trkpt lat="45.89879" lon="6.70017">
        <ele>741</ele>
        <time>2019-04-18T01:03:42Z</time>
      </trkpt>
      <trkpt lat="45.89875" lon="6.7001">
        <ele>742</ele>
        <time>2019-04-18T01:04:42Z</time>
      </trkpt>
      <trkpt lat="45.89858" lon="6.69988">
        <ele>747</ele>
        <time>2019-04-18T01:05:42Z</time>
      </trkpt>
      <trkpt lat="45.8985" lon="6.69974">
        <ele>748</ele>
        <time>2019-04-18T01:06:42Z</time>
      </trkpt>
      <trkpt lat="45.89846" lon="6.6996">
        <ele>748</ele>
        <time>2019-04-18T01:07:42Z</time>
      </trkpt>
      <trkpt lat="45.89833" lon="6.69865">
        <ele>749</ele>
        <time>2019-04-18T01:08:42Z</time>
      </trkpt>
      <trkpt lat="45.8983" lon="6.69803">
        <ele>751</ele>
        <time>2019-04-18T01:09:42Z</time>
      </trkpt>
      <trkpt lat="45.89812" lon="6.69711">
        <ele>757</ele>
        <time>2019-04-18T01:10:42Z</time>
      </trkpt>
      <trkpt lat="45.89807" lon="6.6969">
        <ele>758</ele>
        <time>2019-04-18T01:11:42Z</time>
      </trkpt>
      <trkpt lat="45.89766" lon="6.6957">
        <ele>769</ele>
        <time>2019-04-18T01:12:42Z</time>
      </trkpt>
      <trkpt lat="45.89755" lon="6.69517">
        <ele>774</ele>
        <time>2019-04-18T01:13:42Z</time>
      </trkpt>
      <trkpt lat="45.89744" lon="6.69447">
        <ele>779</ele>
        <time>2019-04-18T01:14:42Z</time>
      </trkpt>
      <trkpt lat="45.89742" lon="6.694">
        <ele>780</ele>
        <time>2019-04-18T01:15:42Z</time>
      </trkpt>
      <trkpt lat="45.89745" lon="6.69348">
        <ele>779</ele>
        <time>2019-04-18T01:16:42Z</time>
      </trkpt>
      <trkpt lat="45.89744" lon="6.69325">
        <ele>779</ele>
        <time>2019-04-18T01:17:42Z</time>
      </trkpt>
      <trkpt lat="45.8974" lon="6.69299">
        <ele>782</ele>
        <time>2019-04-18T01:18:42Z</time>
      </trkpt>
      <trkpt lat="45.89727" lon="6.69241">
        <ele>786</ele>
        <time>2019-04-18T01:19:42Z</time>
      </trkpt>
      <trkpt lat="45.89716" lon="6.69221">
        <ele>788</ele>
        <time>2019-04-18T01:20:42Z</time>
      </trkpt>
      <trkpt lat="45.89667" lon="6.69163">
        <ele>792</ele>
        <time>2019-04-18T01:21:42Z</time>
      </trkpt>
      <trkpt lat="45.89574" lon="6.69046">
        <ele>809</ele>
        <time>2019-04-18T01:22:42Z</time>
      </trkpt>
      <trkpt lat="45.89561" lon="6.6902">
        <ele>814</ele>
        <time>2019-04-18T01:23:42Z</time>
      </trkpt>
      <trkpt lat="45.89555" lon="6.69006">
        <ele>816</ele>
        <time>2019-04-18T01:24:42Z</time>
      </trkpt>
      <trkpt lat="45.89549" lon="6.68997">
        <ele>818</ele>
        <time>2019-04-18T01:25:42Z</time>
      </trkpt>
      <trkpt lat="45.8954" lon="6.68995">
        <ele>823</ele>
        <time>2019-04-18T01:26:42Z</time>
      </trkpt>
      <trkpt lat="45.89536" lon="6.68998">
        <ele>825</ele>
        <time>2019-04-18T01:27:42Z</time>
      </trkpt>
      <trkpt lat="45.89533" lon="6.69003">
        <ele>827</ele>
        <time>2019-04-18T01:28:42Z</time>
      </trkpt>
      <trkpt lat="45.89532" lon="6.69018">
        <ele>829</ele>
        <time>2019-04-18T01:29:42Z</time>
      </trkpt>
      <trkpt lat="45.89548" lon="6.69044">
        <ele>823</ele>
        <time>2019-04-18T01:30:42Z</time>
      </trkpt>
      <trkpt lat="45.89556" lon="6.69063">
        <ele>820</ele>
        <time>2019-04-18T01:31:42Z</time>
      </trkpt>
      <trkpt lat="45.89558" lon="6.69079">
        <ele>821</ele>
        <time>2019-04-18T01:32:42Z</time>
      </trkpt>
      <trkpt lat="45.89558" lon="6.69094">
        <ele>822</ele>
        <time>2019-04-18T01:33:42Z</time>
      </trkpt>
      <trkpt lat="45.89554" lon="6.69119">
        <ele>828</ele>
        <time>2019-04-18T01:34:42Z</time>
      </trkpt>
      <trkpt lat="45.89552" lon="6.69165">
        <ele>834</ele>
        <time>2019-04-18T01:35:42Z</time>
      </trkpt>
      <trkpt lat="45.89554" lon="6.69283">
        <ele>840</ele>
        <time>2019-04-18T01:36:42Z</time>
      </trkpt>
      <trkpt lat="45.89539" lon="6.69368">
        <ele>848</ele>
        <time>2019-04-18T01:37:42Z</time>
      </trkpt>
      <trkpt lat="45.89544" lon="6.69414">
        <ele>847</ele>
        <time>2019-04-18T01:38:42Z</time>
      </trkpt>
      <trkpt lat="45.89535" lon="6.69488">
        <ele>850</ele>
        <time>2019-04-18T01:39:42Z</time>
      </trkpt>
      <trkpt lat="45.89528" lon="6.69614">
        <ele>852</ele>
        <time>2019-04-18T01:40:42Z</time>
      </trkpt>
      <trkpt lat="45.89507" lon="6.69717">
        <ele>856</ele>
        <time>2019-04-18T01:41:42Z</time>
      </trkpt>
      <trkpt lat="45.89491" lon="6.69778">
        <ele>860</ele>
        <time>2019-04-18T01:42:42Z</time>
      </trkpt>
      <trkpt lat="45.89486" lon="6.69802">
        <ele>861</ele>
        <time>2019-04-18T01:43:42Z</time>
      </trkpt>
      <trkpt lat="45.89473" lon="6.69856">
        <ele>864</ele>
        <time>2019-04-18T01:44:42Z</time>
      </trkpt>
      <trkpt lat="45.8947" lon="6.69878">
        <ele>863</ele>
        <time>2019-04-18T01:45:42Z</time>
      </trkpt>
      <trkpt lat="45.89464" lon="6.69887">
        <ele>865</ele>
        <time>2019-04-18T01:46:42Z</time>
      </trkpt>
      <trkpt lat="45.89461" lon="6.69889">
        <ele>866</ele>
        <time>2019-04-18T01:47:42Z</time>
      </trkpt>
      <trkpt lat="45.89453" lon="6.69886">
        <ele>869</ele>
        <time>2019-04-18T01:48:42Z</time>
      </trkpt>
      <trkpt lat="45.89463" lon="6.69823">
        <ele>870</ele>
        <time>2019-04-18T01:49:42Z</time>
      </trkpt>
      <trkpt lat="45.89465" lon="6.69792">
        <ele>869</ele>
        <time>2019-04-18T01:50:42Z</time>
      </trkpt>
      <trkpt lat="45.89461" lon="6.6976">
        <ele>870</ele>
        <time>2019-04-18T01:51:42Z</time>
      </trkpt>
      <trkpt lat="45.89444" lon="6.69713">
        <ele>874</ele>
        <time>2019-04-18T01:52:42Z</time>
      </trkpt>
      <trkpt lat="45.89442" lon="6.69696">
        <ele>875</ele>
        <time>2019-04-18T01:53:42Z</time>
      </trkpt>
      <trkpt lat="45.89441" lon="6.69666">
        <ele>874</ele>
        <time>2019-04-18T01:54:42Z</time>
      </trkpt>
      <trkpt lat="45.89418" lon="6.69573">
        <ele>881</ele>
        <time>2019-04-18T01:55:42Z</time>
      </trkpt>
      <trkpt lat="45.89409" lon="6.69503">
        <ele>888</ele>
        <time>2019-04-18T01:56:42Z</time>
      </trkpt>
      <trkpt lat="45.89406" lon="6.69458">
        <ele>893</ele>
        <time>2019-04-18T01:57:42Z</time>
      </trkpt>
      <trkpt lat="45.89406" lon="6.69425">
        <ele>896</ele>
        <time>2019-04-18T01:58:42Z</time>
      </trkpt>
      <trkpt lat="45.89415" lon="6.69326">
        <ele>898</ele>
        <time>2019-04-18T01:59:42Z</time>
      </trkpt>
      <trkpt lat="45.89408" lon="6.69304">
        <ele>897</ele>
        <time>2019-04-18T02:00:42Z</time>
      </trkpt>
      <trkpt lat="45.89399" lon="6.6929">
        <ele>897</ele>
        <time>2019-04-18T02:01:42Z</time>
      </trkpt>
      <trkpt lat="45.89384" lon="6.69283">
        <ele>898</ele>
        <time>2019-04-18T02:02:42Z</time>
      </trkpt>
      <trkpt lat="45.89361" lon="6.69286">
        <ele>901</ele>
        <time>2019-04-18T02:03:42Z</time>
      </trkpt>
      <trkpt lat="45.89346" lon="6.69282">
        <ele>902</ele>
        <time>2019-04-18T02:04:42Z</time>
      </trkpt>
      <trkpt lat="45.89338" lon="6.69275">
        <ele>903</ele>
        <time>2019-04-18T02:05:42Z</time>
      </trkpt>
      <trkpt lat="45.89332" lon="6.69266">
        <ele>903</ele>
        <time>2019-04-18T02:06:42Z</time>
      </trkpt>
      <trkpt lat="45.8933" lon="6.69247">
        <ele>903</ele>
        <time>2019-04-18T02:07:42Z</time>
      </trkpt>
      <trkpt lat="45.8933" lon="6.69226">
        <ele>903</ele>
        <time>2019-04-18T02:08:42Z</time>
      </trkpt>
      <trkpt lat="45.89336" lon="6.69185">
        <ele>902</ele>
        <time>2019-04-18T02:09:42Z</time>
      </trkpt>
      <trkpt lat="45.89337" lon="6.69135">
        <ele>903</ele>
        <time>2019-04-18T02:10:42Z</time>
      </trkpt>
      <trkpt lat="45.89334" lon="6.69079">
        <ele>906</ele>
        <time>2019-04-18T02:11:42Z</time>
      </trkpt>
      <trkpt lat="45.89329" lon="6.69033">
        <ele>905</ele>
        <time>2019-04-18T02:12:42Z</time>
      </trkpt>
      <trkpt lat="45.89321" lon="6.69001">
        <ele>905</ele>
        <time>2019-04-18T02:13:42Z</time>
      </trkpt>
      <trkpt lat="45.89284" lon="6.68937">
        <ele>910</ele>
        <time>2019-04-18T02:14:42Z</time>
      </trkpt>
      <trkpt lat="45.89263" lon="6.68877">
        <ele>912</ele>
        <time>2019-04-18T02:15:42Z</time>
      </trkpt>
      <trkpt lat="45.89253" lon="6.68859">
        <ele>913</ele>
        <time>2019-04-18T02:16:42Z</time>
      </trkpt>
      <trkpt lat="45.89233" lon="6.6883">
        <ele>917</ele>
        <time>2019-04-18T02:17:42Z</time>
      </trkpt>
      <trkpt lat="45.89222" lon="6.68806">
        <ele>918</ele>
        <time>2019-04-18T02:18:42Z</time>
      </trkpt>
      <trkpt lat="45.89204" lon="6.6876">
        <ele>921</ele>
        <time>2019-04-18T02:19:42Z</time>
      </trkpt>
      <trkpt lat="45.89185" lon="6.6872">
        <ele>922</ele>
        <time>2019-04-18T02:20:42Z</time>
      </trkpt>
      <trkpt lat="45.89164" lon="6.68667">
        <ele>922</ele>
        <time>2019-04-18T02:21:42Z</time>
      </trkpt>
      <trkpt lat="45.89145" lon="6.68607">
        <ele>924</ele>
        <time>2019-04-18T02:22:42Z</time>
      </trkpt>
      <trkpt lat="45.89108" lon="6.68542">
        <ele>930</ele>
        <time>2019-04-18T02:23:42Z</time>
      </trkpt>
      <trkpt lat="45.89103" lon="6.68468">
        <ele>925</ele>
        <time>2019-04-18T02:24:42Z</time>
      </trkpt>
      <trkpt lat="45.89094" lon="6.68441">
        <ele>926</ele>
        <time>2019-04-18T02:25:42Z</time>
      </trkpt>
      <trkpt lat="45.89077" lon="6.68426">
        <ele>930</ele>
        <time>2019-04-18T02:26:42Z</time>
      </trkpt>
      <trkpt lat="45.89051" lon="6.68409">
        <ele>938</ele>
        <time>2019-04-18T02:27:42Z</time>
      </trkpt>
      <trkpt lat="45.89045" lon="6.68401">
        <ele>939</ele>
        <time>2019-04-18T02:28:42Z</time>
      </trkpt>
      <trkpt lat="45.89038" lon="6.68383">
        <ele>940</ele>
        <time>2019-04-18T02:29:42Z</time>
      </trkpt>
      <trkpt lat="45.89035" lon="6.68363">
        <ele>940</ele>
        <time>2019-04-18T02:30:42Z</time>
      </trkpt>
      <trkpt lat="45.89042" lon="6.68232">
        <ele>940</ele>
        <time>2019-04-18T02:31:42Z</time>
      </trkpt>
      <trkpt lat="45.89039" lon="6.68206">
        <ele>941</ele>
        <time>2019-04-18T02:32:42Z</time>
      </trkpt>
      <trkpt lat="45.89024" lon="6.68153">
        <ele>950</ele>
        <time>2019-04-18T02:33:42Z</time>
      </trkpt>
      <trkpt lat="45.89025" lon="6.6812">
        <ele>953</ele>
        <time>2019-04-18T02:34:42Z</time>
      </trkpt>
      <trkpt lat="45.89049" lon="6.68064">
        <ele>947</ele>
        <time>2019-04-18T02:35:42Z</time>
      </trkpt>
      <trkpt lat="45.89056" lon="6.6803">
        <ele>948</ele>
        <time>2019-04-18T02:36:42Z</time>
      </trkpt>
      <trkpt lat="45.89064" lon="6.67981">
        <ele>950</ele>
        <time>2019-04-18T02:37:42Z</time>
      </trkpt>
      <trkpt lat="45.89077" lon="6.67845">
        <ele>954</ele>
        <time>2019-04-18T02:38:42Z</time>
      </trkpt>
      <trkpt lat="45.89088" lon="6.67803">
        <ele>951</ele>
        <time>2019-04-18T02:39:42Z</time>
      </trkpt>
      <trkpt lat="45.89088" lon="6.6778">
        <ele>951</ele>
        <time>2019-04-18T02:40:42Z</time>
      </trkpt>
      <trkpt lat="45.89084" lon="6.67759">
        <ele>952</ele>
        <time>2019-04-18T02:41:42Z</time>
      </trkpt>
      <trkpt lat="45.89074" lon="6.67717">
        <ele>953</ele>
        <time>2019-04-18T02:42:42Z</time>
      </trkpt>
      <trkpt lat="45.89064" lon="6.67682">
        <ele>955</ele>
        <time>2019-04-18T02:43:42Z</time>
      </trkpt>
      <trkpt lat="45.89059" lon="6.67658">
        <ele>957</ele>
        <time>2019-04-18T02:44:42Z</time>
      </trkpt>
      <trkpt lat="45.89046" lon="6.67514">
        <ele>970</ele>
        <time>2019-04-18T02:45:42Z</time>
      </trkpt>
      <trkpt lat="45.89048" lon="6.67474">
        <ele>971</ele>
        <time>2019-04-18T02:46:42Z</time>
      </trkpt>
      <trkpt lat="45.89059" lon="6.67411">
        <ele>970</ele>
        <time>2019-04-18T02:47:42Z</time>
      </trkpt>
      <trkpt lat="45.89058" lon="6.674">
        <ele>970</ele>
        <time>2019-04-18T02:48:42Z</time>
      </trkpt>
      <trkpt lat="45.89051" lon="6.67379">
        <ele>973</ele>
        <time>2019-04-18T02:49:42Z</time>
      </trkpt>
      <trkpt lat="45.89049" lon="6.67355">
        <ele>974</ele>
        <time>2019-04-18T02:50:42Z</time>
      </trkpt>
      <trkpt lat="45.89059" lon="6.67314">
        <ele>973</ele>
        <time>2019-04-18T02:51:42Z</time>
      </trkpt>
      <trkpt lat="45.89059" lon="6.67302">
        <ele>974</ele>
        <time>2019-04-18T02:52:42Z</time>
      </trkpt>
      <trkpt lat="45.89058" lon="6.67292">
        <ele>975</ele>
        <time>2019-04-18T02:53:42Z</time>
      </trkpt>
      <trkpt lat="45.8905" lon="6.67261">
        <ele>979</ele>
        <time>2019-04-18T02:54:42Z</time>
      </trkpt>
      <trkpt lat="45.89049" lon="6.67246">
        <ele>980</ele>
        <time>2019-04-18T02:55:42Z</time>
      </trkpt>
      <trkpt lat="45.8905" lon="6.67236">
        <ele>980</ele>
        <time>2019-04-18T02:56:42Z</time>
      </trkpt>
      <trkpt lat="45.89064" lon="6.6717">
        <ele>980</ele>
        <time>2019-04-18T02:57:42Z</time>
      </trkpt>
      <trkpt lat="45.89064" lon="6.67158">
        <ele>980</ele>
        <time>2019-04-18T02:58:42Z</time>
      </trkpt>
      <trkpt lat="45.89063" lon="6.6713">
        <ele>982</ele>
        <time>2019-04-18T02:59:42Z</time>
      </trkpt>
      <trkpt lat="45.89064" lon="6.67115">
        <ele>983</ele>
        <time>2019-04-18T03:00:42Z</time>
      </trkpt>
      <trkpt lat="45.89066" lon="6.67105">
        <ele>983</ele>
        <time>2019-04-18T03:01:42Z</time>
      </trkpt>
      <trkpt lat="45.89087" lon="6.67059">
        <ele>980</ele>
        <time>2019-04-18T03:02:42Z</time>
      </trkpt>
      <trkpt lat="45.8909" lon="6.67043">
        <ele>981</ele>
        <time>2019-04-18T03:03:42Z</time>
      </trkpt>
      <trkpt lat="45.8909" lon="6.67018">
        <ele>982</ele>
        <time>2019-04-18T03:04:42Z</time>
      </trkpt>
      <trkpt lat="45.89082" lon="6.66983">
        <ele>986</ele>
        <time>2019-04-18T03:05:42Z</time>
      </trkpt>
      <trkpt lat="45.89082" lon="6.66972">
        <ele>987</ele>
        <time>2019-04-18T03:06:42Z</time>
      </trkpt>
      <trkpt lat="45.89085" lon="6.66957">
        <ele>987</ele>
        <time>2019-04-18T03:07:42Z</time>
      </trkpt>
      <trkpt lat="45.89094" lon="6.6694">
        <ele>986</ele>
        <time>2019-04-18T03:08:42Z</time>
      </trkpt>
      <trkpt lat="45.89134" lon="6.66886">
        <ele>984</ele>
        <time>2019-04-18T03:09:42Z</time>
      </trkpt>
      <trkpt lat="45.89151" lon="6.66857">
        <ele>984</ele>
        <time>2019-04-18T03:10:42Z</time>
      </trkpt>
      <trkpt lat="45.89167" lon="6.66818">
        <ele>984</ele>
        <time>2019-04-18T03:11:42Z</time>
      </trkpt>
      <trkpt lat="45.89215" lon="6.66643">
        <ele>987</ele>
        <time>2019-04-18T03:12:42Z</time>
      </trkpt>
      <trkpt lat="45.89242" lon="6.66522">
        <ele>987</ele>
        <time>2019-04-18T03:13:42Z</time>
      </trkpt>
      <trkpt lat="45.89249" lon="6.66432">
        <ele>990</ele>
        <time>2019-04-18T03:14:42Z</time>
      </trkpt>
      <trkpt lat="45.8927" lon="6.66304">
        <ele>993</ele>
        <time>2019-04-18T03:15:42Z</time>
      </trkpt>
      <trkpt lat="45.89278" lon="6.66229">
        <ele>995</ele>
        <time>2019-04-18T03:16:42Z</time>
      </trkpt>
      <trkpt lat="45.89288" lon="6.66116">
        <ele>993</ele>
        <time>2019-04-18T03:17:42Z</time>
      </trkpt>
      <trkpt lat="45.89294" lon="6.66015">
        <ele>992</ele>
        <time>2019-04-18T03:18:42Z</time>
      </trkpt>
      <trkpt lat="45.89294" lon="6.65838">
        <ele>998</ele>
        <time>2019-04-18T03:19:42Z</time>
      </trkpt>
      <trkpt lat="45.89291" lon="6.65772">
        <ele>999</ele>
        <time>2019-04-18T03:20:42Z</time>
      </trkpt>
      <trkpt lat="45.89289" lon="6.65751">
        <ele>1000</ele>
        <time>2019-04-18T03:21:42Z</time>
      </trkpt>
      <trkpt lat="45.89284" lon="6.6573">
        <ele>999</ele>
        <time>2019-04-18T03:22:42Z</time>
      </trkpt>
      <trkpt lat="45.89271" lon="6.65692">
        <ele>999</ele>
        <time>2019-04-18T03:23:42Z</time>
      </trkpt>
      <trkpt lat="45.89255" lon="6.65666">
        <ele>1000</ele>
        <time>2019-04-18T03:24:42Z</time>
      </trkpt>
      <trkpt lat="45.89204" lon="6.65609">
        <ele>1004</ele>
        <time>2019-04-18T03:25:42Z</time>
      </trkpt>
      <trkpt lat="45.89194" lon="6.65591">
        <ele>1004</ele>
        <time>2019-04-18T03:26:42Z</time>
      </trkpt>
      <trkpt lat="45.89174" lon="6.65545">
        <ele>1003</ele>
        <time>2019-04-18T03:27:42Z</time>
      </trkpt>
      <trkpt lat="45.89158" lon="6.65512">
        <ele>1002</ele>
        <time>2019-04-18T03:28:42Z</time>
      </trkpt>
      <trkpt lat="45.89135" lon="6.6548">
        <ele>1002</ele>
        <time>2019-04-18T03:29:42Z</time>
      </trkpt>
      <trkpt lat="45.89105" lon="6.65449">
        <ele>1004</ele>
        <time>2019-04-18T03:30:42Z</time>
      </trkpt>
      <trkpt lat="45.89089" lon="6.65437">
        <ele>1006</ele>
        <time>2019-04-18T03:31:42Z</time>
      </trkpt>
      <trkpt lat="45.89056" lon="6.65372">
        <ele>1005</ele>
        <time>2019-04-18T03:32:42Z</time>
      </trkpt>
      <trkpt lat="45.89029" lon="6.65341">
        <ele>1007</ele>
        <time>2019-04-18T03:33:42Z</time>
      </trkpt>
      <trkpt lat="45.8901" lon="6.65323">
        <ele>1009</ele>
        <time>2019-04-18T03:34:42Z</time>
      </trkpt>
      <trkpt lat="45.88997" lon="6.653">
        <ele>1010</ele>
        <time>2019-04-18T03:35:42Z</time>
      </trkpt>
      <trkpt lat="45.88967" lon="6.65215">
        <ele>1010</ele>
        <time>2019-04-18T03:36:42Z</time>
      </trkpt>
      <trkpt lat="45.88946" lon="6.65158">
        <ele>1011</ele>
        <time>2019-04-18T03:37:42Z</time>
      </trkpt>
      <trkpt lat="45.8892" lon="6.65105">
        <ele>1014</ele>
        <time>2019-04-18T03:38:42Z</time>
      </trkpt>
      <trkpt lat="45.88904" lon="6.6508">
        <ele>1014</ele>
        <time>2019-04-18T03:39:42Z</time>
      </trkpt>
      <trkpt lat="45.8889" lon="6.65051">
        <ele>1014</ele>
        <time>2019-04-18T03:40:42Z</time>
      </trkpt>
      <trkpt lat="45.88881" lon="6.65028">
        <ele>1014</ele>
        <time>2019-04-18T03:41:42Z</time>
      </trkpt>
      <trkpt lat="45.88875" lon="6.65004">
        <ele>1014</ele>
        <time>2019-04-18T03:42:42Z</time>
      </trkpt>
      <trkpt lat="45.88869" lon="6.64946">
        <ele>1010</ele>
        <time>2019-04-18T03:43:42Z</time>
      </trkpt>
      <trkpt lat="45.88863" lon="6.64924">
        <ele>1009</ele>
        <time>2019-04-18T03:44:42Z</time>
      </trkpt>
      <trkpt lat="45.88859" lon="6.64913">
        <ele>1009</ele>
        <time>2019-04-18T03:45:42Z</time>
      </trkpt>
      <trkpt lat="45.88851" lon="6.64902">
        <ele>1011</ele>
        <time>2019-04-18T03:46:42Z</time>
      </trkpt>
      <trkpt lat="45.88838" lon="6.64895">
        <ele>1013</ele>
        <time>2019-04-18T03:47:42Z</time>
      </trkpt>
      <trkpt lat="45.88829" lon="6.64894">
        <ele>1014</ele>
        <time>2019-04-18T03:48:42Z</time>
      </trkpt>
      <trkpt lat="45.88818" lon="6.64896">
        <ele>1014</ele>
        <time>2019-04-18T03:49:42Z</time>
      </trkpt>
      <trkpt lat="45.88801" lon="6.64912">
        <ele>1014</ele>
        <time>2019-04-18T03:50:42Z</time>
      </trkpt>
      <trkpt lat="45.88792" lon="6.6493">
        <ele>1016</ele>
        <time>2019-04-18T03:51:42Z</time>
      </trkpt>
      <trkpt lat="45.88766" lon="6.65">
        <ele>1021</ele>
        <time>2019-04-18T03:52:42Z</time>
      </trkpt>
      <trkpt lat="45.88754" lon="6.65019">
        <ele>1022</ele>
        <time>2019-04-18T03:53:42Z</time>
      </trkpt>
      <trkpt lat="45.88737" lon="6.65036">
        <ele>1024</ele>
        <time>2019-04-18T03:54:42Z</time>
      </trkpt>
      <trkpt lat="45.88724" lon="6.65041">
        <ele>1024</ele>
        <time>2019-04-18T03:55:42Z</time>
      </trkpt>
      <trkpt lat="45.88696" lon="6.6504">
        <ele>1024</ele>
        <time>2019-04-18T03:56:42Z</time>
      </trkpt>
      <trkpt lat="45.88677" lon="6.6503">
        <ele>1023</ele>
        <time>2019-04-18T03:57:42Z</time>
      </trkpt>
      <trkpt lat="45.88655" lon="6.65011">
        <ele>1022</ele>
        <time>2019-04-18T03:58:42Z</time>
      </trkpt>
      <trkpt lat="45.88567" lon="6.64929">
        <ele>1027</ele>
        <time>2019-04-18T03:59:42Z</time>
      </trkpt>
      <trkpt lat="45.88557" lon="6.64914">
        <ele>1028</ele>
        <time>2019-04-18T04:00:42Z</time>
      </trkpt>
      <trkpt lat="45.88549" lon="6.64898">
        <ele>1028</ele>
        <time>2019-04-18T04:01:42Z</time>
      </trkpt>
      <trkpt lat="45.88525" lon="6.64819">
        <ele>1027</ele>
        <time>2019-04-18T04:02:42Z</time>
      </trkpt>
      <trkpt lat="45.88517" lon="6.648">
        <ele>1027</ele>
        <time>2019-04-18T04:03:42Z</time>
      </trkpt>
      <trkpt lat="45.88502" lon="6.64779">
        <ele>1028</ele>
        <time>2019-04-18T04:04:42Z</time>
      </trkpt>
      <trkpt lat="45.88469" lon="6.64741">
        <ele>1031</ele>
        <time>2019-04-18T04:05:42Z</time>
      </trkpt>
      <trkpt lat="45.88442" lon="6.64707">
        <ele>1033</ele>
        <time>2019-04-18T04:06:42Z</time>
      </trkpt>
      <trkpt lat="45.88431" lon="6.64688">
        <ele>1032</ele>
        <time>2019-04-18T04:07:42Z</time>
      </trkpt>
      <trkpt lat="45.884" lon="6.64606">
        <ele>1033</ele>
        <time>2019-04-18T04:08:42Z</time>
      </trkpt>
      <trkpt lat="45.88381" lon="6.64583">
        <ele>1035</ele>
        <time>2019-04-18T04:09:42Z</time>
      </trkpt>
      <trkpt lat="45.88338" lon="6.64542">
        <ele>1039</ele>
        <time>2019-04-18T04:10:42Z</time>
      </trkpt>
      <trkpt lat="45.88312" lon="6.64512">
        <ele>1041</ele>
        <time>2019-04-18T04:11:42Z</time>
      </trkpt>
      <trkpt lat="45.88306" lon="6.64504">
        <ele>1042</ele>
        <time>2019-04-18T04:12:42Z</time>
      </trkpt>
      <trkpt lat="45.88298" lon="6.64487">
        <ele>1042</ele>
        <time>2019-04-18T04:13:42Z</time>
      </trkpt>
      <trkpt lat="45.88292" lon="6.64465">
        <ele>1043</ele>
        <time>2019-04-18T04:14:42Z</time>
      </trkpt>
      <trkpt lat="45.88285" lon="6.64398">
        <ele>1042</ele>
        <time>2019-04-18T04:15:42Z</time>
      </trkpt>
      <trkpt lat="45.8828" lon="6.64359">
        <ele>1042</ele>
        <time>2019-04-18T04:16:42Z</time>
      </trkpt>
      <trkpt lat="45.88273" lon="6.64332">
        <ele>1042</ele>
        <time>2019-04-18T04:17:42Z</time>
      </trkpt>
      <trkpt lat="45.8825" lon="6.64279">
        <ele>1044</ele>
        <time>2019-04-18T04:18:42Z</time>
      </trkpt>
      <trkpt lat="45.88244" lon="6.64263">
        <ele>1044</ele>
        <time>2019-04-18T04:19:42Z</time>
      </trkpt>
      <trkpt lat="45.88242" lon="6.64251">
        <ele>1045</ele>
        <time>2019-04-18T04:20:42Z</time>
      </trkpt>
      <trkpt lat="45.88244" lon="6.64236">
        <ele>1045</ele>
        <time>2019-04-18T04:21:42Z</time>
      </trkpt>
      <trkpt lat="45.88254" lon="6.64205">
        <ele>1045</ele>
        <time>2019-04-18T04:22:42Z</time>
      </trkpt>
      <trkpt lat="45.88261" lon="6.64204">
        <ele>1044</ele>
        <time>2019-04-18T04:23:42Z</time>
      </trkpt>
      <trkpt lat="45.88267" lon="6.64201">
        <ele>1044</ele>
        <time>2019-04-18T04:24:42Z</time>
      </trkpt>
      <trkpt lat="45.88271" lon="6.64194">
        <ele>1045</ele>
        <time>2019-04-18T04:25:42Z</time>
      </trkpt>
      <trkpt lat="45.88275" lon="6.64186">
        <ele>1045</ele>
        <time>2019-04-18T04:26:42Z</time>
      </trkpt>
      <trkpt lat="45.88276" lon="6.64177">
        <ele>1045</ele>
        <time>2019-04-18T04:27:42Z</time>
      </trkpt>
      <trkpt lat="45.88274" lon="6.64167">
        <ele>1046</ele>
        <time>2019-04-18T04:28:42Z</time>
      </trkpt>
      <trkpt lat="45.8827" lon="6.64158">
        <ele>1046</ele>
        <time>2019-04-18T04:29:42Z</time>
      </trkpt>
      <trkpt lat="45.88265" lon="6.64152">
        <ele>1046</ele>
        <time>2019-04-18T04:30:42Z</time>
      </trkpt>
      <trkpt lat="45.88258" lon="6.64149">
        <ele>1046</ele>
        <time>2019-04-18T04:31:42Z</time>
      </trkpt>
      <trkpt lat="45.88247" lon="6.64132">
        <ele>1047</ele>
        <time>2019-04-18T04:32:42Z</time>
      </trkpt>
      <trkpt lat="45.88229" lon="6.64109">
        <ele>1048</ele>
        <time>2019-04-18T04:33:42Z</time>
      </trkpt>
      <trkpt lat="45.8812" lon="6.64038">
        <ele>1053</ele>
        <time>2019-04-18T04:34:42Z</time>
      </trkpt>
      <trkpt lat="45.88092" lon="6.64017">
        <ele>1054</ele>
        <time>2019-04-18T04:35:42Z</time>
      </trkpt>
      <trkpt lat="45.88062" lon="6.63981">
        <ele>1055</ele>
        <time>2019-04-18T04:36:42Z</time>
      </trkpt>
      <trkpt lat="45.8804" lon="6.63946">
        <ele>1057</ele>
        <time>2019-04-18T04:37:42Z</time>
      </trkpt>
      <trkpt lat="45.8802" lon="6.63908">
        <ele>1058</ele>
        <time>2019-04-18T04:38:42Z</time>
      </trkpt>
      <trkpt lat="45.87998" lon="6.63873">
        <ele>1060</ele>
        <time>2019-04-18T04:39:42Z</time>
      </trkpt>
      <trkpt lat="45.87969" lon="6.63841">
        <ele>1061</ele>
        <time>2019-04-18T04:40:42Z</time>
      </trkpt>
      <trkpt lat="45.87932" lon="6.63807">
        <ele>1061</ele>
        <time>2019-04-18T04:41:42Z</time>
      </trkpt>
      <trkpt lat="45.87822" lon="6.63729">
        <ele>1065</ele>
        <time>2019-04-18T04:42:42Z</time>
      </trkpt>
      <trkpt lat="45.87802" lon="6.63707">
        <ele>1066</ele>
        <time>2019-04-18T04:43:42Z</time>
      </trkpt>
      <trkpt lat="45.8772" lon="6.6358">
        <ele>1070</ele>
        <time>2019-04-18T04:44:42Z</time>
      </trkpt>
      <trkpt lat="45.87698" lon="6.63564">
        <ele>1071</ele>
        <time>2019-04-18T04:45:42Z</time>
      </trkpt>
      <trkpt lat="45.87675" lon="6.63561">
        <ele>1072</ele>
        <time>2019-04-18T04:46:42Z</time>
      </trkpt>
      <trkpt lat="45.87649" lon="6.63567">
        <ele>1073</ele>
        <time>2019-04-18T04:47:42Z</time>
      </trkpt>
      <trkpt lat="45.87627" lon="6.63569">
        <ele>1074</ele>
        <time>2019-04-18T04:48:42Z</time>
      </trkpt>
      <trkpt lat="45.87611" lon="6.63567">
        <ele>1076</ele>
        <time>2019-04-18T04:49:42Z</time>
      </trkpt>
      <trkpt lat="45.87598" lon="6.63559">
        <ele>1077</ele>
        <time>2019-04-18T04:50:42Z</time>
      </trkpt>
      <trkpt lat="45.87576" lon="6.63541">
        <ele>1079</ele>
        <time>2019-04-18T04:51:42Z</time>
      </trkpt>
      <trkpt lat="45.87555" lon="6.63516">
        <ele>1080</ele>
        <time>2019-04-18T04:52:42Z</time>
      </trkpt>
      <trkpt lat="45.87542" lon="6.63492">
        <ele>1081</ele>
        <time>2019-04-18T04:53:42Z</time>
      </trkpt>
      <trkpt lat="45.87532" lon="6.63462">
        <ele>1081</ele>
        <time>2019-04-18T04:54:42Z</time>
      </trkpt>
      <trkpt lat="45.87513" lon="6.63379">
        <ele>1083</ele>
        <time>2019-04-18T04:55:42Z</time>
      </trkpt>
      <trkpt lat="45.87503" lon="6.63347">
        <ele>1084</ele>
        <time>2019-04-18T04:56:42Z</time>
      </trkpt>
      <trkpt lat="45.87491" lon="6.63329">
        <ele>1085</ele>
        <time>2019-04-18T04:57:42Z</time>
      </trkpt>
      <trkpt lat="45.87477" lon="6.63317">
        <ele>1087</ele>
        <time>2019-04-18T04:58:42Z</time>
      </trkpt>
      <trkpt lat="45.87459" lon="6.63306">
        <ele>1088</ele>
        <time>2019-04-18T04:59:42Z</time>
      </trkpt>
      <trkpt lat="45.87326" lon="6.63241">
        <ele>1092</ele>
        <time>2019-04-18T05:00:42Z</time>
      </trkpt>
      <trkpt lat="45.87301" lon="6.63221">
        <ele>1093</ele>
        <time>2019-04-18T05:01:42Z</time>
      </trkpt>
      <trkpt lat="45.87282" lon="6.63198">
        <ele>1094</ele>
        <time>2019-04-18T05:02:42Z</time>
      </trkpt>
      <trkpt lat="45.87237" lon="6.631">
        <ele>1098</ele>
        <time>2019-04-18T05:03:42Z</time>
      </trkpt>
      <trkpt lat="45.87219" lon="6.63071">
        <ele>1101</ele>
        <time>2019-04-18T05:04:42Z</time>
      </trkpt>
      <trkpt lat="45.87202" lon="6.63052">
        <ele>1104</ele>
        <time>2019-04-18T05:05:42Z</time>
      </trkpt>
      <trkpt lat="45.87158" lon="6.63015">
        <ele>1105</ele>
        <time>2019-04-18T05:06:42Z</time>
      </trkpt>
      <trkpt lat="45.87158" lon="6.6301">
        <ele>1106</ele>
        <time>2019-04-18T05:07:42Z</time>
      </trkpt>
      <trkpt lat="45.87153" lon="6.63003">
        <ele>1106</ele>
        <time>2019-04-18T05:08:42Z</time>
      </trkpt>
      <trkpt lat="45.8715" lon="6.63001">
        <ele>1106</ele>
        <time>2019-04-18T05:09:42Z</time>
      </trkpt>
      <trkpt lat="45.87132" lon="6.62999">
        <ele>1105</ele>
        <time>2019-04-18T05:10:42Z</time>
      </trkpt>
      <trkpt lat="45.87118" lon="6.62992">
        <ele>1105</ele>
        <time>2019-04-18T05:11:42Z</time>
      </trkpt>
      <trkpt lat="45.8683" lon="6.62805">
        <ele>1110</ele>
        <time>2019-04-18T05:12:42Z</time>
      </trkpt>
      <trkpt lat="45.86352" lon="6.6249">
        <ele>1105</ele>
        <time>2019-04-18T05:13:42Z</time>
      </trkpt>
      <trkpt lat="45.86178" lon="6.62382">
        <ele>1105</ele>
        <time>2019-04-18T05:14:42Z</time>
      </trkpt>
      <trkpt lat="45.86125" lon="6.62335">
        <ele>1103</ele>
        <time>2019-04-18T05:15:42Z</time>
      </trkpt>
      <trkpt lat="45.86109" lon="6.62317">
        <ele>1102</ele>
        <time>2019-04-18T05:16:42Z</time>
      </trkpt>
      <trkpt lat="45.86074" lon="6.62262">
        <ele>1102</ele>
        <time>2019-04-18T05:17:42Z</time>
      </trkpt>
      <trkpt lat="45.85983" lon="6.62097">
        <ele>1100</ele>
        <time>2019-04-18T05:18:42Z</time>
      </trkpt>
      <trkpt lat="45.85968" lon="6.6205">
        <ele>1099</ele>
        <time>2019-04-18T05:19:42Z</time>
      </trkpt>
      <trkpt lat="45.85967" lon="6.62032">
        <ele>1098</ele>
        <time>2019-04-18T05:20:42Z</time>
      </trkpt>
      <trkpt lat="45.85968" lon="6.62019">
        <ele>1098</ele>
        <time>2019-04-18T05:21:42Z</time>
      </trkpt>
      <trkpt lat="45.85971" lon="6.62006">
        <ele>1097</ele>
        <time>2019-04-18T05:22:42Z</time>
      </trkpt>
      <trkpt lat="45.85976" lon="6.61993">
        <ele>1097</ele>
        <time>2019-04-18T05:23:42Z</time>
      </trkpt>
      <trkpt lat="45.85975" lon="6.61983">
        <ele>1097</ele>
        <time>2019-04-18T05:24:42Z</time>
      </trkpt>
      <trkpt lat="45.85971" lon="6.61974">
        <ele>1097</ele>
        <time>2019-04-18T05:25:42Z</time>
      </trkpt>
      <trkpt lat="45.85956" lon="6.61959">
        <ele>1097</ele>
        <time>2019-04-18T05:26:42Z</time>
      </trkpt>
      <trkpt lat="45.85945" lon="6.61954">
        <ele>1097</ele>
        <time>2019-04-18T05:27:42Z</time>
      </trkpt>
      <trkpt lat="45.85935" lon="6.6194">
        <ele>1097</ele>
        <time>2019-04-18T05:28:42Z</time>
      </trkpt>
      <trkpt lat="45.85922" lon="6.61914">
        <ele>1098</ele>
        <time>2019-04-18T05:29:42Z</time>
      </trkpt>
      <trkpt lat="45.85904" lon="6.61889">
        <ele>1098</ele>
        <time>2019-04-18T05:30:42Z</time>
      </trkpt>
      <trkpt lat="45.8587" lon="6.61808">
        <ele>1100</ele>
        <time>2019-04-18T05:31:42Z</time>
      </trkpt>
      <trkpt lat="45.85836" lon="6.61673">
        <ele>1099</ele>
        <time>2019-04-18T05:32:42Z</time>
      </trkpt>
      <trkpt lat="45.85829" lon="6.61657">
        <ele>1099</ele>
        <time>2019-04-18T05:33:42Z</time>
      </trkpt>
      <trkpt lat="45.85829" lon="6.61615">
        <ele>1097</ele>
        <time>2019-04-18T05:34:42Z</time>
      </trkpt>
      <trkpt lat="45.85827" lon="6.6161">
        <ele>1097</ele>
        <time>2019-04-18T05:35:42Z</time>
      </trkpt>
      <trkpt lat="45.85823" lon="6.61608">
        <ele>1097</ele>
        <time>2019-04-18T05:36:42Z</time>
      </trkpt>
      <trkpt lat="45.85811" lon="6.61587">
        <ele>1096</ele>
        <time>2019-04-18T05:37:42Z</time>
      </trkpt>
      <trkpt lat="45.85748" lon="6.6134">
        <ele>1090</ele>
        <time>2019-04-18T05:38:42Z</time>
      </trkpt>
      <trkpt lat="45.85744" lon="6.61317">
        <ele>1091</ele>
        <time>2019-04-18T05:39:42Z</time>
      </trkpt>
      <trkpt lat="45.8574" lon="6.61285">
        <ele>1091</ele>
        <time>2019-04-18T05:40:42Z</time>
      </trkpt>
      <trkpt lat="45.85738" lon="6.61253">
        <ele>1091</ele>
        <time>2019-04-18T05:41:42Z</time>
      </trkpt>
      <trkpt lat="45.85738" lon="6.61217">
        <ele>1090</ele>
        <time>2019-04-18T05:42:42Z</time>
      </trkpt>
      <trkpt lat="45.85741" lon="6.61192">
        <ele>1090</ele>
        <time>2019-04-18T05:43:42Z</time>
      </trkpt>
      <trkpt lat="45.85761" lon="6.61064">
        <ele>1087</ele>
        <time>2019-04-18T05:44:42Z</time>
      </trkpt>
      <trkpt lat="45.85769" lon="6.61039">
        <ele>1087</ele>
        <time>2019-04-18T05:45:42Z</time>
      </trkpt>
      <trkpt lat="45.85774" lon="6.61036">
        <ele>1087</ele>
        <time>2019-04-18T05:46:42Z</time>
      </trkpt>
      <trkpt lat="45.85779" lon="6.61027">
        <ele>1087</ele>
        <time>2019-04-18T05:47:42Z</time>
      </trkpt>
      <trkpt lat="45.85779" lon="6.6102">
        <ele>1087</ele>
        <time>2019-04-18T05:48:42Z</time>
      </trkpt>
      <trkpt lat="45.85777" lon="6.61009">
        <ele>1087</ele>
        <time>2019-04-18T05:49:42Z</time>
      </trkpt>
      <trkpt lat="45.85773" lon="6.61003">
        <ele>1087</ele>
        <time>2019-04-18T05:50:42Z</time>
      </trkpt>
      <trkpt lat="45.85763" lon="6.60966">
        <ele>1084</ele>
        <time>2019-04-18T05:51:42Z</time>
      </trkpt>
      <trkpt lat="45.85747" lon="6.60897">
        <ele>1083</ele>
        <time>2019-04-18T05:52:42Z</time>
      </trkpt>
      <trkpt lat="45.85732" lon="6.60859">
        <ele>1085</ele>
        <time>2019-04-18T05:53:42Z</time>
      </trkpt>
      <trkpt lat="45.85669" lon="6.60768">
        <ele>1084</ele>
        <time>2019-04-18T05:54:42Z</time>
      </trkpt>
      <trkpt lat="45.85645" lon="6.60744">
        <ele>1083</ele>
        <time>2019-04-18T05:55:42Z</time>
      </trkpt>
      <trkpt lat="45.85623" lon="6.60734">
        <ele>1083</ele>
        <time>2019-04-18T05:56:42Z</time>
      </trkpt>
      <trkpt lat="45.85526" lon="6.60726">
        <ele>1077</ele>
        <time>2019-04-18T05:57:42Z</time>
      </trkpt>
      <trkpt lat="45.85483" lon="6.6072">
        <ele>1074</ele>
        <time>2019-04-18T05:58:42Z</time>
      </trkpt>
      <trkpt lat="45.85466" lon="6.60712">
        <ele>1073</ele>
        <time>2019-04-18T05:59:42Z</time>
      </trkpt>
      <trkpt lat="45.8545" lon="6.60693">
        <ele>1072</ele>
        <time>2019-04-18T06:00:42Z</time>
      </trkpt>
      <trkpt lat="45.85438" lon="6.60671">
        <ele>1072</ele>
        <time>2019-04-18T06:01:42Z</time>
      </trkpt>
      <trkpt lat="45.85432" lon="6.6065">
        <ele>1072</ele>
        <time>2019-04-18T06:02:42Z</time>
      </trkpt>
      <trkpt lat="45.85428" lon="6.60628">
        <ele>1072</ele>
        <time>2019-04-18T06:03:42Z</time>
      </trkpt>
      <trkpt lat="45.85427" lon="6.6056">
        <ele>1074</ele>
        <time>2019-04-18T06:04:42Z</time>
      </trkpt>
      <trkpt lat="45.85425" lon="6.60543">
        <ele>1075</ele>
        <time>2019-04-18T06:05:42Z</time>
      </trkpt>
      <trkpt lat="45.8542" lon="6.60526">
        <ele>1074</ele>
        <time>2019-04-18T06:06:42Z</time>
      </trkpt>
      <trkpt lat="45.85411" lon="6.60508">
        <ele>1075</ele>
        <time>2019-04-18T06:07:42Z</time>
      </trkpt>
      <trkpt lat="45.854" lon="6.60497">
        <ele>1075</ele>
        <time>2019-04-18T06:08:42Z</time>
      </trkpt>
      <trkpt lat="45.8537" lon="6.60477">
        <ele>1075</ele>
        <time>2019-04-18T06:09:42Z</time>
      </trkpt>
      <trkpt lat="45.85346" lon="6.60465">
        <ele>1075</ele>
        <time>2019-04-18T06:10:42Z</time>
      </trkpt>
      <trkpt lat="45.85329" lon="6.60461">
        <ele>1075</ele>
        <time>2019-04-18T06:11:42Z</time>
      </trkpt>
      <trkpt lat="45.85315" lon="6.60464">
        <ele>1075</ele>
        <time>2019-04-18T06:12:42Z</time>
      </trkpt>
      <trkpt lat="45.85297" lon="6.60474">
        <ele>1074</ele>
        <time>2019-04-18T06:13:42Z</time>
      </trkpt>
      <trkpt lat="45.8527" lon="6.60496">
        <ele>1074</ele>
        <time>2019-04-18T06:14:42Z</time>
      </trkpt>
      <trkpt lat="45.85245" lon="6.6051">
        <ele>1073</ele>
        <time>2019-04-18T06:15:42Z</time>
      </trkpt>
      <trkpt lat="45.85214" lon="6.60514">
        <ele>1073</ele>
        <time>2019-04-18T06:16:42Z</time>
      </trkpt>
      <trkpt lat="45.85186" lon="6.60507">
        <ele>1073</ele>
        <time>2019-04-18T06:17:42Z</time>
      </trkpt>
      <trkpt lat="45.85112" lon="6.60479">
        <ele>1069</ele>
        <time>2019-04-18T06:18:42Z</time>
      </trkpt>
      <trkpt lat="45.85097" lon="6.60459">
        <ele>1067</ele>
        <time>2019-04-18T06:19:42Z</time>
      </trkpt>
      <trkpt lat="45.8509" lon="6.60431">
        <ele>1067</ele>
        <time>2019-04-18T06:20:42Z</time>
      </trkpt>
      <trkpt lat="45.85092" lon="6.60407">
        <ele>1068</ele>
        <time>2019-04-18T06:21:42Z</time>
      </trkpt>
      <trkpt lat="45.85105" lon="6.60359">
        <ele>1069</ele>
        <time>2019-04-18T06:22:42Z</time>
      </trkpt>
      <trkpt lat="45.85106" lon="6.60335">
        <ele>1068</ele>
        <time>2019-04-18T06:23:42Z</time>
      </trkpt>
      <trkpt lat="45.851" lon="6.60313">
        <ele>1068</ele>
        <time>2019-04-18T06:24:42Z</time>
      </trkpt>
      <trkpt lat="45.85085" lon="6.60287">
        <ele>1066</ele>
        <time>2019-04-18T06:25:42Z</time>
      </trkpt>
      <trkpt lat="45.85044" lon="6.60262">
        <ele>1064</ele>
        <time>2019-04-18T06:26:42Z</time>
      </trkpt>
      <trkpt lat="45.8503" lon="6.60244">
        <ele>1064</ele>
        <time>2019-04-18T06:27:42Z</time>
      </trkpt>
      <trkpt lat="45.84996" lon="6.60179">
        <ele>1064</ele>
        <time>2019-04-18T06:28:42Z</time>
      </trkpt>
      <trkpt lat="45.84968" lon="6.60142">
        <ele>1061</ele>
        <time>2019-04-18T06:29:42Z</time>
      </trkpt>
      <trkpt lat="45.8496" lon="6.60127">
        <ele>1060</ele>
        <time>2019-04-18T06:30:42Z</time>
      </trkpt>
      <trkpt lat="45.84952" lon="6.601">
        <ele>1058</ele>
        <time>2019-04-18T06:31:42Z</time>
      </trkpt>
      <trkpt lat="45.84942" lon="6.59934">
        <ele>1055</ele>
        <time>2019-04-18T06:32:42Z</time>
      </trkpt>
      <trkpt lat="45.84938" lon="6.59911">
        <ele>1056</ele>
        <time>2019-04-18T06:33:42Z</time>
      </trkpt>
      <trkpt lat="45.84932" lon="6.59892">
        <ele>1057</ele>
        <time>2019-04-18T06:34:42Z</time>
      </trkpt>
      <trkpt lat="45.84919" lon="6.5987">
        <ele>1058</ele>
        <time>2019-04-18T06:35:42Z</time>
      </trkpt>
      <trkpt lat="45.84881" lon="6.59831">
        <ele>1058</ele>
        <time>2019-04-18T06:36:42Z</time>
      </trkpt>
      <trkpt lat="45.84855" lon="6.59785">
        <ele>1059</ele>
        <time>2019-04-18T06:37:42Z</time>
      </trkpt>
      <trkpt lat="45.84768" lon="6.59518">
        <ele>1057</ele>
        <time>2019-04-18T06:38:42Z</time>
      </trkpt>
      <trkpt lat="45.84754" lon="6.5948">
        <ele>1056</ele>
        <time>2019-04-18T06:39:42Z</time>
      </trkpt>
      <trkpt lat="45.8474" lon="6.59449">
        <ele>1056</ele>
        <time>2019-04-18T06:40:42Z</time>
      </trkpt>
      <trkpt lat="45.84722" lon="6.59423">
        <ele>1055</ele>
        <time>2019-04-18T06:41:42Z</time>
      </trkpt>
      <trkpt lat="45.84691" lon="6.59398">
        <ele>1055</ele>
        <time>2019-04-18T06:42:42Z</time>
      </trkpt>
      <trkpt lat="45.84536" lon="6.59291">
        <ele>1049</ele>
        <time>2019-04-18T06:43:42Z</time>
      </trkpt>
      <trkpt lat="45.84512" lon="6.5927">
        <ele>1048</ele>
        <time>2019-04-18T06:44:42Z</time>
      </trkpt>
      <trkpt lat="45.84489" lon="6.59236">
        <ele>1048</ele>
        <time>2019-04-18T06:45:42Z</time>
      </trkpt>
      <trkpt lat="45.84426" lon="6.59133">
        <ele>1045</ele>
        <time>2019-04-18T06:46:42Z</time>
      </trkpt>
      <trkpt lat="45.84374" lon="6.59066">
        <ele>1044</ele>
        <time>2019-04-18T06:47:42Z</time>
      </trkpt>
      <trkpt lat="45.84293" lon="6.58994">
        <ele>1041</ele>
        <time>2019-04-18T06:48:42Z</time>
      </trkpt>
      <trkpt lat="45.84278" lon="6.58969">
        <ele>1041</ele>
        <time>2019-04-18T06:49:42Z</time>
      </trkpt>
      <trkpt lat="45.8427" lon="6.58943">
        <ele>1041</ele>
        <time>2019-04-18T06:50:42Z</time>
      </trkpt>
      <trkpt lat="45.84265" lon="6.58862">
        <ele>1042</ele>
        <time>2019-04-18T06:51:42Z</time>
      </trkpt>
      <trkpt lat="45.84262" lon="6.58827">
        <ele>1042</ele>
        <time>2019-04-18T06:52:42Z</time>
      </trkpt>
      <trkpt lat="45.84251" lon="6.58763">
        <ele>1040</ele>
        <time>2019-04-18T06:53:42Z</time>
      </trkpt>
      <trkpt lat="45.84241" lon="6.58724">
        <ele>1039</ele>
        <time>2019-04-18T06:54:42Z</time>
      </trkpt>
      <trkpt lat="45.842" lon="6.58621">
        <ele>1035</ele>
        <time>2019-04-18T06:55:42Z</time>
      </trkpt>
      <trkpt lat="45.84084" lon="6.5826">
        <ele>1028</ele>
        <time>2019-04-18T06:56:42Z</time>
      </trkpt>
      <trkpt lat="45.84081" lon="6.58232">
        <ele>1030</ele>
        <time>2019-04-18T06:57:42Z</time>
      </trkpt>
      <trkpt lat="45.84082" lon="6.58226">
        <ele>1031</ele>
        <time>2019-04-18T06:58:42Z</time>
      </trkpt>
      <trkpt lat="45.84079" lon="6.58215">
        <ele>1033</ele>
        <time>2019-04-18T06:59:42Z</time>
      </trkpt>
      <trkpt lat="45.84062" lon="6.58193">
        <ele>1033</ele>
        <time>2019-04-18T07:00:42Z</time>
      </trkpt>
      <trkpt lat="45.84036" lon="6.5811">
        <ele>1034</ele>
        <time>2019-04-18T07:01:42Z</time>
      </trkpt>
      <trkpt lat="45.83995" lon="6.57954">
        <ele>1028</ele>
        <time>2019-04-18T07:02:42Z</time>
      </trkpt>
      <trkpt lat="45.83946" lon="6.57755">
        <ele>1024</ele>
        <time>2019-04-18T07:03:42Z</time>
      </trkpt>
      <trkpt lat="45.83942" lon="6.57731">
        <ele>1024</ele>
        <time>2019-04-18T07:04:42Z</time>
      </trkpt>
      <trkpt lat="45.83944" lon="6.57707">
        <ele>1025</ele>
        <time>2019-04-18T07:05:42Z</time>
      </trkpt>
      <trkpt lat="45.83942" lon="6.57702">
        <ele>1025</ele>
        <time>2019-04-18T07:06:42Z</time>
      </trkpt>
      <trkpt lat="45.83935" lon="6.57696">
        <ele>1024</ele>
        <time>2019-04-18T07:07:42Z</time>
      </trkpt>
      <trkpt lat="45.8393" lon="6.57688">
        <ele>1023</ele>
        <time>2019-04-18T07:08:42Z</time>
      </trkpt>
      <trkpt lat="45.83922" lon="6.57664">
        <ele>1022</ele>
        <time>2019-04-18T07:09:42Z</time>
      </trkpt>
      <trkpt lat="45.83882" lon="6.57499">
        <ele>1025</ele>
        <time>2019-04-18T07:10:42Z</time>
      </trkpt>
      <trkpt lat="45.83828" lon="6.57288">
        <ele>1031</ele>
        <time>2019-04-18T07:11:42Z</time>
      </trkpt>
      <trkpt lat="45.838" lon="6.57147">
        <ele>1031</ele>
        <time>2019-04-18T07:12:42Z</time>
      </trkpt>
      <trkpt lat="45.83782" lon="6.57098">
        <ele>1031</ele>
        <time>2019-04-18T07:13:42Z</time>
      </trkpt>
      <trkpt lat="45.83763" lon="6.57055">
        <ele>1030</ele>
        <time>2019-04-18T07:14:42Z</time>
      </trkpt>
      <trkpt lat="45.83705" lon="6.56928">
        <ele>1024</ele>
        <time>2019-04-18T07:15:42Z</time>
      </trkpt>
      <trkpt lat="45.83661" lon="6.56838">
        <ele>1021</ele>
        <time>2019-04-18T07:16:42Z</time>
      </trkpt>
      <trkpt lat="45.83455" lon="6.56384">
        <ele>1012</ele>
        <time>2019-04-18T07:17:42Z</time>
      </trkpt>
      <trkpt lat="45.83445" lon="6.56358">
        <ele>1011</ele>
        <time>2019-04-18T07:18:42Z</time>
      </trkpt>
      <trkpt lat="45.83435" lon="6.56314">
        <ele>1012</ele>
        <time>2019-04-18T07:19:42Z</time>
      </trkpt>
      <trkpt lat="45.83403" lon="6.56192">
        <ele>1013</ele>
        <time>2019-04-18T07:20:42Z</time>
      </trkpt>
      <trkpt lat="45.83383" lon="6.56143">
        <ele>1012</ele>
        <time>2019-04-18T07:21:42Z</time>
      </trkpt>
      <trkpt lat="45.83352" lon="6.56087">
        <ele>1010</ele>
        <time>2019-04-18T07:22:42Z</time>
      </trkpt>
      <trkpt lat="45.83289" lon="6.55995">
        <ele>1004</ele>
        <time>2019-04-18T07:23:42Z</time>
      </trkpt>
      <trkpt lat="45.83274" lon="6.5597">
        <ele>1002</ele>
        <time>2019-04-18T07:24:42Z</time>
      </trkpt>
      <trkpt lat="45.83267" lon="6.55942">
        <ele>1002</ele>
        <time>2019-04-18T07:25:42Z</time>
      </trkpt>
      <trkpt lat="45.83266" lon="6.55912">
        <ele>1003</ele>
        <time>2019-04-18T07:26:42Z</time>
      </trkpt>
      <trkpt lat="45.83272" lon="6.55761">
        <ele>1004</ele>
        <time>2019-04-18T07:27:42Z</time>
      </trkpt>
      <trkpt lat="45.83272" lon="6.55725">
        <ele>1003</ele>
        <time>2019-04-18T07:28:42Z</time>
      </trkpt>
      <trkpt lat="45.83269" lon="6.557">
        <ele>1002</ele>
        <time>2019-04-18T07:29:42Z</time>
      </trkpt>
      <trkpt lat="45.83239" lon="6.55561">
        <ele>1004</ele>
        <time>2019-04-18T07:30:42Z</time>
      </trkpt>
      <trkpt lat="45.83212" lon="6.55412">
        <ele>1007</ele>
        <time>2019-04-18T07:31:42Z</time>
      </trkpt>
      <trkpt lat="45.83201" lon="6.55365">
        <ele>1005</ele>
        <time>2019-04-18T07:32:42Z</time>
      </trkpt>
      <trkpt lat="45.83186" lon="6.55334">
        <ele>1003</ele>
        <time>2019-04-18T07:33:42Z</time>
      </trkpt>
      <trkpt lat="45.83167" lon="6.55307">
        <ele>1003</ele>
        <time>2019-04-18T07:34:42Z</time>
      </trkpt>
      <trkpt lat="45.83131" lon="6.55273">
        <ele>1003</ele>
        <time>2019-04-18T07:35:42Z</time>
      </trkpt>
      <trkpt lat="45.83084" lon="6.55242">
        <ele>1000</ele>
        <time>2019-04-18T07:36:42Z</time>
      </trkpt>
      <trkpt lat="45.83073" lon="6.55228">
        <ele>1002</ele>
        <time>2019-04-18T07:37:42Z</time>
      </trkpt>
      <trkpt lat="45.83043" lon="6.55169">
        <ele>1006</ele>
        <time>2019-04-18T07:38:42Z</time>
      </trkpt>
      <trkpt lat="45.83029" lon="6.55151">
        <ele>1009</ele>
        <time>2019-04-18T07:39:42Z</time>
      </trkpt>
      <trkpt lat="45.83018" lon="6.5514">
        <ele>1010</ele>
        <time>2019-04-18T07:40:42Z</time>
      </trkpt>
      <trkpt lat="45.82969" lon="6.55102">
        <ele>1010</ele>
        <time>2019-04-18T07:41:42Z</time>
      </trkpt>
      <trkpt lat="45.82944" lon="6.55067">
        <ele>1009</ele>
        <time>2019-04-18T07:42:42Z</time>
      </trkpt>
      <trkpt lat="45.82903" lon="6.54986">
        <ele>1008</ele>
        <time>2019-04-18T07:43:42Z</time>
      </trkpt>
      <trkpt lat="45.82892" lon="6.54954">
        <ele>1007</ele>
        <time>2019-04-18T07:44:42Z</time>
      </trkpt>
      <trkpt lat="45.82886" lon="6.54923">
        <ele>1008</ele>
        <time>2019-04-18T07:45:42Z</time>
      </trkpt>
      <trkpt lat="45.82885" lon="6.54905">
        <ele>1009</ele>
        <time>2019-04-18T07:46:42Z</time>
      </trkpt>
      <trkpt lat="45.82886" lon="6.54886">
        <ele>1011</ele>
        <time>2019-04-18T07:47:42Z</time>
      </trkpt>
      <trkpt lat="45.82889" lon="6.5483">
        <ele>1019</ele>
        <time>2019-04-18T07:48:42Z</time>
      </trkpt>
      <trkpt lat="45.82885" lon="6.54799">
        <ele>1022</ele>
        <time>2019-04-18T07:49:42Z</time>
      </trkpt>
      <trkpt lat="45.8287" lon="6.54762">
        <ele>1021</ele>
        <time>2019-04-18T07:50:42Z</time>
      </trkpt>
      <trkpt lat="45.82834" lon="6.54682">
        <ele>1021</ele>
        <time>2019-04-18T07:51:42Z</time>
      </trkpt>
      <trkpt lat="45.82821" lon="6.54659">
        <ele>1020</ele>
        <time>2019-04-18T07:52:42Z</time>
      </trkpt>
      <trkpt lat="45.82786" lon="6.54613">
        <ele>1016</ele>
        <time>2019-04-18T07:53:42Z</time>
      </trkpt>
      <trkpt lat="45.82774" lon="6.54592">
        <ele>1017</ele>
        <time>2019-04-18T07:54:42Z</time>
      </trkpt>
      <trkpt lat="45.82737" lon="6.54477">
        <ele>1017</ele>
        <time>2019-04-18T07:55:42Z</time>
      </trkpt>
      <trkpt lat="45.82732" lon="6.54455">
        <ele>1015</ele>
        <time>2019-04-18T07:56:42Z</time>
      </trkpt>
      <trkpt lat="45.82728" lon="6.54431">
        <ele>1014</ele>
        <time>2019-04-18T07:57:42Z</time>
      </trkpt>
      <trkpt lat="45.82727" lon="6.54409">
        <ele>1014</ele>
        <time>2019-04-18T07:58:42Z</time>
      </trkpt>
      <trkpt lat="45.8273" lon="6.54359">
        <ele>1016</ele>
        <time>2019-04-18T07:59:42Z</time>
      </trkpt>
      <trkpt lat="45.82729" lon="6.5434">
        <ele>1015</ele>
        <time>2019-04-18T08:00:42Z</time>
      </trkpt>
      <trkpt lat="45.82722" lon="6.54299">
        <ele>1016</ele>
        <time>2019-04-18T08:01:42Z</time>
      </trkpt>
      <trkpt lat="45.82698" lon="6.5422">
        <ele>1016</ele>
        <time>2019-04-18T08:02:42Z</time>
      </trkpt>
      <trkpt lat="45.82648" lon="6.5409">
        <ele>1012</ele>
        <time>2019-04-18T08:03:42Z</time>
      </trkpt>
      <trkpt lat="45.82638" lon="6.5407">
        <ele>1011</ele>
        <time>2019-04-18T08:04:42Z</time>
      </trkpt>
      <trkpt lat="45.82627" lon="6.54052">
        <ele>1011</ele>
        <time>2019-04-18T08:05:42Z</time>
      </trkpt>
      <trkpt lat="45.82607" lon="6.54031">
        <ele>1008</ele>
        <time>2019-04-18T08:06:42Z</time>
      </trkpt>
      <trkpt lat="45.82586" lon="6.54013">
        <ele>1005</ele>
        <time>2019-04-18T08:07:42Z</time>
      </trkpt>
      <trkpt lat="45.82561" lon="6.53986">
        <ele>1002</ele>
        <time>2019-04-18T08:08:42Z</time>
      </trkpt>
      <trkpt lat="45.82514" lon="6.53918">
        <ele>998</ele>
        <time>2019-04-18T08:09:42Z</time>
      </trkpt>
      <trkpt lat="45.82485" lon="6.53867">
        <ele>994</ele>
        <time>2019-04-18T08:10:42Z</time>
      </trkpt>
      <trkpt lat="45.82473" lon="6.53836">
        <ele>992</ele>
        <time>2019-04-18T08:11:42Z</time>
      </trkpt>
      <trkpt lat="45.82464" lon="6.53791">
        <ele>990</ele>
        <time>2019-04-18T08:12:42Z</time>
      </trkpt>
      <trkpt lat="45.8246" lon="6.5376">
        <ele>989</ele>
        <time>2019-04-18T08:13:42Z</time>
      </trkpt>
      <trkpt lat="45.8246" lon="6.53742">
        <ele>988</ele>
        <time>2019-04-18T08:14:42Z</time>
      </trkpt>
      <trkpt lat="45.82461" lon="6.53726">
        <ele>989</ele>
        <time>2019-04-18T08:15:42Z</time>
      </trkpt>
      <trkpt lat="45.82472" lon="6.53677">
        <ele>991</ele>
        <time>2019-04-18T08:16:42Z</time>
      </trkpt>
      <trkpt lat="45.82472" lon="6.53656">
        <ele>992</ele>
        <time>2019-04-18T08:17:42Z</time>
      </trkpt>
      <trkpt lat="45.82468" lon="6.53635">
        <ele>991</ele>
        <time>2019-04-18T08:18:42Z</time>
      </trkpt>
      <trkpt lat="45.82448" lon="6.53593">
        <ele>987</ele>
        <time>2019-04-18T08:19:42Z</time>
      </trkpt>
      <trkpt lat="45.82435" lon="6.53571">
        <ele>986</ele>
        <time>2019-04-18T08:20:42Z</time>
      </trkpt>
      <trkpt lat="45.82397" lon="6.53519">
        <ele>983</ele>
        <time>2019-04-18T08:21:42Z</time>
      </trkpt>
      <trkpt lat="45.82372" lon="6.53496">
        <ele>979</ele>
        <time>2019-04-18T08:22:42Z</time>
      </trkpt>
      <trkpt lat="45.82361" lon="6.53482">
        <ele>977</ele>
        <time>2019-04-18T08:23:42Z</time>
      </trkpt>
      <trkpt lat="45.8235" lon="6.53464">
        <ele>976</ele>
        <time>2019-04-18T08:24:42Z</time>
      </trkpt>
      <trkpt lat="45.82327" lon="6.53395">
        <ele>975</ele>
        <time>2019-04-18T08:25:42Z</time>
      </trkpt>
      <trkpt lat="45.82305" lon="6.53356">
        <ele>973</ele>
        <time>2019-04-18T08:26:42Z</time>
      </trkpt>
      <trkpt lat="45.82276" lon="6.53321">
        <ele>970</ele>
        <time>2019-04-18T08:27:42Z</time>
      </trkpt>
      <trkpt lat="45.82234" lon="6.53287">
        <ele>965</ele>
        <time>2019-04-18T08:28:42Z</time>
      </trkpt>
      <trkpt lat="45.82209" lon="6.5326">
        <ele>963</ele>
        <time>2019-04-18T08:29:42Z</time>
      </trkpt>
      <trkpt lat="45.82173" lon="6.53177">
        <ele>960</ele>
        <time>2019-04-18T08:30:42Z</time>
      </trkpt>
      <trkpt lat="45.82148" lon="6.53136">
        <ele>962</ele>
        <time>2019-04-18T08:31:42Z</time>
      </trkpt>
      <trkpt lat="45.82142" lon="6.53117">
        <ele>964</ele>
        <time>2019-04-18T08:32:42Z</time>
      </trkpt>
      <trkpt lat="45.8214" lon="6.53096">
        <ele>965</ele>
        <time>2019-04-18T08:33:42Z</time>
      </trkpt>
      <trkpt lat="45.82128" lon="6.53096">
        <ele>966</ele>
        <time>2019-04-18T08:34:42Z</time>
      </trkpt>
      <trkpt lat="45.82122" lon="6.53061">
        <ele>966</ele>
        <time>2019-04-18T08:35:42Z</time>
      </trkpt>
      <trkpt lat="45.82112" lon="6.53031">
        <ele>967</ele>
        <time>2019-04-18T08:36:42Z</time>
      </trkpt>
      <trkpt lat="45.82082" lon="6.5294">
        <ele>969</ele>
        <time>2019-04-18T08:37:42Z</time>
      </trkpt>
      <trkpt lat="45.82064" lon="6.52899">
        <ele>972</ele>
        <time>2019-04-18T08:38:42Z</time>
      </trkpt>
      <trkpt lat="45.82046" lon="6.52872">
        <ele>975</ele>
        <time>2019-04-18T08:39:42Z</time>
      </trkpt>
      <trkpt lat="45.81977" lon="6.52783">
        <ele>981</ele>
        <time>2019-04-18T08:40:42Z</time>
      </trkpt>
      <trkpt lat="45.81968" lon="6.52776">
        <ele>982</ele>
        <time>2019-04-18T08:41:42Z</time>
      </trkpt>
      <trkpt lat="45.81961" lon="6.52774">
        <ele>982</ele>
        <time>2019-04-18T08:42:42Z</time>
      </trkpt>
      <trkpt lat="45.81952" lon="6.52776">
        <ele>983</ele>
        <time>2019-04-18T08:43:42Z</time>
      </trkpt>
      <trkpt lat="45.81945" lon="6.52782">
        <ele>984</ele>
        <time>2019-04-18T08:44:42Z</time>
      </trkpt>
      <trkpt lat="45.81939" lon="6.52799">
        <ele>985</ele>
        <time>2019-04-18T08:45:42Z</time>
      </trkpt>
      <trkpt lat="45.81933" lon="6.52866">
        <ele>988</ele>
        <time>2019-04-18T08:46:42Z</time>
      </trkpt>
      <trkpt lat="45.81933" lon="6.52909">
        <ele>990</ele>
        <time>2019-04-18T08:47:42Z</time>
      </trkpt>
      <trkpt lat="45.81938" lon="6.52959">
        <ele>993</ele>
        <time>2019-04-18T08:48:42Z</time>
      </trkpt>
      <trkpt lat="45.81937" lon="6.52982">
        <ele>994</ele>
        <time>2019-04-18T08:49:42Z</time>
      </trkpt>
      <trkpt lat="45.81932" lon="6.52997">
        <ele>996</ele>
        <time>2019-04-18T08:50:42Z</time>
      </trkpt>
      <trkpt lat="45.81924" lon="6.53005">
        <ele>998</ele>
        <time>2019-04-18T08:51:42Z</time>
      </trkpt>
      <trkpt lat="45.81919" lon="6.53008">
        <ele>999</ele>
        <time>2019-04-18T08:52:42Z</time>
      </trkpt>
      <trkpt lat="45.81907" lon="6.53006">
        <ele>1002</ele>
        <time>2019-04-18T08:53:42Z</time>
      </trkpt>
      <trkpt lat="45.81899" lon="6.52998">
        <ele>1004</ele>
        <time>2019-04-18T08:54:42Z</time>
      </trkpt>
      <trkpt lat="45.81853" lon="6.52885">
        <ele>1007</ele>
        <time>2019-04-18T08:55:42Z</time>
      </trkpt>
      <trkpt lat="45.81841" lon="6.52861">
        <ele>1009</ele>
        <time>2019-04-18T08:56:42Z</time>
      </trkpt>
      <trkpt lat="45.81824" lon="6.52838">
        <ele>1014</ele>
        <time>2019-04-18T08:57:42Z</time>
      </trkpt>
      <trkpt lat="45.81786" lon="6.528">
        <ele>1024</ele>
        <time>2019-04-18T08:58:42Z</time>
      </trkpt>
      <trkpt lat="45.81775" lon="6.52784">
        <ele>1027</ele>
        <time>2019-04-18T08:59:42Z</time>
      </trkpt>
      <trkpt lat="45.81767" lon="6.52766">
        <ele>1028</ele>
        <time>2019-04-18T09:00:42Z</time>
      </trkpt>
      <trkpt lat="45.81724" lon="6.52621">
        <ele>1040</ele>
        <time>2019-04-18T09:01:42Z</time>
      </trkpt>
      <trkpt lat="45.81705" lon="6.52582">
        <ele>1047</ele>
        <time>2019-04-18T09:02:42Z</time>
      </trkpt>
      <trkpt lat="45.81694" lon="6.52553">
        <ele>1050</ele>
        <time>2019-04-18T09:03:42Z</time>
      </trkpt>
      <trkpt lat="45.81634" lon="6.52274">
        <ele>1064</ele>
        <time>2019-04-18T09:04:42Z</time>
      </trkpt>
      <trkpt lat="45.81616" lon="6.52206">
        <ele>1065</ele>
        <time>2019-04-18T09:05:42Z</time>
      </trkpt>
      <trkpt lat="45.81589" lon="6.52142">
        <ele>1069</ele>
        <time>2019-04-18T09:06:42Z</time>
      </trkpt>
      <trkpt lat="45.81513" lon="6.52011">
        <ele>1085</ele>
        <time>2019-04-18T09:07:42Z</time>
      </trkpt>
      <trkpt lat="45.81439" lon="6.51892">
        <ele>1088</ele>
        <time>2019-04-18T09:08:42Z</time>
      </trkpt>
      <trkpt lat="45.81398" lon="6.51816">
        <ele>1087</ele>
        <time>2019-04-18T09:09:42Z</time>
      </trkpt>
      <trkpt lat="45.81349" lon="6.51755">
        <ele>1092</ele>
        <time>2019-04-18T09:10:42Z</time>
      </trkpt>
      <trkpt lat="45.81326" lon="6.51732">
        <ele>1094</ele>
        <time>2019-04-18T09:11:42Z</time>
      </trkpt>
      <trkpt lat="45.81304" lon="6.51702">
        <ele>1093</ele>
        <time>2019-04-18T09:12:42Z</time>
      </trkpt>
      <trkpt lat="45.81255" lon="6.51651">
        <ele>1098</ele>
        <time>2019-04-18T09:13:42Z</time>
      </trkpt>
      <trkpt lat="45.81138" lon="6.51566">
        <ele>1100</ele>
        <time>2019-04-18T09:14:42Z</time>
      </trkpt>
      <trkpt lat="45.81086" lon="6.51544">
        <ele>1103</ele>
        <time>2019-04-18T09:15:42Z</time>
      </trkpt>
      <trkpt lat="45.81066" lon="6.51541">
        <ele>1104</ele>
        <time>2019-04-18T09:16:42Z</time>
      </trkpt>
      <trkpt lat="45.81057" lon="6.51542">
        <ele>1104</ele>
        <time>2019-04-18T09:17:42Z</time>
      </trkpt>
      <trkpt lat="45.81041" lon="6.5155">
        <ele>1105</ele>
        <time>2019-04-18T09:18:42Z</time>
      </trkpt>
      <trkpt lat="45.81014" lon="6.51582">
        <ele>1109</ele>
        <time>2019-04-18T09:19:42Z</time>
      </trkpt>
      <trkpt lat="45.81004" lon="6.51592">
        <ele>1111</ele>
        <time>2019-04-18T09:20:42Z</time>
      </trkpt>
      <trkpt lat="45.80996" lon="6.51596">
        <ele>1112</ele>
        <time>2019-04-18T09:21:42Z</time>
      </trkpt>
      <trkpt lat="45.8098" lon="6.516">
        <ele>1114</ele>
        <time>2019-04-18T09:22:42Z</time>
      </trkpt>
      <trkpt lat="45.80971" lon="6.51599">
        <ele>1114</ele>
        <time>2019-04-18T09:23:42Z</time>
      </trkpt>
      <trkpt lat="45.8094" lon="6.51586">
        <ele>1115</ele>
        <time>2019-04-18T09:24:42Z</time>
      </trkpt>
      <trkpt lat="45.80927" lon="6.51584">
        <ele>1115</ele>
        <time>2019-04-18T09:25:42Z</time>
      </trkpt>
      <trkpt lat="45.80921" lon="6.51585">
        <ele>1116</ele>
        <time>2019-04-18T09:26:42Z</time>
      </trkpt>
      <trkpt lat="45.80837" lon="6.51648">
        <ele>1122</ele>
        <time>2019-04-18T09:27:42Z</time>
      </trkpt>
      <trkpt lat="45.80822" lon="6.51662">
        <ele>1122</ele>
        <time>2019-04-18T09:28:42Z</time>
      </trkpt>
      <trkpt lat="45.80808" lon="6.51649">
        <ele>1121</ele>
        <time>2019-04-18T09:29:42Z</time>
      </trkpt>
      <trkpt lat="45.80803" lon="6.51646">
        <ele>1121</ele>
        <time>2019-04-18T09:30:42Z</time>
      </trkpt>
      <trkpt lat="45.80784" lon="6.51641">
        <ele>1120</ele>
        <time>2019-04-18T09:31:42Z</time>
      </trkpt>
      <trkpt lat="45.8077" lon="6.51643">
        <ele>1119</ele>
        <time>2019-04-18T09:32:42Z</time>
      </trkpt>
      <trkpt lat="45.80753" lon="6.51659">
        <ele>1120</ele>
        <time>2019-04-18T09:33:42Z</time>
      </trkpt>
      <trkpt lat="45.8072" lon="6.517">
        <ele>1116</ele>
        <time>2019-04-18T09:34:42Z</time>
      </trkpt>
      <trkpt lat="45.80712" lon="6.51707">
        <ele>1115</ele>
        <time>2019-04-18T09:35:42Z</time>
      </trkpt>
      <trkpt lat="45.807" lon="6.51711">
        <ele>1114</ele>
        <time>2019-04-18T09:36:42Z</time>
      </trkpt>
      <trkpt lat="45.80655" lon="6.5171">
        <ele>1107</ele>
        <time>2019-04-18T09:37:42Z</time>
      </trkpt>
      <trkpt lat="45.8064" lon="6.51711">
        <ele>1103</ele>
        <time>2019-04-18T09:38:42Z</time>
      </trkpt>
      <trkpt lat="45.8063" lon="6.51714">
        <ele>1100</ele>
        <time>2019-04-18T09:39:42Z</time>
      </trkpt>
      <trkpt lat="45.80617" lon="6.51727">
        <ele>1097</ele>
        <time>2019-04-18T09:40:42Z</time>
      </trkpt>
      <trkpt lat="45.80612" lon="6.5174">
        <ele>1096</ele>
        <time>2019-04-18T09:41:42Z</time>
      </trkpt>
      <trkpt lat="45.80611" lon="6.51778">
        <ele>1096</ele>
        <time>2019-04-18T09:42:42Z</time>
      </trkpt>
      <trkpt lat="45.80647" lon="6.51972">
        <ele>1095</ele>
        <time>2019-04-18T09:43:42Z</time>
      </trkpt>
      <trkpt lat="45.80649" lon="6.52015">
        <ele>1094</ele>
        <time>2019-04-18T09:44:42Z</time>
      </trkpt>
      <trkpt lat="45.80629" lon="6.52064">
        <ele>1092</ele>
        <time>2019-04-18T09:45:42Z</time>
      </trkpt>
      <trkpt lat="45.80598" lon="6.52077">
        <ele>1084</ele>
        <time>2019-04-18T09:46:42Z</time>
      </trkpt>
      <trkpt lat="45.80564" lon="6.52079">
        <ele>1069</ele>
        <time>2019-04-18T09:47:42Z</time>
      </trkpt>
      <trkpt lat="45.8055" lon="6.52113">
        <ele>1066</ele>
        <time>2019-04-18T09:48:42Z</time>
      </trkpt>
      <trkpt lat="45.80546" lon="6.52158">
        <ele>1069</ele>
        <time>2019-04-18T09:49:42Z</time>
      </trkpt>
      <trkpt lat="45.80548" lon="6.52292">
        <ele>1080</ele>
        <time>2019-04-18T09:50:42Z</time>
      </trkpt>
      <trkpt lat="45.80538" lon="6.52321">
        <ele>1078</ele>
        <time>2019-04-18T09:51:42Z</time>
      </trkpt>
      <trkpt lat="45.80532" lon="6.52352">
        <ele>1080</ele>
        <time>2019-04-18T09:52:42Z</time>
      </trkpt>
      <trkpt lat="45.80523" lon="6.52422">
        <ele>1093</ele>
        <time>2019-04-18T09:53:42Z</time>
      </trkpt>
      <trkpt lat="45.8051" lon="6.52433">
        <ele>1091</ele>
        <time>2019-04-18T09:54:42Z</time>
      </trkpt>
      <trkpt lat="45.80495" lon="6.5243">
        <ele>1084</ele>
        <time>2019-04-18T09:55:42Z</time>
      </trkpt>
      <trkpt lat="45.80465" lon="6.52396">
        <ele>1066</ele>
        <time>2019-04-18T09:56:42Z</time>
      </trkpt>
      <trkpt lat="45.80453" lon="6.52378">
        <ele>1064</ele>
        <time>2019-04-18T09:57:42Z</time>
      </trkpt>
      <trkpt lat="45.80435" lon="6.52342">
        <ele>1065</ele>
        <time>2019-04-18T09:58:42Z</time>
      </trkpt>
      <trkpt lat="45.80414" lon="6.52279">
        <ele>1073</ele>
        <time>2019-04-18T09:59:42Z</time>
      </trkpt>
      <trkpt lat="45.80397" lon="6.52204">
        <ele>1086</ele>
        <time>2019-04-18T10:00:42Z</time>
      </trkpt>
      <trkpt lat="45.80381" lon="6.51976">
        <ele>1071</ele>
        <time>2019-04-18T10:01:42Z</time>
      </trkpt>
      <trkpt lat="45.80369" lon="6.5195">
        <ele>1073</ele>
        <time>2019-04-18T10:02:42Z</time>
      </trkpt>
      <trkpt lat="45.80349" lon="6.51936">
        <ele>1084</ele>
        <time>2019-04-18T10:03:42Z</time>
      </trkpt>
      <trkpt lat="45.80293" lon="6.51854">
        <ele>1106</ele>
        <time>2019-04-18T10:04:42Z</time>
      </trkpt>
      <trkpt lat="45.80276" lon="6.51822">
        <ele>1116</ele>
        <time>2019-04-18T10:05:42Z</time>
      </trkpt>
      <trkpt lat="45.80267" lon="6.51741">
        <ele>1121</ele>
        <time>2019-04-18T10:06:42Z</time>
      </trkpt>
      <trkpt lat="45.80258" lon="6.51612">
        <ele>1116</ele>
        <time>2019-04-18T10:07:42Z</time>
      </trkpt>
      <trkpt lat="45.80236" lon="6.51453">
        <ele>1122</ele>
        <time>2019-04-18T10:08:42Z</time>
      </trkpt>
      <trkpt lat="45.80194" lon="6.51315">
        <ele>1138</ele>
        <time>2019-04-18T10:09:42Z</time>
      </trkpt>
      <trkpt lat="45.80139" lon="6.51196">
        <ele>1144</ele>
        <time>2019-04-18T10:10:42Z</time>
      </trkpt>
      <trkpt lat="45.8012" lon="6.51146">
        <ele>1145</ele>
        <time>2019-04-18T10:11:42Z</time>
      </trkpt>
      <trkpt lat="45.80097" lon="6.51118">
        <ele>1146</ele>
        <time>2019-04-18T10:12:42Z</time>
      </trkpt>
      <trkpt lat="45.80083" lon="6.51115">
        <ele>1148</ele>
        <time>2019-04-18T10:13:42Z</time>
      </trkpt>
      <trkpt lat="45.80079" lon="6.51132">
        <ele>1151</ele>
        <time>2019-04-18T10:14:42Z</time>
      </trkpt>
      <trkpt lat="45.80105" lon="6.51177">
        <ele>1151</ele>
        <time>2019-04-18T10:15:42Z</time>
      </trkpt>
      <trkpt lat="45.80112" lon="6.51211">
        <ele>1153</ele>
        <time>2019-04-18T10:16:42Z</time>
      </trkpt>
      <trkpt lat="45.8011" lon="6.51219">
        <ele>1155</ele>
        <time>2019-04-18T10:17:42Z</time>
      </trkpt>
      <trkpt lat="45.80101" lon="6.51227">
        <ele>1158</ele>
        <time>2019-04-18T10:18:42Z</time>
      </trkpt>
      <trkpt lat="45.80083" lon="6.51183">
        <ele>1157</ele>
        <time>2019-04-18T10:19:42Z</time>
      </trkpt>
      <trkpt lat="45.80067" lon="6.51169">
        <ele>1159</ele>
        <time>2019-04-18T10:20:42Z</time>
      </trkpt>
      <trkpt lat="45.80044" lon="6.51159">
        <ele>1165</ele>
        <time>2019-04-18T10:21:42Z</time>
      </trkpt>
      <trkpt lat="45.8002" lon="6.51144">
        <ele>1171</ele>
        <time>2019-04-18T10:22:42Z</time>
      </trkpt>
      <trkpt lat="45.80004" lon="6.51095">
        <ele>1171</ele>
        <time>2019-04-18T10:23:42Z</time>
      </trkpt>
      <trkpt lat="45.79982" lon="6.51035">
        <ele>1173</ele>
        <time>2019-04-18T10:24:42Z</time>
      </trkpt>
      <trkpt lat="45.79964" lon="6.51004">
        <ele>1175</ele>
        <time>2019-04-18T10:25:42Z</time>
      </trkpt>
      <trkpt lat="45.79948" lon="6.50983">
        <ele>1178</ele>
        <time>2019-04-18T10:26:42Z</time>
      </trkpt>
      <trkpt lat="45.79929" lon="6.50972">
        <ele>1183</ele>
        <time>2019-04-18T10:27:42Z</time>
      </trkpt>
      <trkpt lat="45.79904" lon="6.50966">
        <ele>1187</ele>
        <time>2019-04-18T10:28:42Z</time>
      </trkpt>
      <trkpt lat="45.79888" lon="6.50946">
        <ele>1189</ele>
        <time>2019-04-18T10:29:42Z</time>
      </trkpt>
      <trkpt lat="45.79873" lon="6.5091">
        <ele>1189</ele>
        <time>2019-04-18T10:30:42Z</time>
      </trkpt>
      <trkpt lat="45.79855" lon="6.50895">
        <ele>1190</ele>
        <time>2019-04-18T10:31:42Z</time>
      </trkpt>
      <trkpt lat="45.7977" lon="6.50866">
        <ele>1206</ele>
        <time>2019-04-18T10:32:42Z</time>
      </trkpt>
      <trkpt lat="45.79753" lon="6.50853">
        <ele>1209</ele>
        <time>2019-04-18T10:33:42Z</time>
      </trkpt>
      <trkpt lat="45.79744" lon="6.50833">
        <ele>1210</ele>
        <time>2019-04-18T10:34:42Z</time>
      </trkpt>
      <trkpt lat="45.79741" lon="6.50812">
        <ele>1208</ele>
        <time>2019-04-18T10:35:42Z</time>
      </trkpt>
      <trkpt lat="45.797" lon="6.50714">
        <ele>1211</ele>
        <time>2019-04-18T10:36:42Z</time>
      </trkpt>
      <trkpt lat="45.79688" lon="6.50697">
        <ele>1213</ele>
        <time>2019-04-18T10:37:42Z</time>
      </trkpt>
      <trkpt lat="45.7967" lon="6.50677">
        <ele>1216</ele>
        <time>2019-04-18T10:38:42Z</time>
      </trkpt>
      <trkpt lat="45.7964" lon="6.50656">
        <ele>1218</ele>
        <time>2019-04-18T10:39:42Z</time>
      </trkpt>
      <trkpt lat="45.79601" lon="6.50633">
        <ele>1219</ele>
        <time>2019-04-18T10:40:42Z</time>
      </trkpt>
      <trkpt lat="45.79577" lon="6.5061">
        <ele>1219</ele>
        <time>2019-04-18T10:41:42Z</time>
      </trkpt>
      <trkpt lat="45.79525" lon="6.50552">
        <ele>1219</ele>
        <time>2019-04-18T10:42:42Z</time>
      </trkpt>
      <trkpt lat="45.79519" lon="6.50562">
        <ele>1220</ele>
        <time>2019-04-18T10:43:42Z</time>
      </trkpt>
      <trkpt lat="45.7956" lon="6.50798">
        <ele>1233</ele>
        <time>2019-04-18T10:44:42Z</time>
      </trkpt>
      <trkpt lat="45.7957" lon="6.50836">
        <ele>1235</ele>
        <time>2019-04-18T10:45:42Z</time>
      </trkpt>
      <trkpt lat="45.79596" lon="6.50901">
        <ele>1236</ele>
        <time>2019-04-18T10:46:42Z</time>
      </trkpt>
      <trkpt lat="45.79617" lon="6.50965">
        <ele>1239</ele>
        <time>2019-04-18T10:47:42Z</time>
      </trkpt>
      <trkpt lat="45.79618" lon="6.50975">
        <ele>1239</ele>
        <time>2019-04-18T10:48:42Z</time>
      </trkpt>
      <trkpt lat="45.79603" lon="6.51019">
        <ele>1247</ele>
        <time>2019-04-18T10:49:42Z</time>
      </trkpt>
      <trkpt lat="45.796" lon="6.5104">
        <ele>1250</ele>
        <time>2019-04-18T10:50:42Z</time>
      </trkpt>
      <trkpt lat="45.79597" lon="6.51079">
        <ele>1254</ele>
        <time>2019-04-18T10:51:42Z</time>
      </trkpt>
      <trkpt lat="45.79598" lon="6.51134">
        <ele>1259</ele>
        <time>2019-04-18T10:52:42Z</time>
      </trkpt>
      <trkpt lat="45.79633" lon="6.51169">
        <ele>1258</ele>
        <time>2019-04-18T10:53:42Z</time>
      </trkpt>
      <trkpt lat="45.7966" lon="6.51222">
        <ele>1261</ele>
        <time>2019-04-18T10:54:42Z</time>
      </trkpt>
      <trkpt lat="45.79715" lon="6.5135">
        <ele>1270</ele>
        <time>2019-04-18T10:55:42Z</time>
      </trkpt>
      <trkpt lat="45.7978" lon="6.51494">
        <ele>1282</ele>
        <time>2019-04-18T10:56:42Z</time>
      </trkpt>
      <trkpt lat="45.798" lon="6.51533">
        <ele>1283</ele>
        <time>2019-04-18T10:57:42Z</time>
      </trkpt>
      <trkpt lat="45.79807" lon="6.51569">
        <ele>1285</ele>
        <time>2019-04-18T10:58:42Z</time>
      </trkpt>
      <trkpt lat="45.79812" lon="6.51586">
        <ele>1286</ele>
        <time>2019-04-18T10:59:42Z</time>
      </trkpt>
      <trkpt lat="45.79819" lon="6.51599">
        <ele>1286</ele>
        <time>2019-04-18T11:00:42Z</time>
      </trkpt>
      <trkpt lat="45.79841" lon="6.51672">
        <ele>1290</ele>
        <time>2019-04-18T11:01:42Z</time>
      </trkpt>
      <trkpt lat="45.79847" lon="6.51697">
        <ele>1292</ele>
        <time>2019-04-18T11:02:42Z</time>
      </trkpt>
      <trkpt lat="45.79863" lon="6.5178">
        <ele>1299</ele>
        <time>2019-04-18T11:03:42Z</time>
      </trkpt>
      <trkpt lat="45.79868" lon="6.51859">
        <ele>1304</ele>
        <time>2019-04-18T11:04:42Z</time>
      </trkpt>
      <trkpt lat="45.79876" lon="6.51911">
        <ele>1307</ele>
        <time>2019-04-18T11:05:42Z</time>
      </trkpt>
      <trkpt lat="45.79891" lon="6.52031">
        <ele>1313</ele>
        <time>2019-04-18T11:06:42Z</time>
      </trkpt>
      <trkpt lat="45.79901" lon="6.52091">
        <ele>1317</ele>
        <time>2019-04-18T11:07:42Z</time>
      </trkpt>
      <trkpt lat="45.79913" lon="6.52193">
        <ele>1325</ele>
        <time>2019-04-18T11:08:42Z</time>
      </trkpt>
      <trkpt lat="45.79913" lon="6.52235">
        <ele>1326</ele>
        <time>2019-04-18T11:09:42Z</time>
      </trkpt>
      <trkpt lat="45.79909" lon="6.52281">
        <ele>1328</ele>
        <time>2019-04-18T11:10:42Z</time>
      </trkpt>
      <trkpt lat="45.79896" lon="6.52371">
        <ele>1334</ele>
        <time>2019-04-18T11:11:42Z</time>
      </trkpt>
      <trkpt lat="45.79886" lon="6.52423">
        <ele>1338</ele>
        <time>2019-04-18T11:12:42Z</time>
      </trkpt>
      <trkpt lat="45.7987" lon="6.52478">
        <ele>1341</ele>
        <time>2019-04-18T11:13:42Z</time>
      </trkpt>
      <trkpt lat="45.79859" lon="6.52507">
        <ele>1343</ele>
        <time>2019-04-18T11:14:42Z</time>
      </trkpt>
      <trkpt lat="45.79836" lon="6.52556">
        <ele>1347</ele>
        <time>2019-04-18T11:15:42Z</time>
      </trkpt>
      <trkpt lat="45.79826" lon="6.52574">
        <ele>1349</ele>
        <time>2019-04-18T11:16:42Z</time>
      </trkpt>
      <trkpt lat="45.79789" lon="6.52617">
        <ele>1354</ele>
        <time>2019-04-18T11:17:42Z</time>
      </trkpt>
      <trkpt lat="45.79757" lon="6.52648">
        <ele>1358</ele>
        <time>2019-04-18T11:18:42Z</time>
      </trkpt>
      <trkpt lat="45.7971" lon="6.5269">
        <ele>1364</ele>
        <time>2019-04-18T11:19:42Z</time>
      </trkpt>
      <trkpt lat="45.79683" lon="6.52707">
        <ele>1369</ele>
        <time>2019-04-18T11:20:42Z</time>
      </trkpt>
      <trkpt lat="45.79672" lon="6.52728">
        <ele>1369</ele>
        <time>2019-04-18T11:21:42Z</time>
      </trkpt>
      <trkpt lat="45.79667" lon="6.52745">
        <ele>1368</ele>
        <time>2019-04-18T11:22:42Z</time>
      </trkpt>
      <trkpt lat="45.79664" lon="6.5278">
        <ele>1366</ele>
        <time>2019-04-18T11:23:42Z</time>
      </trkpt>
      <trkpt lat="45.79662" lon="6.52789">
        <ele>1366</ele>
        <time>2019-04-18T11:24:42Z</time>
      </trkpt>
      <trkpt lat="45.79652" lon="6.52803">
        <ele>1369</ele>
        <time>2019-04-18T11:25:42Z</time>
      </trkpt>
      <trkpt lat="45.79638" lon="6.52818">
        <ele>1374</ele>
        <time>2019-04-18T11:26:42Z</time>
      </trkpt>
      <trkpt lat="45.79618" lon="6.52833">
        <ele>1381</ele>
        <time>2019-04-18T11:27:42Z</time>
      </trkpt>
      <trkpt lat="45.79616" lon="6.52838">
        <ele>1382</ele>
        <time>2019-04-18T11:28:42Z</time>
      </trkpt>
      <trkpt lat="45.79613" lon="6.52885">
        <ele>1382</ele>
        <time>2019-04-18T11:29:42Z</time>
      </trkpt>
      <trkpt lat="45.79598" lon="6.52936">
        <ele>1387</ele>
        <time>2019-04-18T11:30:42Z</time>
      </trkpt>
      <trkpt lat="45.79596" lon="6.52952">
        <ele>1388</ele>
        <time>2019-04-18T11:31:42Z</time>
      </trkpt>
      <trkpt lat="45.79598" lon="6.52988">
        <ele>1386</ele>
        <time>2019-04-18T11:32:42Z</time>
      </trkpt>
      <trkpt lat="45.79594" lon="6.53003">
        <ele>1387</ele>
        <time>2019-04-18T11:33:42Z</time>
      </trkpt>
      <trkpt lat="45.79579" lon="6.53031">
        <ele>1393</ele>
        <time>2019-04-18T11:34:42Z</time>
      </trkpt>
      <trkpt lat="45.79571" lon="6.53057">
        <ele>1394</ele>
        <time>2019-04-18T11:35:42Z</time>
      </trkpt>
      <trkpt lat="45.7956" lon="6.53068">
        <ele>1395</ele>
        <time>2019-04-18T11:36:42Z</time>
      </trkpt>
      <trkpt lat="45.7955" lon="6.53072">
        <ele>1397</ele>
        <time>2019-04-18T11:37:42Z</time>
      </trkpt>
      <trkpt lat="45.79521" lon="6.5307">
        <ele>1402</ele>
        <time>2019-04-18T11:38:42Z</time>
      </trkpt>
      <trkpt lat="45.79517" lon="6.53072">
        <ele>1403</ele>
        <time>2019-04-18T11:39:42Z</time>
      </trkpt>
      <trkpt lat="45.79512" lon="6.53079">
        <ele>1403</ele>
        <time>2019-04-18T11:40:42Z</time>
      </trkpt>
      <trkpt lat="45.79502" lon="6.53125">
        <ele>1403</ele>
        <time>2019-04-18T11:41:42Z</time>
      </trkpt>
      <trkpt lat="45.79498" lon="6.53156">
        <ele>1403</ele>
        <time>2019-04-18T11:42:42Z</time>
      </trkpt>
      <trkpt lat="45.79493" lon="6.53176">
        <ele>1402</ele>
        <time>2019-04-18T11:43:42Z</time>
      </trkpt>
      <trkpt lat="45.79482" lon="6.53197">
        <ele>1402</ele>
        <time>2019-04-18T11:44:42Z</time>
      </trkpt>
      <trkpt lat="45.79436" lon="6.53226">
        <ele>1409</ele>
        <time>2019-04-18T11:45:42Z</time>
      </trkpt>
      <trkpt lat="45.79403" lon="6.53261">
        <ele>1410</ele>
        <time>2019-04-18T11:46:42Z</time>
      </trkpt>
      <trkpt lat="45.79385" lon="6.53268">
        <ele>1412</ele>
        <time>2019-04-18T11:47:42Z</time>
      </trkpt>
      <trkpt lat="45.79377" lon="6.53265">
        <ele>1413</ele>
        <time>2019-04-18T11:48:42Z</time>
      </trkpt>
      <trkpt lat="45.79365" lon="6.53254">
        <ele>1416</ele>
        <time>2019-04-18T11:49:42Z</time>
      </trkpt>
      <trkpt lat="45.79348" lon="6.53231">
        <ele>1421</ele>
        <time>2019-04-18T11:50:42Z</time>
      </trkpt>
      <trkpt lat="45.79334" lon="6.53205">
        <ele>1426</ele>
        <time>2019-04-18T11:51:42Z</time>
      </trkpt>
      <trkpt lat="45.79327" lon="6.53197">
        <ele>1428</ele>
        <time>2019-04-18T11:52:42Z</time>
      </trkpt>
      <trkpt lat="45.79311" lon="6.53191">
        <ele>1430</ele>
        <time>2019-04-18T11:53:42Z</time>
      </trkpt>
      <trkpt lat="45.79278" lon="6.53202">
        <ele>1430</ele>
        <time>2019-04-18T11:54:42Z</time>
      </trkpt>
      <trkpt lat="45.79231" lon="6.53176">
        <ele>1435</ele>
        <time>2019-04-18T11:55:42Z</time>
      </trkpt>
      <trkpt lat="45.79212" lon="6.53171">
        <ele>1436</ele>
        <time>2019-04-18T11:56:42Z</time>
      </trkpt>
      <trkpt lat="45.7919" lon="6.53162">
        <ele>1438</ele>
        <time>2019-04-18T11:57:42Z</time>
      </trkpt>
      <trkpt lat="45.7917" lon="6.53151">
        <ele>1439</ele>
        <time>2019-04-18T11:58:42Z</time>
      </trkpt>
      <trkpt lat="45.79142" lon="6.53145">
        <ele>1442</ele>
        <time>2019-04-18T11:59:42Z</time>
      </trkpt>
      <trkpt lat="45.79099" lon="6.53144">
        <ele>1446</ele>
        <time>2019-04-18T12:00:42Z</time>
      </trkpt>
      <trkpt lat="45.79073" lon="6.53153">
        <ele>1449</ele>
        <time>2019-04-18T12:01:42Z</time>
      </trkpt>
      <trkpt lat="45.79023" lon="6.53213">
        <ele>1455</ele>
        <time>2019-04-18T12:02:42Z</time>
      </trkpt>
      <trkpt lat="45.78976" lon="6.53296">
        <ele>1458</ele>
        <time>2019-04-18T12:03:42Z</time>
      </trkpt>
      <trkpt lat="45.78952" lon="6.53333">
        <ele>1460</ele>
        <time>2019-04-18T12:04:42Z</time>
      </trkpt>
      <trkpt lat="45.78942" lon="6.53344">
        <ele>1462</ele>
        <time>2019-04-18T12:05:42Z</time>
      </trkpt>
      <trkpt lat="45.78929" lon="6.53352">
        <ele>1465</ele>
        <time>2019-04-18T12:06:42Z</time>
      </trkpt>
      <trkpt lat="45.78898" lon="6.53361">
        <ele>1471</ele>
        <time>2019-04-18T12:07:42Z</time>
      </trkpt>
      <trkpt lat="45.78884" lon="6.53365">
        <ele>1472</ele>
        <time>2019-04-18T12:08:42Z</time>
      </trkpt>
      <trkpt lat="45.78848" lon="6.53365">
        <ele>1477</ele>
        <time>2019-04-18T12:09:42Z</time>
      </trkpt>
      <trkpt lat="45.7883" lon="6.53379">
        <ele>1479</ele>
        <time>2019-04-18T12:10:42Z</time>
      </trkpt>
      <trkpt lat="45.78823" lon="6.5338">
        <ele>1479</ele>
        <time>2019-04-18T12:11:42Z</time>
      </trkpt>
      <trkpt lat="45.78812" lon="6.53374">
        <ele>1481</ele>
        <time>2019-04-18T12:12:42Z</time>
      </trkpt>
      <trkpt lat="45.78809" lon="6.53362">
        <ele>1483</ele>
        <time>2019-04-18T12:13:42Z</time>
      </trkpt>
      <trkpt lat="45.7881" lon="6.53352">
        <ele>1484</ele>
        <time>2019-04-18T12:14:42Z</time>
      </trkpt>
      <trkpt lat="45.78815" lon="6.53345">
        <ele>1484</ele>
        <time>2019-04-18T12:15:42Z</time>
      </trkpt>
      <trkpt lat="45.78848" lon="6.53321">
        <ele>1481</ele>
        <time>2019-04-18T12:16:42Z</time>
      </trkpt>
      <trkpt lat="45.78854" lon="6.53308">
        <ele>1481</ele>
        <time>2019-04-18T12:17:42Z</time>
      </trkpt>
      <trkpt lat="45.7886" lon="6.53264">
        <ele>1485</ele>
        <time>2019-04-18T12:18:42Z</time>
      </trkpt>
      <trkpt lat="45.78888" lon="6.53244">
        <ele>1483</ele>
        <time>2019-04-18T12:19:42Z</time>
      </trkpt>
      <trkpt lat="45.78892" lon="6.53239">
        <ele>1483</ele>
        <time>2019-04-18T12:20:42Z</time>
      </trkpt>
      <trkpt lat="45.78895" lon="6.53234">
        <ele>1483</ele>
        <time>2019-04-18T12:21:42Z</time>
      </trkpt>
      <trkpt lat="45.78896" lon="6.53221">
        <ele>1484</ele>
        <time>2019-04-18T12:22:42Z</time>
      </trkpt>
      <trkpt lat="45.78891" lon="6.53189">
        <ele>1489</ele>
        <time>2019-04-18T12:23:42Z</time>
      </trkpt>
      <trkpt lat="45.78888" lon="6.53181">
        <ele>1490</ele>
        <time>2019-04-18T12:24:42Z</time>
      </trkpt>
      <trkpt lat="45.7888" lon="6.53174">
        <ele>1493</ele>
        <time>2019-04-18T12:25:42Z</time>
      </trkpt>
      <trkpt lat="45.78858" lon="6.53167">
        <ele>1499</ele>
        <time>2019-04-18T12:26:42Z</time>
      </trkpt>
      <trkpt lat="45.78852" lon="6.53168">
        <ele>1500</ele>
        <time>2019-04-18T12:27:42Z</time>
      </trkpt>
      <trkpt lat="45.78832" lon="6.5318">
        <ele>1502</ele>
        <time>2019-04-18T12:28:42Z</time>
      </trkpt>
      <trkpt lat="45.78827" lon="6.53181">
        <ele>1503</ele>
        <time>2019-04-18T12:29:42Z</time>
      </trkpt>
      <trkpt lat="45.78805" lon="6.53174">
        <ele>1507</ele>
        <time>2019-04-18T12:30:42Z</time>
      </trkpt>
      <trkpt lat="45.7878" lon="6.53174">
        <ele>1511</ele>
        <time>2019-04-18T12:31:42Z</time>
      </trkpt>
      <trkpt lat="45.78771" lon="6.53172">
        <ele>1512</ele>
        <time>2019-04-18T12:32:42Z</time>
      </trkpt>
      <trkpt lat="45.78745" lon="6.53174">
        <ele>1515</ele>
        <time>2019-04-18T12:33:42Z</time>
      </trkpt>
      <trkpt lat="45.78691" lon="6.53162">
        <ele>1518</ele>
        <time>2019-04-18T12:34:42Z</time>
      </trkpt>
      <trkpt lat="45.78673" lon="6.53148">
        <ele>1522</ele>
        <time>2019-04-18T12:35:42Z</time>
      </trkpt>
      <trkpt lat="45.78641" lon="6.5314">
        <ele>1528</ele>
        <time>2019-04-18T12:36:42Z</time>
      </trkpt>
      <trkpt lat="45.78612" lon="6.53135">
        <ele>1533</ele>
        <time>2019-04-18T12:37:42Z</time>
      </trkpt>
      <trkpt lat="45.78597" lon="6.53136">
        <ele>1535</ele>
        <time>2019-04-18T12:38:42Z</time>
      </trkpt>
      <trkpt lat="45.78584" lon="6.53142">
        <ele>1535</ele>
        <time>2019-04-18T12:39:42Z</time>
      </trkpt>
      <trkpt lat="45.78577" lon="6.53163">
        <ele>1533</ele>
        <time>2019-04-18T12:40:42Z</time>
      </trkpt>
      <trkpt lat="45.78569" lon="6.53171">
        <ele>1533</ele>
        <time>2019-04-18T12:41:42Z</time>
      </trkpt>
      <trkpt lat="45.78544" lon="6.53175">
        <ele>1536</ele>
        <time>2019-04-18T12:42:42Z</time>
      </trkpt>
      <trkpt lat="45.7853" lon="6.53175">
        <ele>1538</ele>
        <time>2019-04-18T12:43:42Z</time>
      </trkpt>
      <trkpt lat="45.78508" lon="6.53169">
        <ele>1542</ele>
        <time>2019-04-18T12:44:42Z</time>
      </trkpt>
      <trkpt lat="45.78493" lon="6.53159">
        <ele>1542</ele>
        <time>2019-04-18T12:45:42Z</time>
      </trkpt>
      <trkpt lat="45.78478" lon="6.53144">
        <ele>1541</ele>
        <time>2019-04-18T12:46:42Z</time>
      </trkpt>
      <trkpt lat="45.78421" lon="6.53055">
        <ele>1549</ele>
        <time>2019-04-18T12:47:42Z</time>
      </trkpt>
      <trkpt lat="45.78385" lon="6.53007">
        <ele>1553</ele>
        <time>2019-04-18T12:48:42Z</time>
      </trkpt>
      <trkpt lat="45.78349" lon="6.52948">
        <ele>1556</ele>
        <time>2019-04-18T12:49:42Z</time>
      </trkpt>
      <trkpt lat="45.78341" lon="6.52937">
        <ele>1557</ele>
        <time>2019-04-18T12:50:42Z</time>
      </trkpt>
      <trkpt lat="45.78286" lon="6.52886">
        <ele>1553</ele>
        <time>2019-04-18T12:51:42Z</time>
      </trkpt>
      <trkpt lat="45.78268" lon="6.52867">
        <ele>1551</ele>
        <time>2019-04-18T12:52:42Z</time>
      </trkpt>
      <trkpt lat="45.78187" lon="6.52761">
        <ele>1552</ele>
        <time>2019-04-18T12:53:42Z</time>
      </trkpt>
      <trkpt lat="45.78173" lon="6.52752">
        <ele>1551</ele>
        <time>2019-04-18T12:54:42Z</time>
      </trkpt>
      <trkpt lat="45.78141" lon="6.52752">
        <ele>1552</ele>
        <time>2019-04-18T12:55:42Z</time>
      </trkpt>
      <trkpt lat="45.7813" lon="6.52749">
        <ele>1552</ele>
        <time>2019-04-18T12:56:42Z</time>
      </trkpt>
      <trkpt lat="45.78118" lon="6.52743">
        <ele>1554</ele>
        <time>2019-04-18T12:57:42Z</time>
      </trkpt>
      <trkpt lat="45.78097" lon="6.52728">
        <ele>1556</ele>
        <time>2019-04-18T12:58:42Z</time>
      </trkpt>
      <trkpt lat="45.78075" lon="6.52698">
        <ele>1559</ele>
        <time>2019-04-18T12:59:42Z</time>
      </trkpt>
      <trkpt lat="45.78057" lon="6.52681">
        <ele>1559</ele>
        <time>2019-04-18T13:00:42Z</time>
      </trkpt>
      <trkpt lat="45.78033" lon="6.52669">
        <ele>1559</ele>
        <time>2019-04-18T13:01:42Z</time>
      </trkpt>
      <trkpt lat="45.78015" lon="6.52666">
        <ele>1557</ele>
        <time>2019-04-18T13:02:42Z</time>
      </trkpt>
      <trkpt lat="45.77972" lon="6.52672">
        <ele>1557</ele>
        <time>2019-04-18T13:03:42Z</time>
      </trkpt>
      <trkpt lat="45.77941" lon="6.5268">
        <ele>1557</ele>
        <time>2019-04-18T13:04:42Z</time>
      </trkpt>
      <trkpt lat="45.77894" lon="6.52684">
        <ele>1555</ele>
        <time>2019-04-18T13:05:42Z</time>
      </trkpt>
      <trkpt lat="45.7787" lon="6.52678">
        <ele>1554</ele>
        <time>2019-04-18T13:06:42Z</time>
      </trkpt>
      <trkpt lat="45.77774" lon="6.52662">
        <ele>1553</ele>
        <time>2019-04-18T13:07:42Z</time>
      </trkpt>
      <trkpt lat="45.77742" lon="6.52662">
        <ele>1553</ele>
        <time>2019-04-18T13:08:42Z</time>
      </trkpt>
      <trkpt lat="45.77701" lon="6.52668">
        <ele>1550</ele>
        <time>2019-04-18T13:09:42Z</time>
      </trkpt>
      <trkpt lat="45.77649" lon="6.52658">
        <ele>1550</ele>
        <time>2019-04-18T13:10:42Z</time>
      </trkpt>
      <trkpt lat="45.77609" lon="6.52677">
        <ele>1552</ele>
        <time>2019-04-18T13:11:42Z</time>
      </trkpt>
      <trkpt lat="45.77587" lon="6.527">
        <ele>1552</ele>
        <time>2019-04-18T13:12:42Z</time>
      </trkpt>
      <trkpt lat="45.77571" lon="6.52735">
        <ele>1551</ele>
        <time>2019-04-18T13:13:42Z</time>
      </trkpt>
      <trkpt lat="45.77553" lon="6.52747">
        <ele>1550</ele>
        <time>2019-04-18T13:14:42Z</time>
      </trkpt>
      <trkpt lat="45.77544" lon="6.52757">
        <ele>1549</ele>
        <time>2019-04-18T13:15:42Z</time>
      </trkpt>
      <trkpt lat="45.77527" lon="6.52762">
        <ele>1548</ele>
        <time>2019-04-18T13:16:42Z</time>
      </trkpt>
      <trkpt lat="45.7749" lon="6.52745">
        <ele>1550</ele>
        <time>2019-04-18T13:17:42Z</time>
      </trkpt>
      <trkpt lat="45.77425" lon="6.52707">
        <ele>1553</ele>
        <time>2019-04-18T13:18:42Z</time>
      </trkpt>
      <trkpt lat="45.77379" lon="6.52714">
        <ele>1548</ele>
        <time>2019-04-18T13:19:42Z</time>
      </trkpt>
      <trkpt lat="45.77307" lon="6.52689">
        <ele>1548</ele>
        <time>2019-04-18T13:20:42Z</time>
      </trkpt>
      <trkpt lat="45.77264" lon="6.52681">
        <ele>1549</ele>
        <time>2019-04-18T13:21:42Z</time>
      </trkpt>
      <trkpt lat="45.77258" lon="6.52681">
        <ele>1549</ele>
        <time>2019-04-18T13:22:42Z</time>
      </trkpt>
      <trkpt lat="45.77242" lon="6.52715">
        <ele>1544</ele>
        <time>2019-04-18T13:23:42Z</time>
      </trkpt>
      <trkpt lat="45.77238" lon="6.5272">
        <ele>1544</ele>
        <time>2019-04-18T13:24:42Z</time>
      </trkpt>
      <trkpt lat="45.77194" lon="6.52728">
        <ele>1544</ele>
        <time>2019-04-18T13:25:42Z</time>
      </trkpt>
      <trkpt lat="45.77179" lon="6.52741">
        <ele>1543</ele>
        <time>2019-04-18T13:26:42Z</time>
      </trkpt>
      <trkpt lat="45.77121" lon="6.52783">
        <ele>1540</ele>
        <time>2019-04-18T13:27:42Z</time>
      </trkpt>
      <trkpt lat="45.77044" lon="6.52817">
        <ele>1544</ele>
        <time>2019-04-18T13:28:42Z</time>
      </trkpt>
      <trkpt lat="45.77038" lon="6.52819">
        <ele>1545</ele>
        <time>2019-04-18T13:29:42Z</time>
      </trkpt>
      <trkpt lat="45.76988" lon="6.5281">
        <ele>1551</ele>
        <time>2019-04-18T13:30:42Z</time>
      </trkpt>
      <trkpt lat="45.76897" lon="6.52809">
        <ele>1560</ele>
        <time>2019-04-18T13:31:42Z</time>
      </trkpt>
      <trkpt lat="45.76862" lon="6.52798">
        <ele>1562</ele>
        <time>2019-04-18T13:32:42Z</time>
      </trkpt>
      <trkpt lat="45.76859" lon="6.52801">
        <ele>1563</ele>
        <time>2019-04-18T13:33:42Z</time>
      </trkpt>
      <trkpt lat="45.76859" lon="6.5281">
        <ele>1563</ele>
        <time>2019-04-18T13:34:42Z</time>
      </trkpt>
      <trkpt lat="45.76885" lon="6.5283">
        <ele>1561</ele>
        <time>2019-04-18T13:35:42Z</time>
      </trkpt>
      <trkpt lat="45.76919" lon="6.52879">
        <ele>1566</ele>
        <time>2019-04-18T13:36:42Z</time>
      </trkpt>
      <trkpt lat="45.76919" lon="6.52887">
        <ele>1567</ele>
        <time>2019-04-18T13:37:42Z</time>
      </trkpt>
      <trkpt lat="45.76915" lon="6.52892">
        <ele>1568</ele>
        <time>2019-04-18T13:38:42Z</time>
      </trkpt>
      <trkpt lat="45.76909" lon="6.5289">
        <ele>1569</ele>
        <time>2019-04-18T13:39:42Z</time>
      </trkpt>
      <trkpt lat="45.76875" lon="6.52866">
        <ele>1568</ele>
        <time>2019-04-18T13:40:42Z</time>
      </trkpt>
      <trkpt lat="45.7685" lon="6.52856">
        <ele>1568</ele>
        <time>2019-04-18T13:41:42Z</time>
      </trkpt>
      <trkpt lat="45.76842" lon="6.52857">
        <ele>1569</ele>
        <time>2019-04-18T13:42:42Z</time>
      </trkpt>
      <trkpt lat="45.76824" lon="6.52864">
        <ele>1572</ele>
        <time>2019-04-18T13:43:42Z</time>
      </trkpt>
      <trkpt lat="45.76787" lon="6.52863">
        <ele>1576</ele>
        <time>2019-04-18T13:44:42Z</time>
      </trkpt>
      <trkpt lat="45.76777" lon="6.52867">
        <ele>1578</ele>
        <time>2019-04-18T13:45:42Z</time>
      </trkpt>
      <trkpt lat="45.76775" lon="6.52871">
        <ele>1579</ele>
        <time>2019-04-18T13:46:42Z</time>
      </trkpt>
      <trkpt lat="45.76777" lon="6.52875">
        <ele>1579</ele>
        <time>2019-04-18T13:47:42Z</time>
      </trkpt>
      <trkpt lat="45.76794" lon="6.52882">
        <ele>1579</ele>
        <time>2019-04-18T13:48:42Z</time>
      </trkpt>
      <trkpt lat="45.76801" lon="6.52888">
        <ele>1579</ele>
        <time>2019-04-18T13:49:42Z</time>
      </trkpt>
      <trkpt lat="45.76843" lon="6.52926">
        <ele>1583</ele>
        <time>2019-04-18T13:50:42Z</time>
      </trkpt>
      <trkpt lat="45.7685" lon="6.52939">
        <ele>1585</ele>
        <time>2019-04-18T13:51:42Z</time>
      </trkpt>
      <trkpt lat="45.76857" lon="6.52979">
        <ele>1593</ele>
        <time>2019-04-18T13:52:42Z</time>
      </trkpt>
      <trkpt lat="45.76867" lon="6.53016">
        <ele>1597</ele>
        <time>2019-04-18T13:53:42Z</time>
      </trkpt>
      <trkpt lat="45.76876" lon="6.53038">
        <ele>1598</ele>
        <time>2019-04-18T13:54:42Z</time>
      </trkpt>
      <trkpt lat="45.76915" lon="6.53086">
        <ele>1597</ele>
        <time>2019-04-18T13:55:42Z</time>
      </trkpt>
      <trkpt lat="45.7695" lon="6.53133">
        <ele>1600</ele>
        <time>2019-04-18T13:56:42Z</time>
      </trkpt>
      <trkpt lat="45.76965" lon="6.53165">
        <ele>1604</ele>
        <time>2019-04-18T13:57:42Z</time>
      </trkpt>
      <trkpt lat="45.76976" lon="6.53197">
        <ele>1609</ele>
        <time>2019-04-18T13:58:42Z</time>
      </trkpt>
      <trkpt lat="45.76986" lon="6.53241">
        <ele>1615</ele>
        <time>2019-04-18T13:59:42Z</time>
      </trkpt>
      <trkpt lat="45.76998" lon="6.53262">
        <ele>1616</ele>
        <time>2019-04-18T14:00:42Z</time>
      </trkpt>
      <trkpt lat="45.77026" lon="6.53289">
        <ele>1612</ele>
        <time>2019-04-18T14:01:42Z</time>
      </trkpt>
      <trkpt lat="45.77028" lon="6.53293">
        <ele>1612</ele>
        <time>2019-04-18T14:02:42Z</time>
      </trkpt>
      <trkpt lat="45.77029" lon="6.53302">
        <ele>1613</ele>
        <time>2019-04-18T14:03:42Z</time>
      </trkpt>
      <trkpt lat="45.77029" lon="6.5331">
        <ele>1614</ele>
        <time>2019-04-18T14:04:42Z</time>
      </trkpt>
      <trkpt lat="45.76971" lon="6.53264">
        <ele>1625</ele>
        <time>2019-04-18T14:05:42Z</time>
      </trkpt>
      <trkpt lat="45.76925" lon="6.53215">
        <ele>1625</ele>
        <time>2019-04-18T14:06:42Z</time>
      </trkpt>
      <trkpt lat="45.76873" lon="6.53189">
        <ele>1624</ele>
        <time>2019-04-18T14:07:42Z</time>
      </trkpt>
      <trkpt lat="45.76856" lon="6.53183">
        <ele>1624</ele>
        <time>2019-04-18T14:08:42Z</time>
      </trkpt>
      <trkpt lat="45.76844" lon="6.53181">
        <ele>1625</ele>
        <time>2019-04-18T14:09:42Z</time>
      </trkpt>
      <trkpt lat="45.76824" lon="6.53182">
        <ele>1628</ele>
        <time>2019-04-18T14:10:42Z</time>
      </trkpt>
      <trkpt lat="45.76664" lon="6.53241">
        <ele>1640</ele>
        <time>2019-04-18T14:11:42Z</time>
      </trkpt>
      <trkpt lat="45.76607" lon="6.53267">
        <ele>1644</ele>
        <time>2019-04-18T14:12:42Z</time>
      </trkpt>
      <trkpt lat="45.76505" lon="6.53346">
        <ele>1651</ele>
        <time>2019-04-18T14:13:42Z</time>
      </trkpt>
      <trkpt lat="45.76395" lon="6.53385">
        <ele>1658</ele>
        <time>2019-04-18T14:14:42Z</time>
      </trkpt>
      <trkpt lat="45.76346" lon="6.53387">
        <ele>1658</ele>
        <time>2019-04-18T14:15:42Z</time>
      </trkpt>
      <trkpt lat="45.76336" lon="6.53377">
        <ele>1658</ele>
        <time>2019-04-18T14:16:42Z</time>
      </trkpt>
      <trkpt lat="45.76334" lon="6.53366">
        <ele>1657</ele>
        <time>2019-04-18T14:17:42Z</time>
      </trkpt>
      <trkpt lat="45.76327" lon="6.5336">
        <ele>1656</ele>
        <time>2019-04-18T14:18:42Z</time>
      </trkpt>
      <trkpt lat="45.76324" lon="6.5336">
        <ele>1656</ele>
        <time>2019-04-18T14:19:42Z</time>
      </trkpt>
      <trkpt lat="45.76317" lon="6.53365">
        <ele>1657</ele>
        <time>2019-04-18T14:20:42Z</time>
      </trkpt>
      <trkpt lat="45.76315" lon="6.53372">
        <ele>1658</ele>
        <time>2019-04-18T14:21:42Z</time>
      </trkpt>
      <trkpt lat="45.76283" lon="6.53347">
        <ele>1656</ele>
        <time>2019-04-18T14:22:42Z</time>
      </trkpt>
      <trkpt lat="45.76237" lon="6.53335">
        <ele>1656</ele>
        <time>2019-04-18T14:23:42Z</time>
      </trkpt>
      <trkpt lat="45.76177" lon="6.53333">
        <ele>1657</ele>
        <time>2019-04-18T14:24:42Z</time>
      </trkpt>
      <trkpt lat="45.76123" lon="6.53336">
        <ele>1658</ele>
        <time>2019-04-18T14:25:42Z</time>
      </trkpt>
      <trkpt lat="45.76031" lon="6.53357">
        <ele>1659</ele>
        <time>2019-04-18T14:26:42Z</time>
      </trkpt>
      <trkpt lat="45.75995" lon="6.53377">
        <ele>1659</ele>
        <time>2019-04-18T14:27:42Z</time>
      </trkpt>
      <trkpt lat="45.75956" lon="6.53414">
        <ele>1658</ele>
        <time>2019-04-18T14:28:42Z</time>
      </trkpt>
      <trkpt lat="45.75952" lon="6.53411">
        <ele>1658</ele>
        <time>2019-04-18T14:29:42Z</time>
      </trkpt>
      <trkpt lat="45.75945" lon="6.53409">
        <ele>1658</ele>
        <time>2019-04-18T14:30:42Z</time>
      </trkpt>
      <trkpt lat="45.75941" lon="6.53412">
        <ele>1657</ele>
        <time>2019-04-18T14:31:42Z</time>
      </trkpt>
      <trkpt lat="45.75936" lon="6.5342">
        <ele>1657</ele>
        <time>2019-04-18T14:32:42Z</time>
      </trkpt>
      <trkpt lat="45.75936" lon="6.53426">
        <ele>1657</ele>
        <time>2019-04-18T14:33:42Z</time>
      </trkpt>
      <trkpt lat="45.75939" lon="6.53438">
        <ele>1658</ele>
        <time>2019-04-18T14:34:42Z</time>
      </trkpt>
      <trkpt lat="45.75887" lon="6.53545">
        <ele>1656</ele>
        <time>2019-04-18T14:35:42Z</time>
      </trkpt>
      <trkpt lat="45.75878" lon="6.53551">
        <ele>1655</ele>
        <time>2019-04-18T14:36:42Z</time>
      </trkpt>
      <trkpt lat="45.75844" lon="6.53592">
        <ele>1653</ele>
        <time>2019-04-18T14:37:42Z</time>
      </trkpt>
      <trkpt lat="45.7583" lon="6.5362">
        <ele>1652</ele>
        <time>2019-04-18T14:38:42Z</time>
      </trkpt>
      <trkpt lat="45.75819" lon="6.53653">
        <ele>1651</ele>
        <time>2019-04-18T14:39:42Z</time>
      </trkpt>
      <trkpt lat="45.75805" lon="6.53683">
        <ele>1650</ele>
        <time>2019-04-18T14:40:42Z</time>
      </trkpt>
      <trkpt lat="45.75797" lon="6.53708">
        <ele>1649</ele>
        <time>2019-04-18T14:41:42Z</time>
      </trkpt>
      <trkpt lat="45.75788" lon="6.53749">
        <ele>1648</ele>
        <time>2019-04-18T14:42:42Z</time>
      </trkpt>
      <trkpt lat="45.75751" lon="6.53841">
        <ele>1641</ele>
        <time>2019-04-18T14:43:42Z</time>
      </trkpt>
      <trkpt lat="45.75732" lon="6.5391">
        <ele>1638</ele>
        <time>2019-04-18T14:44:42Z</time>
      </trkpt>
      <trkpt lat="45.75723" lon="6.53928">
        <ele>1636</ele>
        <time>2019-04-18T14:45:42Z</time>
      </trkpt>
      <trkpt lat="45.75719" lon="6.53925">
        <ele>1635</ele>
        <time>2019-04-18T14:46:42Z</time>
      </trkpt>
      <trkpt lat="45.75714" lon="6.53928">
        <ele>1635</ele>
        <time>2019-04-18T14:47:42Z</time>
      </trkpt>
      <trkpt lat="45.75713" lon="6.53935">
        <ele>1635</ele>
        <time>2019-04-18T14:48:42Z</time>
      </trkpt>
      <trkpt lat="45.75715" lon="6.53942">
        <ele>1635</ele>
        <time>2019-04-18T14:49:42Z</time>
      </trkpt>
      <trkpt lat="45.75692" lon="6.53992">
        <ele>1632</ele>
        <time>2019-04-18T14:50:42Z</time>
      </trkpt>
      <trkpt lat="45.7565" lon="6.54075">
        <ele>1626</ele>
        <time>2019-04-18T14:51:42Z</time>
      </trkpt>
      <trkpt lat="45.75647" lon="6.54074">
        <ele>1625</ele>
        <time>2019-04-18T14:52:42Z</time>
      </trkpt>
      <trkpt lat="45.75642" lon="6.54077">
        <ele>1625</ele>
        <time>2019-04-18T14:53:42Z</time>
      </trkpt>
      <trkpt lat="45.75641" lon="6.54083">
        <ele>1625</ele>
        <time>2019-04-18T14:54:42Z</time>
      </trkpt>
      <trkpt lat="45.75644" lon="6.54092">
        <ele>1625</ele>
        <time>2019-04-18T14:55:42Z</time>
      </trkpt>
      <trkpt lat="45.75629" lon="6.54143">
        <ele>1623</ele>
        <time>2019-04-18T14:56:42Z</time>
      </trkpt>
      <trkpt lat="45.75613" lon="6.54229">
        <ele>1619</ele>
        <time>2019-04-18T14:57:42Z</time>
      </trkpt>
      <trkpt lat="45.75599" lon="6.54271">
        <ele>1616</ele>
        <time>2019-04-18T14:58:42Z</time>
      </trkpt>
      <trkpt lat="45.75553" lon="6.54396">
        <ele>1608</ele>
        <time>2019-04-18T14:59:42Z</time>
      </trkpt>
      <trkpt lat="45.75518" lon="6.54498">
        <ele>1605</ele>
        <time>2019-04-18T15:00:42Z</time>
      </trkpt>
      <trkpt lat="45.75497" lon="6.54538">
        <ele>1604</ele>
        <time>2019-04-18T15:01:42Z</time>
      </trkpt>
      <trkpt lat="45.75477" lon="6.54559">
        <ele>1602</ele>
        <time>2019-04-18T15:02:42Z</time>
      </trkpt>
      <trkpt lat="45.75444" lon="6.54588">
        <ele>1598</ele>
        <time>2019-04-18T15:03:42Z</time>
      </trkpt>
      <trkpt lat="45.7542" lon="6.54593">
        <ele>1593</ele>
        <time>2019-04-18T15:04:42Z</time>
      </trkpt>
      <trkpt lat="45.75391" lon="6.54586">
        <ele>1588</ele>
        <time>2019-04-18T15:05:42Z</time>
      </trkpt>
      <trkpt lat="45.75363" lon="6.54597">
        <ele>1587</ele>
        <time>2019-04-18T15:06:42Z</time>
      </trkpt>
      <trkpt lat="45.75305" lon="6.54636">
        <ele>1585</ele>
        <time>2019-04-18T15:07:42Z</time>
      </trkpt>
      <trkpt lat="45.75277" lon="6.54638">
        <ele>1582</ele>
        <time>2019-04-18T15:08:42Z</time>
      </trkpt>
      <trkpt lat="45.75106" lon="6.54708">
        <ele>1569</ele>
        <time>2019-04-18T15:09:42Z</time>
      </trkpt>
      <trkpt lat="45.75033" lon="6.54731">
        <ele>1565</ele>
        <time>2019-04-18T15:10:42Z</time>
      </trkpt>
      <trkpt lat="45.74956" lon="6.54744">
        <ele>1558</ele>
        <time>2019-04-18T15:11:42Z</time>
      </trkpt>
      <trkpt lat="45.74867" lon="6.5477">
        <ele>1552</ele>
        <time>2019-04-18T15:12:42Z</time>
      </trkpt>
      <trkpt lat="45.74845" lon="6.54764">
        <ele>1550</ele>
        <time>2019-04-18T15:13:42Z</time>
      </trkpt>
      <trkpt lat="45.74811" lon="6.54745">
        <ele>1546</ele>
        <time>2019-04-18T15:14:42Z</time>
      </trkpt>
      <trkpt lat="45.74788" lon="6.54749">
        <ele>1543</ele>
        <time>2019-04-18T15:15:42Z</time>
      </trkpt>
      <trkpt lat="45.74767" lon="6.5476">
        <ele>1541</ele>
        <time>2019-04-18T15:16:42Z</time>
      </trkpt>
      <trkpt lat="45.74751" lon="6.54778">
        <ele>1539</ele>
        <time>2019-04-18T15:17:42Z</time>
      </trkpt>
      <trkpt lat="45.74742" lon="6.54803">
        <ele>1538</ele>
        <time>2019-04-18T15:18:42Z</time>
      </trkpt>
      <trkpt lat="45.74738" lon="6.54839">
        <ele>1538</ele>
        <time>2019-04-18T15:19:42Z</time>
      </trkpt>
      <trkpt lat="45.74724" lon="6.5487">
        <ele>1536</ele>
        <time>2019-04-18T15:20:42Z</time>
      </trkpt>
      <trkpt lat="45.74696" lon="6.54899">
        <ele>1532</ele>
        <time>2019-04-18T15:21:42Z</time>
      </trkpt>
      <trkpt lat="45.74658" lon="6.54904">
        <ele>1527</ele>
        <time>2019-04-18T15:22:42Z</time>
      </trkpt>
      <trkpt lat="45.74613" lon="6.54915">
        <ele>1525</ele>
        <time>2019-04-18T15:23:42Z</time>
      </trkpt>
      <trkpt lat="45.74564" lon="6.54936">
        <ele>1522</ele>
        <time>2019-04-18T15:24:42Z</time>
      </trkpt>
      <trkpt lat="45.74532" lon="6.54954">
        <ele>1520</ele>
        <time>2019-04-18T15:25:42Z</time>
      </trkpt>
      <trkpt lat="45.7452" lon="6.54956">
        <ele>1519</ele>
        <time>2019-04-18T15:26:42Z</time>
      </trkpt>
      <trkpt lat="45.74486" lon="6.54925">
        <ele>1516</ele>
        <time>2019-04-18T15:27:42Z</time>
      </trkpt>
      <trkpt lat="45.74459" lon="6.5492">
        <ele>1516</ele>
        <time>2019-04-18T15:28:42Z</time>
      </trkpt>
      <trkpt lat="45.74445" lon="6.54924">
        <ele>1515</ele>
        <time>2019-04-18T15:29:42Z</time>
      </trkpt>
      <trkpt lat="45.74424" lon="6.54944">
        <ele>1515</ele>
        <time>2019-04-18T15:30:42Z</time>
      </trkpt>
      <trkpt lat="45.74315" lon="6.5508">
        <ele>1494</ele>
        <time>2019-04-18T15:31:42Z</time>
      </trkpt>
      <trkpt lat="45.74304" lon="6.55106">
        <ele>1492</ele>
        <time>2019-04-18T15:32:42Z</time>
      </trkpt>
      <trkpt lat="45.74291" lon="6.55179">
        <ele>1488</ele>
        <time>2019-04-18T15:33:42Z</time>
      </trkpt>
      <trkpt lat="45.74297" lon="6.55216">
        <ele>1487</ele>
        <time>2019-04-18T15:34:42Z</time>
      </trkpt>
      <trkpt lat="45.74315" lon="6.55297">
        <ele>1485</ele>
        <time>2019-04-18T15:35:42Z</time>
      </trkpt>
      <trkpt lat="45.74314" lon="6.55332">
        <ele>1482</ele>
        <time>2019-04-18T15:36:42Z</time>
      </trkpt>
      <trkpt lat="45.74294" lon="6.55448">
        <ele>1472</ele>
        <time>2019-04-18T15:37:42Z</time>
      </trkpt>
      <trkpt lat="45.74297" lon="6.55484">
        <ele>1471</ele>
        <time>2019-04-18T15:38:42Z</time>
      </trkpt>
      <trkpt lat="45.7431" lon="6.55526">
        <ele>1471</ele>
        <time>2019-04-18T15:39:42Z</time>
      </trkpt>
      <trkpt lat="45.74316" lon="6.5557">
        <ele>1469</ele>
        <time>2019-04-18T15:40:42Z</time>
      </trkpt>
      <trkpt lat="45.74322" lon="6.55639">
        <ele>1464</ele>
        <time>2019-04-18T15:41:42Z</time>
      </trkpt>
      <trkpt lat="45.74333" lon="6.55662">
        <ele>1463</ele>
        <time>2019-04-18T15:42:42Z</time>
      </trkpt>
      <trkpt lat="45.74349" lon="6.55684">
        <ele>1464</ele>
        <time>2019-04-18T15:43:42Z</time>
      </trkpt>
      <trkpt lat="45.7436" lon="6.55708">
        <ele>1462</ele>
        <time>2019-04-18T15:44:42Z</time>
      </trkpt>
      <trkpt lat="45.74369" lon="6.55748">
        <ele>1457</ele>
        <time>2019-04-18T15:45:42Z</time>
      </trkpt>
      <trkpt lat="45.74396" lon="6.55792">
        <ele>1457</ele>
        <time>2019-04-18T15:46:42Z</time>
      </trkpt>
      <trkpt lat="45.744" lon="6.55812">
        <ele>1454</ele>
        <time>2019-04-18T15:47:42Z</time>
      </trkpt>
      <trkpt lat="45.74398" lon="6.55865">
        <ele>1446</ele>
        <time>2019-04-18T15:48:42Z</time>
      </trkpt>
      <trkpt lat="45.74402" lon="6.55889">
        <ele>1444</ele>
        <time>2019-04-18T15:49:42Z</time>
      </trkpt>
      <trkpt lat="45.7441" lon="6.55903">
        <ele>1443</ele>
        <time>2019-04-18T15:50:42Z</time>
      </trkpt>
      <trkpt lat="45.7442" lon="6.55916">
        <ele>1444</ele>
        <time>2019-04-18T15:51:42Z</time>
      </trkpt>
      <trkpt lat="45.74423" lon="6.55923">
        <ele>1443</ele>
        <time>2019-04-18T15:52:42Z</time>
      </trkpt>
      <trkpt lat="45.7442" lon="6.55935">
        <ele>1441</ele>
        <time>2019-04-18T15:53:42Z</time>
      </trkpt>
      <trkpt lat="45.74415" lon="6.55937">
        <ele>1440</ele>
        <time>2019-04-18T15:54:42Z</time>
      </trkpt>
      <trkpt lat="45.74408" lon="6.55933">
        <ele>1439</ele>
        <time>2019-04-18T15:55:42Z</time>
      </trkpt>
      <trkpt lat="45.744" lon="6.55919">
        <ele>1439</ele>
        <time>2019-04-18T15:56:42Z</time>
      </trkpt>
      <trkpt lat="45.74369" lon="6.55824">
        <ele>1445</ele>
        <time>2019-04-18T15:57:42Z</time>
      </trkpt>
      <trkpt lat="45.74362" lon="6.55818">
        <ele>1444</ele>
        <time>2019-04-18T15:58:42Z</time>
      </trkpt>
      <trkpt lat="45.74336" lon="6.55808">
        <ele>1440</ele>
        <time>2019-04-18T15:59:42Z</time>
      </trkpt>
      <trkpt lat="45.74299" lon="6.55802">
        <ele>1432</ele>
        <time>2019-04-18T16:00:42Z</time>
      </trkpt>
      <trkpt lat="45.74279" lon="6.55796">
        <ele>1429</ele>
        <time>2019-04-18T16:01:42Z</time>
      </trkpt>
      <trkpt lat="45.74258" lon="6.5577">
        <ele>1427</ele>
        <time>2019-04-18T16:02:42Z</time>
      </trkpt>
      <trkpt lat="45.74213" lon="6.5574">
        <ele>1421</ele>
        <time>2019-04-18T16:03:42Z</time>
      </trkpt>
      <trkpt lat="45.74195" lon="6.5571">
        <ele>1421</ele>
        <time>2019-04-18T16:04:42Z</time>
      </trkpt>
      <trkpt lat="45.74171" lon="6.55639">
        <ele>1422</ele>
        <time>2019-04-18T16:05:42Z</time>
      </trkpt>
      <trkpt lat="45.74167" lon="6.55633">
        <ele>1421</ele>
        <time>2019-04-18T16:06:42Z</time>
      </trkpt>
      <trkpt lat="45.74161" lon="6.55632">
        <ele>1420</ele>
        <time>2019-04-18T16:07:42Z</time>
      </trkpt>
      <trkpt lat="45.74156" lon="6.55637">
        <ele>1419</ele>
        <time>2019-04-18T16:08:42Z</time>
      </trkpt>
      <trkpt lat="45.74156" lon="6.55647">
        <ele>1418</ele>
        <time>2019-04-18T16:09:42Z</time>
      </trkpt>
      <trkpt lat="45.74164" lon="6.55673">
        <ele>1417</ele>
        <time>2019-04-18T16:10:42Z</time>
      </trkpt>
      <trkpt lat="45.74172" lon="6.55762">
        <ele>1408</ele>
        <time>2019-04-18T16:11:42Z</time>
      </trkpt>
      <trkpt lat="45.74178" lon="6.55787">
        <ele>1408</ele>
        <time>2019-04-18T16:12:42Z</time>
      </trkpt>
      <trkpt lat="45.742" lon="6.55839">
        <ele>1407</ele>
        <time>2019-04-18T16:13:42Z</time>
      </trkpt>
      <trkpt lat="45.74203" lon="6.55875">
        <ele>1404</ele>
        <time>2019-04-18T16:14:42Z</time>
      </trkpt>
      <trkpt lat="45.74208" lon="6.55902">
        <ele>1402</ele>
        <time>2019-04-18T16:15:42Z</time>
      </trkpt>
      <trkpt lat="45.74208" lon="6.55933">
        <ele>1399</ele>
        <time>2019-04-18T16:16:42Z</time>
      </trkpt>
      <trkpt lat="45.74225" lon="6.55977">
        <ele>1395</ele>
        <time>2019-04-18T16:17:42Z</time>
      </trkpt>
      <trkpt lat="45.7425" lon="6.56015">
        <ele>1392</ele>
        <time>2019-04-18T16:18:42Z</time>
      </trkpt>
      <trkpt lat="45.7427" lon="6.56038">
        <ele>1393</ele>
        <time>2019-04-18T16:19:42Z</time>
      </trkpt>
      <trkpt lat="45.7429" lon="6.56073">
        <ele>1392</ele>
        <time>2019-04-18T16:20:42Z</time>
      </trkpt>
      <trkpt lat="45.74297" lon="6.56105">
        <ele>1390</ele>
        <time>2019-04-18T16:21:42Z</time>
      </trkpt>
      <trkpt lat="45.74301" lon="6.56157">
        <ele>1384</ele>
        <time>2019-04-18T16:22:42Z</time>
      </trkpt>
      <trkpt lat="45.74329" lon="6.5625">
        <ele>1384</ele>
        <time>2019-04-18T16:23:42Z</time>
      </trkpt>
      <trkpt lat="45.74335" lon="6.56281">
        <ele>1382</ele>
        <time>2019-04-18T16:24:42Z</time>
      </trkpt>
      <trkpt lat="45.74336" lon="6.56293">
        <ele>1381</ele>
        <time>2019-04-18T16:25:42Z</time>
      </trkpt>
      <trkpt lat="45.74333" lon="6.56308">
        <ele>1378</ele>
        <time>2019-04-18T16:26:42Z</time>
      </trkpt>
      <trkpt lat="45.74323" lon="6.56321">
        <ele>1376</ele>
        <time>2019-04-18T16:27:42Z</time>
      </trkpt>
      <trkpt lat="45.74311" lon="6.56333">
        <ele>1373</ele>
        <time>2019-04-18T16:28:42Z</time>
      </trkpt>
      <trkpt lat="45.74274" lon="6.56361">
        <ele>1370</ele>
        <time>2019-04-18T16:29:42Z</time>
      </trkpt>
      <trkpt lat="45.74267" lon="6.56371">
        <ele>1369</ele>
        <time>2019-04-18T16:30:42Z</time>
      </trkpt>
      <trkpt lat="45.74262" lon="6.5639">
        <ele>1368</ele>
        <time>2019-04-18T16:31:42Z</time>
      </trkpt>
      <trkpt lat="45.74264" lon="6.56417">
        <ele>1368</ele>
        <time>2019-04-18T16:32:42Z</time>
      </trkpt>
      <trkpt lat="45.74278" lon="6.56451">
        <ele>1365</ele>
        <time>2019-04-18T16:33:42Z</time>
      </trkpt>
      <trkpt lat="45.74308" lon="6.56515">
        <ele>1360</ele>
        <time>2019-04-18T16:34:42Z</time>
      </trkpt>
      <trkpt lat="45.74341" lon="6.56579">
        <ele>1354</ele>
        <time>2019-04-18T16:35:42Z</time>
      </trkpt>
      <trkpt lat="45.74371" lon="6.56654">
        <ele>1348</ele>
        <time>2019-04-18T16:36:42Z</time>
      </trkpt>
      <trkpt lat="45.744" lon="6.56698">
        <ele>1348</ele>
        <time>2019-04-18T16:37:42Z</time>
      </trkpt>
      <trkpt lat="45.74421" lon="6.56722">
        <ele>1349</ele>
        <time>2019-04-18T16:38:42Z</time>
      </trkpt>
      <trkpt lat="45.74441" lon="6.56755">
        <ele>1347</ele>
        <time>2019-04-18T16:39:42Z</time>
      </trkpt>
      <trkpt lat="45.74457" lon="6.5679">
        <ele>1345</ele>
        <time>2019-04-18T16:40:42Z</time>
      </trkpt>
      <trkpt lat="45.74462" lon="6.56812">
        <ele>1345</ele>
        <time>2019-04-18T16:41:42Z</time>
      </trkpt>
      <trkpt lat="45.74464" lon="6.56833">
        <ele>1343</ele>
        <time>2019-04-18T16:42:42Z</time>
      </trkpt>
      <trkpt lat="45.74451" lon="6.56901">
        <ele>1332</ele>
        <time>2019-04-18T16:43:42Z</time>
      </trkpt>
      <trkpt lat="45.74455" lon="6.5693">
        <ele>1328</ele>
        <time>2019-04-18T16:44:42Z</time>
      </trkpt>
      <trkpt lat="45.74481" lon="6.56977">
        <ele>1326</ele>
        <time>2019-04-18T16:45:42Z</time>
      </trkpt>
      <trkpt lat="45.74495" lon="6.56999">
        <ele>1326</ele>
        <time>2019-04-18T16:46:42Z</time>
      </trkpt>
      <trkpt lat="45.74522" lon="6.57029">
        <ele>1324</ele>
        <time>2019-04-18T16:47:42Z</time>
      </trkpt>
      <trkpt lat="45.7461" lon="6.57089">
        <ele>1327</ele>
        <time>2019-04-18T16:48:42Z</time>
      </trkpt>
      <trkpt lat="45.74665" lon="6.5713">
        <ele>1325</ele>
        <time>2019-04-18T16:49:42Z</time>
      </trkpt>
      <trkpt lat="45.74714" lon="6.57172">
        <ele>1324</ele>
        <time>2019-04-18T16:50:42Z</time>
      </trkpt>
      <trkpt lat="45.7474" lon="6.57187">
        <ele>1324</ele>
        <time>2019-04-18T16:51:42Z</time>
      </trkpt>
      <trkpt lat="45.74752" lon="6.57199">
        <ele>1322</ele>
        <time>2019-04-18T16:52:42Z</time>
      </trkpt>
      <trkpt lat="45.74758" lon="6.57209">
        <ele>1321</ele>
        <time>2019-04-18T16:53:42Z</time>
      </trkpt>
      <trkpt lat="45.74776" lon="6.57252">
        <ele>1310</ele>
        <time>2019-04-18T16:54:42Z</time>
      </trkpt>
      <trkpt lat="45.74793" lon="6.57279">
        <ele>1307</ele>
        <time>2019-04-18T16:55:42Z</time>
      </trkpt>
      <trkpt lat="45.74818" lon="6.5731">
        <ele>1304</ele>
        <time>2019-04-18T16:56:42Z</time>
      </trkpt>
      <trkpt lat="45.74877" lon="6.57376">
        <ele>1301</ele>
        <time>2019-04-18T16:57:42Z</time>
      </trkpt>
      <trkpt lat="45.74944" lon="6.57447">
        <ele>1290</ele>
        <time>2019-04-18T16:58:42Z</time>
      </trkpt>
      <trkpt lat="45.74965" lon="6.57483">
        <ele>1277</ele>
        <time>2019-04-18T16:59:42Z</time>
      </trkpt>
      <trkpt lat="45.75008" lon="6.57509">
        <ele>1276</ele>
        <time>2019-04-18T17:00:42Z</time>
      </trkpt>
      <trkpt lat="45.75035" lon="6.57562">
        <ele>1264</ele>
        <time>2019-04-18T17:01:42Z</time>
      </trkpt>
      <trkpt lat="45.75065" lon="6.57593">
        <ele>1261</ele>
        <time>2019-04-18T17:02:42Z</time>
      </trkpt>
      <trkpt lat="45.75091" lon="6.57599">
        <ele>1266</ele>
        <time>2019-04-18T17:03:42Z</time>
      </trkpt>
      <trkpt lat="45.75101" lon="6.57605">
        <ele>1266</ele>
        <time>2019-04-18T17:04:42Z</time>
      </trkpt>
      <trkpt lat="45.7515" lon="6.57673">
        <ele>1259</ele>
        <time>2019-04-18T17:05:42Z</time>
      </trkpt>
      <trkpt lat="45.75156" lon="6.57687">
        <ele>1258</ele>
        <time>2019-04-18T17:06:42Z</time>
      </trkpt>
      <trkpt lat="45.75157" lon="6.57709">
        <ele>1253</ele>
        <time>2019-04-18T17:07:42Z</time>
      </trkpt>
      <trkpt lat="45.75162" lon="6.57744">
        <ele>1248</ele>
        <time>2019-04-18T17:08:42Z</time>
      </trkpt>
      <trkpt lat="45.75167" lon="6.57753">
        <ele>1248</ele>
        <time>2019-04-18T17:09:42Z</time>
      </trkpt>
      <trkpt lat="45.75173" lon="6.57758">
        <ele>1249</ele>
        <time>2019-04-18T17:10:42Z</time>
      </trkpt>
      <trkpt lat="45.75179" lon="6.57759">
        <ele>1251</ele>
        <time>2019-04-18T17:11:42Z</time>
      </trkpt>
      <trkpt lat="45.75189" lon="6.57765">
        <ele>1253</ele>
        <time>2019-04-18T17:12:42Z</time>
      </trkpt>
      <trkpt lat="45.75192" lon="6.57773">
        <ele>1253</ele>
        <time>2019-04-18T17:13:42Z</time>
      </trkpt>
      <trkpt lat="45.75192" lon="6.57779">
        <ele>1252</ele>
        <time>2019-04-18T17:14:42Z</time>
      </trkpt>
      <trkpt lat="45.75189" lon="6.57786">
        <ele>1249</ele>
        <time>2019-04-18T17:15:42Z</time>
      </trkpt>
      <trkpt lat="45.75184" lon="6.57789">
        <ele>1247</ele>
        <time>2019-04-18T17:16:42Z</time>
      </trkpt>
      <trkpt lat="45.75161" lon="6.57779">
        <ele>1241</ele>
        <time>2019-04-18T17:17:42Z</time>
      </trkpt>
      <trkpt lat="45.75147" lon="6.57766">
        <ele>1239</ele>
        <time>2019-04-18T17:18:42Z</time>
      </trkpt>
      <trkpt lat="45.75136" lon="6.57745">
        <ele>1239</ele>
        <time>2019-04-18T17:19:42Z</time>
      </trkpt>
      <trkpt lat="45.75126" lon="6.5771">
        <ele>1244</ele>
        <time>2019-04-18T17:20:42Z</time>
      </trkpt>
      <trkpt lat="45.75114" lon="6.57691">
        <ele>1245</ele>
        <time>2019-04-18T17:21:42Z</time>
      </trkpt>
      <trkpt lat="45.75098" lon="6.57678">
        <ele>1243</ele>
        <time>2019-04-18T17:22:42Z</time>
      </trkpt>
      <trkpt lat="45.75052" lon="6.57675">
        <ele>1233</ele>
        <time>2019-04-18T17:23:42Z</time>
      </trkpt>
      <trkpt lat="45.75003" lon="6.5766">
        <ele>1227</ele>
        <time>2019-04-18T17:24:42Z</time>
      </trkpt>
      <trkpt lat="45.74977" lon="6.57646">
        <ele>1226</ele>
        <time>2019-04-18T17:25:42Z</time>
      </trkpt>
      <trkpt lat="45.7492" lon="6.57627">
        <ele>1221</ele>
        <time>2019-04-18T17:26:42Z</time>
      </trkpt>
      <trkpt lat="45.74895" lon="6.57615">
        <ele>1218</ele>
        <time>2019-04-18T17:27:42Z</time>
      </trkpt>
      <trkpt lat="45.74872" lon="6.57598">
        <ele>1218</ele>
        <time>2019-04-18T17:28:42Z</time>
      </trkpt>
      <trkpt lat="45.7485" lon="6.57572">
        <ele>1220</ele>
        <time>2019-04-18T17:29:42Z</time>
      </trkpt>
      <trkpt lat="45.74829" lon="6.5756">
        <ele>1218</ele>
        <time>2019-04-18T17:30:42Z</time>
      </trkpt>
      <trkpt lat="45.74784" lon="6.57548">
        <ele>1211</ele>
        <time>2019-04-18T17:31:42Z</time>
      </trkpt>
      <trkpt lat="45.74748" lon="6.57532">
        <ele>1205</ele>
        <time>2019-04-18T17:32:42Z</time>
      </trkpt>
      <trkpt lat="45.74703" lon="6.57505">
        <ele>1198</ele>
        <time>2019-04-18T17:33:42Z</time>
      </trkpt>
      <trkpt lat="45.7467" lon="6.57482">
        <ele>1194</ele>
        <time>2019-04-18T17:34:42Z</time>
      </trkpt>
      <trkpt lat="45.74648" lon="6.57452">
        <ele>1195</ele>
        <time>2019-04-18T17:35:42Z</time>
      </trkpt>
      <trkpt lat="45.74636" lon="6.57425">
        <ele>1198</ele>
        <time>2019-04-18T17:36:42Z</time>
      </trkpt>
      <trkpt lat="45.74632" lon="6.57422">
        <ele>1198</ele>
        <time>2019-04-18T17:37:42Z</time>
      </trkpt>
      <trkpt lat="45.74619" lon="6.57425">
        <ele>1194</ele>
        <time>2019-04-18T17:38:42Z</time>
      </trkpt>
      <trkpt lat="45.74626" lon="6.57445">
        <ele>1192</ele>
        <time>2019-04-18T17:39:42Z</time>
      </trkpt>
      <trkpt lat="45.74654" lon="6.57503">
        <ele>1186</ele>
        <time>2019-04-18T17:40:42Z</time>
      </trkpt>
      <trkpt lat="45.74683" lon="6.57568">
        <ele>1181</ele>
        <time>2019-04-18T17:41:42Z</time>
      </trkpt>
      <trkpt lat="45.74712" lon="6.57622">
        <ele>1176</ele>
        <time>2019-04-18T17:42:42Z</time>
      </trkpt>
      <trkpt lat="45.74761" lon="6.57722">
        <ele>1169</ele>
        <time>2019-04-18T17:43:42Z</time>
      </trkpt>
      <trkpt lat="45.74771" lon="6.57794">
        <ele>1162</ele>
        <time>2019-04-18T17:44:42Z</time>
      </trkpt>
      <trkpt lat="45.74781" lon="6.57832">
        <ele>1159</ele>
        <time>2019-04-18T17:45:42Z</time>
      </trkpt>
      <trkpt lat="45.74802" lon="6.57862">
        <ele>1158</ele>
        <time>2019-04-18T17:46:42Z</time>
      </trkpt>
      <trkpt lat="45.74842" lon="6.57868">
        <ele>1161</ele>
        <time>2019-04-18T17:47:42Z</time>
      </trkpt>
      <trkpt lat="45.74887" lon="6.57887">
        <ele>1164</ele>
        <time>2019-04-18T17:48:42Z</time>
      </trkpt>
      <trkpt lat="45.74898" lon="6.57896">
        <ele>1165</ele>
        <time>2019-04-18T17:49:42Z</time>
      </trkpt>
      <trkpt lat="45.74903" lon="6.57904">
        <ele>1164</ele>
        <time>2019-04-18T17:50:42Z</time>
      </trkpt>
      <trkpt lat="45.74904" lon="6.57913">
        <ele>1163</ele>
        <time>2019-04-18T17:51:42Z</time>
      </trkpt>
      <trkpt lat="45.74901" lon="6.57924">
        <ele>1163</ele>
        <time>2019-04-18T17:52:42Z</time>
      </trkpt>
      <trkpt lat="45.7489" lon="6.57931">
        <ele>1161</ele>
        <time>2019-04-18T17:53:42Z</time>
      </trkpt>
      <trkpt lat="45.74867" lon="6.57942">
        <ele>1157</ele>
        <time>2019-04-18T17:54:42Z</time>
      </trkpt>
      <trkpt lat="45.74861" lon="6.57948">
        <ele>1156</ele>
        <time>2019-04-18T17:55:42Z</time>
      </trkpt>
      <trkpt lat="45.74857" lon="6.57958">
        <ele>1155</ele>
        <time>2019-04-18T17:56:42Z</time>
      </trkpt>
      <trkpt lat="45.74853" lon="6.57987">
        <ele>1153</ele>
        <time>2019-04-18T17:57:42Z</time>
      </trkpt>
      <trkpt lat="45.74854" lon="6.58009">
        <ele>1152</ele>
        <time>2019-04-18T17:58:42Z</time>
      </trkpt>
      <trkpt lat="45.74859" lon="6.58032">
        <ele>1152</ele>
        <time>2019-04-18T17:59:42Z</time>
      </trkpt>
      <trkpt lat="45.74872" lon="6.5808">
        <ele>1152</ele>
        <time>2019-04-18T18:00:42Z</time>
      </trkpt>
      <trkpt lat="45.74881" lon="6.58129">
        <ele>1149</ele>
        <time>2019-04-18T18:01:42Z</time>
      </trkpt>
      <trkpt lat="45.74892" lon="6.58232">
        <ele>1144</ele>
        <time>2019-04-18T18:02:42Z</time>
      </trkpt>
      <trkpt lat="45.74917" lon="6.58323">
        <ele>1139</ele>
        <time>2019-04-18T18:03:42Z</time>
      </trkpt>
      <trkpt lat="45.74929" lon="6.58346">
        <ele>1139</ele>
        <time>2019-04-18T18:04:42Z</time>
      </trkpt>
      <trkpt lat="45.74942" lon="6.58367">
        <ele>1139</ele>
        <time>2019-04-18T18:05:42Z</time>
      </trkpt>
      <trkpt lat="45.74952" lon="6.5838">
        <ele>1140</ele>
        <time>2019-04-18T18:06:42Z</time>
      </trkpt>
      <trkpt lat="45.74971" lon="6.58391">
        <ele>1143</ele>
        <time>2019-04-18T18:07:42Z</time>
      </trkpt>
      <trkpt lat="45.74975" lon="6.58398">
        <ele>1143</ele>
        <time>2019-04-18T18:08:42Z</time>
      </trkpt>
      <trkpt lat="45.74975" lon="6.58409">
        <ele>1141</ele>
        <time>2019-04-18T18:09:42Z</time>
      </trkpt>
      <trkpt lat="45.74983" lon="6.58424">
        <ele>1141</ele>
        <time>2019-04-18T18:10:42Z</time>
      </trkpt>
      <trkpt lat="45.75027" lon="6.58484">
        <ele>1145</ele>
        <time>2019-04-18T18:11:42Z</time>
      </trkpt>
      <trkpt lat="45.75043" lon="6.58531">
        <ele>1142</ele>
        <time>2019-04-18T18:12:42Z</time>
      </trkpt>
      <trkpt lat="45.75069" lon="6.58557">
        <ele>1145</ele>
        <time>2019-04-18T18:13:42Z</time>
      </trkpt>
      <trkpt lat="45.75093" lon="6.58615">
        <ele>1142</ele>
        <time>2019-04-18T18:14:42Z</time>
      </trkpt>
      <trkpt lat="45.75105" lon="6.58638">
        <ele>1140</ele>
        <time>2019-04-18T18:15:42Z</time>
      </trkpt>
      <trkpt lat="45.75275" lon="6.58927">
        <ele>1133</ele>
        <time>2019-04-18T18:16:42Z</time>
      </trkpt>
      <trkpt lat="45.75333" lon="6.5904">
        <ele>1118</ele>
        <time>2019-04-18T18:17:42Z</time>
      </trkpt>
      <trkpt lat="45.75345" lon="6.59056">
        <ele>1117</ele>
        <time>2019-04-18T18:18:42Z</time>
      </trkpt>
      <trkpt lat="45.75379" lon="6.59089">
        <ele>1115</ele>
        <time>2019-04-18T18:19:42Z</time>
      </trkpt>
      <trkpt lat="45.75387" lon="6.59101">
        <ele>1115</ele>
        <time>2019-04-18T18:20:42Z</time>
      </trkpt>
      <trkpt lat="45.75392" lon="6.59116">
        <ele>1113</ele>
        <time>2019-04-18T18:21:42Z</time>
      </trkpt>
      <trkpt lat="45.754" lon="6.5915">
        <ele>1108</ele>
        <time>2019-04-18T18:22:42Z</time>
      </trkpt>
      <trkpt lat="45.75425" lon="6.592">
        <ele>1106</ele>
        <time>2019-04-18T18:23:42Z</time>
      </trkpt>
      <trkpt lat="45.75438" lon="6.59219">
        <ele>1106</ele>
        <time>2019-04-18T18:24:42Z</time>
      </trkpt>
      <trkpt lat="45.7545" lon="6.59234">
        <ele>1106</ele>
        <time>2019-04-18T18:25:42Z</time>
      </trkpt>
      <trkpt lat="45.75441" lon="6.59239">
        <ele>1104</ele>
        <time>2019-04-18T18:26:42Z</time>
      </trkpt>
      <trkpt lat="45.75431" lon="6.59238">
        <ele>1101</ele>
        <time>2019-04-18T18:27:42Z</time>
      </trkpt>
      <trkpt lat="45.75384" lon="6.59178">
        <ele>1100</ele>
        <time>2019-04-18T18:28:42Z</time>
      </trkpt>
      <trkpt lat="45.75365" lon="6.59164">
        <ele>1098</ele>
        <time>2019-04-18T18:29:42Z</time>
      </trkpt>
      <trkpt lat="45.75307" lon="6.59136">
        <ele>1090</ele>
        <time>2019-04-18T18:30:42Z</time>
      </trkpt>
      <trkpt lat="45.75282" lon="6.59121">
        <ele>1086</ele>
        <time>2019-04-18T18:31:42Z</time>
      </trkpt>
      <trkpt lat="45.75248" lon="6.59093">
        <ele>1083</ele>
        <time>2019-04-18T18:32:42Z</time>
      </trkpt>
      <trkpt lat="45.75194" lon="6.59037">
        <ele>1081</ele>
        <time>2019-04-18T18:33:42Z</time>
      </trkpt>
      <trkpt lat="45.75155" lon="6.59006">
        <ele>1077</ele>
        <time>2019-04-18T18:34:42Z</time>
      </trkpt>
      <trkpt lat="45.75134" lon="6.58982">
        <ele>1077</ele>
        <time>2019-04-18T18:35:42Z</time>
      </trkpt>
      <trkpt lat="45.75128" lon="6.58979">
        <ele>1075</ele>
        <time>2019-04-18T18:36:42Z</time>
      </trkpt>
      <trkpt lat="45.7512" lon="6.58984">
        <ele>1072</ele>
        <time>2019-04-18T18:37:42Z</time>
      </trkpt>
      <trkpt lat="45.7512" lon="6.5899">
        <ele>1070</ele>
        <time>2019-04-18T18:38:42Z</time>
      </trkpt>
      <trkpt lat="45.75123" lon="6.58997">
        <ele>1070</ele>
        <time>2019-04-18T18:39:42Z</time>
      </trkpt>
      <trkpt lat="45.75139" lon="6.59013">
        <ele>1071</ele>
        <time>2019-04-18T18:40:42Z</time>
      </trkpt>
      <trkpt lat="45.75147" lon="6.59025">
        <ele>1070</ele>
        <time>2019-04-18T18:41:42Z</time>
      </trkpt>
      <trkpt lat="45.7517" lon="6.59083">
        <ele>1060</ele>
        <time>2019-04-18T18:42:42Z</time>
      </trkpt>
      <trkpt lat="45.75176" lon="6.59104">
        <ele>1059</ele>
        <time>2019-04-18T18:43:42Z</time>
      </trkpt>
      <trkpt lat="45.7518" lon="6.59151">
        <ele>1054</ele>
        <time>2019-04-18T18:44:42Z</time>
      </trkpt>
      <trkpt lat="45.75185" lon="6.59179">
        <ele>1053</ele>
        <time>2019-04-18T18:45:42Z</time>
      </trkpt>
      <trkpt lat="45.75193" lon="6.59205">
        <ele>1052</ele>
        <time>2019-04-18T18:46:42Z</time>
      </trkpt>
      <trkpt lat="45.75205" lon="6.59226">
        <ele>1053</ele>
        <time>2019-04-18T18:47:42Z</time>
      </trkpt>
      <trkpt lat="45.75206" lon="6.59234">
        <ele>1053</ele>
        <time>2019-04-18T18:48:42Z</time>
      </trkpt>
      <trkpt lat="45.75204" lon="6.59243">
        <ele>1051</ele>
        <time>2019-04-18T18:49:42Z</time>
      </trkpt>
      <trkpt lat="45.75201" lon="6.59249">
        <ele>1050</ele>
        <time>2019-04-18T18:50:42Z</time>
      </trkpt>
      <trkpt lat="45.75194" lon="6.59251">
        <ele>1049</ele>
        <time>2019-04-18T18:51:42Z</time>
      </trkpt>
      <trkpt lat="45.75189" lon="6.59249">
        <ele>1049</ele>
        <time>2019-04-18T18:52:42Z</time>
      </trkpt>
      <trkpt lat="45.75184" lon="6.59244">
        <ele>1048</ele>
        <time>2019-04-18T18:53:42Z</time>
      </trkpt>
      <trkpt lat="45.75175" lon="6.59218">
        <ele>1048</ele>
        <time>2019-04-18T18:54:42Z</time>
      </trkpt>
      <trkpt lat="45.75166" lon="6.59203">
        <ele>1047</ele>
        <time>2019-04-18T18:55:42Z</time>
      </trkpt>
      <trkpt lat="45.7515" lon="6.59184">
        <ele>1045</ele>
        <time>2019-04-18T18:56:42Z</time>
      </trkpt>
      <trkpt lat="45.75123" lon="6.59157">
        <ele>1042</ele>
        <time>2019-04-18T18:57:42Z</time>
      </trkpt>
      <trkpt lat="45.75112" lon="6.59151">
        <ele>1040</ele>
        <time>2019-04-18T18:58:42Z</time>
      </trkpt>
      <trkpt lat="45.75074" lon="6.59136">
        <ele>1037</ele>
        <time>2019-04-18T18:59:42Z</time>
      </trkpt>
      <trkpt lat="45.75058" lon="6.59136">
        <ele>1038</ele>
        <time>2019-04-18T19:00:42Z</time>
      </trkpt>
      <trkpt lat="45.75021" lon="6.59147">
        <ele>1040</ele>
        <time>2019-04-18T19:01:42Z</time>
      </trkpt>
      <trkpt lat="45.75014" lon="6.59146">
        <ele>1040</ele>
        <time>2019-04-18T19:02:42Z</time>
      </trkpt>
      <trkpt lat="45.75007" lon="6.59142">
        <ele>1040</ele>
        <time>2019-04-18T19:03:42Z</time>
      </trkpt>
      <trkpt lat="45.74991" lon="6.59125">
        <ele>1040</ele>
        <time>2019-04-18T19:04:42Z</time>
      </trkpt>
      <trkpt lat="45.74979" lon="6.59116">
        <ele>1040</ele>
        <time>2019-04-18T19:05:42Z</time>
      </trkpt>
      <trkpt lat="45.74959" lon="6.59113">
        <ele>1041</ele>
        <time>2019-04-18T19:06:42Z</time>
      </trkpt>
      <trkpt lat="45.74873" lon="6.59129">
        <ele>1044</ele>
        <time>2019-04-18T19:07:42Z</time>
      </trkpt>
      <trkpt lat="45.7486" lon="6.59134">
        <ele>1044</ele>
        <time>2019-04-18T19:08:42Z</time>
      </trkpt>
      <trkpt lat="45.74848" lon="6.59145">
        <ele>1046</ele>
        <time>2019-04-18T19:09:42Z</time>
      </trkpt>
      <trkpt lat="45.74838" lon="6.59175">
        <ele>1051</ele>
        <time>2019-04-18T19:10:42Z</time>
      </trkpt>
      <trkpt lat="45.74828" lon="6.59195">
        <ele>1056</ele>
        <time>2019-04-18T19:11:42Z</time>
      </trkpt>
      <trkpt lat="45.74817" lon="6.59207">
        <ele>1060</ele>
        <time>2019-04-18T19:12:42Z</time>
      </trkpt>
      <trkpt lat="45.74807" lon="6.5921">
        <ele>1062</ele>
        <time>2019-04-18T19:13:42Z</time>
      </trkpt>
      <trkpt lat="45.74798" lon="6.59206">
        <ele>1062</ele>
        <time>2019-04-18T19:14:42Z</time>
      </trkpt>
      <trkpt lat="45.74793" lon="6.59193">
        <ele>1060</ele>
        <time>2019-04-18T19:15:42Z</time>
      </trkpt>
      <trkpt lat="45.74788" lon="6.59144">
        <ele>1052</ele>
        <time>2019-04-18T19:16:42Z</time>
      </trkpt>
      <trkpt lat="45.74782" lon="6.59125">
        <ele>1050</ele>
        <time>2019-04-18T19:17:42Z</time>
      </trkpt>
      <trkpt lat="45.74772" lon="6.5911">
        <ele>1049</ele>
        <time>2019-04-18T19:18:42Z</time>
      </trkpt>
      <trkpt lat="45.7475" lon="6.59091">
        <ele>1049</ele>
        <time>2019-04-18T19:19:42Z</time>
      </trkpt>
      <trkpt lat="45.7472" lon="6.59016">
        <ele>1045</ele>
        <time>2019-04-18T19:20:42Z</time>
      </trkpt>
      <trkpt lat="45.74713" lon="6.59006">
        <ele>1046</ele>
        <time>2019-04-18T19:21:42Z</time>
      </trkpt>
      <trkpt lat="45.74696" lon="6.59005">
        <ele>1052</ele>
        <time>2019-04-18T19:22:42Z</time>
      </trkpt>
      <trkpt lat="45.74686" lon="6.58996">
        <ele>1054</ele>
        <time>2019-04-18T19:23:42Z</time>
      </trkpt>
      <trkpt lat="45.74683" lon="6.58966">
        <ele>1049</ele>
        <time>2019-04-18T19:24:42Z</time>
      </trkpt>
      <trkpt lat="45.74687" lon="6.58912">
        <ele>1038</ele>
        <time>2019-04-18T19:25:42Z</time>
      </trkpt>
      <trkpt lat="45.74682" lon="6.58896">
        <ele>1037</ele>
        <time>2019-04-18T19:26:42Z</time>
      </trkpt>
      <trkpt lat="45.7467" lon="6.58877">
        <ele>1037</ele>
        <time>2019-04-18T19:27:42Z</time>
      </trkpt>
      <trkpt lat="45.74578" lon="6.58811">
        <ele>1034</ele>
        <time>2019-04-18T19:28:42Z</time>
      </trkpt>
      <trkpt lat="45.74564" lon="6.58795">
        <ele>1035</ele>
        <time>2019-04-18T19:29:42Z</time>
      </trkpt>
      <trkpt lat="45.74553" lon="6.58789">
        <ele>1036</ele>
        <time>2019-04-18T19:30:42Z</time>
      </trkpt>
      <trkpt lat="45.74538" lon="6.58793">
        <ele>1040</ele>
        <time>2019-04-18T19:31:42Z</time>
      </trkpt>
      <trkpt lat="45.74511" lon="6.58845">
        <ele>1058</ele>
        <time>2019-04-18T19:32:42Z</time>
      </trkpt>
      <trkpt lat="45.74494" lon="6.58846">
        <ele>1063</ele>
        <time>2019-04-18T19:33:42Z</time>
      </trkpt>
      <trkpt lat="45.74479" lon="6.58842">
        <ele>1066</ele>
        <time>2019-04-18T19:34:42Z</time>
      </trkpt>
      <trkpt lat="45.74473" lon="6.5883">
        <ele>1066</ele>
        <time>2019-04-18T19:35:42Z</time>
      </trkpt>
      <trkpt lat="45.74472" lon="6.58797">
        <ele>1061</ele>
        <time>2019-04-18T19:36:42Z</time>
      </trkpt>
      <trkpt lat="45.74488" lon="6.58694">
        <ele>1038</ele>
        <time>2019-04-18T19:37:42Z</time>
      </trkpt>
      <trkpt lat="45.74488" lon="6.58652">
        <ele>1032</ele>
        <time>2019-04-18T19:38:42Z</time>
      </trkpt>
      <trkpt lat="45.74484" lon="6.58612">
        <ele>1027</ele>
        <time>2019-04-18T19:39:42Z</time>
      </trkpt>
      <trkpt lat="45.7448" lon="6.58599">
        <ele>1027</ele>
        <time>2019-04-18T19:40:42Z</time>
      </trkpt>
      <trkpt lat="45.74467" lon="6.58588">
        <ele>1028</ele>
        <time>2019-04-18T19:41:42Z</time>
      </trkpt>
      <trkpt lat="45.74444" lon="6.58592">
        <ele>1035</ele>
        <time>2019-04-18T19:42:42Z</time>
      </trkpt>
      <trkpt lat="45.74431" lon="6.58587">
        <ele>1037</ele>
        <time>2019-04-18T19:43:42Z</time>
      </trkpt>
      <trkpt lat="45.74423" lon="6.58571">
        <ele>1036</ele>
        <time>2019-04-18T19:44:42Z</time>
      </trkpt>
      <trkpt lat="45.74417" lon="6.58523">
        <ele>1028</ele>
        <time>2019-04-18T19:45:42Z</time>
      </trkpt>
      <trkpt lat="45.74409" lon="6.58503">
        <ele>1026</ele>
        <time>2019-04-18T19:46:42Z</time>
      </trkpt>
      <trkpt lat="45.74395" lon="6.58494">
        <ele>1025</ele>
        <time>2019-04-18T19:47:42Z</time>
      </trkpt>
      <trkpt lat="45.74333" lon="6.58484">
        <ele>1031</ele>
        <time>2019-04-18T19:48:42Z</time>
      </trkpt>
      <trkpt lat="45.74315" lon="6.58486">
        <ele>1036</ele>
        <time>2019-04-18T19:49:42Z</time>
      </trkpt>
      <trkpt lat="45.74297" lon="6.585">
        <ele>1043</ele>
        <time>2019-04-18T19:50:42Z</time>
      </trkpt>
      <trkpt lat="45.74286" lon="6.58521">
        <ele>1052</ele>
        <time>2019-04-18T19:51:42Z</time>
      </trkpt>
      <trkpt lat="45.74273" lon="6.58534">
        <ele>1058</ele>
        <time>2019-04-18T19:52:42Z</time>
      </trkpt>
      <trkpt lat="45.74267" lon="6.58533">
        <ele>1059</ele>
        <time>2019-04-18T19:53:42Z</time>
      </trkpt>
      <trkpt lat="45.74262" lon="6.58527">
        <ele>1058</ele>
        <time>2019-04-18T19:54:42Z</time>
      </trkpt>
      <trkpt lat="45.74259" lon="6.58517">
        <ele>1056</ele>
        <time>2019-04-18T19:55:42Z</time>
      </trkpt>
      <trkpt lat="45.74261" lon="6.58494">
        <ele>1050</ele>
        <time>2019-04-18T19:56:42Z</time>
      </trkpt>
      <trkpt lat="45.74272" lon="6.58421">
        <ele>1030</ele>
        <time>2019-04-18T19:57:42Z</time>
      </trkpt>
      <trkpt lat="45.74268" lon="6.58367">
        <ele>1017</ele>
        <time>2019-04-18T19:58:42Z</time>
      </trkpt>
      <trkpt lat="45.74259" lon="6.58352">
        <ele>1015</ele>
        <time>2019-04-18T19:59:42Z</time>
      </trkpt>
      <trkpt lat="45.74216" lon="6.58333">
        <ele>1017</ele>
        <time>2019-04-18T20:00:42Z</time>
      </trkpt>
      <trkpt lat="45.74176" lon="6.58303">
        <ele>1009</ele>
        <time>2019-04-18T20:01:42Z</time>
      </trkpt>
      <trkpt lat="45.74135" lon="6.58305">
        <ele>1017</ele>
        <time>2019-04-18T20:02:42Z</time>
      </trkpt>
      <trkpt lat="45.74079" lon="6.58284">
        <ele>1021</ele>
        <time>2019-04-18T20:03:42Z</time>
      </trkpt>
      <trkpt lat="45.74056" lon="6.58288">
        <ele>1028</ele>
        <time>2019-04-18T20:04:42Z</time>
      </trkpt>
      <trkpt lat="45.74042" lon="6.58282">
        <ele>1030</ele>
        <time>2019-04-18T20:05:42Z</time>
      </trkpt>
      <trkpt lat="45.73992" lon="6.58201">
        <ele>1024</ele>
        <time>2019-04-18T20:06:42Z</time>
      </trkpt>
      <trkpt lat="45.73982" lon="6.58177">
        <ele>1022</ele>
        <time>2019-04-18T20:07:42Z</time>
      </trkpt>
      <trkpt lat="45.73978" lon="6.58108">
        <ele>1009</ele>
        <time>2019-04-18T20:08:42Z</time>
      </trkpt>
      <trkpt lat="45.73974" lon="6.58088">
        <ele>1007</ele>
        <time>2019-04-18T20:09:42Z</time>
      </trkpt>
      <trkpt lat="45.73963" lon="6.58072">
        <ele>1006</ele>
        <time>2019-04-18T20:10:42Z</time>
      </trkpt>
      <trkpt lat="45.73919" lon="6.58046">
        <ele>1015</ele>
        <time>2019-04-18T20:11:42Z</time>
      </trkpt>
      <trkpt lat="45.73908" lon="6.58034">
        <ele>1016</ele>
        <time>2019-04-18T20:12:42Z</time>
      </trkpt>
      <trkpt lat="45.739" lon="6.58016">
        <ele>1016</ele>
        <time>2019-04-18T20:13:42Z</time>
      </trkpt>
      <trkpt lat="45.73897" lon="6.57963">
        <ele>1004</ele>
        <time>2019-04-18T20:14:42Z</time>
      </trkpt>
      <trkpt lat="45.7387" lon="6.57905">
        <ele>998</ele>
        <time>2019-04-18T20:15:42Z</time>
      </trkpt>
      <trkpt lat="45.73844" lon="6.57878">
        <ele>1000</ele>
        <time>2019-04-18T20:16:42Z</time>
      </trkpt>
      <trkpt lat="45.73824" lon="6.57844">
        <ele>998</ele>
        <time>2019-04-18T20:17:42Z</time>
      </trkpt>
      <trkpt lat="45.73797" lon="6.57815">
        <ele>998</ele>
        <time>2019-04-18T20:18:42Z</time>
      </trkpt>
      <trkpt lat="45.73769" lon="6.57781">
        <ele>994</ele>
        <time>2019-04-18T20:19:42Z</time>
      </trkpt>
      <trkpt lat="45.73727" lon="6.57755">
        <ele>994</ele>
        <time>2019-04-18T20:20:42Z</time>
      </trkpt>
      <trkpt lat="45.73636" lon="6.57716">
        <ele>989</ele>
        <time>2019-04-18T20:21:42Z</time>
      </trkpt>
      <trkpt lat="45.73604" lon="6.57711">
        <ele>989</ele>
        <time>2019-04-18T20:22:42Z</time>
      </trkpt>
      <trkpt lat="45.73574" lon="6.57697">
        <ele>988</ele>
        <time>2019-04-18T20:23:42Z</time>
      </trkpt>
      <trkpt lat="45.73492" lon="6.57595">
        <ele>976</ele>
        <time>2019-04-18T20:24:42Z</time>
      </trkpt>
      <trkpt lat="45.73481" lon="6.57577">
        <ele>975</ele>
        <time>2019-04-18T20:25:42Z</time>
      </trkpt>
      <trkpt lat="45.73465" lon="6.57543">
        <ele>971</ele>
        <time>2019-04-18T20:26:42Z</time>
      </trkpt>
      <trkpt lat="45.73444" lon="6.57511">
        <ele>969</ele>
        <time>2019-04-18T20:27:42Z</time>
      </trkpt>
      <trkpt lat="45.73394" lon="6.57454">
        <ele>976</ele>
        <time>2019-04-18T20:28:42Z</time>
      </trkpt>
      <trkpt lat="45.73332" lon="6.57362">
        <ele>973</ele>
        <time>2019-04-18T20:29:42Z</time>
      </trkpt>
      <trkpt lat="45.73305" lon="6.57338">
        <ele>971</ele>
        <time>2019-04-18T20:30:42Z</time>
      </trkpt>
      <trkpt lat="45.73255" lon="6.57305">
        <ele>972</ele>
        <time>2019-04-18T20:31:42Z</time>
      </trkpt>
      <trkpt lat="45.73197" lon="6.57295">
        <ele>967</ele>
        <time>2019-04-18T20:32:42Z</time>
      </trkpt>
      <trkpt lat="45.7317" lon="6.57295">
        <ele>966</ele>
        <time>2019-04-18T20:33:42Z</time>
      </trkpt>
      <trkpt lat="45.73067" lon="6.57331">
        <ele>962</ele>
        <time>2019-04-18T20:34:42Z</time>
      </trkpt>
      <trkpt lat="45.73028" lon="6.57356">
        <ele>963</ele>
        <time>2019-04-18T20:35:42Z</time>
      </trkpt>
      <trkpt lat="45.72962" lon="6.57384">
        <ele>959</ele>
        <time>2019-04-18T20:36:42Z</time>
      </trkpt>
      <trkpt lat="45.72938" lon="6.57387">
        <ele>956</ele>
        <time>2019-04-18T20:37:42Z</time>
      </trkpt>
      <trkpt lat="45.72924" lon="6.57385">
        <ele>952</ele>
        <time>2019-04-18T20:38:42Z</time>
      </trkpt>
      <trkpt lat="45.72897" lon="6.57373">
        <ele>947</ele>
        <time>2019-04-18T20:39:42Z</time>
      </trkpt>
      <trkpt lat="45.72857" lon="6.57363">
        <ele>944</ele>
        <time>2019-04-18T20:40:42Z</time>
      </trkpt>
      <trkpt lat="45.72842" lon="6.57363">
        <ele>945</ele>
        <time>2019-04-18T20:41:42Z</time>
      </trkpt>
      <trkpt lat="45.72827" lon="6.57368">
        <ele>946</ele>
        <time>2019-04-18T20:42:42Z</time>
      </trkpt>
      <trkpt lat="45.7279" lon="6.57389">
        <ele>949</ele>
        <time>2019-04-18T20:43:42Z</time>
      </trkpt>
      <trkpt lat="45.72771" lon="6.5739">
        <ele>948</ele>
        <time>2019-04-18T20:44:42Z</time>
      </trkpt>
      <trkpt lat="45.727" lon="6.57383">
        <ele>939</ele>
        <time>2019-04-18T20:45:42Z</time>
      </trkpt>
      <trkpt lat="45.72621" lon="6.57419">
        <ele>941</ele>
        <time>2019-04-18T20:46:42Z</time>
      </trkpt>
      <trkpt lat="45.72618" lon="6.57423">
        <ele>941</ele>
        <time>2019-04-18T20:47:42Z</time>
      </trkpt>
      <trkpt lat="45.72615" lon="6.57431">
        <ele>941</ele>
        <time>2019-04-18T20:48:42Z</time>
      </trkpt>
      <trkpt lat="45.72607" lon="6.57498">
        <ele>944</ele>
        <time>2019-04-18T20:49:42Z</time>
      </trkpt>
      <trkpt lat="45.72608" lon="6.57515">
        <ele>944</ele>
        <time>2019-04-18T20:50:42Z</time>
      </trkpt>
      <trkpt lat="45.72616" lon="6.57555">
        <ele>945</ele>
        <time>2019-04-18T20:51:42Z</time>
      </trkpt>
      <trkpt lat="45.72621" lon="6.57627">
        <ele>945</ele>
        <time>2019-04-18T20:52:42Z</time>
      </trkpt>
      <trkpt lat="45.7262" lon="6.57643">
        <ele>945</ele>
        <time>2019-04-18T20:53:42Z</time>
      </trkpt>
      <trkpt lat="45.7261" lon="6.57696">
        <ele>942</ele>
        <time>2019-04-18T20:54:42Z</time>
      </trkpt>
      <trkpt lat="45.72579" lon="6.57814">
        <ele>932</ele>
        <time>2019-04-18T20:55:42Z</time>
      </trkpt>
      <trkpt lat="45.72577" lon="6.57887">
        <ele>935</ele>
        <time>2019-04-18T20:56:42Z</time>
      </trkpt>
      <trkpt lat="45.72569" lon="6.57905">
        <ele>934</ele>
        <time>2019-04-18T20:57:42Z</time>
      </trkpt>
      <trkpt lat="45.7256" lon="6.57913">
        <ele>933</ele>
        <time>2019-04-18T20:58:42Z</time>
      </trkpt>
      <trkpt lat="45.72511" lon="6.57942">
        <ele>930</ele>
        <time>2019-04-18T20:59:42Z</time>
      </trkpt>
      <trkpt lat="45.72495" lon="6.57942">
        <ele>927</ele>
        <time>2019-04-18T21:00:42Z</time>
      </trkpt>
      <trkpt lat="45.72482" lon="6.57936">
        <ele>925</ele>
        <time>2019-04-18T21:01:42Z</time>
      </trkpt>
      <trkpt lat="45.72463" lon="6.57891">
        <ele>915</ele>
        <time>2019-04-18T21:02:42Z</time>
      </trkpt>
      <trkpt lat="45.72451" lon="6.57878">
        <ele>912</ele>
        <time>2019-04-18T21:03:42Z</time>
      </trkpt>
      <trkpt lat="45.72414" lon="6.57858">
        <ele>903</ele>
        <time>2019-04-18T21:04:42Z</time>
      </trkpt>
      <trkpt lat="45.72397" lon="6.57852">
        <ele>900</ele>
        <time>2019-04-18T21:05:42Z</time>
      </trkpt>
      <trkpt lat="45.7239" lon="6.57854">
        <ele>900</ele>
        <time>2019-04-18T21:06:42Z</time>
      </trkpt>
      <trkpt lat="45.72368" lon="6.57868">
        <ele>901</ele>
        <time>2019-04-18T21:07:42Z</time>
      </trkpt>
      <trkpt lat="45.72326" lon="6.57882">
        <ele>899</ele>
        <time>2019-04-18T21:08:42Z</time>
      </trkpt>
      <trkpt lat="45.72276" lon="6.57903">
        <ele>896</ele>
        <time>2019-04-18T21:09:42Z</time>
      </trkpt>
      <trkpt lat="45.72242" lon="6.57902">
        <ele>890</ele>
        <time>2019-04-18T21:10:42Z</time>
      </trkpt>
      <trkpt lat="45.7223" lon="6.57906">
        <ele>889</ele>
        <time>2019-04-18T21:11:42Z</time>
      </trkpt>
      <trkpt lat="45.72204" lon="6.57921">
        <ele>887</ele>
        <time>2019-04-18T21:12:42Z</time>
      </trkpt>
      <trkpt lat="45.72188" lon="6.57934">
        <ele>885</ele>
        <time>2019-04-18T21:13:42Z</time>
      </trkpt>
      <trkpt lat="45.72166" lon="6.57946">
        <ele>883</ele>
        <time>2019-04-18T21:14:42Z</time>
      </trkpt>
      <trkpt lat="45.72156" lon="6.57957">
        <ele>882</ele>
        <time>2019-04-18T21:15:42Z</time>
      </trkpt>
      <trkpt lat="45.7214" lon="6.57988">
        <ele>884</ele>
        <time>2019-04-18T21:16:42Z</time>
      </trkpt>
      <trkpt lat="45.72132" lon="6.57994">
        <ele>883</ele>
        <time>2019-04-18T21:17:42Z</time>
      </trkpt>
      <trkpt lat="45.72098" lon="6.57987">
        <ele>876</ele>
        <time>2019-04-18T21:18:42Z</time>
      </trkpt>
      <trkpt lat="45.72076" lon="6.5799">
        <ele>873</ele>
        <time>2019-04-18T21:19:42Z</time>
      </trkpt>
      <trkpt lat="45.72046" lon="6.57995">
        <ele>870</ele>
        <time>2019-04-18T21:20:42Z</time>
      </trkpt>
      <trkpt lat="45.72018" lon="6.58013">
        <ele>867</ele>
        <time>2019-04-18T21:21:42Z</time>
      </trkpt>
      <trkpt lat="45.71997" lon="6.5802">
        <ele>865</ele>
        <time>2019-04-18T21:22:42Z</time>
      </trkpt>
      <trkpt lat="45.71857" lon="6.58004">
        <ele>853</ele>
        <time>2019-04-18T21:23:42Z</time>
      </trkpt>
      <trkpt lat="45.71784" lon="6.58022">
        <ele>850</ele>
        <time>2019-04-18T21:24:42Z</time>
      </trkpt>
      <trkpt lat="45.71765" lon="6.58019">
        <ele>849</ele>
        <time>2019-04-18T21:25:42Z</time>
      </trkpt>
      <trkpt lat="45.71754" lon="6.5801">
        <ele>846</ele>
        <time>2019-04-18T21:26:42Z</time>
      </trkpt>
      <trkpt lat="45.71743" lon="6.57992">
        <ele>843</ele>
        <time>2019-04-18T21:27:42Z</time>
      </trkpt>
      <trkpt lat="45.71703" lon="6.57907">
        <ele>835</ele>
        <time>2019-04-18T21:28:42Z</time>
      </trkpt>
      <trkpt lat="45.71692" lon="6.5789">
        <ele>832</ele>
        <time>2019-04-18T21:29:42Z</time>
      </trkpt>
      <trkpt lat="45.71658" lon="6.5785">
        <ele>825</ele>
        <time>2019-04-18T21:30:42Z</time>
      </trkpt>
      <trkpt lat="45.71649" lon="6.57843">
        <ele>823</ele>
        <time>2019-04-18T21:31:42Z</time>
      </trkpt>
      <trkpt lat="45.71643" lon="6.57844">
        <ele>823</ele>
        <time>2019-04-18T21:32:42Z</time>
      </trkpt>
      <trkpt lat="45.71634" lon="6.57849">
        <ele>823</ele>
        <time>2019-04-18T21:33:42Z</time>
      </trkpt>
      <trkpt lat="45.71608" lon="6.57886">
        <ele>826</ele>
        <time>2019-04-18T21:34:42Z</time>
      </trkpt>
      <trkpt lat="45.71581" lon="6.57906">
        <ele>826</ele>
        <time>2019-04-18T21:35:42Z</time>
      </trkpt>
      <trkpt lat="45.7156" lon="6.57913">
        <ele>827</ele>
        <time>2019-04-18T21:36:42Z</time>
      </trkpt>
      <trkpt lat="45.7155" lon="6.57912">
        <ele>826</ele>
        <time>2019-04-18T21:37:42Z</time>
      </trkpt>
      <trkpt lat="45.71497" lon="6.57897">
        <ele>821</ele>
        <time>2019-04-18T21:38:42Z</time>
      </trkpt>
      <trkpt lat="45.71489" lon="6.57889">
        <ele>817</ele>
        <time>2019-04-18T21:39:42Z</time>
      </trkpt>
      <trkpt lat="45.71486" lon="6.57881">
        <ele>815</ele>
        <time>2019-04-18T21:40:42Z</time>
      </trkpt>
      <trkpt lat="45.71489" lon="6.57873">
        <ele>814</ele>
        <time>2019-04-18T21:41:42Z</time>
      </trkpt>
      <trkpt lat="45.71494" lon="6.5787">
        <ele>816</ele>
        <time>2019-04-18T21:42:42Z</time>
      </trkpt>
      <trkpt lat="45.71566" lon="6.57854">
        <ele>817</ele>
        <time>2019-04-18T21:43:42Z</time>
      </trkpt>
      <trkpt lat="45.71584" lon="6.57837">
        <ele>816</ele>
        <time>2019-04-18T21:44:42Z</time>
      </trkpt>
      <trkpt lat="45.71603" lon="6.57802">
        <ele>806</ele>
        <time>2019-04-18T21:45:42Z</time>
      </trkpt>
      <trkpt lat="45.7162" lon="6.57781">
        <ele>800</ele>
        <time>2019-04-18T21:46:42Z</time>
      </trkpt>
      <trkpt lat="45.7164" lon="6.57772">
        <ele>798</ele>
        <time>2019-04-18T21:47:42Z</time>
      </trkpt>
      <trkpt lat="45.71651" lon="6.57771">
        <ele>798</ele>
        <time>2019-04-18T21:48:42Z</time>
      </trkpt>
      <trkpt lat="45.71681" lon="6.57791">
        <ele>806</ele>
        <time>2019-04-18T21:49:42Z</time>
      </trkpt>
      <trkpt lat="45.71695" lon="6.57791">
        <ele>805</ele>
        <time>2019-04-18T21:50:42Z</time>
      </trkpt>
      <trkpt lat="45.71698" lon="6.57783">
        <ele>803</ele>
        <time>2019-04-18T21:51:42Z</time>
      </trkpt>
      <trkpt lat="45.71699" lon="6.57774">
        <ele>799</ele>
        <time>2019-04-18T21:52:42Z</time>
      </trkpt>
      <trkpt lat="45.71694" lon="6.57764">
        <ele>796</ele>
        <time>2019-04-18T21:53:42Z</time>
      </trkpt>
      <trkpt lat="45.71656" lon="6.57722">
        <ele>781</ele>
        <time>2019-04-18T21:54:42Z</time>
      </trkpt>
      <trkpt lat="45.71635" lon="6.57705">
        <ele>776</ele>
        <time>2019-04-18T21:55:42Z</time>
      </trkpt>
      <trkpt lat="45.71605" lon="6.57696">
        <ele>774</ele>
        <time>2019-04-18T21:56:42Z</time>
      </trkpt>
      <trkpt lat="45.71579" lon="6.57701">
        <ele>776</ele>
        <time>2019-04-18T21:57:42Z</time>
      </trkpt>
      <trkpt lat="45.7155" lon="6.57719">
        <ele>781</ele>
        <time>2019-04-18T21:58:42Z</time>
      </trkpt>
      <trkpt lat="45.71537" lon="6.57724">
        <ele>782</ele>
        <time>2019-04-18T21:59:42Z</time>
      </trkpt>
      <trkpt lat="45.71516" lon="6.57715">
        <ele>780</ele>
        <time>2019-04-18T22:00:42Z</time>
      </trkpt>
      <trkpt lat="45.71492" lon="6.57711">
        <ele>778</ele>
        <time>2019-04-18T22:01:42Z</time>
      </trkpt>
      <trkpt lat="45.71467" lon="6.57696">
        <ele>773</ele>
        <time>2019-04-18T22:02:42Z</time>
      </trkpt>
      <trkpt lat="45.71458" lon="6.57697">
        <ele>773</ele>
        <time>2019-04-18T22:03:42Z</time>
      </trkpt>
      <trkpt lat="45.71452" lon="6.57702">
        <ele>774</ele>
        <time>2019-04-18T22:04:42Z</time>
      </trkpt>
      <trkpt lat="45.7145" lon="6.57709">
        <ele>775</ele>
        <time>2019-04-18T22:05:42Z</time>
      </trkpt>
      <trkpt lat="45.71447" lon="6.57736">
        <ele>778</ele>
        <time>2019-04-18T22:06:42Z</time>
      </trkpt>
      <trkpt lat="45.71434" lon="6.57784">
        <ele>783</ele>
        <time>2019-04-18T22:07:42Z</time>
      </trkpt>
      <trkpt lat="45.71432" lon="6.5779">
        <ele>783</ele>
        <time>2019-04-18T22:08:42Z</time>
      </trkpt>
      <trkpt lat="45.71425" lon="6.57793">
        <ele>782</ele>
        <time>2019-04-18T22:09:42Z</time>
      </trkpt>
      <trkpt lat="45.71421" lon="6.57811">
        <ele>783</ele>
        <time>2019-04-18T22:10:42Z</time>
      </trkpt>
      <trkpt lat="45.71413" lon="6.57839">
        <ele>786</ele>
        <time>2019-04-18T22:11:42Z</time>
      </trkpt>
      <trkpt lat="45.71396" lon="6.57869">
        <ele>794</ele>
        <time>2019-04-18T22:12:42Z</time>
      </trkpt>
      <trkpt lat="45.71356" lon="6.57914">
        <ele>799</ele>
        <time>2019-04-18T22:13:42Z</time>
      </trkpt>
      <trkpt lat="45.71334" lon="6.57951">
        <ele>799</ele>
        <time>2019-04-18T22:14:42Z</time>
      </trkpt>
      <trkpt lat="45.71324" lon="6.57971">
        <ele>809</ele>
        <time>2019-04-18T22:15:42Z</time>
      </trkpt>
      <trkpt lat="45.71321" lon="6.5799">
        <ele>811</ele>
        <time>2019-04-18T22:16:42Z</time>
      </trkpt>
      <trkpt lat="45.71322" lon="6.58045">
        <ele>816</ele>
        <time>2019-04-18T22:17:42Z</time>
      </trkpt>
      <trkpt lat="45.71314" lon="6.58084">
        <ele>827</ele>
        <time>2019-04-18T22:18:42Z</time>
      </trkpt>
      <trkpt lat="45.71303" lon="6.58126">
        <ele>830</ele>
        <time>2019-04-18T22:19:42Z</time>
      </trkpt>
      <trkpt lat="45.71299" lon="6.58153">
        <ele>828</ele>
        <time>2019-04-18T22:20:42Z</time>
      </trkpt>
      <trkpt lat="45.71302" lon="6.5818">
        <ele>828</ele>
        <time>2019-04-18T22:21:42Z</time>
      </trkpt>
      <trkpt lat="45.713" lon="6.58206">
        <ele>834</ele>
        <time>2019-04-18T22:22:42Z</time>
      </trkpt>
      <trkpt lat="45.71252" lon="6.58329">
        <ele>869</ele>
        <time>2019-04-18T22:23:42Z</time>
      </trkpt>
      <trkpt lat="45.71249" lon="6.58336">
        <ele>873</ele>
        <time>2019-04-18T22:24:42Z</time>
      </trkpt>
      <trkpt lat="45.71235" lon="6.58353">
        <ele>895</ele>
        <time>2019-04-18T22:25:42Z</time>
      </trkpt>
      <trkpt lat="45.71211" lon="6.58393">
        <ele>937</ele>
        <time>2019-04-18T22:26:42Z</time>
      </trkpt>
      <trkpt lat="45.712" lon="6.58415">
        <ele>956</ele>
        <time>2019-04-18T22:27:42Z</time>
      </trkpt>
      <trkpt lat="45.71194" lon="6.58431">
        <ele>961</ele>
        <time>2019-04-18T22:28:42Z</time>
      </trkpt>
      <trkpt lat="45.71192" lon="6.58442">
        <ele>964</ele>
        <time>2019-04-18T22:29:42Z</time>
      </trkpt>
      <trkpt lat="45.71181" lon="6.58608">
        <ele>932</ele>
        <time>2019-04-18T22:30:42Z</time>
      </trkpt>
      <trkpt lat="45.7118" lon="6.58647">
        <ele>905</ele>
        <time>2019-04-18T22:31:42Z</time>
      </trkpt>
      <trkpt lat="45.71173" lon="6.58678">
        <ele>884</ele>
        <time>2019-04-18T22:32:42Z</time>
      </trkpt>
      <trkpt lat="45.71155" lon="6.58715">
        <ele>872</ele>
        <time>2019-04-18T22:33:42Z</time>
      </trkpt>
      <trkpt lat="45.71158" lon="6.58718">
        <ele>872</ele>
        <time>2019-04-18T22:34:42Z</time>
      </trkpt>
      <trkpt lat="45.71115" lon="6.5891">
        <ele>866</ele>
        <time>2019-04-18T22:35:42Z</time>
      </trkpt>
      <trkpt lat="45.71114" lon="6.58909">
        <ele>866</ele>
        <time>2019-04-18T22:36:42Z</time>
      </trkpt>
      <trkpt lat="45.71109" lon="6.58928">
        <ele>866</ele>
        <time>2019-04-18T22:37:42Z</time>
      </trkpt>
      <trkpt lat="45.711" lon="6.58943">
        <ele>864</ele>
        <time>2019-04-18T22:38:42Z</time>
      </trkpt>
      <trkpt lat="45.71081" lon="6.58959">
        <ele>857</ele>
        <time>2019-04-18T22:39:42Z</time>
      </trkpt>
      <trkpt lat="45.71065" lon="6.58977">
        <ele>859</ele>
        <time>2019-04-18T22:40:42Z</time>
      </trkpt>
      <trkpt lat="45.71044" lon="6.5899">
        <ele>859</ele>
        <time>2019-04-18T22:41:42Z</time>
      </trkpt>
      <trkpt lat="45.71023" lon="6.59006">
        <ele>858</ele>
        <time>2019-04-18T22:42:42Z</time>
      </trkpt>
      <trkpt lat="45.71003" lon="6.59019">
        <ele>857</ele>
        <time>2019-04-18T22:43:42Z</time>
      </trkpt>
      <trkpt lat="45.70994" lon="6.59019">
        <ele>860</ele>
        <time>2019-04-18T22:44:42Z</time>
      </trkpt>
      <trkpt lat="45.70988" lon="6.59013">
        <ele>863</ele>
        <time>2019-04-18T22:45:42Z</time>
      </trkpt>
      <trkpt lat="45.70987" lon="6.59007">
        <ele>864</ele>
        <time>2019-04-18T22:46:42Z</time>
      </trkpt>
      <trkpt lat="45.7099" lon="6.58998">
        <ele>864</ele>
        <time>2019-04-18T22:47:42Z</time>
      </trkpt>
      <trkpt lat="45.71014" lon="6.5898">
        <ele>861</ele>
        <time>2019-04-18T22:48:42Z</time>
      </trkpt>
      <trkpt lat="45.71026" lon="6.58958">
        <ele>863</ele>
        <time>2019-04-18T22:49:42Z</time>
      </trkpt>
      <trkpt lat="45.71028" lon="6.58948">
        <ele>864</ele>
        <time>2019-04-18T22:50:42Z</time>
      </trkpt>
      <trkpt lat="45.71028" lon="6.58937">
        <ele>866</ele>
        <time>2019-04-18T22:51:42Z</time>
      </trkpt>
      <trkpt lat="45.71023" lon="6.5893">
        <ele>867</ele>
        <time>2019-04-18T22:52:42Z</time>
      </trkpt>
      <trkpt lat="45.71019" lon="6.58929">
        <ele>868</ele>
        <time>2019-04-18T22:53:42Z</time>
      </trkpt>
      <trkpt lat="45.71013" lon="6.58932">
        <ele>869</ele>
        <time>2019-04-18T22:54:42Z</time>
      </trkpt>
      <trkpt lat="45.70991" lon="6.58964">
        <ele>871</ele>
        <time>2019-04-18T22:55:42Z</time>
      </trkpt>
      <trkpt lat="45.70973" lon="6.58982">
        <ele>879</ele>
        <time>2019-04-18T22:56:42Z</time>
      </trkpt>
      <trkpt lat="45.70958" lon="6.59001">
        <ele>883</ele>
        <time>2019-04-18T22:57:42Z</time>
      </trkpt>
      <trkpt lat="45.7086" lon="6.59154">
        <ele>867</ele>
        <time>2019-04-18T22:58:42Z</time>
      </trkpt>
      <trkpt lat="45.70851" lon="6.59162">
        <ele>867</ele>
        <time>2019-04-18T22:59:42Z</time>
      </trkpt>
      <trkpt lat="45.70821" lon="6.59169">
        <ele>872</ele>
        <time>2019-04-18T23:00:42Z</time>
      </trkpt>
      <trkpt lat="45.70802" lon="6.59178">
        <ele>877</ele>
        <time>2019-04-18T23:01:42Z</time>
      </trkpt>
      <trkpt lat="45.70788" lon="6.59194">
        <ele>880</ele>
        <time>2019-04-18T23:02:42Z</time>
      </trkpt>
      <trkpt lat="45.70779" lon="6.59216">
        <ele>880</ele>
        <time>2019-04-18T23:03:42Z</time>
      </trkpt>
      <trkpt lat="45.70764" lon="6.59275">
        <ele>880</ele>
        <time>2019-04-18T23:04:42Z</time>
      </trkpt>
      <trkpt lat="45.70752" lon="6.59304">
        <ele>881</ele>
        <time>2019-04-18T23:05:42Z</time>
      </trkpt>
      <trkpt lat="45.70734" lon="6.59333">
        <ele>886</ele>
        <time>2019-04-18T23:06:42Z</time>
      </trkpt>
      <trkpt lat="45.70717" lon="6.59362">
        <ele>892</ele>
        <time>2019-04-18T23:07:42Z</time>
      </trkpt>
      <trkpt lat="45.70711" lon="6.59382">
        <ele>895</ele>
        <time>2019-04-18T23:08:42Z</time>
      </trkpt>
      <trkpt lat="45.70709" lon="6.59443">
        <ele>896</ele>
        <time>2019-04-18T23:09:42Z</time>
      </trkpt>
      <trkpt lat="45.70701" lon="6.59537">
        <ele>904</ele>
        <time>2019-04-18T23:10:42Z</time>
      </trkpt>
      <trkpt lat="45.70701" lon="6.59642">
        <ele>910</ele>
        <time>2019-04-18T23:11:42Z</time>
      </trkpt>
      <trkpt lat="45.70705" lon="6.59724">
        <ele>911</ele>
        <time>2019-04-18T23:12:42Z</time>
      </trkpt>
      <trkpt lat="45.70698" lon="6.59797">
        <ele>917</ele>
        <time>2019-04-18T23:13:42Z</time>
      </trkpt>
      <trkpt lat="45.70678" lon="6.59905">
        <ele>929</ele>
        <time>2019-04-18T23:14:42Z</time>
      </trkpt>
      <trkpt lat="45.70664" lon="6.59994">
        <ele>937</ele>
        <time>2019-04-18T23:15:42Z</time>
      </trkpt>
      <trkpt lat="45.70656" lon="6.60097">
        <ele>949</ele>
        <time>2019-04-18T23:16:42Z</time>
      </trkpt>
      <trkpt lat="45.7066" lon="6.60132">
        <ele>952</ele>
        <time>2019-04-18T23:17:42Z</time>
      </trkpt>
      <trkpt lat="45.70696" lon="6.60265">
        <ele>963</ele>
        <time>2019-04-18T23:18:42Z</time>
      </trkpt>
      <trkpt lat="45.70724" lon="6.60326">
        <ele>965</ele>
        <time>2019-04-18T23:19:42Z</time>
      </trkpt>
      <trkpt lat="45.70739" lon="6.60396">
        <ele>967</ele>
        <time>2019-04-18T23:20:42Z</time>
      </trkpt>
      <trkpt lat="45.70751" lon="6.60486">
        <ele>967</ele>
        <time>2019-04-18T23:21:42Z</time>
      </trkpt>
      <trkpt lat="45.70747" lon="6.6051">
        <ele>972</ele>
        <time>2019-04-18T23:22:42Z</time>
      </trkpt>
      <trkpt lat="45.70737" lon="6.60527">
        <ele>986</ele>
        <time>2019-04-18T23:23:42Z</time>
      </trkpt>
      <trkpt lat="45.70733" lon="6.60542">
        <ele>992</ele>
        <time>2019-04-18T23:24:42Z</time>
      </trkpt>
      <trkpt lat="45.70735" lon="6.60586">
        <ele>989</ele>
        <time>2019-04-18T23:25:42Z</time>
      </trkpt>
      <trkpt lat="45.70731" lon="6.60607">
        <ele>997</ele>
        <time>2019-04-18T23:26:42Z</time>
      </trkpt>
      <trkpt lat="45.70711" lon="6.60653">
        <ele>1028</ele>
        <time>2019-04-18T23:27:42Z</time>
      </trkpt>
      <trkpt lat="45.707" lon="6.60725">
        <ele>1039</ele>
        <time>2019-04-18T23:28:42Z</time>
      </trkpt>
      <trkpt lat="45.70698" lon="6.60765">
        <ele>1037</ele>
        <time>2019-04-18T23:29:42Z</time>
      </trkpt>
      <trkpt lat="45.70705" lon="6.60792">
        <ele>1028</ele>
        <time>2019-04-18T23:30:42Z</time>
      </trkpt>
      <trkpt lat="45.70722" lon="6.60838">
        <ele>1016</ele>
        <time>2019-04-18T23:31:42Z</time>
      </trkpt>
      <trkpt lat="45.70728" lon="6.60871">
        <ele>1013</ele>
        <time>2019-04-18T23:32:42Z</time>
      </trkpt>
      <trkpt lat="45.70729" lon="6.60888">
        <ele>1013</ele>
        <time>2019-04-18T23:33:42Z</time>
      </trkpt>
      <trkpt lat="45.70724" lon="6.60906">
        <ele>1015</ele>
        <time>2019-04-18T23:34:42Z</time>
      </trkpt>
      <trkpt lat="45.7071" lon="6.60937">
        <ele>1018</ele>
        <time>2019-04-18T23:35:42Z</time>
      </trkpt>
      <trkpt lat="45.70694" lon="6.6099">
        <ele>1019</ele>
        <time>2019-04-18T23:36:42Z</time>
      </trkpt>
      <trkpt lat="45.70678" lon="6.61086">
        <ele>1026</ele>
        <time>2019-04-18T23:37:42Z</time>
      </trkpt>
      <trkpt lat="45.70676" lon="6.61116">
        <ele>1028</ele>
        <time>2019-04-18T23:38:42Z</time>
      </trkpt>
      <trkpt lat="45.70682" lon="6.61143">
        <ele>1028</ele>
        <time>2019-04-18T23:39:42Z</time>
      </trkpt>
      <trkpt lat="45.70704" lon="6.61173">
        <ele>1026</ele>
        <time>2019-04-18T23:40:42Z</time>
      </trkpt>
      <trkpt lat="45.7071" lon="6.61194">
        <ele>1025</ele>
        <time>2019-04-18T23:41:42Z</time>
      </trkpt>
      <trkpt lat="45.70712" lon="6.61212">
        <ele>1025</ele>
        <time>2019-04-18T23:42:42Z</time>
      </trkpt>
      <trkpt lat="45.70707" lon="6.6123">
        <ele>1027</ele>
        <time>2019-04-18T23:43:42Z</time>
      </trkpt>
      <trkpt lat="45.70704" lon="6.61251">
        <ele>1027</ele>
        <time>2019-04-18T23:44:42Z</time>
      </trkpt>
      <trkpt lat="45.70704" lon="6.61271">
        <ele>1028</ele>
        <time>2019-04-18T23:45:42Z</time>
      </trkpt>
      <trkpt lat="45.70708" lon="6.61288">
        <ele>1029</ele>
        <time>2019-04-18T23:46:42Z</time>
      </trkpt>
      <trkpt lat="45.70709" lon="6.61305">
        <ele>1029</ele>
        <time>2019-04-18T23:47:42Z</time>
      </trkpt>
      <trkpt lat="45.70703" lon="6.61321">
        <ele>1030</ele>
        <time>2019-04-18T23:48:42Z</time>
      </trkpt>
      <trkpt lat="45.70691" lon="6.61337">
        <ele>1031</ele>
        <time>2019-04-18T23:49:42Z</time>
      </trkpt>
      <trkpt lat="45.70673" lon="6.61373">
        <ele>1029</ele>
        <time>2019-04-18T23:50:42Z</time>
      </trkpt>
      <trkpt lat="45.70655" lon="6.6142">
        <ele>1033</ele>
        <time>2019-04-18T23:51:42Z</time>
      </trkpt>
      <trkpt lat="45.70643" lon="6.61477">
        <ele>1043</ele>
        <time>2019-04-18T23:52:42Z</time>
      </trkpt>
      <trkpt lat="45.70638" lon="6.61521">
        <ele>1047</ele>
        <time>2019-04-18T23:53:42Z</time>
      </trkpt>
      <trkpt lat="45.70635" lon="6.61697">
        <ele>1052</ele>
        <time>2019-04-18T23:54:42Z</time>
      </trkpt>
      <trkpt lat="45.70627" lon="6.61773">
        <ele>1059</ele>
        <time>2019-04-18T23:55:42Z</time>
      </trkpt>
      <trkpt lat="45.70621" lon="6.6183">
        <ele>1056</ele>
        <time>2019-04-18T23:56:42Z</time>
      </trkpt>
      <trkpt lat="45.70612" lon="6.6188">
        <ele>1051</ele>
        <time>2019-04-18T23:57:42Z</time>
      </trkpt>
      <trkpt lat="45.70595" lon="6.61922">
        <ele>1046</ele>
        <time>2019-04-18T23:58:42Z</time>
      </trkpt>
      <trkpt lat="45.70589" lon="6.61932">
        <ele>1046</ele>
        <time>2019-04-18T23:59:42Z</time>
      </trkpt>
      <trkpt lat="45.70548" lon="6.61969">
        <ele>1054</ele>
        <time>2019-04-19T00:00:42Z</time>
      </trkpt>
      <trkpt lat="45.70498" lon="6.61998">
        <ele>1057</ele>
        <time>2019-04-19T00:01:42Z</time>
      </trkpt>
      <trkpt lat="45.70361" lon="6.62057">
        <ele>1051</ele>
        <time>2019-04-19T00:02:42Z</time>
      </trkpt>
      <trkpt lat="45.70354" lon="6.62065">
        <ele>1049</ele>
        <time>2019-04-19T00:03:42Z</time>
      </trkpt>
      <trkpt lat="45.7035" lon="6.62074">
        <ele>1047</ele>
        <time>2019-04-19T00:04:42Z</time>
      </trkpt>
      <trkpt lat="45.70348" lon="6.62087">
        <ele>1045</ele>
        <time>2019-04-19T00:05:42Z</time>
      </trkpt>
      <trkpt lat="45.70348" lon="6.62101">
        <ele>1047</ele>
        <time>2019-04-19T00:06:42Z</time>
      </trkpt>
      <trkpt lat="45.70351" lon="6.62115">
        <ele>1048</ele>
        <time>2019-04-19T00:07:42Z</time>
      </trkpt>
      <trkpt lat="45.70366" lon="6.62137">
        <ele>1047</ele>
        <time>2019-04-19T00:08:42Z</time>
      </trkpt>
      <trkpt lat="45.70373" lon="6.6216">
        <ele>1048</ele>
        <time>2019-04-19T00:09:42Z</time>
      </trkpt>
      <trkpt lat="45.70375" lon="6.62189">
        <ele>1051</ele>
        <time>2019-04-19T00:10:42Z</time>
      </trkpt>
      <trkpt lat="45.70367" lon="6.62227">
        <ele>1056</ele>
        <time>2019-04-19T00:11:42Z</time>
      </trkpt>
      <trkpt lat="45.70362" lon="6.62267">
        <ele>1061</ele>
        <time>2019-04-19T00:12:42Z</time>
      </trkpt>
      <trkpt lat="45.70363" lon="6.62298">
        <ele>1065</ele>
        <time>2019-04-19T00:13:42Z</time>
      </trkpt>
      <trkpt lat="45.70375" lon="6.62335">
        <ele>1066</ele>
        <time>2019-04-19T00:14:42Z</time>
      </trkpt>
      <trkpt lat="45.70392" lon="6.62364">
        <ele>1069</ele>
        <time>2019-04-19T00:15:42Z</time>
      </trkpt>
      <trkpt lat="45.70424" lon="6.624">
        <ele>1071</ele>
        <time>2019-04-19T00:16:42Z</time>
      </trkpt>
      <trkpt lat="45.70459" lon="6.62417">
        <ele>1070</ele>
        <time>2019-04-19T00:17:42Z</time>
      </trkpt>
      <trkpt lat="45.70489" lon="6.62427">
        <ele>1069</ele>
        <time>2019-04-19T00:18:42Z</time>
      </trkpt>
      <trkpt lat="45.70512" lon="6.62432">
        <ele>1070</ele>
        <time>2019-04-19T00:19:42Z</time>
      </trkpt>
      <trkpt lat="45.70526" lon="6.62437">
        <ele>1073</ele>
        <time>2019-04-19T00:20:42Z</time>
      </trkpt>
      <trkpt lat="45.70531" lon="6.62447">
        <ele>1078</ele>
        <time>2019-04-19T00:21:42Z</time>
      </trkpt>
      <trkpt lat="45.7053" lon="6.62459">
        <ele>1083</ele>
        <time>2019-04-19T00:22:42Z</time>
      </trkpt>
      <trkpt lat="45.70521" lon="6.62465">
        <ele>1085</ele>
        <time>2019-04-19T00:23:42Z</time>
      </trkpt>
      <trkpt lat="45.70504" lon="6.62464">
        <ele>1084</ele>
        <time>2019-04-19T00:24:42Z</time>
      </trkpt>
      <trkpt lat="45.70414" lon="6.62445">
        <ele>1088</ele>
        <time>2019-04-19T00:25:42Z</time>
      </trkpt>
      <trkpt lat="45.70376" lon="6.62432">
        <ele>1093</ele>
        <time>2019-04-19T00:26:42Z</time>
      </trkpt>
      <trkpt lat="45.70343" lon="6.62416">
        <ele>1095</ele>
        <time>2019-04-19T00:27:42Z</time>
      </trkpt>
      <trkpt lat="45.70311" lon="6.62391">
        <ele>1098</ele>
        <time>2019-04-19T00:28:42Z</time>
      </trkpt>
      <trkpt lat="45.70263" lon="6.6236">
        <ele>1103</ele>
        <time>2019-04-19T00:29:42Z</time>
      </trkpt>
      <trkpt lat="45.70222" lon="6.62325">
        <ele>1108</ele>
        <time>2019-04-19T00:30:42Z</time>
      </trkpt>
      <trkpt lat="45.70143" lon="6.62186">
        <ele>1124</ele>
        <time>2019-04-19T00:31:42Z</time>
      </trkpt>
      <trkpt lat="45.70122" lon="6.62127">
        <ele>1130</ele>
        <time>2019-04-19T00:32:42Z</time>
      </trkpt>
      <trkpt lat="45.701" lon="6.62059">
        <ele>1135</ele>
        <time>2019-04-19T00:33:42Z</time>
      </trkpt>
      <trkpt lat="45.70091" lon="6.62012">
        <ele>1139</ele>
        <time>2019-04-19T00:34:42Z</time>
      </trkpt>
      <trkpt lat="45.70086" lon="6.61963">
        <ele>1137</ele>
        <time>2019-04-19T00:35:42Z</time>
      </trkpt>
      <trkpt lat="45.70085" lon="6.61941">
        <ele>1136</ele>
        <time>2019-04-19T00:36:42Z</time>
      </trkpt>
      <trkpt lat="45.7008" lon="6.61916">
        <ele>1135</ele>
        <time>2019-04-19T00:37:42Z</time>
      </trkpt>
      <trkpt lat="45.70068" lon="6.61897">
        <ele>1135</ele>
        <time>2019-04-19T00:38:42Z</time>
      </trkpt>
      <trkpt lat="45.70046" lon="6.61882">
        <ele>1139</ele>
        <time>2019-04-19T00:39:42Z</time>
      </trkpt>
      <trkpt lat="45.69988" lon="6.61856">
        <ele>1152</ele>
        <time>2019-04-19T00:40:42Z</time>
      </trkpt>
      <trkpt lat="45.69974" lon="6.61844">
        <ele>1154</ele>
        <time>2019-04-19T00:41:42Z</time>
      </trkpt>
      <trkpt lat="45.6996" lon="6.61829">
        <ele>1156</ele>
        <time>2019-04-19T00:42:42Z</time>
      </trkpt>
      <trkpt lat="45.69945" lon="6.61809">
        <ele>1158</ele>
        <time>2019-04-19T00:43:42Z</time>
      </trkpt>
      <trkpt lat="45.69933" lon="6.61788">
        <ele>1160</ele>
        <time>2019-04-19T00:44:42Z</time>
      </trkpt>
      <trkpt lat="45.6992" lon="6.61763">
        <ele>1160</ele>
        <time>2019-04-19T00:45:42Z</time>
      </trkpt>
      <trkpt lat="45.69911" lon="6.61739">
        <ele>1162</ele>
        <time>2019-04-19T00:46:42Z</time>
      </trkpt>
      <trkpt lat="45.69841" lon="6.61493">
        <ele>1167</ele>
        <time>2019-04-19T00:47:42Z</time>
      </trkpt>
      <trkpt lat="45.69832" lon="6.61478">
        <ele>1168</ele>
        <time>2019-04-19T00:48:42Z</time>
      </trkpt>
      <trkpt lat="45.69817" lon="6.61467">
        <ele>1170</ele>
        <time>2019-04-19T00:49:42Z</time>
      </trkpt>
      <trkpt lat="45.69775" lon="6.6146">
        <ele>1177</ele>
        <time>2019-04-19T00:50:42Z</time>
      </trkpt>
      <trkpt lat="45.6975" lon="6.61453">
        <ele>1180</ele>
        <time>2019-04-19T00:51:42Z</time>
      </trkpt>
      <trkpt lat="45.69731" lon="6.61446">
        <ele>1184</ele>
        <time>2019-04-19T00:52:42Z</time>
      </trkpt>
      <trkpt lat="45.69707" lon="6.6142">
        <ele>1183</ele>
        <time>2019-04-19T00:53:42Z</time>
      </trkpt>
      <trkpt lat="45.69701" lon="6.61418">
        <ele>1184</ele>
        <time>2019-04-19T00:54:42Z</time>
      </trkpt>
      <trkpt lat="45.69695" lon="6.61423">
        <ele>1187</ele>
        <time>2019-04-19T00:55:42Z</time>
      </trkpt>
      <trkpt lat="45.69691" lon="6.61434">
        <ele>1191</ele>
        <time>2019-04-19T00:56:42Z</time>
      </trkpt>
      <trkpt lat="45.69692" lon="6.61443">
        <ele>1193</ele>
        <time>2019-04-19T00:57:42Z</time>
      </trkpt>
      <trkpt lat="45.69695" lon="6.61451">
        <ele>1195</ele>
        <time>2019-04-19T00:58:42Z</time>
      </trkpt>
      <trkpt lat="45.69757" lon="6.61518">
        <ele>1194</ele>
        <time>2019-04-19T00:59:42Z</time>
      </trkpt>
      <trkpt lat="45.69795" lon="6.61577">
        <ele>1197</ele>
        <time>2019-04-19T01:00:42Z</time>
      </trkpt>
      <trkpt lat="45.69806" lon="6.61602">
        <ele>1196</ele>
        <time>2019-04-19T01:01:42Z</time>
      </trkpt>
      <trkpt lat="45.6981" lon="6.61623">
        <ele>1197</ele>
        <time>2019-04-19T01:02:42Z</time>
      </trkpt>
      <trkpt lat="45.6981" lon="6.61644">
        <ele>1200</ele>
        <time>2019-04-19T01:03:42Z</time>
      </trkpt>
      <trkpt lat="45.698" lon="6.61725">
        <ele>1211</ele>
        <time>2019-04-19T01:04:42Z</time>
      </trkpt>
      <trkpt lat="45.69799" lon="6.61758">
        <ele>1213</ele>
        <time>2019-04-19T01:05:42Z</time>
      </trkpt>
      <trkpt lat="45.69802" lon="6.61812">
        <ele>1217</ele>
        <time>2019-04-19T01:06:42Z</time>
      </trkpt>
      <trkpt lat="45.69817" lon="6.619">
        <ele>1221</ele>
        <time>2019-04-19T01:07:42Z</time>
      </trkpt>
      <trkpt lat="45.69829" lon="6.6194">
        <ele>1222</ele>
        <time>2019-04-19T01:08:42Z</time>
      </trkpt>
      <trkpt lat="45.69866" lon="6.62003">
        <ele>1219</ele>
        <time>2019-04-19T01:09:42Z</time>
      </trkpt>
      <trkpt lat="45.69864" lon="6.62012">
        <ele>1223</ele>
        <time>2019-04-19T01:10:42Z</time>
      </trkpt>
      <trkpt lat="45.6986" lon="6.62015">
        <ele>1226</ele>
        <time>2019-04-19T01:11:42Z</time>
      </trkpt>
      <trkpt lat="45.69852" lon="6.62013">
        <ele>1230</ele>
        <time>2019-04-19T01:12:42Z</time>
      </trkpt>
      <trkpt lat="45.6983" lon="6.61971">
        <ele>1230</ele>
        <time>2019-04-19T01:13:42Z</time>
      </trkpt>
      <trkpt lat="45.69781" lon="6.619">
        <ele>1239</ele>
        <time>2019-04-19T01:14:42Z</time>
      </trkpt>
      <trkpt lat="45.69747" lon="6.61791">
        <ele>1241</ele>
        <time>2019-04-19T01:15:42Z</time>
      </trkpt>
      <trkpt lat="45.697" lon="6.61681">
        <ele>1260</ele>
        <time>2019-04-19T01:16:42Z</time>
      </trkpt>
      <trkpt lat="45.69688" lon="6.61675">
        <ele>1266</ele>
        <time>2019-04-19T01:17:42Z</time>
      </trkpt>
      <trkpt lat="45.69682" lon="6.6168">
        <ele>1269</ele>
        <time>2019-04-19T01:18:42Z</time>
      </trkpt>
      <trkpt lat="45.69681" lon="6.61698">
        <ele>1272</ele>
        <time>2019-04-19T01:19:42Z</time>
      </trkpt>
      <trkpt lat="45.69724" lon="6.61861">
        <ele>1265</ele>
        <time>2019-04-19T01:20:42Z</time>
      </trkpt>
      <trkpt lat="45.69748" lon="6.61934">
        <ele>1265</ele>
        <time>2019-04-19T01:21:42Z</time>
      </trkpt>
      <trkpt lat="45.69783" lon="6.62002">
        <ele>1266</ele>
        <time>2019-04-19T01:22:42Z</time>
      </trkpt>
      <trkpt lat="45.69798" lon="6.62038">
        <ele>1270</ele>
        <time>2019-04-19T01:23:42Z</time>
      </trkpt>
      <trkpt lat="45.69828" lon="6.62085">
        <ele>1268</ele>
        <time>2019-04-19T01:24:42Z</time>
      </trkpt>
      <trkpt lat="45.69844" lon="6.621">
        <ele>1262</ele>
        <time>2019-04-19T01:25:42Z</time>
      </trkpt>
      <trkpt lat="45.69851" lon="6.62118">
        <ele>1263</ele>
        <time>2019-04-19T01:26:42Z</time>
      </trkpt>
      <trkpt lat="45.6985" lon="6.62201">
        <ele>1290</ele>
        <time>2019-04-19T01:27:42Z</time>
      </trkpt>
      <trkpt lat="45.69873" lon="6.62282">
        <ele>1295</ele>
        <time>2019-04-19T01:28:42Z</time>
      </trkpt>
      <trkpt lat="45.69898" lon="6.62343">
        <ele>1286</ele>
        <time>2019-04-19T01:29:42Z</time>
      </trkpt>
      <trkpt lat="45.69937" lon="6.62582">
        <ele>1327</ele>
        <time>2019-04-19T01:30:42Z</time>
      </trkpt>
      <trkpt lat="45.69971" lon="6.6265">
        <ele>1321</ele>
        <time>2019-04-19T01:31:42Z</time>
      </trkpt>
      <trkpt lat="45.70061" lon="6.62751">
        <ele>1323</ele>
        <time>2019-04-19T01:32:42Z</time>
      </trkpt>
      <trkpt lat="45.70109" lon="6.62821">
        <ele>1332</ele>
        <time>2019-04-19T01:33:42Z</time>
      </trkpt>
      <trkpt lat="45.70118" lon="6.6283">
        <ele>1332</ele>
        <time>2019-04-19T01:34:42Z</time>
      </trkpt>
      <trkpt lat="45.70156" lon="6.62841">
        <ele>1326</ele>
        <time>2019-04-19T01:35:42Z</time>
      </trkpt>
      <trkpt lat="45.70191" lon="6.62873">
        <ele>1335</ele>
        <time>2019-04-19T01:36:42Z</time>
      </trkpt>
      <trkpt lat="45.70269" lon="6.62936">
        <ele>1348</ele>
        <time>2019-04-19T01:37:42Z</time>
      </trkpt>
      <trkpt lat="45.703" lon="6.6295">
        <ele>1348</ele>
        <time>2019-04-19T01:38:42Z</time>
      </trkpt>
      <trkpt lat="45.70326" lon="6.62952">
        <ele>1344</ele>
        <time>2019-04-19T01:39:42Z</time>
      </trkpt>
      <trkpt lat="45.70365" lon="6.62949">
        <ele>1345</ele>
        <time>2019-04-19T01:40:42Z</time>
      </trkpt>
      <trkpt lat="45.70425" lon="6.6294">
        <ele>1346</ele>
        <time>2019-04-19T01:41:42Z</time>
      </trkpt>
      <trkpt lat="45.70482" lon="6.62944">
        <ele>1347</ele>
        <time>2019-04-19T01:42:42Z</time>
      </trkpt>
      <trkpt lat="45.70507" lon="6.62952">
        <ele>1348</ele>
        <time>2019-04-19T01:43:42Z</time>
      </trkpt>
      <trkpt lat="45.70519" lon="6.6296">
        <ele>1350</ele>
        <time>2019-04-19T01:44:42Z</time>
      </trkpt>
      <trkpt lat="45.70539" lon="6.62985">
        <ele>1356</ele>
        <time>2019-04-19T01:45:42Z</time>
      </trkpt>
      <trkpt lat="45.70558" lon="6.63001">
        <ele>1360</ele>
        <time>2019-04-19T01:46:42Z</time>
      </trkpt>
      <trkpt lat="45.70693" lon="6.63076">
        <ele>1376</ele>
        <time>2019-04-19T01:47:42Z</time>
      </trkpt>
      <trkpt lat="45.70734" lon="6.63078">
        <ele>1371</ele>
        <time>2019-04-19T01:48:42Z</time>
      </trkpt>
      <trkpt lat="45.70749" lon="6.63084">
        <ele>1370</ele>
        <time>2019-04-19T01:49:42Z</time>
      </trkpt>
      <trkpt lat="45.70753" lon="6.63096">
        <ele>1373</ele>
        <time>2019-04-19T01:50:42Z</time>
      </trkpt>
      <trkpt lat="45.70751" lon="6.63109">
        <ele>1378</ele>
        <time>2019-04-19T01:51:42Z</time>
      </trkpt>
      <trkpt lat="45.70741" lon="6.63119">
        <ele>1384</ele>
        <time>2019-04-19T01:52:42Z</time>
      </trkpt>
      <trkpt lat="45.70645" lon="6.63097">
        <ele>1393</ele>
        <time>2019-04-19T01:53:42Z</time>
      </trkpt>
      <trkpt lat="45.70615" lon="6.63086">
        <ele>1390</ele>
        <time>2019-04-19T01:54:42Z</time>
      </trkpt>
      <trkpt lat="45.70589" lon="6.63086">
        <ele>1393</ele>
        <time>2019-04-19T01:55:42Z</time>
      </trkpt>
      <trkpt lat="45.70565" lon="6.63096">
        <ele>1399</ele>
        <time>2019-04-19T01:56:42Z</time>
      </trkpt>
      <trkpt lat="45.70546" lon="6.63097">
        <ele>1401</ele>
        <time>2019-04-19T01:57:42Z</time>
      </trkpt>
      <trkpt lat="45.70517" lon="6.63073">
        <ele>1392</ele>
        <time>2019-04-19T01:58:42Z</time>
      </trkpt>
      <trkpt lat="45.705" lon="6.63067">
        <ele>1391</ele>
        <time>2019-04-19T01:59:42Z</time>
      </trkpt>
      <trkpt lat="45.70484" lon="6.63073">
        <ele>1394</ele>
        <time>2019-04-19T02:00:42Z</time>
      </trkpt>
      <trkpt lat="45.70462" lon="6.63086">
        <ele>1403</ele>
        <time>2019-04-19T02:01:42Z</time>
      </trkpt>
      <trkpt lat="45.70437" lon="6.6309">
        <ele>1407</ele>
        <time>2019-04-19T02:02:42Z</time>
      </trkpt>
      <trkpt lat="45.7041" lon="6.6309">
        <ele>1409</ele>
        <time>2019-04-19T02:03:42Z</time>
      </trkpt>
      <trkpt lat="45.70384" lon="6.63095">
        <ele>1411</ele>
        <time>2019-04-19T02:04:42Z</time>
      </trkpt>
      <trkpt lat="45.70357" lon="6.63101">
        <ele>1413</ele>
        <time>2019-04-19T02:05:42Z</time>
      </trkpt>
      <trkpt lat="45.70299" lon="6.63121">
        <ele>1424</ele>
        <time>2019-04-19T02:06:42Z</time>
      </trkpt>
      <trkpt lat="45.70275" lon="6.63127">
        <ele>1427</ele>
        <time>2019-04-19T02:07:42Z</time>
      </trkpt>
      <trkpt lat="45.7023" lon="6.63129">
        <ele>1430</ele>
        <time>2019-04-19T02:08:42Z</time>
      </trkpt>
      <trkpt lat="45.70186" lon="6.63141">
        <ele>1439</ele>
        <time>2019-04-19T02:09:42Z</time>
      </trkpt>
      <trkpt lat="45.70165" lon="6.63136">
        <ele>1439</ele>
        <time>2019-04-19T02:10:42Z</time>
      </trkpt>
      <trkpt lat="45.70103" lon="6.63106">
        <ele>1441</ele>
        <time>2019-04-19T02:11:42Z</time>
      </trkpt>
      <trkpt lat="45.70056" lon="6.63094">
        <ele>1449</ele>
        <time>2019-04-19T02:12:42Z</time>
      </trkpt>
      <trkpt lat="45.70029" lon="6.6307">
        <ele>1449</ele>
        <time>2019-04-19T02:13:42Z</time>
      </trkpt>
      <trkpt lat="45.7002" lon="6.63068">
        <ele>1452</ele>
        <time>2019-04-19T02:14:42Z</time>
      </trkpt>
      <trkpt lat="45.70016" lon="6.63071">
        <ele>1454</ele>
        <time>2019-04-19T02:15:42Z</time>
      </trkpt>
      <trkpt lat="45.70014" lon="6.63075">
        <ele>1456</ele>
        <time>2019-04-19T02:16:42Z</time>
      </trkpt>
      <trkpt lat="45.70014" lon="6.63082">
        <ele>1458</ele>
        <time>2019-04-19T02:17:42Z</time>
      </trkpt>
      <trkpt lat="45.70017" lon="6.6309">
        <ele>1460</ele>
        <time>2019-04-19T02:18:42Z</time>
      </trkpt>
      <trkpt lat="45.70024" lon="6.63098">
        <ele>1461</ele>
        <time>2019-04-19T02:19:42Z</time>
      </trkpt>
      <trkpt lat="45.70059" lon="6.63125">
        <ele>1460</ele>
        <time>2019-04-19T02:20:42Z</time>
      </trkpt>
      <trkpt lat="45.7009" lon="6.63162">
        <ele>1466</ele>
        <time>2019-04-19T02:21:42Z</time>
      </trkpt>
      <trkpt lat="45.7014" lon="6.63191">
        <ele>1470</ele>
        <time>2019-04-19T02:22:42Z</time>
      </trkpt>
      <trkpt lat="45.70163" lon="6.63201">
        <ele>1472</ele>
        <time>2019-04-19T02:23:42Z</time>
      </trkpt>
      <trkpt lat="45.70219" lon="6.63208">
        <ele>1471</ele>
        <time>2019-04-19T02:24:42Z</time>
      </trkpt>
      <trkpt lat="45.70278" lon="6.6322">
        <ele>1476</ele>
        <time>2019-04-19T02:25:42Z</time>
      </trkpt>
      <trkpt lat="45.70292" lon="6.6322">
        <ele>1476</ele>
        <time>2019-04-19T02:26:42Z</time>
      </trkpt>
      <trkpt lat="45.70357" lon="6.63208">
        <ele>1471</ele>
        <time>2019-04-19T02:27:42Z</time>
      </trkpt>
      <trkpt lat="45.70376" lon="6.63212">
        <ele>1472</ele>
        <time>2019-04-19T02:28:42Z</time>
      </trkpt>
      <trkpt lat="45.70404" lon="6.63233">
        <ele>1482</ele>
        <time>2019-04-19T02:29:42Z</time>
      </trkpt>
      <trkpt lat="45.70423" lon="6.63242">
        <ele>1485</ele>
        <time>2019-04-19T02:30:42Z</time>
      </trkpt>
      <trkpt lat="45.70443" lon="6.63245">
        <ele>1484</ele>
        <time>2019-04-19T02:31:42Z</time>
      </trkpt>
      <trkpt lat="45.70459" lon="6.63252">
        <ele>1485</ele>
        <time>2019-04-19T02:32:42Z</time>
      </trkpt>
      <trkpt lat="45.70513" lon="6.63294">
        <ele>1498</ele>
        <time>2019-04-19T02:33:42Z</time>
      </trkpt>
      <trkpt lat="45.70538" lon="6.63302">
        <ele>1499</ele>
        <time>2019-04-19T02:34:42Z</time>
      </trkpt>
      <trkpt lat="45.70624" lon="6.63311">
        <ele>1501</ele>
        <time>2019-04-19T02:35:42Z</time>
      </trkpt>
      <trkpt lat="45.70661" lon="6.63299">
        <ele>1498</ele>
        <time>2019-04-19T02:36:42Z</time>
      </trkpt>
      <trkpt lat="45.70686" lon="6.63288">
        <ele>1488</ele>
        <time>2019-04-19T02:37:42Z</time>
      </trkpt>
      <trkpt lat="45.70693" lon="6.63288">
        <ele>1485</ele>
        <time>2019-04-19T02:38:42Z</time>
      </trkpt>
      <trkpt lat="45.70699" lon="6.63293">
        <ele>1486</ele>
        <time>2019-04-19T02:39:42Z</time>
      </trkpt>
      <trkpt lat="45.70701" lon="6.63302">
        <ele>1490</ele>
        <time>2019-04-19T02:40:42Z</time>
      </trkpt>
      <trkpt lat="45.70699" lon="6.6331">
        <ele>1495</ele>
        <time>2019-04-19T02:41:42Z</time>
      </trkpt>
      <trkpt lat="45.70693" lon="6.63315">
        <ele>1499</ele>
        <time>2019-04-19T02:42:42Z</time>
      </trkpt>
      <trkpt lat="45.70686" lon="6.63317">
        <ele>1502</ele>
        <time>2019-04-19T02:43:42Z</time>
      </trkpt>
      <trkpt lat="45.70662" lon="6.63317">
        <ele>1506</ele>
        <time>2019-04-19T02:44:42Z</time>
      </trkpt>
      <trkpt lat="45.70646" lon="6.63323">
        <ele>1508</ele>
        <time>2019-04-19T02:45:42Z</time>
      </trkpt>
      <trkpt lat="45.70621" lon="6.63336">
        <ele>1512</ele>
        <time>2019-04-19T02:46:42Z</time>
      </trkpt>
      <trkpt lat="45.70604" lon="6.63341">
        <ele>1514</ele>
        <time>2019-04-19T02:47:42Z</time>
      </trkpt>
      <trkpt lat="45.70589" lon="6.63341">
        <ele>1513</ele>
        <time>2019-04-19T02:48:42Z</time>
      </trkpt>
      <trkpt lat="45.70543" lon="6.63353">
        <ele>1522</ele>
        <time>2019-04-19T02:49:42Z</time>
      </trkpt>
      <trkpt lat="45.70503" lon="6.63358">
        <ele>1528</ele>
        <time>2019-04-19T02:50:42Z</time>
      </trkpt>
      <trkpt lat="45.70465" lon="6.63358">
        <ele>1531</ele>
        <time>2019-04-19T02:51:42Z</time>
      </trkpt>
      <trkpt lat="45.70447" lon="6.63356">
        <ele>1532</ele>
        <time>2019-04-19T02:52:42Z</time>
      </trkpt>
      <trkpt lat="45.70424" lon="6.63348">
        <ele>1532</ele>
        <time>2019-04-19T02:53:42Z</time>
      </trkpt>
      <trkpt lat="45.70408" lon="6.63346">
        <ele>1532</ele>
        <time>2019-04-19T02:54:42Z</time>
      </trkpt>
      <trkpt lat="45.70385" lon="6.63356">
        <ele>1538</ele>
        <time>2019-04-19T02:55:42Z</time>
      </trkpt>
      <trkpt lat="45.70373" lon="6.63359">
        <ele>1540</ele>
        <time>2019-04-19T02:56:42Z</time>
      </trkpt>
      <trkpt lat="45.70322" lon="6.63345">
        <ele>1538</ele>
        <time>2019-04-19T02:57:42Z</time>
      </trkpt>
      <trkpt lat="45.70308" lon="6.63343">
        <ele>1537</ele>
        <time>2019-04-19T02:58:42Z</time>
      </trkpt>
      <trkpt lat="45.70256" lon="6.63361">
        <ele>1545</ele>
        <time>2019-04-19T02:59:42Z</time>
      </trkpt>
      <trkpt lat="45.70223" lon="6.63368">
        <ele>1550</ele>
        <time>2019-04-19T03:00:42Z</time>
      </trkpt>
      <trkpt lat="45.7019" lon="6.63374">
        <ele>1555</ele>
        <time>2019-04-19T03:01:42Z</time>
      </trkpt>
      <trkpt lat="45.70119" lon="6.63382">
        <ele>1564</ele>
        <time>2019-04-19T03:02:42Z</time>
      </trkpt>
      <trkpt lat="45.69996" lon="6.63388">
        <ele>1578</ele>
        <time>2019-04-19T03:03:42Z</time>
      </trkpt>
      <trkpt lat="45.6996" lon="6.63383">
        <ele>1577</ele>
        <time>2019-04-19T03:04:42Z</time>
      </trkpt>
      <trkpt lat="45.69953" lon="6.63384">
        <ele>1578</ele>
        <time>2019-04-19T03:05:42Z</time>
      </trkpt>
      <trkpt lat="45.69943" lon="6.6339">
        <ele>1580</ele>
        <time>2019-04-19T03:06:42Z</time>
      </trkpt>
      <trkpt lat="45.69921" lon="6.63409">
        <ele>1586</ele>
        <time>2019-04-19T03:07:42Z</time>
      </trkpt>
      <trkpt lat="45.69905" lon="6.63416">
        <ele>1589</ele>
        <time>2019-04-19T03:08:42Z</time>
      </trkpt>
      <trkpt lat="45.69882" lon="6.6342">
        <ele>1592</ele>
        <time>2019-04-19T03:09:42Z</time>
      </trkpt>
      <trkpt lat="45.69864" lon="6.6342">
        <ele>1593</ele>
        <time>2019-04-19T03:10:42Z</time>
      </trkpt>
      <trkpt lat="45.6983" lon="6.63416">
        <ele>1594</ele>
        <time>2019-04-19T03:11:42Z</time>
      </trkpt>
      <trkpt lat="45.69804" lon="6.6339">
        <ele>1591</ele>
        <time>2019-04-19T03:12:42Z</time>
      </trkpt>
      <trkpt lat="45.69791" lon="6.63382">
        <ele>1592</ele>
        <time>2019-04-19T03:13:42Z</time>
      </trkpt>
      <trkpt lat="45.69777" lon="6.63381">
        <ele>1594</ele>
        <time>2019-04-19T03:14:42Z</time>
      </trkpt>
      <trkpt lat="45.69737" lon="6.6339">
        <ele>1604</ele>
        <time>2019-04-19T03:15:42Z</time>
      </trkpt>
      <trkpt lat="45.6973" lon="6.6339">
        <ele>1605</ele>
        <time>2019-04-19T03:16:42Z</time>
      </trkpt>
      <trkpt lat="45.69691" lon="6.63376">
        <ele>1608</ele>
        <time>2019-04-19T03:17:42Z</time>
      </trkpt>
      <trkpt lat="45.69671" lon="6.63367">
        <ele>1609</ele>
        <time>2019-04-19T03:18:42Z</time>
      </trkpt>
      <trkpt lat="45.69652" lon="6.63354">
        <ele>1609</ele>
        <time>2019-04-19T03:19:42Z</time>
      </trkpt>
      <trkpt lat="45.69598" lon="6.63337">
        <ele>1614</ele>
        <time>2019-04-19T03:20:42Z</time>
      </trkpt>
      <trkpt lat="45.69567" lon="6.63312">
        <ele>1616</ele>
        <time>2019-04-19T03:21:42Z</time>
      </trkpt>
      <trkpt lat="45.69552" lon="6.63303">
        <ele>1616</ele>
        <time>2019-04-19T03:22:42Z</time>
      </trkpt>
      <trkpt lat="45.69537" lon="6.63299">
        <ele>1616</ele>
        <time>2019-04-19T03:23:42Z</time>
      </trkpt>
      <trkpt lat="45.69524" lon="6.633">
        <ele>1616</ele>
        <time>2019-04-19T03:24:42Z</time>
      </trkpt>
      <trkpt lat="45.69514" lon="6.63305">
        <ele>1615</ele>
        <time>2019-04-19T03:25:42Z</time>
      </trkpt>
      <trkpt lat="45.69505" lon="6.63316">
        <ele>1615</ele>
        <time>2019-04-19T03:26:42Z</time>
      </trkpt>
      <trkpt lat="45.69498" lon="6.63327">
        <ele>1615</ele>
        <time>2019-04-19T03:27:42Z</time>
      </trkpt>
      <trkpt lat="45.69493" lon="6.63344">
        <ele>1614</ele>
        <time>2019-04-19T03:28:42Z</time>
      </trkpt>
      <trkpt lat="45.69489" lon="6.63364">
        <ele>1614</ele>
        <time>2019-04-19T03:29:42Z</time>
      </trkpt>
      <trkpt lat="45.69489" lon="6.63387">
        <ele>1614</ele>
        <time>2019-04-19T03:30:42Z</time>
      </trkpt>
      <trkpt lat="45.69491" lon="6.63411">
        <ele>1614</ele>
        <time>2019-04-19T03:31:42Z</time>
      </trkpt>
      <trkpt lat="45.69497" lon="6.63447">
        <ele>1614</ele>
        <time>2019-04-19T03:32:42Z</time>
      </trkpt>
      <trkpt lat="45.69512" lon="6.63495">
        <ele>1617</ele>
        <time>2019-04-19T03:33:42Z</time>
      </trkpt>
      <trkpt lat="45.6952" lon="6.63513">
        <ele>1616</ele>
        <time>2019-04-19T03:34:42Z</time>
      </trkpt>
      <trkpt lat="45.69537" lon="6.63545">
        <ele>1615</ele>
        <time>2019-04-19T03:35:42Z</time>
      </trkpt>
      <trkpt lat="45.69577" lon="6.63612">
        <ele>1610</ele>
        <time>2019-04-19T03:36:42Z</time>
      </trkpt>
      <trkpt lat="45.6959" lon="6.63629">
        <ele>1610</ele>
        <time>2019-04-19T03:37:42Z</time>
      </trkpt>
      <trkpt lat="45.69625" lon="6.63656">
        <ele>1619</ele>
        <time>2019-04-19T03:38:42Z</time>
      </trkpt>
      <trkpt lat="45.6964" lon="6.63671">
        <ele>1622</ele>
        <time>2019-04-19T03:39:42Z</time>
      </trkpt>
      <trkpt lat="45.69679" lon="6.63749">
        <ele>1611</ele>
        <time>2019-04-19T03:40:42Z</time>
      </trkpt>
      <trkpt lat="45.69703" lon="6.63781">
        <ele>1610</ele>
        <time>2019-04-19T03:41:42Z</time>
      </trkpt>
      <trkpt lat="45.69717" lon="6.63794">
        <ele>1610</ele>
        <time>2019-04-19T03:42:42Z</time>
      </trkpt>
      <trkpt lat="45.69769" lon="6.63829">
        <ele>1618</ele>
        <time>2019-04-19T03:43:42Z</time>
      </trkpt>
      <trkpt lat="45.69798" lon="6.63851">
        <ele>1623</ele>
        <time>2019-04-19T03:44:42Z</time>
      </trkpt>
      <trkpt lat="45.6994" lon="6.64035">
        <ele>1622</ele>
        <time>2019-04-19T03:45:42Z</time>
      </trkpt>
      <trkpt lat="45.69975" lon="6.64097">
        <ele>1621</ele>
        <time>2019-04-19T03:46:42Z</time>
      </trkpt>
      <trkpt lat="45.70004" lon="6.64166">
        <ele>1615</ele>
        <time>2019-04-19T03:47:42Z</time>
      </trkpt>
      <trkpt lat="45.7003" lon="6.64237">
        <ele>1612</ele>
        <time>2019-04-19T03:48:42Z</time>
      </trkpt>
      <trkpt lat="45.70044" lon="6.64317">
        <ele>1607</ele>
        <time>2019-04-19T03:49:42Z</time>
      </trkpt>
      <trkpt lat="45.70071" lon="6.64389">
        <ele>1611</ele>
        <time>2019-04-19T03:50:42Z</time>
      </trkpt>
      <trkpt lat="45.70075" lon="6.64414">
        <ele>1611</ele>
        <time>2019-04-19T03:51:42Z</time>
      </trkpt>
      <trkpt lat="45.70073" lon="6.64438">
        <ele>1611</ele>
        <time>2019-04-19T03:52:42Z</time>
      </trkpt>
      <trkpt lat="45.70067" lon="6.64466">
        <ele>1610</ele>
        <time>2019-04-19T03:53:42Z</time>
      </trkpt>
      <trkpt lat="45.70058" lon="6.64484">
        <ele>1609</ele>
        <time>2019-04-19T03:54:42Z</time>
      </trkpt>
      <trkpt lat="45.70047" lon="6.64498">
        <ele>1608</ele>
        <time>2019-04-19T03:55:42Z</time>
      </trkpt>
      <trkpt lat="45.69995" lon="6.64532">
        <ele>1601</ele>
        <time>2019-04-19T03:56:42Z</time>
      </trkpt>
      <trkpt lat="45.69982" lon="6.64549">
        <ele>1597</ele>
        <time>2019-04-19T03:57:42Z</time>
      </trkpt>
      <trkpt lat="45.69977" lon="6.64564">
        <ele>1596</ele>
        <time>2019-04-19T03:58:42Z</time>
      </trkpt>
      <trkpt lat="45.69975" lon="6.6458">
        <ele>1597</ele>
        <time>2019-04-19T03:59:42Z</time>
      </trkpt>
      <trkpt lat="45.69976" lon="6.64593">
        <ele>1598</ele>
        <time>2019-04-19T04:00:42Z</time>
      </trkpt>
      <trkpt lat="45.69982" lon="6.64613">
        <ele>1600</ele>
        <time>2019-04-19T04:01:42Z</time>
      </trkpt>
      <trkpt lat="45.70036" lon="6.64749">
        <ele>1610</ele>
        <time>2019-04-19T04:02:42Z</time>
      </trkpt>
      <trkpt lat="45.70043" lon="6.64762">
        <ele>1610</ele>
        <time>2019-04-19T04:03:42Z</time>
      </trkpt>
      <trkpt lat="45.70091" lon="6.64828">
        <ele>1618</ele>
        <time>2019-04-19T04:04:42Z</time>
      </trkpt>
      <trkpt lat="45.70102" lon="6.64853">
        <ele>1619</ele>
        <time>2019-04-19T04:05:42Z</time>
      </trkpt>
      <trkpt lat="45.70106" lon="6.64885">
        <ele>1617</ele>
        <time>2019-04-19T04:06:42Z</time>
      </trkpt>
      <trkpt lat="45.70106" lon="6.64911">
        <ele>1613</ele>
        <time>2019-04-19T04:07:42Z</time>
      </trkpt>
      <trkpt lat="45.70101" lon="6.64935">
        <ele>1613</ele>
        <time>2019-04-19T04:08:42Z</time>
      </trkpt>
      <trkpt lat="45.70096" lon="6.64949">
        <ele>1612</ele>
        <time>2019-04-19T04:09:42Z</time>
      </trkpt>
      <trkpt lat="45.70082" lon="6.64968">
        <ele>1610</ele>
        <time>2019-04-19T04:10:42Z</time>
      </trkpt>
      <trkpt lat="45.70069" lon="6.64982">
        <ele>1609</ele>
        <time>2019-04-19T04:11:42Z</time>
      </trkpt>
      <trkpt lat="45.70043" lon="6.65002">
        <ele>1606</ele>
        <time>2019-04-19T04:12:42Z</time>
      </trkpt>
      <trkpt lat="45.7003" lon="6.65014">
        <ele>1604</ele>
        <time>2019-04-19T04:13:42Z</time>
      </trkpt>
      <trkpt lat="45.70021" lon="6.65036">
        <ele>1602</ele>
        <time>2019-04-19T04:14:42Z</time>
      </trkpt>
      <trkpt lat="45.70018" lon="6.65061">
        <ele>1601</ele>
        <time>2019-04-19T04:15:42Z</time>
      </trkpt>
      <trkpt lat="45.70024" lon="6.65099">
        <ele>1602</ele>
        <time>2019-04-19T04:16:42Z</time>
      </trkpt>
      <trkpt lat="45.70027" lon="6.65136">
        <ele>1601</ele>
        <time>2019-04-19T04:17:42Z</time>
      </trkpt>
      <trkpt lat="45.70027" lon="6.65209">
        <ele>1598</ele>
        <time>2019-04-19T04:18:42Z</time>
      </trkpt>
      <trkpt lat="45.70033" lon="6.65256">
        <ele>1600</ele>
        <time>2019-04-19T04:19:42Z</time>
      </trkpt>
      <trkpt lat="45.70036" lon="6.65299">
        <ele>1602</ele>
        <time>2019-04-19T04:20:42Z</time>
      </trkpt>
      <trkpt lat="45.70029" lon="6.65328">
        <ele>1600</ele>
        <time>2019-04-19T04:21:42Z</time>
      </trkpt>
      <trkpt lat="45.70018" lon="6.65352">
        <ele>1597</ele>
        <time>2019-04-19T04:22:42Z</time>
      </trkpt>
      <trkpt lat="45.69994" lon="6.65388">
        <ele>1591</ele>
        <time>2019-04-19T04:23:42Z</time>
      </trkpt>
      <trkpt lat="45.6998" lon="6.65419">
        <ele>1590</ele>
        <time>2019-04-19T04:24:42Z</time>
      </trkpt>
      <trkpt lat="45.69965" lon="6.65483">
        <ele>1595</ele>
        <time>2019-04-19T04:25:42Z</time>
      </trkpt>
      <trkpt lat="45.6996" lon="6.65497">
        <ele>1596</ele>
        <time>2019-04-19T04:26:42Z</time>
      </trkpt>
      <trkpt lat="45.69954" lon="6.65508">
        <ele>1596</ele>
        <time>2019-04-19T04:27:42Z</time>
      </trkpt>
      <trkpt lat="45.69944" lon="6.65517">
        <ele>1596</ele>
        <time>2019-04-19T04:28:42Z</time>
      </trkpt>
      <trkpt lat="45.69932" lon="6.65522">
        <ele>1593</ele>
        <time>2019-04-19T04:29:42Z</time>
      </trkpt>
      <trkpt lat="45.69888" lon="6.65533">
        <ele>1587</ele>
        <time>2019-04-19T04:30:42Z</time>
      </trkpt>
      <trkpt lat="45.69879" lon="6.65538">
        <ele>1587</ele>
        <time>2019-04-19T04:31:42Z</time>
      </trkpt>
      <trkpt lat="45.69872" lon="6.65545">
        <ele>1587</ele>
        <time>2019-04-19T04:32:42Z</time>
      </trkpt>
      <trkpt lat="45.69826" lon="6.65603">
        <ele>1589</ele>
        <time>2019-04-19T04:33:42Z</time>
      </trkpt>
      <trkpt lat="45.6981" lon="6.65619">
        <ele>1593</ele>
        <time>2019-04-19T04:34:42Z</time>
      </trkpt>
      <trkpt lat="45.69788" lon="6.65634">
        <ele>1597</ele>
        <time>2019-04-19T04:35:42Z</time>
      </trkpt>
      <trkpt lat="45.6976" lon="6.65639">
        <ele>1600</ele>
        <time>2019-04-19T04:36:42Z</time>
      </trkpt>
      <trkpt lat="45.6973" lon="6.65636">
        <ele>1604</ele>
        <time>2019-04-19T04:37:42Z</time>
      </trkpt>
      <trkpt lat="45.69697" lon="6.65624">
        <ele>1607</ele>
        <time>2019-04-19T04:38:42Z</time>
      </trkpt>
      <trkpt lat="45.69621" lon="6.65588">
        <ele>1611</ele>
        <time>2019-04-19T04:39:42Z</time>
      </trkpt>
      <trkpt lat="45.69555" lon="6.65563">
        <ele>1616</ele>
        <time>2019-04-19T04:40:42Z</time>
      </trkpt>
      <trkpt lat="45.69492" lon="6.65543">
        <ele>1618</ele>
        <time>2019-04-19T04:41:42Z</time>
      </trkpt>
      <trkpt lat="45.69469" lon="6.65545">
        <ele>1622</ele>
        <time>2019-04-19T04:42:42Z</time>
      </trkpt>
      <trkpt lat="45.69458" lon="6.65553">
        <ele>1625</ele>
        <time>2019-04-19T04:43:42Z</time>
      </trkpt>
      <trkpt lat="45.69451" lon="6.65563">
        <ele>1628</ele>
        <time>2019-04-19T04:44:42Z</time>
      </trkpt>
      <trkpt lat="45.69446" lon="6.65572">
        <ele>1630</ele>
        <time>2019-04-19T04:45:42Z</time>
      </trkpt>
      <trkpt lat="45.6944" lon="6.65598">
        <ele>1634</ele>
        <time>2019-04-19T04:46:42Z</time>
      </trkpt>
      <trkpt lat="45.69439" lon="6.65612">
        <ele>1635</ele>
        <time>2019-04-19T04:47:42Z</time>
      </trkpt>
      <trkpt lat="45.69444" lon="6.65639">
        <ele>1638</ele>
        <time>2019-04-19T04:48:42Z</time>
      </trkpt>
      <trkpt lat="45.69454" lon="6.65659">
        <ele>1639</ele>
        <time>2019-04-19T04:49:42Z</time>
      </trkpt>
      <trkpt lat="45.69465" lon="6.65674">
        <ele>1640</ele>
        <time>2019-04-19T04:50:42Z</time>
      </trkpt>
      <trkpt lat="45.69478" lon="6.65681">
        <ele>1640</ele>
        <time>2019-04-19T04:51:42Z</time>
      </trkpt>
      <trkpt lat="45.69492" lon="6.65681">
        <ele>1638</ele>
        <time>2019-04-19T04:52:42Z</time>
      </trkpt>
      <trkpt lat="45.69551" lon="6.65675">
        <ele>1637</ele>
        <time>2019-04-19T04:53:42Z</time>
      </trkpt>
      <trkpt lat="45.69574" lon="6.65677">
        <ele>1637</ele>
        <time>2019-04-19T04:54:42Z</time>
      </trkpt>
      <trkpt lat="45.69587" lon="6.65692">
        <ele>1638</ele>
        <time>2019-04-19T04:55:42Z</time>
      </trkpt>
      <trkpt lat="45.69598" lon="6.65714">
        <ele>1639</ele>
        <time>2019-04-19T04:56:42Z</time>
      </trkpt>
      <trkpt lat="45.696" lon="6.65741">
        <ele>1642</ele>
        <time>2019-04-19T04:57:42Z</time>
      </trkpt>
      <trkpt lat="45.69592" lon="6.65772">
        <ele>1647</ele>
        <time>2019-04-19T04:58:42Z</time>
      </trkpt>
      <trkpt lat="45.69582" lon="6.65787">
        <ele>1651</ele>
        <time>2019-04-19T04:59:42Z</time>
      </trkpt>
      <trkpt lat="45.69571" lon="6.65797">
        <ele>1655</ele>
        <time>2019-04-19T05:00:42Z</time>
      </trkpt>
      <trkpt lat="45.69553" lon="6.65799">
        <ele>1659</ele>
        <time>2019-04-19T05:01:42Z</time>
      </trkpt>
      <trkpt lat="45.69451" lon="6.65776">
        <ele>1679</ele>
        <time>2019-04-19T05:02:42Z</time>
      </trkpt>
      <trkpt lat="45.69422" lon="6.65762">
        <ele>1684</ele>
        <time>2019-04-19T05:03:42Z</time>
      </trkpt>
      <trkpt lat="45.69417" lon="6.65757">
        <ele>1684</ele>
        <time>2019-04-19T05:04:42Z</time>
      </trkpt>
      <trkpt lat="45.69412" lon="6.65746">
        <ele>1682</ele>
        <time>2019-04-19T05:05:42Z</time>
      </trkpt>
      <trkpt lat="45.69398" lon="6.65707">
        <ele>1671</ele>
        <time>2019-04-19T05:06:42Z</time>
      </trkpt>
      <trkpt lat="45.69382" lon="6.65683">
        <ele>1669</ele>
        <time>2019-04-19T05:07:42Z</time>
      </trkpt>
      <trkpt lat="45.69342" lon="6.65633">
        <ele>1673</ele>
        <time>2019-04-19T05:08:42Z</time>
      </trkpt>
      <trkpt lat="45.69252" lon="6.65544">
        <ele>1684</ele>
        <time>2019-04-19T05:09:42Z</time>
      </trkpt>
      <trkpt lat="45.69207" lon="6.6547">
        <ele>1685</ele>
        <time>2019-04-19T05:10:42Z</time>
      </trkpt>
      <trkpt lat="45.69166" lon="6.65424">
        <ele>1689</ele>
        <time>2019-04-19T05:11:42Z</time>
      </trkpt>
      <trkpt lat="45.69124" lon="6.65367">
        <ele>1683</ele>
        <time>2019-04-19T05:12:42Z</time>
      </trkpt>
      <trkpt lat="45.69118" lon="6.65362">
        <ele>1683</ele>
        <time>2019-04-19T05:13:42Z</time>
      </trkpt>
      <trkpt lat="45.69112" lon="6.6536">
        <ele>1685</ele>
        <time>2019-04-19T05:14:42Z</time>
      </trkpt>
      <trkpt lat="45.69108" lon="6.65361">
        <ele>1686</ele>
        <time>2019-04-19T05:15:42Z</time>
      </trkpt>
      <trkpt lat="45.69105" lon="6.65366">
        <ele>1689</ele>
        <time>2019-04-19T05:16:42Z</time>
      </trkpt>
      <trkpt lat="45.69104" lon="6.65372">
        <ele>1692</ele>
        <time>2019-04-19T05:17:42Z</time>
      </trkpt>
      <trkpt lat="45.69105" lon="6.65378">
        <ele>1693</ele>
        <time>2019-04-19T05:18:42Z</time>
      </trkpt>
      <trkpt lat="45.69126" lon="6.65403">
        <ele>1695</ele>
        <time>2019-04-19T05:19:42Z</time>
      </trkpt>
      <trkpt lat="45.69175" lon="6.65475">
        <ele>1700</ele>
        <time>2019-04-19T05:20:42Z</time>
      </trkpt>
      <trkpt lat="45.69232" lon="6.65617">
        <ele>1716</ele>
        <time>2019-04-19T05:21:42Z</time>
      </trkpt>
      <trkpt lat="45.69299" lon="6.65732">
        <ele>1726</ele>
        <time>2019-04-19T05:22:42Z</time>
      </trkpt>
      <trkpt lat="45.6932" lon="6.65776">
        <ele>1733</ele>
        <time>2019-04-19T05:23:42Z</time>
      </trkpt>
      <trkpt lat="45.6933" lon="6.65792">
        <ele>1733</ele>
        <time>2019-04-19T05:24:42Z</time>
      </trkpt>
      <trkpt lat="45.69344" lon="6.65809">
        <ele>1733</ele>
        <time>2019-04-19T05:25:42Z</time>
      </trkpt>
      <trkpt lat="45.69386" lon="6.65874">
        <ele>1740</ele>
        <time>2019-04-19T05:26:42Z</time>
      </trkpt>
      <trkpt lat="45.69441" lon="6.65949">
        <ele>1749</ele>
        <time>2019-04-19T05:27:42Z</time>
      </trkpt>
      <trkpt lat="45.69477" lon="6.65986">
        <ele>1752</ele>
        <time>2019-04-19T05:28:42Z</time>
      </trkpt>
      <trkpt lat="45.69528" lon="6.66033">
        <ele>1752</ele>
        <time>2019-04-19T05:29:42Z</time>
      </trkpt>
      <trkpt lat="45.69544" lon="6.66058">
        <ele>1755</ele>
        <time>2019-04-19T05:30:42Z</time>
      </trkpt>
      <trkpt lat="45.69562" lon="6.66098">
        <ele>1761</ele>
        <time>2019-04-19T05:31:42Z</time>
      </trkpt>
      <trkpt lat="45.69596" lon="6.66166">
        <ele>1768</ele>
        <time>2019-04-19T05:32:42Z</time>
      </trkpt>
      <trkpt lat="45.69614" lon="6.66225">
        <ele>1774</ele>
        <time>2019-04-19T05:33:42Z</time>
      </trkpt>
      <trkpt lat="45.69626" lon="6.66285">
        <ele>1773</ele>
        <time>2019-04-19T05:34:42Z</time>
      </trkpt>
      <trkpt lat="45.69632" lon="6.66367">
        <ele>1771</ele>
        <time>2019-04-19T05:35:42Z</time>
      </trkpt>
      <trkpt lat="45.69627" lon="6.66383">
        <ele>1776</ele>
        <time>2019-04-19T05:36:42Z</time>
      </trkpt>
      <trkpt lat="45.69581" lon="6.66474">
        <ele>1793</ele>
        <time>2019-04-19T05:37:42Z</time>
      </trkpt>
      <trkpt lat="45.6956" lon="6.66509">
        <ele>1792</ele>
        <time>2019-04-19T05:38:42Z</time>
      </trkpt>
      <trkpt lat="45.69551" lon="6.66515">
        <ele>1793</ele>
        <time>2019-04-19T05:39:42Z</time>
      </trkpt>
      <trkpt lat="45.69534" lon="6.66515">
        <ele>1794</ele>
        <time>2019-04-19T05:40:42Z</time>
      </trkpt>
      <trkpt lat="45.69504" lon="6.66497">
        <ele>1798</ele>
        <time>2019-04-19T05:41:42Z</time>
      </trkpt>
      <trkpt lat="45.69493" lon="6.66494">
        <ele>1801</ele>
        <time>2019-04-19T05:42:42Z</time>
      </trkpt>
      <trkpt lat="45.69449" lon="6.66501">
        <ele>1803</ele>
        <time>2019-04-19T05:43:42Z</time>
      </trkpt>
      <trkpt lat="45.69426" lon="6.66514">
        <ele>1803</ele>
        <time>2019-04-19T05:44:42Z</time>
      </trkpt>
      <trkpt lat="45.69399" lon="6.66537">
        <ele>1808</ele>
        <time>2019-04-19T05:45:42Z</time>
      </trkpt>
      <trkpt lat="45.69388" lon="6.66549">
        <ele>1810</ele>
        <time>2019-04-19T05:46:42Z</time>
      </trkpt>
      <trkpt lat="45.69379" lon="6.66573">
        <ele>1809</ele>
        <time>2019-04-19T05:47:42Z</time>
      </trkpt>
      <trkpt lat="45.69362" lon="6.66623">
        <ele>1812</ele>
        <time>2019-04-19T05:48:42Z</time>
      </trkpt>
      <trkpt lat="45.69356" lon="6.66654">
        <ele>1812</ele>
        <time>2019-04-19T05:49:42Z</time>
      </trkpt>
      <trkpt lat="45.69354" lon="6.66674">
        <ele>1811</ele>
        <time>2019-04-19T05:50:42Z</time>
      </trkpt>
      <trkpt lat="45.69354" lon="6.66748">
        <ele>1812</ele>
        <time>2019-04-19T05:51:42Z</time>
      </trkpt>
      <trkpt lat="45.69352" lon="6.66768">
        <ele>1813</ele>
        <time>2019-04-19T05:52:42Z</time>
      </trkpt>
      <trkpt lat="45.69297" lon="6.67014">
        <ele>1821</ele>
        <time>2019-04-19T05:53:42Z</time>
      </trkpt>
      <trkpt lat="45.6929" lon="6.67029">
        <ele>1822</ele>
        <time>2019-04-19T05:54:42Z</time>
      </trkpt>
      <trkpt lat="45.69263" lon="6.6708">
        <ele>1826</ele>
        <time>2019-04-19T05:55:42Z</time>
      </trkpt>
      <trkpt lat="45.69258" lon="6.67095">
        <ele>1827</ele>
        <time>2019-04-19T05:56:42Z</time>
      </trkpt>
      <trkpt lat="45.69251" lon="6.67131">
        <ele>1827</ele>
        <time>2019-04-19T05:57:42Z</time>
      </trkpt>
      <trkpt lat="45.69246" lon="6.67147">
        <ele>1828</ele>
        <time>2019-04-19T05:58:42Z</time>
      </trkpt>
      <trkpt lat="45.69206" lon="6.6721">
        <ele>1834</ele>
        <time>2019-04-19T05:59:42Z</time>
      </trkpt>
      <trkpt lat="45.69182" lon="6.67262">
        <ele>1836</ele>
        <time>2019-04-19T06:00:42Z</time>
      </trkpt>
      <trkpt lat="45.69173" lon="6.67273">
        <ele>1837</ele>
        <time>2019-04-19T06:01:42Z</time>
      </trkpt>
      <trkpt lat="45.69137" lon="6.67301">
        <ele>1843</ele>
        <time>2019-04-19T06:02:42Z</time>
      </trkpt>
      <trkpt lat="45.69127" lon="6.67314">
        <ele>1845</ele>
        <time>2019-04-19T06:03:42Z</time>
      </trkpt>
      <trkpt lat="45.69122" lon="6.67325">
        <ele>1846</ele>
        <time>2019-04-19T06:04:42Z</time>
      </trkpt>
      <trkpt lat="45.69114" lon="6.67353">
        <ele>1847</ele>
        <time>2019-04-19T06:05:42Z</time>
      </trkpt>
      <trkpt lat="45.69112" lon="6.67393">
        <ele>1847</ele>
        <time>2019-04-19T06:06:42Z</time>
      </trkpt>
      <trkpt lat="45.69109" lon="6.67405">
        <ele>1847</ele>
        <time>2019-04-19T06:07:42Z</time>
      </trkpt>
      <trkpt lat="45.69098" lon="6.67427">
        <ele>1850</ele>
        <time>2019-04-19T06:08:42Z</time>
      </trkpt>
      <trkpt lat="45.69095" lon="6.67438">
        <ele>1851</ele>
        <time>2019-04-19T06:09:42Z</time>
      </trkpt>
      <trkpt lat="45.69086" lon="6.67505">
        <ele>1855</ele>
        <time>2019-04-19T06:10:42Z</time>
      </trkpt>
      <trkpt lat="45.69088" lon="6.6755">
        <ele>1859</ele>
        <time>2019-04-19T06:11:42Z</time>
      </trkpt>
      <trkpt lat="45.69095" lon="6.676">
        <ele>1862</ele>
        <time>2019-04-19T06:12:42Z</time>
      </trkpt>
      <trkpt lat="45.69108" lon="6.67665">
        <ele>1865</ele>
        <time>2019-04-19T06:13:42Z</time>
      </trkpt>
      <trkpt lat="45.69114" lon="6.6771">
        <ele>1868</ele>
        <time>2019-04-19T06:14:42Z</time>
      </trkpt>
      <trkpt lat="45.69117" lon="6.67721">
        <ele>1869</ele>
        <time>2019-04-19T06:15:42Z</time>
      </trkpt>
      <trkpt lat="45.69121" lon="6.67731">
        <ele>1869</ele>
        <time>2019-04-19T06:16:42Z</time>
      </trkpt>
      <trkpt lat="45.69198" lon="6.67854">
        <ele>1874</ele>
        <time>2019-04-19T06:17:42Z</time>
      </trkpt>
      <trkpt lat="45.69222" lon="6.67904">
        <ele>1879</ele>
        <time>2019-04-19T06:18:42Z</time>
      </trkpt>
      <trkpt lat="45.69236" lon="6.67925">
        <ele>1880</ele>
        <time>2019-04-19T06:19:42Z</time>
      </trkpt>
      <trkpt lat="45.69275" lon="6.67946">
        <ele>1877</ele>
        <time>2019-04-19T06:20:42Z</time>
      </trkpt>
      <trkpt lat="45.69288" lon="6.67958">
        <ele>1877</ele>
        <time>2019-04-19T06:21:42Z</time>
      </trkpt>
      <trkpt lat="45.69301" lon="6.67979">
        <ele>1878</ele>
        <time>2019-04-19T06:22:42Z</time>
      </trkpt>
      <trkpt lat="45.69306" lon="6.67996">
        <ele>1881</ele>
        <time>2019-04-19T06:23:42Z</time>
      </trkpt>
      <trkpt lat="45.69325" lon="6.68078">
        <ele>1890</ele>
        <time>2019-04-19T06:24:42Z</time>
      </trkpt>
      <trkpt lat="45.69332" lon="6.68141">
        <ele>1898</ele>
        <time>2019-04-19T06:25:42Z</time>
      </trkpt>
      <trkpt lat="45.69339" lon="6.68157">
        <ele>1898</ele>
        <time>2019-04-19T06:26:42Z</time>
      </trkpt>
      <trkpt lat="45.69354" lon="6.68175">
        <ele>1898</ele>
        <time>2019-04-19T06:27:42Z</time>
      </trkpt>
      <trkpt lat="45.69421" lon="6.68245">
        <ele>1899</ele>
        <time>2019-04-19T06:28:42Z</time>
      </trkpt>
      <trkpt lat="45.69424" lon="6.68261">
        <ele>1902</ele>
        <time>2019-04-19T06:29:42Z</time>
      </trkpt>
      <trkpt lat="45.69423" lon="6.68266">
        <ele>1903</ele>
        <time>2019-04-19T06:30:42Z</time>
      </trkpt>
      <trkpt lat="45.69418" lon="6.68274">
        <ele>1906</ele>
        <time>2019-04-19T06:31:42Z</time>
      </trkpt>
      <trkpt lat="45.69408" lon="6.68277">
        <ele>1909</ele>
        <time>2019-04-19T06:32:42Z</time>
      </trkpt>
      <trkpt lat="45.69402" lon="6.68275">
        <ele>1909</ele>
        <time>2019-04-19T06:33:42Z</time>
      </trkpt>
      <trkpt lat="45.69366" lon="6.68246">
        <ele>1910</ele>
        <time>2019-04-19T06:34:42Z</time>
      </trkpt>
      <trkpt lat="45.69272" lon="6.68189">
        <ele>1916</ele>
        <time>2019-04-19T06:35:42Z</time>
      </trkpt>
      <trkpt lat="45.69255" lon="6.68176">
        <ele>1917</ele>
        <time>2019-04-19T06:36:42Z</time>
      </trkpt>
      <trkpt lat="45.69242" lon="6.68161">
        <ele>1917</ele>
        <time>2019-04-19T06:37:42Z</time>
      </trkpt>
      <trkpt lat="45.6917" lon="6.68065">
        <ele>1919</ele>
        <time>2019-04-19T06:38:42Z</time>
      </trkpt>
      <trkpt lat="45.6912" lon="6.68017">
        <ele>1920</ele>
        <time>2019-04-19T06:39:42Z</time>
      </trkpt>
      <trkpt lat="45.69093" lon="6.67999">
        <ele>1922</ele>
        <time>2019-04-19T06:40:42Z</time>
      </trkpt>
      <trkpt lat="45.69078" lon="6.67996">
        <ele>1924</ele>
        <time>2019-04-19T06:41:42Z</time>
      </trkpt>
      <trkpt lat="45.69061" lon="6.68">
        <ele>1926</ele>
        <time>2019-04-19T06:42:42Z</time>
      </trkpt>
      <trkpt lat="45.69047" lon="6.68009">
        <ele>1928</ele>
        <time>2019-04-19T06:43:42Z</time>
      </trkpt>
      <trkpt lat="45.69032" lon="6.68022">
        <ele>1930</ele>
        <time>2019-04-19T06:44:42Z</time>
      </trkpt>
      <trkpt lat="45.69017" lon="6.68047">
        <ele>1934</ele>
        <time>2019-04-19T06:45:42Z</time>
      </trkpt>
      <trkpt lat="45.69006" lon="6.68082">
        <ele>1937</ele>
        <time>2019-04-19T06:46:42Z</time>
      </trkpt>
      <trkpt lat="45.69001" lon="6.68132">
        <ele>1939</ele>
        <time>2019-04-19T06:47:42Z</time>
      </trkpt>
      <trkpt lat="45.69008" lon="6.6817">
        <ele>1940</ele>
        <time>2019-04-19T06:48:42Z</time>
      </trkpt>
      <trkpt lat="45.69025" lon="6.68198">
        <ele>1941</ele>
        <time>2019-04-19T06:49:42Z</time>
      </trkpt>
      <trkpt lat="45.69074" lon="6.68238">
        <ele>1942</ele>
        <time>2019-04-19T06:50:42Z</time>
      </trkpt>
      <trkpt lat="45.69093" lon="6.68265">
        <ele>1943</ele>
        <time>2019-04-19T06:51:42Z</time>
      </trkpt>
      <trkpt lat="45.69103" lon="6.68298">
        <ele>1944</ele>
        <time>2019-04-19T06:52:42Z</time>
      </trkpt>
      <trkpt lat="45.69122" lon="6.68345">
        <ele>1947</ele>
        <time>2019-04-19T06:53:42Z</time>
      </trkpt>
      <trkpt lat="45.69153" lon="6.68396">
        <ele>1951</ele>
        <time>2019-04-19T06:54:42Z</time>
      </trkpt>
      <trkpt lat="45.69157" lon="6.68416">
        <ele>1952</ele>
        <time>2019-04-19T06:55:42Z</time>
      </trkpt>
      <trkpt lat="45.69155" lon="6.68435">
        <ele>1953</ele>
        <time>2019-04-19T06:56:42Z</time>
      </trkpt>
      <trkpt lat="45.69134" lon="6.6847">
        <ele>1953</ele>
        <time>2019-04-19T06:57:42Z</time>
      </trkpt>
      <trkpt lat="45.69118" lon="6.68507">
        <ele>1953</ele>
        <time>2019-04-19T06:58:42Z</time>
      </trkpt>
      <trkpt lat="45.69105" lon="6.68682">
        <ele>1958</ele>
        <time>2019-04-19T06:59:42Z</time>
      </trkpt>
      <trkpt lat="45.69105" lon="6.68699">
        <ele>1958</ele>
        <time>2019-04-19T07:00:42Z</time>
      </trkpt>
      <trkpt lat="45.69115" lon="6.68717">
        <ele>1960</ele>
        <time>2019-04-19T07:01:42Z</time>
      </trkpt>
      <trkpt lat="45.69139" lon="6.68745">
        <ele>1963</ele>
        <time>2019-04-19T07:02:42Z</time>
      </trkpt>
      <trkpt lat="45.69144" lon="6.68762">
        <ele>1964</ele>
        <time>2019-04-19T07:03:42Z</time>
      </trkpt>
      <trkpt lat="45.69145" lon="6.68782">
        <ele>1966</ele>
        <time>2019-04-19T07:04:42Z</time>
      </trkpt>
      <trkpt lat="45.69136" lon="6.68813">
        <ele>1966</ele>
        <time>2019-04-19T07:05:42Z</time>
      </trkpt>
      <trkpt lat="45.69132" lon="6.6884">
        <ele>1966</ele>
        <time>2019-04-19T07:06:42Z</time>
      </trkpt>
      <trkpt lat="45.69134" lon="6.68885">
        <ele>1968</ele>
        <time>2019-04-19T07:07:42Z</time>
      </trkpt>
      <trkpt lat="45.69133" lon="6.68899">
        <ele>1968</ele>
        <time>2019-04-19T07:08:42Z</time>
      </trkpt>
      <trkpt lat="45.69123" lon="6.68945">
        <ele>1969</ele>
        <time>2019-04-19T07:09:42Z</time>
      </trkpt>
      <trkpt lat="45.6912" lon="6.68964">
        <ele>1970</ele>
        <time>2019-04-19T07:10:42Z</time>
      </trkpt>
      <trkpt lat="45.6912" lon="6.68985">
        <ele>1972</ele>
        <time>2019-04-19T07:11:42Z</time>
      </trkpt>
      <trkpt lat="45.69131" lon="6.69055">
        <ele>1974</ele>
        <time>2019-04-19T07:12:42Z</time>
      </trkpt>
      <trkpt lat="45.69144" lon="6.69122">
        <ele>1972</ele>
        <time>2019-04-19T07:13:42Z</time>
      </trkpt>
      <trkpt lat="45.69161" lon="6.69193">
        <ele>1967</ele>
        <time>2019-04-19T07:14:42Z</time>
      </trkpt>
      <trkpt lat="45.69172" lon="6.69217">
        <ele>1966</ele>
        <time>2019-04-19T07:15:42Z</time>
      </trkpt>
      <trkpt lat="45.69183" lon="6.6923">
        <ele>1965</ele>
        <time>2019-04-19T07:16:42Z</time>
      </trkpt>
      <trkpt lat="45.69195" lon="6.69239">
        <ele>1963</ele>
        <time>2019-04-19T07:17:42Z</time>
      </trkpt>
      <trkpt lat="45.69207" lon="6.69243">
        <ele>1962</ele>
        <time>2019-04-19T07:18:42Z</time>
      </trkpt>
      <trkpt lat="45.69264" lon="6.69249">
        <ele>1956</ele>
        <time>2019-04-19T07:19:42Z</time>
      </trkpt>
      <trkpt lat="45.69289" lon="6.69256">
        <ele>1956</ele>
        <time>2019-04-19T07:20:42Z</time>
      </trkpt>
      <trkpt lat="45.69313" lon="6.69276">
        <ele>1953</ele>
        <time>2019-04-19T07:21:42Z</time>
      </trkpt>
      <trkpt lat="45.69333" lon="6.69304">
        <ele>1949</ele>
        <time>2019-04-19T07:22:42Z</time>
      </trkpt>
      <trkpt lat="45.69348" lon="6.69332">
        <ele>1948</ele>
        <time>2019-04-19T07:23:42Z</time>
      </trkpt>
      <trkpt lat="45.69377" lon="6.694">
        <ele>1944</ele>
        <time>2019-04-19T07:24:42Z</time>
      </trkpt>
      <trkpt lat="45.69385" lon="6.69438">
        <ele>1941</ele>
        <time>2019-04-19T07:25:42Z</time>
      </trkpt>
      <trkpt lat="45.69389" lon="6.69473">
        <ele>1936</ele>
        <time>2019-04-19T07:26:42Z</time>
      </trkpt>
      <trkpt lat="45.6939" lon="6.69518">
        <ele>1931</ele>
        <time>2019-04-19T07:27:42Z</time>
      </trkpt>
      <trkpt lat="45.69387" lon="6.69552">
        <ele>1927</ele>
        <time>2019-04-19T07:28:42Z</time>
      </trkpt>
      <trkpt lat="45.69379" lon="6.69627">
        <ele>1921</ele>
        <time>2019-04-19T07:29:42Z</time>
      </trkpt>
      <trkpt lat="45.69364" lon="6.697">
        <ele>1917</ele>
        <time>2019-04-19T07:30:42Z</time>
      </trkpt>
      <trkpt lat="45.69341" lon="6.69772">
        <ele>1915</ele>
        <time>2019-04-19T07:31:42Z</time>
      </trkpt>
      <trkpt lat="45.69227" lon="6.70037">
        <ele>1901</ele>
        <time>2019-04-19T07:32:42Z</time>
      </trkpt>
      <trkpt lat="45.69217" lon="6.70075">
        <ele>1900</ele>
        <time>2019-04-19T07:33:42Z</time>
      </trkpt>
      <trkpt lat="45.69211" lon="6.70114">
        <ele>1898</ele>
        <time>2019-04-19T07:34:42Z</time>
      </trkpt>
      <trkpt lat="45.69212" lon="6.70151">
        <ele>1897</ele>
        <time>2019-04-19T07:35:42Z</time>
      </trkpt>
      <trkpt lat="45.69216" lon="6.70189">
        <ele>1894</ele>
        <time>2019-04-19T07:36:42Z</time>
      </trkpt>
      <trkpt lat="45.69261" lon="6.7033">
        <ele>1875</ele>
        <time>2019-04-19T07:37:42Z</time>
      </trkpt>
      <trkpt lat="45.69281" lon="6.70407">
        <ele>1875</ele>
        <time>2019-04-19T07:38:42Z</time>
      </trkpt>
      <trkpt lat="45.69298" lon="6.70479">
        <ele>1875</ele>
        <time>2019-04-19T07:39:42Z</time>
      </trkpt>
      <trkpt lat="45.69389" lon="6.71247">
        <ele>1828</ele>
        <time>2019-04-19T07:40:42Z</time>
      </trkpt>
      <trkpt lat="45.69404" lon="6.71321">
        <ele>1826</ele>
        <time>2019-04-19T07:41:42Z</time>
      </trkpt>
      <trkpt lat="45.69428" lon="6.71392">
        <ele>1824</ele>
        <time>2019-04-19T07:42:42Z</time>
      </trkpt>
      <trkpt lat="45.69447" lon="6.71467">
        <ele>1822</ele>
        <time>2019-04-19T07:43:42Z</time>
      </trkpt>
      <trkpt lat="45.69449" lon="6.71508">
        <ele>1818</ele>
        <time>2019-04-19T07:44:42Z</time>
      </trkpt>
      <trkpt lat="45.69432" lon="6.71583">
        <ele>1809</ele>
        <time>2019-04-19T07:45:42Z</time>
      </trkpt>
      <trkpt lat="45.6943" lon="6.71601">
        <ele>1806</ele>
        <time>2019-04-19T07:46:42Z</time>
      </trkpt>
      <trkpt lat="45.69433" lon="6.71619">
        <ele>1805</ele>
        <time>2019-04-19T07:47:42Z</time>
      </trkpt>
      <trkpt lat="45.69441" lon="6.71642">
        <ele>1803</ele>
        <time>2019-04-19T07:48:42Z</time>
      </trkpt>
      <trkpt lat="45.6945" lon="6.71653">
        <ele>1802</ele>
        <time>2019-04-19T07:49:42Z</time>
      </trkpt>
      <trkpt lat="45.69464" lon="6.71665">
        <ele>1801</ele>
        <time>2019-04-19T07:50:42Z</time>
      </trkpt>
      <trkpt lat="45.69479" lon="6.71664">
        <ele>1802</ele>
        <time>2019-04-19T07:51:42Z</time>
      </trkpt>
      <trkpt lat="45.69532" lon="6.71637">
        <ele>1808</ele>
        <time>2019-04-19T07:52:42Z</time>
      </trkpt>
      <trkpt lat="45.69557" lon="6.71634">
        <ele>1808</ele>
        <time>2019-04-19T07:53:42Z</time>
      </trkpt>
      <trkpt lat="45.69579" lon="6.71644">
        <ele>1806</ele>
        <time>2019-04-19T07:54:42Z</time>
      </trkpt>
      <trkpt lat="45.69587" lon="6.71664">
        <ele>1804</ele>
        <time>2019-04-19T07:55:42Z</time>
      </trkpt>
      <trkpt lat="45.69587" lon="6.71685">
        <ele>1803</ele>
        <time>2019-04-19T07:56:42Z</time>
      </trkpt>
      <trkpt lat="45.69569" lon="6.71728">
        <ele>1800</ele>
        <time>2019-04-19T07:57:42Z</time>
      </trkpt>
      <trkpt lat="45.69568" lon="6.71759">
        <ele>1797</ele>
        <time>2019-04-19T07:58:42Z</time>
      </trkpt>
      <trkpt lat="45.69573" lon="6.71806">
        <ele>1793</ele>
        <time>2019-04-19T07:59:42Z</time>
      </trkpt>
      <trkpt lat="45.69583" lon="6.71837">
        <ele>1791</ele>
        <time>2019-04-19T08:00:42Z</time>
      </trkpt>
      <trkpt lat="45.69603" lon="6.71865">
        <ele>1791</ele>
        <time>2019-04-19T08:01:42Z</time>
      </trkpt>
      <trkpt lat="45.69701" lon="6.71925">
        <ele>1792</ele>
        <time>2019-04-19T08:02:42Z</time>
      </trkpt>
      <trkpt lat="45.69727" lon="6.71942">
        <ele>1794</ele>
        <time>2019-04-19T08:03:42Z</time>
      </trkpt>
      <trkpt lat="45.69737" lon="6.71958">
        <ele>1792</ele>
        <time>2019-04-19T08:04:42Z</time>
      </trkpt>
      <trkpt lat="45.6974" lon="6.71973">
        <ele>1789</ele>
        <time>2019-04-19T08:05:42Z</time>
      </trkpt>
      <trkpt lat="45.69736" lon="6.72051">
        <ele>1780</ele>
        <time>2019-04-19T08:06:42Z</time>
      </trkpt>
      <trkpt lat="45.69728" lon="6.72147">
        <ele>1773</ele>
        <time>2019-04-19T08:07:42Z</time>
      </trkpt>
      <trkpt lat="45.69732" lon="6.72164">
        <ele>1773</ele>
        <time>2019-04-19T08:08:42Z</time>
      </trkpt>
      <trkpt lat="45.69755" lon="6.72195">
        <ele>1777</ele>
        <time>2019-04-19T08:09:42Z</time>
      </trkpt>
      <trkpt lat="45.69765" lon="6.72214">
        <ele>1779</ele>
        <time>2019-04-19T08:10:42Z</time>
      </trkpt>
      <trkpt lat="45.69768" lon="6.72226">
        <ele>1779</ele>
        <time>2019-04-19T08:11:42Z</time>
      </trkpt>
      <trkpt lat="45.69771" lon="6.72263">
        <ele>1779</ele>
        <time>2019-04-19T08:12:42Z</time>
      </trkpt>
      <trkpt lat="45.6976" lon="6.72299">
        <ele>1774</ele>
        <time>2019-04-19T08:13:42Z</time>
      </trkpt>
      <trkpt lat="45.69744" lon="6.72333">
        <ele>1769</ele>
        <time>2019-04-19T08:14:42Z</time>
      </trkpt>
      <trkpt lat="45.6974" lon="6.72354">
        <ele>1767</ele>
        <time>2019-04-19T08:15:42Z</time>
      </trkpt>
      <trkpt lat="45.69741" lon="6.72376">
        <ele>1766</ele>
        <time>2019-04-19T08:16:42Z</time>
      </trkpt>
      <trkpt lat="45.69746" lon="6.72399">
        <ele>1767</ele>
        <time>2019-04-19T08:17:42Z</time>
      </trkpt>
      <trkpt lat="45.69754" lon="6.72413">
        <ele>1768</ele>
        <time>2019-04-19T08:18:42Z</time>
      </trkpt>
      <trkpt lat="45.6978" lon="6.7244">
        <ele>1768</ele>
        <time>2019-04-19T08:19:42Z</time>
      </trkpt>
      <trkpt lat="45.69795" lon="6.7246">
        <ele>1768</ele>
        <time>2019-04-19T08:20:42Z</time>
      </trkpt>
      <trkpt lat="45.69806" lon="6.72479">
        <ele>1767</ele>
        <time>2019-04-19T08:21:42Z</time>
      </trkpt>
      <trkpt lat="45.69809" lon="6.72493">
        <ele>1766</ele>
        <time>2019-04-19T08:22:42Z</time>
      </trkpt>
      <trkpt lat="45.69809" lon="6.72501">
        <ele>1766</ele>
        <time>2019-04-19T08:23:42Z</time>
      </trkpt>
      <trkpt lat="45.69807" lon="6.72509">
        <ele>1764</ele>
        <time>2019-04-19T08:24:42Z</time>
      </trkpt>
      <trkpt lat="45.69803" lon="6.72522">
        <ele>1761</ele>
        <time>2019-04-19T08:25:42Z</time>
      </trkpt>
      <trkpt lat="45.69796" lon="6.72528">
        <ele>1758</ele>
        <time>2019-04-19T08:26:42Z</time>
      </trkpt>
      <trkpt lat="45.69787" lon="6.72533">
        <ele>1756</ele>
        <time>2019-04-19T08:27:42Z</time>
      </trkpt>
      <trkpt lat="45.69774" lon="6.72533">
        <ele>1754</ele>
        <time>2019-04-19T08:28:42Z</time>
      </trkpt>
      <trkpt lat="45.69728" lon="6.72514">
        <ele>1749</ele>
        <time>2019-04-19T08:29:42Z</time>
      </trkpt>
      <trkpt lat="45.69714" lon="6.72505">
        <ele>1746</ele>
        <time>2019-04-19T08:30:42Z</time>
      </trkpt>
      <trkpt lat="45.69707" lon="6.72492">
        <ele>1746</ele>
        <time>2019-04-19T08:31:42Z</time>
      </trkpt>
      <trkpt lat="45.69678" lon="6.72424">
        <ele>1745</ele>
        <time>2019-04-19T08:32:42Z</time>
      </trkpt>
      <trkpt lat="45.69607" lon="6.72269">
        <ele>1732</ele>
        <time>2019-04-19T08:33:42Z</time>
      </trkpt>
      <trkpt lat="45.69602" lon="6.7226">
        <ele>1730</ele>
        <time>2019-04-19T08:34:42Z</time>
      </trkpt>
      <trkpt lat="45.69597" lon="6.72254">
        <ele>1729</ele>
        <time>2019-04-19T08:35:42Z</time>
      </trkpt>
      <trkpt lat="45.6959" lon="6.72253">
        <ele>1727</ele>
        <time>2019-04-19T08:36:42Z</time>
      </trkpt>
      <trkpt lat="45.69585" lon="6.72256">
        <ele>1725</ele>
        <time>2019-04-19T08:37:42Z</time>
      </trkpt>
      <trkpt lat="45.69581" lon="6.72268">
        <ele>1723</ele>
        <time>2019-04-19T08:38:42Z</time>
      </trkpt>
      <trkpt lat="45.69583" lon="6.72278">
        <ele>1724</ele>
        <time>2019-04-19T08:39:42Z</time>
      </trkpt>
      <trkpt lat="45.69598" lon="6.72306">
        <ele>1727</ele>
        <time>2019-04-19T08:40:42Z</time>
      </trkpt>
      <trkpt lat="45.69603" lon="6.7232">
        <ele>1728</ele>
        <time>2019-04-19T08:41:42Z</time>
      </trkpt>
      <trkpt lat="45.69609" lon="6.72351">
        <ele>1728</ele>
        <time>2019-04-19T08:42:42Z</time>
      </trkpt>
      <trkpt lat="45.6961" lon="6.72375">
        <ele>1726</ele>
        <time>2019-04-19T08:43:42Z</time>
      </trkpt>
      <trkpt lat="45.69609" lon="6.72477">
        <ele>1717</ele>
        <time>2019-04-19T08:44:42Z</time>
      </trkpt>
      <trkpt lat="45.69612" lon="6.72532">
        <ele>1710</ele>
        <time>2019-04-19T08:45:42Z</time>
      </trkpt>
      <trkpt lat="45.69614" lon="6.7255">
        <ele>1708</ele>
        <time>2019-04-19T08:46:42Z</time>
      </trkpt>
      <trkpt lat="45.69629" lon="6.72603">
        <ele>1704</ele>
        <time>2019-04-19T08:47:42Z</time>
      </trkpt>
      <trkpt lat="45.69633" lon="6.72624">
        <ele>1702</ele>
        <time>2019-04-19T08:48:42Z</time>
      </trkpt>
      <trkpt lat="45.69635" lon="6.7265">
        <ele>1700</ele>
        <time>2019-04-19T08:49:42Z</time>
      </trkpt>
      <trkpt lat="45.69632" lon="6.72664">
        <ele>1697</ele>
        <time>2019-04-19T08:50:42Z</time>
      </trkpt>
      <trkpt lat="45.69627" lon="6.72673">
        <ele>1694</ele>
        <time>2019-04-19T08:51:42Z</time>
      </trkpt>
      <trkpt lat="45.6962" lon="6.72677">
        <ele>1692</ele>
        <time>2019-04-19T08:52:42Z</time>
      </trkpt>
      <trkpt lat="45.69613" lon="6.72676">
        <ele>1690</ele>
        <time>2019-04-19T08:53:42Z</time>
      </trkpt>
      <trkpt lat="45.69609" lon="6.72673">
        <ele>1689</ele>
        <time>2019-04-19T08:54:42Z</time>
      </trkpt>
      <trkpt lat="45.69605" lon="6.72667">
        <ele>1689</ele>
        <time>2019-04-19T08:55:42Z</time>
      </trkpt>
      <trkpt lat="45.69601" lon="6.7265">
        <ele>1690</ele>
        <time>2019-04-19T08:56:42Z</time>
      </trkpt>
      <trkpt lat="45.69597" lon="6.72616">
        <ele>1693</ele>
        <time>2019-04-19T08:57:42Z</time>
      </trkpt>
      <trkpt lat="45.69576" lon="6.72544">
        <ele>1697</ele>
        <time>2019-04-19T08:58:42Z</time>
      </trkpt>
      <trkpt lat="45.69562" lon="6.72505">
        <ele>1697</ele>
        <time>2019-04-19T08:59:42Z</time>
      </trkpt>
      <trkpt lat="45.69547" lon="6.72474">
        <ele>1695</ele>
        <time>2019-04-19T09:00:42Z</time>
      </trkpt>
      <trkpt lat="45.69525" lon="6.72438">
        <ele>1690</ele>
        <time>2019-04-19T09:01:42Z</time>
      </trkpt>
      <trkpt lat="45.69519" lon="6.72425">
        <ele>1690</ele>
        <time>2019-04-19T09:02:42Z</time>
      </trkpt>
      <trkpt lat="45.69516" lon="6.72413">
        <ele>1690</ele>
        <time>2019-04-19T09:03:42Z</time>
      </trkpt>
      <trkpt lat="45.69516" lon="6.72394">
        <ele>1691</ele>
        <time>2019-04-19T09:04:42Z</time>
      </trkpt>
      <trkpt lat="45.69529" lon="6.72341">
        <ele>1700</ele>
        <time>2019-04-19T09:05:42Z</time>
      </trkpt>
      <trkpt lat="45.6953" lon="6.72327">
        <ele>1702</ele>
        <time>2019-04-19T09:06:42Z</time>
      </trkpt>
      <trkpt lat="45.69529" lon="6.72313">
        <ele>1702</ele>
        <time>2019-04-19T09:07:42Z</time>
      </trkpt>
      <trkpt lat="45.69518" lon="6.72248">
        <ele>1702</ele>
        <time>2019-04-19T09:08:42Z</time>
      </trkpt>
      <trkpt lat="45.69507" lon="6.72224">
        <ele>1704</ele>
        <time>2019-04-19T09:09:42Z</time>
      </trkpt>
      <trkpt lat="45.69494" lon="6.72207">
        <ele>1705</ele>
        <time>2019-04-19T09:10:42Z</time>
      </trkpt>
      <trkpt lat="45.69485" lon="6.72203">
        <ele>1706</ele>
        <time>2019-04-19T09:11:42Z</time>
      </trkpt>
      <trkpt lat="45.69476" lon="6.72202">
        <ele>1705</ele>
        <time>2019-04-19T09:12:42Z</time>
      </trkpt>
      <trkpt lat="45.69465" lon="6.72208">
        <ele>1703</ele>
        <time>2019-04-19T09:13:42Z</time>
      </trkpt>
      <trkpt lat="45.69457" lon="6.72215">
        <ele>1701</ele>
        <time>2019-04-19T09:14:42Z</time>
      </trkpt>
      <trkpt lat="45.69444" lon="6.72228">
        <ele>1697</ele>
        <time>2019-04-19T09:15:42Z</time>
      </trkpt>
      <trkpt lat="45.69426" lon="6.72257">
        <ele>1689</ele>
        <time>2019-04-19T09:16:42Z</time>
      </trkpt>
      <trkpt lat="45.6941" lon="6.72301">
        <ele>1683</ele>
        <time>2019-04-19T09:17:42Z</time>
      </trkpt>
      <trkpt lat="45.69395" lon="6.7233">
        <ele>1682</ele>
        <time>2019-04-19T09:18:42Z</time>
      </trkpt>
      <trkpt lat="45.6939" lon="6.72352">
        <ele>1682</ele>
        <time>2019-04-19T09:19:42Z</time>
      </trkpt>
      <trkpt lat="45.69388" lon="6.72385">
        <ele>1681</ele>
        <time>2019-04-19T09:20:42Z</time>
      </trkpt>
      <trkpt lat="45.6939" lon="6.72418">
        <ele>1678</ele>
        <time>2019-04-19T09:21:42Z</time>
      </trkpt>
      <trkpt lat="45.69396" lon="6.72461">
        <ele>1671</ele>
        <time>2019-04-19T09:22:42Z</time>
      </trkpt>
      <trkpt lat="45.69405" lon="6.72591">
        <ele>1660</ele>
        <time>2019-04-19T09:23:42Z</time>
      </trkpt>
      <trkpt lat="45.69403" lon="6.72633">
        <ele>1657</ele>
        <time>2019-04-19T09:24:42Z</time>
      </trkpt>
      <trkpt lat="45.694" lon="6.72667">
        <ele>1655</ele>
        <time>2019-04-19T09:25:42Z</time>
      </trkpt>
      <trkpt lat="45.69361" lon="6.72892">
        <ele>1636</ele>
        <time>2019-04-19T09:26:42Z</time>
      </trkpt>
      <trkpt lat="45.69353" lon="6.72971">
        <ele>1634</ele>
        <time>2019-04-19T09:27:42Z</time>
      </trkpt>
      <trkpt lat="45.69333" lon="6.73096">
        <ele>1626</ele>
        <time>2019-04-19T09:28:42Z</time>
      </trkpt>
      <trkpt lat="45.69332" lon="6.73121">
        <ele>1623</ele>
        <time>2019-04-19T09:29:42Z</time>
      </trkpt>
      <trkpt lat="45.69335" lon="6.73162">
        <ele>1616</ele>
        <time>2019-04-19T09:30:42Z</time>
      </trkpt>
      <trkpt lat="45.69335" lon="6.73182">
        <ele>1611</ele>
        <time>2019-04-19T09:31:42Z</time>
      </trkpt>
      <trkpt lat="45.6933" lon="6.73198">
        <ele>1609</ele>
        <time>2019-04-19T09:32:42Z</time>
      </trkpt>
      <trkpt lat="45.69283" lon="6.73231">
        <ele>1611</ele>
        <time>2019-04-19T09:33:42Z</time>
      </trkpt>
      <trkpt lat="45.69174" lon="6.73256">
        <ele>1606</ele>
        <time>2019-04-19T09:34:42Z</time>
      </trkpt>
      <trkpt lat="45.69067" lon="6.73266">
        <ele>1599</ele>
        <time>2019-04-19T09:35:42Z</time>
      </trkpt>
      <trkpt lat="45.69009" lon="6.73287">
        <ele>1589</ele>
        <time>2019-04-19T09:36:42Z</time>
      </trkpt>
      <trkpt lat="45.68907" lon="6.73308">
        <ele>1584</ele>
        <time>2019-04-19T09:37:42Z</time>
      </trkpt>
      <trkpt lat="45.68887" lon="6.7331">
        <ele>1580</ele>
        <time>2019-04-19T09:38:42Z</time>
      </trkpt>
      <trkpt lat="45.68854" lon="6.73295">
        <ele>1580</ele>
        <time>2019-04-19T09:39:42Z</time>
      </trkpt>
      <trkpt lat="45.68797" lon="6.73277">
        <ele>1580</ele>
        <time>2019-04-19T09:40:42Z</time>
      </trkpt>
      <trkpt lat="45.68743" lon="6.73289">
        <ele>1572</ele>
        <time>2019-04-19T09:41:42Z</time>
      </trkpt>
      <trkpt lat="45.68651" lon="6.73315">
        <ele>1568</ele>
        <time>2019-04-19T09:42:42Z</time>
      </trkpt>
      <trkpt lat="45.68615" lon="6.7334">
        <ele>1565</ele>
        <time>2019-04-19T09:43:42Z</time>
      </trkpt>
      <trkpt lat="45.68596" lon="6.73367">
        <ele>1561</ele>
        <time>2019-04-19T09:44:42Z</time>
      </trkpt>
      <trkpt lat="45.68584" lon="6.73409">
        <ele>1554</ele>
        <time>2019-04-19T09:45:42Z</time>
      </trkpt>
      <trkpt lat="45.68585" lon="6.73489">
        <ele>1548</ele>
        <time>2019-04-19T09:46:42Z</time>
      </trkpt>
      <trkpt lat="45.68581" lon="6.73523">
        <ele>1548</ele>
        <time>2019-04-19T09:47:42Z</time>
      </trkpt>
      <trkpt lat="45.68558" lon="6.73594">
        <ele>1548</ele>
        <time>2019-04-19T09:48:42Z</time>
      </trkpt>
      <trkpt lat="45.68516" lon="6.73675">
        <ele>1542</ele>
        <time>2019-04-19T09:49:42Z</time>
      </trkpt>
      <trkpt lat="45.6849" lon="6.73699">
        <ele>1542</ele>
        <time>2019-04-19T09:50:42Z</time>
      </trkpt>
      <trkpt lat="45.68468" lon="6.73714">
        <ele>1541</ele>
        <time>2019-04-19T09:51:42Z</time>
      </trkpt>
      <trkpt lat="45.68447" lon="6.73724">
        <ele>1540</ele>
        <time>2019-04-19T09:52:42Z</time>
      </trkpt>
      <trkpt lat="45.68343" lon="6.73755">
        <ele>1539</ele>
        <time>2019-04-19T09:53:42Z</time>
      </trkpt>
      <trkpt lat="45.68325" lon="6.73765">
        <ele>1540</ele>
        <time>2019-04-19T09:54:42Z</time>
      </trkpt>
      <trkpt lat="45.68303" lon="6.73781">
        <ele>1542</ele>
        <time>2019-04-19T09:55:42Z</time>
      </trkpt>
      <trkpt lat="45.68274" lon="6.73822">
        <ele>1542</ele>
        <time>2019-04-19T09:56:42Z</time>
      </trkpt>
      <trkpt lat="45.68207" lon="6.73942">
        <ele>1535</ele>
        <time>2019-04-19T09:57:42Z</time>
      </trkpt>
      <trkpt lat="45.68192" lon="6.73954">
        <ele>1535</ele>
        <time>2019-04-19T09:58:42Z</time>
      </trkpt>
      <trkpt lat="45.68123" lon="6.73993">
        <ele>1535</ele>
        <time>2019-04-19T09:59:42Z</time>
      </trkpt>
      <trkpt lat="45.68037" lon="6.7408">
        <ele>1527</ele>
        <time>2019-04-19T10:00:42Z</time>
      </trkpt>
      <trkpt lat="45.67861" lon="6.74285">
        <ele>1517</ele>
        <time>2019-04-19T10:01:42Z</time>
      </trkpt>
      <trkpt lat="45.67811" lon="6.74372">
        <ele>1508</ele>
        <time>2019-04-19T10:02:42Z</time>
      </trkpt>
      <trkpt lat="45.67748" lon="6.74545">
        <ele>1496</ele>
        <time>2019-04-19T10:03:42Z</time>
      </trkpt>
      <trkpt lat="45.6772" lon="6.74612">
        <ele>1503</ele>
        <time>2019-04-19T10:04:42Z</time>
      </trkpt>
      <trkpt lat="45.67695" lon="6.74648">
        <ele>1503</ele>
        <time>2019-04-19T10:05:42Z</time>
      </trkpt>
      <trkpt lat="45.67676" lon="6.7467">
        <ele>1500</ele>
        <time>2019-04-19T10:06:42Z</time>
      </trkpt>
      <trkpt lat="45.67629" lon="6.74703">
        <ele>1498</ele>
        <time>2019-04-19T10:07:42Z</time>
      </trkpt>
      <trkpt lat="45.67616" lon="6.74725">
        <ele>1496</ele>
        <time>2019-04-19T10:08:42Z</time>
      </trkpt>
      <trkpt lat="45.67601" lon="6.74778">
        <ele>1495</ele>
        <time>2019-04-19T10:09:42Z</time>
      </trkpt>
      <trkpt lat="45.67583" lon="6.7481">
        <ele>1492</ele>
        <time>2019-04-19T10:10:42Z</time>
      </trkpt>
      <trkpt lat="45.67566" lon="6.74852">
        <ele>1494</ele>
        <time>2019-04-19T10:11:42Z</time>
      </trkpt>
      <trkpt lat="45.67561" lon="6.74928">
        <ele>1495</ele>
        <time>2019-04-19T10:12:42Z</time>
      </trkpt>
      <trkpt lat="45.67553" lon="6.74958">
        <ele>1495</ele>
        <time>2019-04-19T10:13:42Z</time>
      </trkpt>
      <trkpt lat="45.67545" lon="6.74983">
        <ele>1495</ele>
        <time>2019-04-19T10:14:42Z</time>
      </trkpt>
      <trkpt lat="45.67533" lon="6.75008">
        <ele>1493</ele>
        <time>2019-04-19T10:15:42Z</time>
      </trkpt>
      <trkpt lat="45.67479" lon="6.75074">
        <ele>1484</ele>
        <time>2019-04-19T10:16:42Z</time>
      </trkpt>
      <trkpt lat="45.67438" lon="6.75129">
        <ele>1482</ele>
        <time>2019-04-19T10:17:42Z</time>
      </trkpt>
      <trkpt lat="45.67423" lon="6.75155">
        <ele>1480</ele>
        <time>2019-04-19T10:18:42Z</time>
      </trkpt>
      <trkpt lat="45.67416" lon="6.75184">
        <ele>1479</ele>
        <time>2019-04-19T10:19:42Z</time>
      </trkpt>
      <trkpt lat="45.67412" lon="6.75213">
        <ele>1478</ele>
        <time>2019-04-19T10:20:42Z</time>
      </trkpt>
      <trkpt lat="45.6741" lon="6.75251">
        <ele>1477</ele>
        <time>2019-04-19T10:21:42Z</time>
      </trkpt>
      <trkpt lat="45.67415" lon="6.75323">
        <ele>1480</ele>
        <time>2019-04-19T10:22:42Z</time>
      </trkpt>
      <trkpt lat="45.67415" lon="6.75353">
        <ele>1483</ele>
        <time>2019-04-19T10:23:42Z</time>
      </trkpt>
      <trkpt lat="45.67413" lon="6.75371">
        <ele>1486</ele>
        <time>2019-04-19T10:24:42Z</time>
      </trkpt>
      <trkpt lat="45.674" lon="6.75415">
        <ele>1487</ele>
        <time>2019-04-19T10:25:42Z</time>
      </trkpt>
      <trkpt lat="45.67384" lon="6.75453">
        <ele>1486</ele>
        <time>2019-04-19T10:26:42Z</time>
      </trkpt>
      <trkpt lat="45.6737" lon="6.75476">
        <ele>1484</ele>
        <time>2019-04-19T10:27:42Z</time>
      </trkpt>
      <trkpt lat="45.67351" lon="6.75498">
        <ele>1479</ele>
        <time>2019-04-19T10:28:42Z</time>
      </trkpt>
      <trkpt lat="45.67332" lon="6.75524">
        <ele>1476</ele>
        <time>2019-04-19T10:29:42Z</time>
      </trkpt>
      <trkpt lat="45.67312" lon="6.75574">
        <ele>1480</ele>
        <time>2019-04-19T10:30:42Z</time>
      </trkpt>
      <trkpt lat="45.67294" lon="6.75629">
        <ele>1485</ele>
        <time>2019-04-19T10:31:42Z</time>
      </trkpt>
      <trkpt lat="45.67282" lon="6.75652">
        <ele>1486</ele>
        <time>2019-04-19T10:32:42Z</time>
      </trkpt>
      <trkpt lat="45.6724" lon="6.7571">
        <ele>1484</ele>
        <time>2019-04-19T10:33:42Z</time>
      </trkpt>
      <trkpt lat="45.67212" lon="6.75735">
        <ele>1482</ele>
        <time>2019-04-19T10:34:42Z</time>
      </trkpt>
      <trkpt lat="45.67176" lon="6.75752">
        <ele>1476</ele>
        <time>2019-04-19T10:35:42Z</time>
      </trkpt>
      <trkpt lat="45.67165" lon="6.75754">
        <ele>1474</ele>
        <time>2019-04-19T10:36:42Z</time>
      </trkpt>
      <trkpt lat="45.67146" lon="6.75748">
        <ele>1471</ele>
        <time>2019-04-19T10:37:42Z</time>
      </trkpt>
      <trkpt lat="45.67133" lon="6.75747">
        <ele>1469</ele>
        <time>2019-04-19T10:38:42Z</time>
      </trkpt>
      <trkpt lat="45.67125" lon="6.75748">
        <ele>1468</ele>
        <time>2019-04-19T10:39:42Z</time>
      </trkpt>
      <trkpt lat="45.67117" lon="6.75754">
        <ele>1467</ele>
        <time>2019-04-19T10:40:42Z</time>
      </trkpt>
      <trkpt lat="45.6711" lon="6.75762">
        <ele>1467</ele>
        <time>2019-04-19T10:41:42Z</time>
      </trkpt>
      <trkpt lat="45.67102" lon="6.75774">
        <ele>1467</ele>
        <time>2019-04-19T10:42:42Z</time>
      </trkpt>
      <trkpt lat="45.67067" lon="6.75848">
        <ele>1464</ele>
        <time>2019-04-19T10:43:42Z</time>
      </trkpt>
      <trkpt lat="45.67053" lon="6.75875">
        <ele>1458</ele>
        <time>2019-04-19T10:44:42Z</time>
      </trkpt>
      <trkpt lat="45.67046" lon="6.75894">
        <ele>1455</ele>
        <time>2019-04-19T10:45:42Z</time>
      </trkpt>
      <trkpt lat="45.67044" lon="6.75903">
        <ele>1453</ele>
        <time>2019-04-19T10:46:42Z</time>
      </trkpt>
      <trkpt lat="45.67045" lon="6.75912">
        <ele>1453</ele>
        <time>2019-04-19T10:47:42Z</time>
      </trkpt>
      <trkpt lat="45.67048" lon="6.7592">
        <ele>1454</ele>
        <time>2019-04-19T10:48:42Z</time>
      </trkpt>
      <trkpt lat="45.67085" lon="6.75961">
        <ele>1464</ele>
        <time>2019-04-19T10:49:42Z</time>
      </trkpt>
      <trkpt lat="45.67099" lon="6.7598">
        <ele>1465</ele>
        <time>2019-04-19T10:50:42Z</time>
      </trkpt>
      <trkpt lat="45.67104" lon="6.75991">
        <ele>1465</ele>
        <time>2019-04-19T10:51:42Z</time>
      </trkpt>
      <trkpt lat="45.67106" lon="6.76005">
        <ele>1464</ele>
        <time>2019-04-19T10:52:42Z</time>
      </trkpt>
      <trkpt lat="45.67106" lon="6.76021">
        <ele>1461</ele>
        <time>2019-04-19T10:53:42Z</time>
      </trkpt>
      <trkpt lat="45.67108" lon="6.76038">
        <ele>1459</ele>
        <time>2019-04-19T10:54:42Z</time>
      </trkpt>
      <trkpt lat="45.67124" lon="6.76099">
        <ele>1459</ele>
        <time>2019-04-19T10:55:42Z</time>
      </trkpt>
      <trkpt lat="45.67126" lon="6.76124">
        <ele>1456</ele>
        <time>2019-04-19T10:56:42Z</time>
      </trkpt>
      <trkpt lat="45.67122" lon="6.76263">
        <ele>1441</ele>
        <time>2019-04-19T10:57:42Z</time>
      </trkpt>
      <trkpt lat="45.67119" lon="6.76289">
        <ele>1439</ele>
        <time>2019-04-19T10:58:42Z</time>
      </trkpt>
      <trkpt lat="45.67107" lon="6.7635">
        <ele>1430</ele>
        <time>2019-04-19T10:59:42Z</time>
      </trkpt>
      <trkpt lat="45.67107" lon="6.76364">
        <ele>1430</ele>
        <time>2019-04-19T11:00:42Z</time>
      </trkpt>
      <trkpt lat="45.67111" lon="6.76426">
        <ele>1433</ele>
        <time>2019-04-19T11:01:42Z</time>
      </trkpt>
      <trkpt lat="45.6712" lon="6.76475">
        <ele>1437</ele>
        <time>2019-04-19T11:02:42Z</time>
      </trkpt>
      <trkpt lat="45.67119" lon="6.76496">
        <ele>1436</ele>
        <time>2019-04-19T11:03:42Z</time>
      </trkpt>
      <trkpt lat="45.67112" lon="6.76524">
        <ele>1431</ele>
        <time>2019-04-19T11:04:42Z</time>
      </trkpt>
      <trkpt lat="45.67109" lon="6.76565">
        <ele>1429</ele>
        <time>2019-04-19T11:05:42Z</time>
      </trkpt>
      <trkpt lat="45.67107" lon="6.76618">
        <ele>1428</ele>
        <time>2019-04-19T11:06:42Z</time>
      </trkpt>
      <trkpt lat="45.67101" lon="6.76681">
        <ele>1425</ele>
        <time>2019-04-19T11:07:42Z</time>
      </trkpt>
      <trkpt lat="45.671" lon="6.76795">
        <ele>1422</ele>
        <time>2019-04-19T11:08:42Z</time>
      </trkpt>
      <trkpt lat="45.67088" lon="6.76867">
        <ele>1416</ele>
        <time>2019-04-19T11:09:42Z</time>
      </trkpt>
      <trkpt lat="45.67078" lon="6.76912">
        <ele>1414</ele>
        <time>2019-04-19T11:10:42Z</time>
      </trkpt>
      <trkpt lat="45.67063" lon="6.76949">
        <ele>1410</ele>
        <time>2019-04-19T11:11:42Z</time>
      </trkpt>
      <trkpt lat="45.67036" lon="6.76987">
        <ele>1399</ele>
        <time>2019-04-19T11:12:42Z</time>
      </trkpt>
      <trkpt lat="45.6702" lon="6.77018">
        <ele>1391</ele>
        <time>2019-04-19T11:13:42Z</time>
      </trkpt>
      <trkpt lat="45.67016" lon="6.77031">
        <ele>1388</ele>
        <time>2019-04-19T11:14:42Z</time>
      </trkpt>
      <trkpt lat="45.67015" lon="6.77042">
        <ele>1387</ele>
        <time>2019-04-19T11:15:42Z</time>
      </trkpt>
      <trkpt lat="45.67018" lon="6.77055">
        <ele>1388</ele>
        <time>2019-04-19T11:16:42Z</time>
      </trkpt>
      <trkpt lat="45.67034" lon="6.77077">
        <ele>1398</ele>
        <time>2019-04-19T11:17:42Z</time>
      </trkpt>
      <trkpt lat="45.67035" lon="6.77082">
        <ele>1398</ele>
        <time>2019-04-19T11:18:42Z</time>
      </trkpt>
      <trkpt lat="45.67035" lon="6.77093">
        <ele>1397</ele>
        <time>2019-04-19T11:19:42Z</time>
      </trkpt>
      <trkpt lat="45.67034" lon="6.771">
        <ele>1396</ele>
        <time>2019-04-19T11:20:42Z</time>
      </trkpt>
      <trkpt lat="45.67023" lon="6.77114">
        <ele>1389</ele>
        <time>2019-04-19T11:21:42Z</time>
      </trkpt>
      <trkpt lat="45.67018" lon="6.77127">
        <ele>1385</ele>
        <time>2019-04-19T11:22:42Z</time>
      </trkpt>
      <trkpt lat="45.67009" lon="6.77183">
        <ele>1377</ele>
        <time>2019-04-19T11:23:42Z</time>
      </trkpt>
      <trkpt lat="45.67008" lon="6.77215">
        <ele>1375</ele>
        <time>2019-04-19T11:24:42Z</time>
      </trkpt>
      <trkpt lat="45.6701" lon="6.77266">
        <ele>1375</ele>
        <time>2019-04-19T11:25:42Z</time>
      </trkpt>
      <trkpt lat="45.67008" lon="6.77283">
        <ele>1375</ele>
        <time>2019-04-19T11:26:42Z</time>
      </trkpt>
      <trkpt lat="45.67007" lon="6.77325">
        <ele>1375</ele>
        <time>2019-04-19T11:27:42Z</time>
      </trkpt>
      <trkpt lat="45.66999" lon="6.77366">
        <ele>1372</ele>
        <time>2019-04-19T11:28:42Z</time>
      </trkpt>
      <trkpt lat="45.66991" lon="6.77392">
        <ele>1369</ele>
        <time>2019-04-19T11:29:42Z</time>
      </trkpt>
      <trkpt lat="45.66984" lon="6.77421">
        <ele>1366</ele>
        <time>2019-04-19T11:30:42Z</time>
      </trkpt>
      <trkpt lat="45.66982" lon="6.77437">
        <ele>1366</ele>
        <time>2019-04-19T11:31:42Z</time>
      </trkpt>
      <trkpt lat="45.6698" lon="6.77442">
        <ele>1365</ele>
        <time>2019-04-19T11:32:42Z</time>
      </trkpt>
      <trkpt lat="45.66976" lon="6.77442">
        <ele>1362</ele>
        <time>2019-04-19T11:33:42Z</time>
      </trkpt>
      <trkpt lat="45.66973" lon="6.77439">
        <ele>1361</ele>
        <time>2019-04-19T11:34:42Z</time>
      </trkpt>
      <trkpt lat="45.66973" lon="6.77434">
        <ele>1361</ele>
        <time>2019-04-19T11:35:42Z</time>
      </trkpt>
      <trkpt lat="45.66977" lon="6.77402">
        <ele>1362</ele>
        <time>2019-04-19T11:36:42Z</time>
      </trkpt>
      <trkpt lat="45.66976" lon="6.77373">
        <ele>1361</ele>
        <time>2019-04-19T11:37:42Z</time>
      </trkpt>
      <trkpt lat="45.66963" lon="6.77246">
        <ele>1354</ele>
        <time>2019-04-19T11:38:42Z</time>
      </trkpt>
      <trkpt lat="45.66963" lon="6.77201">
        <ele>1353</ele>
        <time>2019-04-19T11:39:42Z</time>
      </trkpt>
      <trkpt lat="45.66968" lon="6.77173">
        <ele>1355</ele>
        <time>2019-04-19T11:40:42Z</time>
      </trkpt>
      <trkpt lat="45.66965" lon="6.77164">
        <ele>1353</ele>
        <time>2019-04-19T11:41:42Z</time>
      </trkpt>
      <trkpt lat="45.66959" lon="6.77166">
        <ele>1350</ele>
        <time>2019-04-19T11:42:42Z</time>
      </trkpt>
      <trkpt lat="45.66956" lon="6.77171">
        <ele>1348</ele>
        <time>2019-04-19T11:43:42Z</time>
      </trkpt>
      <trkpt lat="45.66951" lon="6.77193">
        <ele>1347</ele>
        <time>2019-04-19T11:44:42Z</time>
      </trkpt>
      <trkpt lat="45.66931" lon="6.77237">
        <ele>1340</ele>
        <time>2019-04-19T11:45:42Z</time>
      </trkpt>
      <trkpt lat="45.66927" lon="6.77257">
        <ele>1339</ele>
        <time>2019-04-19T11:46:42Z</time>
      </trkpt>
      <trkpt lat="45.66925" lon="6.77337">
        <ele>1335</ele>
        <time>2019-04-19T11:47:42Z</time>
      </trkpt>
      <trkpt lat="45.6693" lon="6.77399">
        <ele>1337</ele>
        <time>2019-04-19T11:48:42Z</time>
      </trkpt>
      <trkpt lat="45.66929" lon="6.77406">
        <ele>1337</ele>
        <time>2019-04-19T11:49:42Z</time>
      </trkpt>
      <trkpt lat="45.66926" lon="6.77413">
        <ele>1335</ele>
        <time>2019-04-19T11:50:42Z</time>
      </trkpt>
      <trkpt lat="45.66923" lon="6.77413">
        <ele>1333</ele>
        <time>2019-04-19T11:51:42Z</time>
      </trkpt>
      <trkpt lat="45.6692" lon="6.77408">
        <ele>1332</ele>
        <time>2019-04-19T11:52:42Z</time>
      </trkpt>
      <trkpt lat="45.66918" lon="6.77383">
        <ele>1331</ele>
        <time>2019-04-19T11:53:42Z</time>
      </trkpt>
      <trkpt lat="45.66899" lon="6.77312">
        <ele>1323</ele>
        <time>2019-04-19T11:54:42Z</time>
      </trkpt>
      <trkpt lat="45.66893" lon="6.77267">
        <ele>1322</ele>
        <time>2019-04-19T11:55:42Z</time>
      </trkpt>
      <trkpt lat="45.66889" lon="6.77187">
        <ele>1313</ele>
        <time>2019-04-19T11:56:42Z</time>
      </trkpt>
      <trkpt lat="45.66886" lon="6.77181">
        <ele>1311</ele>
        <time>2019-04-19T11:57:42Z</time>
      </trkpt>
      <trkpt lat="45.66882" lon="6.77184">
        <ele>1309</ele>
        <time>2019-04-19T11:58:42Z</time>
      </trkpt>
      <trkpt lat="45.66878" lon="6.77202">
        <ele>1310</ele>
        <time>2019-04-19T11:59:42Z</time>
      </trkpt>
      <trkpt lat="45.66864" lon="6.77302">
        <ele>1305</ele>
        <time>2019-04-19T12:00:42Z</time>
      </trkpt>
      <trkpt lat="45.66864" lon="6.77386">
        <ele>1301</ele>
        <time>2019-04-19T12:01:42Z</time>
      </trkpt>
      <trkpt lat="45.66861" lon="6.77427">
        <ele>1298</ele>
        <time>2019-04-19T12:02:42Z</time>
      </trkpt>
      <trkpt lat="45.66869" lon="6.77452">
        <ele>1303</ele>
        <time>2019-04-19T12:03:42Z</time>
      </trkpt>
      <trkpt lat="45.66875" lon="6.77465">
        <ele>1306</ele>
        <time>2019-04-19T12:04:42Z</time>
      </trkpt>
      <trkpt lat="45.66877" lon="6.77482">
        <ele>1308</ele>
        <time>2019-04-19T12:05:42Z</time>
      </trkpt>
      <trkpt lat="45.66862" lon="6.77534">
        <ele>1305</ele>
        <time>2019-04-19T12:06:42Z</time>
      </trkpt>
      <trkpt lat="45.66856" lon="6.77542">
        <ele>1303</ele>
        <time>2019-04-19T12:07:42Z</time>
      </trkpt>
      <trkpt lat="45.66853" lon="6.77541">
        <ele>1301</ele>
        <time>2019-04-19T12:08:42Z</time>
      </trkpt>
      <trkpt lat="45.66851" lon="6.77536">
        <ele>1299</ele>
        <time>2019-04-19T12:09:42Z</time>
      </trkpt>
      <trkpt lat="45.66851" lon="6.77528">
        <ele>1297</ele>
        <time>2019-04-19T12:10:42Z</time>
      </trkpt>
      <trkpt lat="45.6686" lon="6.7749">
        <ele>1298</ele>
        <time>2019-04-19T12:11:42Z</time>
      </trkpt>
      <trkpt lat="45.66859" lon="6.77473">
        <ele>1297</ele>
        <time>2019-04-19T12:12:42Z</time>
      </trkpt>
      <trkpt lat="45.66853" lon="6.77459">
        <ele>1294</ele>
        <time>2019-04-19T12:13:42Z</time>
      </trkpt>
      <trkpt lat="45.66842" lon="6.77446">
        <ele>1287</ele>
        <time>2019-04-19T12:14:42Z</time>
      </trkpt>
      <trkpt lat="45.66828" lon="6.77421">
        <ele>1279</ele>
        <time>2019-04-19T12:15:42Z</time>
      </trkpt>
      <trkpt lat="45.66825" lon="6.77406">
        <ele>1278</ele>
        <time>2019-04-19T12:16:42Z</time>
      </trkpt>
      <trkpt lat="45.66821" lon="6.77359">
        <ele>1279</ele>
        <time>2019-04-19T12:17:42Z</time>
      </trkpt>
      <trkpt lat="45.66817" lon="6.77342">
        <ele>1277</ele>
        <time>2019-04-19T12:18:42Z</time>
      </trkpt>
      <trkpt lat="45.66802" lon="6.77298">
        <ele>1273</ele>
        <time>2019-04-19T12:19:42Z</time>
      </trkpt>
      <trkpt lat="45.66798" lon="6.77281">
        <ele>1272</ele>
        <time>2019-04-19T12:20:42Z</time>
      </trkpt>
      <trkpt lat="45.66798" lon="6.77256">
        <ele>1274</ele>
        <time>2019-04-19T12:21:42Z</time>
      </trkpt>
      <trkpt lat="45.66808" lon="6.77227">
        <ele>1277</ele>
        <time>2019-04-19T12:22:42Z</time>
      </trkpt>
      <trkpt lat="45.66812" lon="6.77212">
        <ele>1277</ele>
        <time>2019-04-19T12:23:42Z</time>
      </trkpt>
      <trkpt lat="45.66813" lon="6.7718">
        <ele>1273</ele>
        <time>2019-04-19T12:24:42Z</time>
      </trkpt>
      <trkpt lat="45.6681" lon="6.77168">
        <ele>1270</ele>
        <time>2019-04-19T12:25:42Z</time>
      </trkpt>
      <trkpt lat="45.66807" lon="6.77168">
        <ele>1269</ele>
        <time>2019-04-19T12:26:42Z</time>
      </trkpt>
      <trkpt lat="45.66804" lon="6.7717">
        <ele>1267</ele>
        <time>2019-04-19T12:27:42Z</time>
      </trkpt>
      <trkpt lat="45.66799" lon="6.7721">
        <ele>1270</ele>
        <time>2019-04-19T12:28:42Z</time>
      </trkpt>
      <trkpt lat="45.66796" lon="6.77218">
        <ele>1269</ele>
        <time>2019-04-19T12:29:42Z</time>
      </trkpt>
      <trkpt lat="45.66767" lon="6.77233">
        <ele>1256</ele>
        <time>2019-04-19T12:30:42Z</time>
      </trkpt>
      <trkpt lat="45.66761" lon="6.77239">
        <ele>1254</ele>
        <time>2019-04-19T12:31:42Z</time>
      </trkpt>
      <trkpt lat="45.6676" lon="6.77246">
        <ele>1254</ele>
        <time>2019-04-19T12:32:42Z</time>
      </trkpt>
      <trkpt lat="45.6676" lon="6.77259">
        <ele>1254</ele>
        <time>2019-04-19T12:33:42Z</time>
      </trkpt>
      <trkpt lat="45.66762" lon="6.77275">
        <ele>1254</ele>
        <time>2019-04-19T12:34:42Z</time>
      </trkpt>
      <trkpt lat="45.66761" lon="6.77325">
        <ele>1251</ele>
        <time>2019-04-19T12:35:42Z</time>
      </trkpt>
      <trkpt lat="45.66764" lon="6.77371">
        <ele>1249</ele>
        <time>2019-04-19T12:36:42Z</time>
      </trkpt>
      <trkpt lat="45.66775" lon="6.77436">
        <ele>1251</ele>
        <time>2019-04-19T12:37:42Z</time>
      </trkpt>
      <trkpt lat="45.66786" lon="6.77473">
        <ele>1258</ele>
        <time>2019-04-19T12:38:42Z</time>
      </trkpt>
      <trkpt lat="45.66786" lon="6.77484">
        <ele>1258</ele>
        <time>2019-04-19T12:39:42Z</time>
      </trkpt>
      <trkpt lat="45.66783" lon="6.77485">
        <ele>1256</ele>
        <time>2019-04-19T12:40:42Z</time>
      </trkpt>
      <trkpt lat="45.6678" lon="6.77486">
        <ele>1255</ele>
        <time>2019-04-19T12:41:42Z</time>
      </trkpt>
      <trkpt lat="45.66778" lon="6.77484">
        <ele>1254</ele>
        <time>2019-04-19T12:42:42Z</time>
      </trkpt>
      <trkpt lat="45.66768" lon="6.77439">
        <ele>1248</ele>
        <time>2019-04-19T12:43:42Z</time>
      </trkpt>
      <trkpt lat="45.66762" lon="6.77423">
        <ele>1244</ele>
        <time>2019-04-19T12:44:42Z</time>
      </trkpt>
      <trkpt lat="45.66756" lon="6.77412">
        <ele>1242</ele>
        <time>2019-04-19T12:45:42Z</time>
      </trkpt>
      <trkpt lat="45.6674" lon="6.77387">
        <ele>1237</ele>
        <time>2019-04-19T12:46:42Z</time>
      </trkpt>
      <trkpt lat="45.66735" lon="6.77376">
        <ele>1236</ele>
        <time>2019-04-19T12:47:42Z</time>
      </trkpt>
      <trkpt lat="45.66732" lon="6.77364">
        <ele>1235</ele>
        <time>2019-04-19T12:48:42Z</time>
      </trkpt>
      <trkpt lat="45.66733" lon="6.77318">
        <ele>1238</ele>
        <time>2019-04-19T12:49:42Z</time>
      </trkpt>
      <trkpt lat="45.66729" lon="6.77301">
        <ele>1237</ele>
        <time>2019-04-19T12:50:42Z</time>
      </trkpt>
      <trkpt lat="45.66715" lon="6.77277">
        <ele>1232</ele>
        <time>2019-04-19T12:51:42Z</time>
      </trkpt>
      <trkpt lat="45.66712" lon="6.77255">
        <ele>1232</ele>
        <time>2019-04-19T12:52:42Z</time>
      </trkpt>
      <trkpt lat="45.66714" lon="6.77219">
        <ele>1233</ele>
        <time>2019-04-19T12:53:42Z</time>
      </trkpt>
      <trkpt lat="45.66712" lon="6.77215">
        <ele>1232</ele>
        <time>2019-04-19T12:54:42Z</time>
      </trkpt>
      <trkpt lat="45.66707" lon="6.77214">
        <ele>1230</ele>
        <time>2019-04-19T12:55:42Z</time>
      </trkpt>
      <trkpt lat="45.66705" lon="6.77217">
        <ele>1229</ele>
        <time>2019-04-19T12:56:42Z</time>
      </trkpt>
      <trkpt lat="45.66702" lon="6.77244">
        <ele>1228</ele>
        <time>2019-04-19T12:57:42Z</time>
      </trkpt>
      <trkpt lat="45.66682" lon="6.77314">
        <ele>1216</ele>
        <time>2019-04-19T12:58:42Z</time>
      </trkpt>
      <trkpt lat="45.66681" lon="6.77334">
        <ele>1215</ele>
        <time>2019-04-19T12:59:42Z</time>
      </trkpt>
      <trkpt lat="45.66684" lon="6.77367">
        <ele>1216</ele>
        <time>2019-04-19T13:00:42Z</time>
      </trkpt>
      <trkpt lat="45.66696" lon="6.77391">
        <ele>1220</ele>
        <time>2019-04-19T13:01:42Z</time>
      </trkpt>
      <trkpt lat="45.66701" lon="6.77404">
        <ele>1221</ele>
        <time>2019-04-19T13:02:42Z</time>
      </trkpt>
      <trkpt lat="45.66705" lon="6.77422">
        <ele>1222</ele>
        <time>2019-04-19T13:03:42Z</time>
      </trkpt>
      <trkpt lat="45.66704" lon="6.77453">
        <ele>1223</ele>
        <time>2019-04-19T13:04:42Z</time>
      </trkpt>
      <trkpt lat="45.66694" lon="6.77486">
        <ele>1220</ele>
        <time>2019-04-19T13:05:42Z</time>
      </trkpt>
      <trkpt lat="45.66682" lon="6.77511">
        <ele>1217</ele>
        <time>2019-04-19T13:06:42Z</time>
      </trkpt>
      <trkpt lat="45.66671" lon="6.77542">
        <ele>1214</ele>
        <time>2019-04-19T13:07:42Z</time>
      </trkpt>
      <trkpt lat="45.66656" lon="6.77598">
        <ele>1212</ele>
        <time>2019-04-19T13:08:42Z</time>
      </trkpt>
      <trkpt lat="45.66653" lon="6.77603">
        <ele>1212</ele>
        <time>2019-04-19T13:09:42Z</time>
      </trkpt>
      <trkpt lat="45.66647" lon="6.77602">
        <ele>1210</ele>
        <time>2019-04-19T13:10:42Z</time>
      </trkpt>
      <trkpt lat="45.66645" lon="6.77597">
        <ele>1208</ele>
        <time>2019-04-19T13:11:42Z</time>
      </trkpt>
      <trkpt lat="45.66642" lon="6.77564">
        <ele>1205</ele>
        <time>2019-04-19T13:12:42Z</time>
      </trkpt>
      <trkpt lat="45.66633" lon="6.77547">
        <ele>1201</ele>
        <time>2019-04-19T13:13:42Z</time>
      </trkpt>
      <trkpt lat="45.66616" lon="6.77524">
        <ele>1194</ele>
        <time>2019-04-19T13:14:42Z</time>
      </trkpt>
      <trkpt lat="45.66612" lon="6.77514">
        <ele>1192</ele>
        <time>2019-04-19T13:15:42Z</time>
      </trkpt>
      <trkpt lat="45.66611" lon="6.77508">
        <ele>1191</ele>
        <time>2019-04-19T13:16:42Z</time>
      </trkpt>
      <trkpt lat="45.66611" lon="6.77496">
        <ele>1191</ele>
        <time>2019-04-19T13:17:42Z</time>
      </trkpt>
      <trkpt lat="45.66621" lon="6.77459">
        <ele>1195</ele>
        <time>2019-04-19T13:18:42Z</time>
      </trkpt>
      <trkpt lat="45.66621" lon="6.77449">
        <ele>1195</ele>
        <time>2019-04-19T13:19:42Z</time>
      </trkpt>
      <trkpt lat="45.66619" lon="6.77443">
        <ele>1194</ele>
        <time>2019-04-19T13:20:42Z</time>
      </trkpt>
      <trkpt lat="45.66613" lon="6.77439">
        <ele>1193</ele>
        <time>2019-04-19T13:21:42Z</time>
      </trkpt>
      <trkpt lat="45.66609" lon="6.77441">
        <ele>1191</ele>
        <time>2019-04-19T13:22:42Z</time>
      </trkpt>
      <trkpt lat="45.66601" lon="6.77447">
        <ele>1189</ele>
        <time>2019-04-19T13:23:42Z</time>
      </trkpt>
      <trkpt lat="45.6659" lon="6.77462">
        <ele>1185</ele>
        <time>2019-04-19T13:24:42Z</time>
      </trkpt>
      <trkpt lat="45.66543" lon="6.77553">
        <ele>1177</ele>
        <time>2019-04-19T13:25:42Z</time>
      </trkpt>
      <trkpt lat="45.66532" lon="6.77581">
        <ele>1174</ele>
        <time>2019-04-19T13:26:42Z</time>
      </trkpt>
      <trkpt lat="45.66504" lon="6.7768">
        <ele>1177</ele>
        <time>2019-04-19T13:27:42Z</time>
      </trkpt>
      <trkpt lat="45.66494" lon="6.77702">
        <ele>1177</ele>
        <time>2019-04-19T13:28:42Z</time>
      </trkpt>
      <trkpt lat="45.66476" lon="6.77729">
        <ele>1175</ele>
        <time>2019-04-19T13:29:42Z</time>
      </trkpt>
      <trkpt lat="45.66459" lon="6.77743">
        <ele>1171</ele>
        <time>2019-04-19T13:30:42Z</time>
      </trkpt>
      <trkpt lat="45.66433" lon="6.77768">
        <ele>1167</ele>
        <time>2019-04-19T13:31:42Z</time>
      </trkpt>
      <trkpt lat="45.66394" lon="6.77798">
        <ele>1167</ele>
        <time>2019-04-19T13:32:42Z</time>
      </trkpt>
      <trkpt lat="45.66372" lon="6.7782">
        <ele>1166</ele>
        <time>2019-04-19T13:33:42Z</time>
      </trkpt>
      <trkpt lat="45.66343" lon="6.77858">
        <ele>1166</ele>
        <time>2019-04-19T13:34:42Z</time>
      </trkpt>
      <trkpt lat="45.66321" lon="6.77904">
        <ele>1167</ele>
        <time>2019-04-19T13:35:42Z</time>
      </trkpt>
      <trkpt lat="45.66311" lon="6.77914">
        <ele>1166</ele>
        <time>2019-04-19T13:36:42Z</time>
      </trkpt>
      <trkpt lat="45.66298" lon="6.77922">
        <ele>1164</ele>
        <time>2019-04-19T13:37:42Z</time>
      </trkpt>
      <trkpt lat="45.66287" lon="6.77924">
        <ele>1162</ele>
        <time>2019-04-19T13:38:42Z</time>
      </trkpt>
      <trkpt lat="45.66259" lon="6.77921">
        <ele>1154</ele>
        <time>2019-04-19T13:39:42Z</time>
      </trkpt>
      <trkpt lat="45.66244" lon="6.77927">
        <ele>1153</ele>
        <time>2019-04-19T13:40:42Z</time>
      </trkpt>
      <trkpt lat="45.66235" lon="6.7794">
        <ele>1155</ele>
        <time>2019-04-19T13:41:42Z</time>
      </trkpt>
      <trkpt lat="45.66204" lon="6.77989">
        <ele>1153</ele>
        <time>2019-04-19T13:42:42Z</time>
      </trkpt>
      <trkpt lat="45.66191" lon="6.78002">
        <ele>1150</ele>
        <time>2019-04-19T13:43:42Z</time>
      </trkpt>
      <trkpt lat="45.66156" lon="6.7803">
        <ele>1149</ele>
        <time>2019-04-19T13:44:42Z</time>
      </trkpt>
      <trkpt lat="45.66119" lon="6.78054">
        <ele>1147</ele>
        <time>2019-04-19T13:45:42Z</time>
      </trkpt>
      <trkpt lat="45.66103" lon="6.78068">
        <ele>1144</ele>
        <time>2019-04-19T13:46:42Z</time>
      </trkpt>
      <trkpt lat="45.66069" lon="6.78116">
        <ele>1143</ele>
        <time>2019-04-19T13:47:42Z</time>
      </trkpt>
      <trkpt lat="45.6605" lon="6.78148">
        <ele>1144</ele>
        <time>2019-04-19T13:48:42Z</time>
      </trkpt>
      <trkpt lat="45.66038" lon="6.78163">
        <ele>1142</ele>
        <time>2019-04-19T13:49:42Z</time>
      </trkpt>
      <trkpt lat="45.66022" lon="6.78172">
        <ele>1139</ele>
        <time>2019-04-19T13:50:42Z</time>
      </trkpt>
      <trkpt lat="45.66007" lon="6.78171">
        <ele>1135</ele>
        <time>2019-04-19T13:51:42Z</time>
      </trkpt>
      <trkpt lat="45.65987" lon="6.78165">
        <ele>1130</ele>
        <time>2019-04-19T13:52:42Z</time>
      </trkpt>
      <trkpt lat="45.65969" lon="6.78167">
        <ele>1127</ele>
        <time>2019-04-19T13:53:42Z</time>
      </trkpt>
      <trkpt lat="45.65932" lon="6.7818">
        <ele>1124</ele>
        <time>2019-04-19T13:54:42Z</time>
      </trkpt>
      <trkpt lat="45.65879" lon="6.78254">
        <ele>1120</ele>
        <time>2019-04-19T13:55:42Z</time>
      </trkpt>
      <trkpt lat="45.65864" lon="6.78267">
        <ele>1120</ele>
        <time>2019-04-19T13:56:42Z</time>
      </trkpt>
      <trkpt lat="45.65843" lon="6.78279">
        <ele>1117</ele>
        <time>2019-04-19T13:57:42Z</time>
      </trkpt>
      <trkpt lat="45.65777" lon="6.78302">
        <ele>1109</ele>
        <time>2019-04-19T13:58:42Z</time>
      </trkpt>
      <trkpt lat="45.65752" lon="6.78314">
        <ele>1103</ele>
        <time>2019-04-19T13:59:42Z</time>
      </trkpt>
      <trkpt lat="45.65645" lon="6.7839">
        <ele>1099</ele>
        <time>2019-04-19T14:00:42Z</time>
      </trkpt>
      <trkpt lat="45.65566" lon="6.78484">
        <ele>1090</ele>
        <time>2019-04-19T14:01:42Z</time>
      </trkpt>
      <trkpt lat="45.65509" lon="6.78541">
        <ele>1083</ele>
        <time>2019-04-19T14:02:42Z</time>
      </trkpt>
      <trkpt lat="45.6545" lon="6.78605">
        <ele>1078</ele>
        <time>2019-04-19T14:03:42Z</time>
      </trkpt>
      <trkpt lat="45.65388" lon="6.7866">
        <ele>1070</ele>
        <time>2019-04-19T14:04:42Z</time>
      </trkpt>
      <trkpt lat="45.65357" lon="6.78683">
        <ele>1068</ele>
        <time>2019-04-19T14:05:42Z</time>
      </trkpt>
      <trkpt lat="45.65336" lon="6.78695">
        <ele>1066</ele>
        <time>2019-04-19T14:06:42Z</time>
      </trkpt>
      <trkpt lat="45.65277" lon="6.78693">
        <ele>1061</ele>
        <time>2019-04-19T14:07:42Z</time>
      </trkpt>
      <trkpt lat="45.65257" lon="6.78696">
        <ele>1059</ele>
        <time>2019-04-19T14:08:42Z</time>
      </trkpt>
      <trkpt lat="45.65176" lon="6.7874">
        <ele>1055</ele>
        <time>2019-04-19T14:09:42Z</time>
      </trkpt>
      <trkpt lat="45.65151" lon="6.78758">
        <ele>1050</ele>
        <time>2019-04-19T14:10:42Z</time>
      </trkpt>
      <trkpt lat="45.65132" lon="6.7877">
        <ele>1049</ele>
        <time>2019-04-19T14:11:42Z</time>
      </trkpt>
      <trkpt lat="45.65111" lon="6.78774">
        <ele>1045</ele>
        <time>2019-04-19T14:12:42Z</time>
      </trkpt>
      <trkpt lat="45.65027" lon="6.78781">
        <ele>1033</ele>
        <time>2019-04-19T14:13:42Z</time>
      </trkpt>
      <trkpt lat="45.64998" lon="6.78781">
        <ele>1030</ele>
        <time>2019-04-19T14:14:42Z</time>
      </trkpt>
      <trkpt lat="45.64982" lon="6.78776">
        <ele>1028</ele>
        <time>2019-04-19T14:15:42Z</time>
      </trkpt>
      <trkpt lat="45.6497" lon="6.7877">
        <ele>1025</ele>
        <time>2019-04-19T14:16:42Z</time>
      </trkpt>
      <trkpt lat="45.64939" lon="6.78748">
        <ele>1015</ele>
        <time>2019-04-19T14:17:42Z</time>
      </trkpt>
      <trkpt lat="45.64839" lon="6.78666">
        <ele>1012</ele>
        <time>2019-04-19T14:18:42Z</time>
      </trkpt>
      <trkpt lat="45.6478" lon="6.78632">
        <ele>1014</ele>
        <time>2019-04-19T14:19:42Z</time>
      </trkpt>
      <trkpt lat="45.64752" lon="6.78619">
        <ele>1015</ele>
        <time>2019-04-19T14:20:42Z</time>
      </trkpt>
      <trkpt lat="45.64722" lon="6.78608">
        <ele>1015</ele>
        <time>2019-04-19T14:21:42Z</time>
      </trkpt>
      <trkpt lat="45.64702" lon="6.78606">
        <ele>1014</ele>
        <time>2019-04-19T14:22:42Z</time>
      </trkpt>
      <trkpt lat="45.64656" lon="6.78612">
        <ele>1009</ele>
        <time>2019-04-19T14:23:42Z</time>
      </trkpt>
      <trkpt lat="45.64639" lon="6.7861">
        <ele>1008</ele>
        <time>2019-04-19T14:24:42Z</time>
      </trkpt>
      <trkpt lat="45.64609" lon="6.78603">
        <ele>1006</ele>
        <time>2019-04-19T14:25:42Z</time>
      </trkpt>
      <trkpt lat="45.64561" lon="6.78586">
        <ele>1009</ele>
        <time>2019-04-19T14:26:42Z</time>
      </trkpt>
      <trkpt lat="45.6454" lon="6.78585">
        <ele>1012</ele>
        <time>2019-04-19T14:27:42Z</time>
      </trkpt>
      <trkpt lat="45.6446" lon="6.78591">
        <ele>1012</ele>
        <time>2019-04-19T14:28:42Z</time>
      </trkpt>
      <trkpt lat="45.64366" lon="6.78612">
        <ele>1001</ele>
        <time>2019-04-19T14:29:42Z</time>
      </trkpt>
      <trkpt lat="45.64302" lon="6.7861">
        <ele>1005</ele>
        <time>2019-04-19T14:30:42Z</time>
      </trkpt>
      <trkpt lat="45.64251" lon="6.78618">
        <ele>1005</ele>
        <time>2019-04-19T14:31:42Z</time>
      </trkpt>
      <trkpt lat="45.64216" lon="6.78619">
        <ele>996</ele>
        <time>2019-04-19T14:32:42Z</time>
      </trkpt>
      <trkpt lat="45.64196" lon="6.78615">
        <ele>992</ele>
        <time>2019-04-19T14:33:42Z</time>
      </trkpt>
      <trkpt lat="45.64174" lon="6.78605">
        <ele>988</ele>
        <time>2019-04-19T14:34:42Z</time>
      </trkpt>
      <trkpt lat="45.64154" lon="6.7859">
        <ele>984</ele>
        <time>2019-04-19T14:35:42Z</time>
      </trkpt>
      <trkpt lat="45.64125" lon="6.78557">
        <ele>991</ele>
        <time>2019-04-19T14:36:42Z</time>
      </trkpt>
      <trkpt lat="45.64116" lon="6.7855">
        <ele>992</ele>
        <time>2019-04-19T14:37:42Z</time>
      </trkpt>
      <trkpt lat="45.64075" lon="6.78526">
        <ele>993</ele>
        <time>2019-04-19T14:38:42Z</time>
      </trkpt>
      <trkpt lat="45.64048" lon="6.78508">
        <ele>994</ele>
        <time>2019-04-19T14:39:42Z</time>
      </trkpt>
      <trkpt lat="45.64032" lon="6.78503">
        <ele>991</ele>
        <time>2019-04-19T14:40:42Z</time>
      </trkpt>
      <trkpt lat="45.64" lon="6.78508">
        <ele>979</ele>
        <time>2019-04-19T14:41:42Z</time>
      </trkpt>
      <trkpt lat="45.63989" lon="6.78507">
        <ele>977</ele>
        <time>2019-04-19T14:42:42Z</time>
      </trkpt>
      <trkpt lat="45.63983" lon="6.78504">
        <ele>977</ele>
        <time>2019-04-19T14:43:42Z</time>
      </trkpt>
      <trkpt lat="45.63961" lon="6.7849">
        <ele>979</ele>
        <time>2019-04-19T14:44:42Z</time>
      </trkpt>
      <trkpt lat="45.63946" lon="6.78479">
        <ele>982</ele>
        <time>2019-04-19T14:45:42Z</time>
      </trkpt>
      <trkpt lat="45.63912" lon="6.7844">
        <ele>994</ele>
        <time>2019-04-19T14:46:42Z</time>
      </trkpt>
      <trkpt lat="45.63901" lon="6.78436">
        <ele>995</ele>
        <time>2019-04-19T14:47:42Z</time>
      </trkpt>
      <trkpt lat="45.63889" lon="6.78439">
        <ele>993</ele>
        <time>2019-04-19T14:48:42Z</time>
      </trkpt>
      <trkpt lat="45.63862" lon="6.78452">
        <ele>984</ele>
        <time>2019-04-19T14:49:42Z</time>
      </trkpt>
      <trkpt lat="45.63846" lon="6.78455">
        <ele>980</ele>
        <time>2019-04-19T14:50:42Z</time>
      </trkpt>
      <trkpt lat="45.63829" lon="6.78457">
        <ele>979</ele>
        <time>2019-04-19T14:51:42Z</time>
      </trkpt>
      <trkpt lat="45.63802" lon="6.78446">
        <ele>988</ele>
        <time>2019-04-19T14:52:42Z</time>
      </trkpt>
      <trkpt lat="45.63794" lon="6.78446">
        <ele>989</ele>
        <time>2019-04-19T14:53:42Z</time>
      </trkpt>
      <trkpt lat="45.63729" lon="6.78466">
        <ele>988</ele>
        <time>2019-04-19T14:54:42Z</time>
      </trkpt>
      <trkpt lat="45.637" lon="6.78482">
        <ele>986</ele>
        <time>2019-04-19T14:55:42Z</time>
      </trkpt>
      <trkpt lat="45.63677" lon="6.78499">
        <ele>982</ele>
        <time>2019-04-19T14:56:42Z</time>
      </trkpt>
      <trkpt lat="45.63661" lon="6.78518">
        <ele>976</ele>
        <time>2019-04-19T14:57:42Z</time>
      </trkpt>
      <trkpt lat="45.63649" lon="6.78526">
        <ele>972</ele>
        <time>2019-04-19T14:58:42Z</time>
      </trkpt>
      <trkpt lat="45.63597" lon="6.78538">
        <ele>966</ele>
        <time>2019-04-19T14:59:42Z</time>
      </trkpt>
      <trkpt lat="45.63567" lon="6.78553">
        <ele>961</ele>
        <time>2019-04-19T15:00:42Z</time>
      </trkpt>
      <trkpt lat="45.63556" lon="6.78556">
        <ele>960</ele>
        <time>2019-04-19T15:01:42Z</time>
      </trkpt>
      <trkpt lat="45.63492" lon="6.78547">
        <ele>969</ele>
        <time>2019-04-19T15:02:42Z</time>
      </trkpt>
      <trkpt lat="45.63467" lon="6.78537">
        <ele>974</ele>
        <time>2019-04-19T15:03:42Z</time>
      </trkpt>
      <trkpt lat="45.63456" lon="6.78537">
        <ele>974</ele>
        <time>2019-04-19T15:04:42Z</time>
      </trkpt>
      <trkpt lat="45.6343" lon="6.78546">
        <ele>967</ele>
        <time>2019-04-19T15:05:42Z</time>
      </trkpt>
      <trkpt lat="45.63416" lon="6.78547">
        <ele>966</ele>
        <time>2019-04-19T15:06:42Z</time>
      </trkpt>
      <trkpt lat="45.63398" lon="6.78542">
        <ele>963</ele>
        <time>2019-04-19T15:07:42Z</time>
      </trkpt>
      <trkpt lat="45.6339" lon="6.78537">
        <ele>963</ele>
        <time>2019-04-19T15:08:42Z</time>
      </trkpt>
      <trkpt lat="45.63358" lon="6.78509">
        <ele>968</ele>
        <time>2019-04-19T15:09:42Z</time>
      </trkpt>
      <trkpt lat="45.63328" lon="6.78501">
        <ele>963</ele>
        <time>2019-04-19T15:10:42Z</time>
      </trkpt>
      <trkpt lat="45.63313" lon="6.78488">
        <ele>963</ele>
        <time>2019-04-19T15:11:42Z</time>
      </trkpt>
      <trkpt lat="45.63285" lon="6.78469">
        <ele>961</ele>
        <time>2019-04-19T15:12:42Z</time>
      </trkpt>
      <trkpt lat="45.63265" lon="6.7845">
        <ele>963</ele>
        <time>2019-04-19T15:13:42Z</time>
      </trkpt>
      <trkpt lat="45.63247" lon="6.78427">
        <ele>968</ele>
        <time>2019-04-19T15:14:42Z</time>
      </trkpt>
      <trkpt lat="45.63232" lon="6.78416">
        <ele>970</ele>
        <time>2019-04-19T15:15:42Z</time>
      </trkpt>
      <trkpt lat="45.63222" lon="6.78414">
        <ele>969</ele>
        <time>2019-04-19T15:16:42Z</time>
      </trkpt>
      <trkpt lat="45.6318" lon="6.78416">
        <ele>961</ele>
        <time>2019-04-19T15:17:42Z</time>
      </trkpt>
      <trkpt lat="45.63138" lon="6.78422">
        <ele>956</ele>
        <time>2019-04-19T15:18:42Z</time>
      </trkpt>
      <trkpt lat="45.63117" lon="6.78422">
        <ele>955</ele>
        <time>2019-04-19T15:19:42Z</time>
      </trkpt>
      <trkpt lat="45.63061" lon="6.78407">
        <ele>953</ele>
        <time>2019-04-19T15:20:42Z</time>
      </trkpt>
      <trkpt lat="45.63031" lon="6.78393">
        <ele>951</ele>
        <time>2019-04-19T15:21:42Z</time>
      </trkpt>
      <trkpt lat="45.63001" lon="6.78376">
        <ele>950</ele>
        <time>2019-04-19T15:22:42Z</time>
      </trkpt>
      <trkpt lat="45.62973" lon="6.78351">
        <ele>948</ele>
        <time>2019-04-19T15:23:42Z</time>
      </trkpt>
      <trkpt lat="45.62931" lon="6.78307">
        <ele>947</ele>
        <time>2019-04-19T15:24:42Z</time>
      </trkpt>
      <trkpt lat="45.62917" lon="6.78298">
        <ele>946</ele>
        <time>2019-04-19T15:25:42Z</time>
      </trkpt>
      <trkpt lat="45.62907" lon="6.78298">
        <ele>944</ele>
        <time>2019-04-19T15:26:42Z</time>
      </trkpt>
      <trkpt lat="45.62898" lon="6.78301">
        <ele>942</ele>
        <time>2019-04-19T15:27:42Z</time>
      </trkpt>
      <trkpt lat="45.62887" lon="6.78311">
        <ele>939</ele>
        <time>2019-04-19T15:28:42Z</time>
      </trkpt>
      <trkpt lat="45.6288" lon="6.78322">
        <ele>937</ele>
        <time>2019-04-19T15:29:42Z</time>
      </trkpt>
      <trkpt lat="45.62876" lon="6.78334">
        <ele>935</ele>
        <time>2019-04-19T15:30:42Z</time>
      </trkpt>
      <trkpt lat="45.62874" lon="6.78355">
        <ele>932</ele>
        <time>2019-04-19T15:31:42Z</time>
      </trkpt>
      <trkpt lat="45.62876" lon="6.78392">
        <ele>929</ele>
        <time>2019-04-19T15:32:42Z</time>
      </trkpt>
      <trkpt lat="45.6288" lon="6.78429">
        <ele>925</ele>
        <time>2019-04-19T15:33:42Z</time>
      </trkpt>
      <trkpt lat="45.62889" lon="6.7846">
        <ele>922</ele>
        <time>2019-04-19T15:34:42Z</time>
      </trkpt>
      <trkpt lat="45.62913" lon="6.78488">
        <ele>924</ele>
        <time>2019-04-19T15:35:42Z</time>
      </trkpt>
      <trkpt lat="45.62964" lon="6.78522">
        <ele>925</ele>
        <time>2019-04-19T15:36:42Z</time>
      </trkpt>
      <trkpt lat="45.6299" lon="6.78536">
        <ele>926</ele>
        <time>2019-04-19T15:37:42Z</time>
      </trkpt>
      <trkpt lat="45.62999" lon="6.78544">
        <ele>926</ele>
        <time>2019-04-19T15:38:42Z</time>
      </trkpt>
      <trkpt lat="45.63003" lon="6.78555">
        <ele>924</ele>
        <time>2019-04-19T15:39:42Z</time>
      </trkpt>
      <trkpt lat="45.62999" lon="6.78564">
        <ele>923</ele>
        <time>2019-04-19T15:40:42Z</time>
      </trkpt>
      <trkpt lat="45.62992" lon="6.78567">
        <ele>921</ele>
        <time>2019-04-19T15:41:42Z</time>
      </trkpt>
      <trkpt lat="45.62981" lon="6.78562">
        <ele>920</ele>
        <time>2019-04-19T15:42:42Z</time>
      </trkpt>
      <trkpt lat="45.62968" lon="6.78551">
        <ele>919</ele>
        <time>2019-04-19T15:43:42Z</time>
      </trkpt>
      <trkpt lat="45.62952" lon="6.78543">
        <ele>918</ele>
        <time>2019-04-19T15:44:42Z</time>
      </trkpt>
      <trkpt lat="45.62928" lon="6.78535">
        <ele>916</ele>
        <time>2019-04-19T15:45:42Z</time>
      </trkpt>
      <trkpt lat="45.62908" lon="6.7853">
        <ele>913</ele>
        <time>2019-04-19T15:46:42Z</time>
      </trkpt>
      <trkpt lat="45.62889" lon="6.78519">
        <ele>910</ele>
        <time>2019-04-19T15:47:42Z</time>
      </trkpt>
      <trkpt lat="45.62851" lon="6.78475">
        <ele>910</ele>
        <time>2019-04-19T15:48:42Z</time>
      </trkpt>
      <trkpt lat="45.62821" lon="6.78428">
        <ele>911</ele>
        <time>2019-04-19T15:49:42Z</time>
      </trkpt>
      <trkpt lat="45.62812" lon="6.78407">
        <ele>911</ele>
        <time>2019-04-19T15:50:42Z</time>
      </trkpt>
      <trkpt lat="45.62785" lon="6.78381">
        <ele>905</ele>
        <time>2019-04-19T15:51:42Z</time>
      </trkpt>
      <trkpt lat="45.62775" lon="6.78358">
        <ele>904</ele>
        <time>2019-04-19T15:52:42Z</time>
      </trkpt>
      <trkpt lat="45.6276" lon="6.7825">
        <ele>906</ele>
        <time>2019-04-19T15:53:42Z</time>
      </trkpt>
      <trkpt lat="45.62753" lon="6.78212">
        <ele>903</ele>
        <time>2019-04-19T15:54:42Z</time>
      </trkpt>
      <trkpt lat="45.62737" lon="6.78169">
        <ele>897</ele>
        <time>2019-04-19T15:55:42Z</time>
      </trkpt>
      <trkpt lat="45.62702" lon="6.78101">
        <ele>889</ele>
        <time>2019-04-19T15:56:42Z</time>
      </trkpt>
      <trkpt lat="45.6269" lon="6.78073">
        <ele>886</ele>
        <time>2019-04-19T15:57:42Z</time>
      </trkpt>
      <trkpt lat="45.62677" lon="6.78037">
        <ele>884</ele>
        <time>2019-04-19T15:58:42Z</time>
      </trkpt>
      <trkpt lat="45.62666" lon="6.77999">
        <ele>881</ele>
        <time>2019-04-19T15:59:42Z</time>
      </trkpt>
      <trkpt lat="45.62652" lon="6.77968">
        <ele>882</ele>
        <time>2019-04-19T16:00:42Z</time>
      </trkpt>
      <trkpt lat="45.62611" lon="6.77918">
        <ele>873</ele>
        <time>2019-04-19T16:01:42Z</time>
      </trkpt>
      <trkpt lat="45.62607" lon="6.77904">
        <ele>872</ele>
        <time>2019-04-19T16:02:42Z</time>
      </trkpt>
      <trkpt lat="45.62606" lon="6.77889">
        <ele>873</ele>
        <time>2019-04-19T16:03:42Z</time>
      </trkpt>
      <trkpt lat="45.62613" lon="6.77852">
        <ele>879</ele>
        <time>2019-04-19T16:04:42Z</time>
      </trkpt>
      <trkpt lat="45.62618" lon="6.77834">
        <ele>882</ele>
        <time>2019-04-19T16:05:42Z</time>
      </trkpt>
      <trkpt lat="45.62618" lon="6.7781">
        <ele>886</ele>
        <time>2019-04-19T16:06:42Z</time>
      </trkpt>
      <trkpt lat="45.62615" lon="6.77796">
        <ele>887</ele>
        <time>2019-04-19T16:07:42Z</time>
      </trkpt>
      <trkpt lat="45.62597" lon="6.77782">
        <ele>881</ele>
        <time>2019-04-19T16:08:42Z</time>
      </trkpt>
      <trkpt lat="45.62582" lon="6.7778">
        <ele>875</ele>
        <time>2019-04-19T16:09:42Z</time>
      </trkpt>
      <trkpt lat="45.62565" lon="6.77783">
        <ele>868</ele>
        <time>2019-04-19T16:10:42Z</time>
      </trkpt>
      <trkpt lat="45.62537" lon="6.77783">
        <ele>859</ele>
        <time>2019-04-19T16:11:42Z</time>
      </trkpt>
      <trkpt lat="45.62527" lon="6.77774">
        <ele>856</ele>
        <time>2019-04-19T16:12:42Z</time>
      </trkpt>
      <trkpt lat="45.62518" lon="6.77756">
        <ele>856</ele>
        <time>2019-04-19T16:13:42Z</time>
      </trkpt>
      <trkpt lat="45.62502" lon="6.77704">
        <ele>853</ele>
        <time>2019-04-19T16:14:42Z</time>
      </trkpt>
      <trkpt lat="45.62498" lon="6.77668">
        <ele>853</ele>
        <time>2019-04-19T16:15:42Z</time>
      </trkpt>
      <trkpt lat="45.62496" lon="6.77633">
        <ele>853</ele>
        <time>2019-04-19T16:16:42Z</time>
      </trkpt>
      <trkpt lat="45.62507" lon="6.77587">
        <ele>860</ele>
        <time>2019-04-19T16:17:42Z</time>
      </trkpt>
      <trkpt lat="45.6251" lon="6.7757">
        <ele>862</ele>
        <time>2019-04-19T16:18:42Z</time>
      </trkpt>
      <trkpt lat="45.62506" lon="6.77551">
        <ele>861</ele>
        <time>2019-04-19T16:19:42Z</time>
      </trkpt>
      <trkpt lat="45.62485" lon="6.77506">
        <ele>852</ele>
        <time>2019-04-19T16:20:42Z</time>
      </trkpt>
      <trkpt lat="45.6247" lon="6.77467">
        <ele>849</ele>
        <time>2019-04-19T16:21:42Z</time>
      </trkpt>
      <trkpt lat="45.62446" lon="6.77397">
        <ele>846</ele>
        <time>2019-04-19T16:22:42Z</time>
      </trkpt>
      <trkpt lat="45.62398" lon="6.77272">
        <ele>841</ele>
        <time>2019-04-19T16:23:42Z</time>
      </trkpt>
      <trkpt lat="45.62363" lon="6.772">
        <ele>838</ele>
        <time>2019-04-19T16:24:42Z</time>
      </trkpt>
      <trkpt lat="45.62334" lon="6.77152">
        <ele>830</ele>
        <time>2019-04-19T16:25:42Z</time>
      </trkpt>
      <trkpt lat="45.62317" lon="6.77132">
        <ele>828</ele>
        <time>2019-04-19T16:26:42Z</time>
      </trkpt>
      <trkpt lat="45.6228" lon="6.77108">
        <ele>824</ele>
        <time>2019-04-19T16:27:42Z</time>
      </trkpt>
      <trkpt lat="45.62249" lon="6.77094">
        <ele>821</ele>
        <time>2019-04-19T16:28:42Z</time>
      </trkpt>
      <trkpt lat="45.62219" lon="6.77087">
        <ele>819</ele>
        <time>2019-04-19T16:29:42Z</time>
      </trkpt>
      <trkpt lat="45.62173" lon="6.77085">
        <ele>817</ele>
        <time>2019-04-19T16:30:42Z</time>
      </trkpt>
      <trkpt lat="45.62129" lon="6.77088">
        <ele>816</ele>
        <time>2019-04-19T16:31:42Z</time>
      </trkpt>
      <trkpt lat="45.62081" lon="6.77086">
        <ele>816</ele>
        <time>2019-04-19T16:32:42Z</time>
      </trkpt>
      <trkpt lat="45.62068" lon="6.77088">
        <ele>816</ele>
        <time>2019-04-19T16:33:42Z</time>
      </trkpt>
      <trkpt lat="45.62058" lon="6.77094">
        <ele>815</ele>
        <time>2019-04-19T16:34:42Z</time>
      </trkpt>
      <trkpt lat="45.62042" lon="6.77096">
        <ele>815</ele>
        <time>2019-04-19T16:35:42Z</time>
      </trkpt>
      <trkpt lat="45.62039" lon="6.77094">
        <ele>815</ele>
        <time>2019-04-19T16:36:42Z</time>
      </trkpt>
      <trkpt lat="45.62033" lon="6.77093">
        <ele>815</ele>
        <time>2019-04-19T16:37:42Z</time>
      </trkpt>
      <trkpt lat="45.62027" lon="6.77097">
        <ele>815</ele>
        <time>2019-04-19T16:38:42Z</time>
      </trkpt>
      <trkpt lat="45.62024" lon="6.77102">
        <ele>815</ele>
        <time>2019-04-19T16:39:42Z</time>
      </trkpt>
      <trkpt lat="45.62023" lon="6.77109">
        <ele>815</ele>
        <time>2019-04-19T16:40:42Z</time>
      </trkpt>
      <trkpt lat="45.62023" lon="6.77116">
        <ele>814</ele>
        <time>2019-04-19T16:41:42Z</time>
      </trkpt>
      <trkpt lat="45.62029" lon="6.77127">
        <ele>814</ele>
        <time>2019-04-19T16:42:42Z</time>
      </trkpt>
      <trkpt lat="45.62038" lon="6.77128">
        <ele>814</ele>
        <time>2019-04-19T16:43:42Z</time>
      </trkpt>
      <trkpt lat="45.62049" lon="6.77143">
        <ele>814</ele>
        <time>2019-04-19T16:44:42Z</time>
      </trkpt>
      <trkpt lat="45.62069" lon="6.77189">
        <ele>814</ele>
        <time>2019-04-19T16:45:42Z</time>
      </trkpt>
      <trkpt lat="45.62131" lon="6.77339">
        <ele>811</ele>
        <time>2019-04-19T16:46:42Z</time>
      </trkpt>
      <trkpt lat="45.62193" lon="6.77515">
        <ele>808</ele>
        <time>2019-04-19T16:47:42Z</time>
      </trkpt>
      <trkpt lat="45.62269" lon="6.77683">
        <ele>808</ele>
        <time>2019-04-19T16:48:42Z</time>
      </trkpt>
      <trkpt lat="45.62321" lon="6.77801">
        <ele>810</ele>
        <time>2019-04-19T16:49:42Z</time>
      </trkpt>
      <trkpt lat="45.6233" lon="6.77827">
        <ele>811</ele>
        <time>2019-04-19T16:50:42Z</time>
      </trkpt>
      <trkpt lat="45.62328" lon="6.77833">
        <ele>811</ele>
        <time>2019-04-19T16:51:42Z</time>
      </trkpt>
      <trkpt lat="45.62329" lon="6.77846">
        <ele>811</ele>
        <time>2019-04-19T16:52:42Z</time>
      </trkpt>
      <trkpt lat="45.62331" lon="6.77851">
        <ele>811</ele>
        <time>2019-04-19T16:53:42Z</time>
      </trkpt>
      <trkpt lat="45.62318" lon="6.78131">
        <ele>814</ele>
        <time>2019-04-19T16:54:42Z</time>
      </trkpt>
      <trkpt lat="45.62319" lon="6.78159">
        <ele>814</ele>
        <time>2019-04-19T16:55:42Z</time>
      </trkpt>
      <trkpt lat="45.62316" lon="6.78217">
        <ele>815</ele>
        <time>2019-04-19T16:56:42Z</time>
      </trkpt>
      <trkpt lat="45.62307" lon="6.78298">
        <ele>816</ele>
        <time>2019-04-19T16:57:42Z</time>
      </trkpt>
      <trkpt lat="45.62287" lon="6.78396">
        <ele>817</ele>
        <time>2019-04-19T16:58:42Z</time>
      </trkpt>
      <trkpt lat="45.62265" lon="6.78487">
        <ele>819</ele>
        <time>2019-04-19T16:59:42Z</time>
      </trkpt>
    </trkseg>
  </trk>
</gpx>